<?xml version="1.0" encoding="UTF-8"?>
<gpx xmlns="http://www.topografix.com/GPX/1/1"
     creator="GpsDumpMac 0.27"
     version="1.1"
     xmlns:xsi="http://www.w3.org/2001/XMLSchema-instance"
     xsi:schemaLocation="http://www.topografix.com/GPX/1/1 http://www.topografix.com/GPX/1/1/gpx.xsd">
  <metadata>
    <link href="http://www.gethome.no/stein.sorensen/">
      <text>GPS dump for www.flightlog.org</text>
    </link>
    <time>2015-03-17T17:36:05Z</time>
    <bounds minlat="40.237367" minlon="-4.906067" maxlat="40.333167" maxlon="-4.573350"/>
  </metadata>
  <trk>
    <name>Track 001</name>
    <trkseg>
      <trkpt lat="40.256233" lon="-4.905983">
        <ele>1241.0</ele>
        <time>2015-03-15T13:26:24Z</time>
      </trkpt>
      <trkpt lat="40.256117" lon="-4.906050">
        <ele>1249.0</ele>
        <time>2015-03-15T13:26:26Z</time>
      </trkpt>
      <trkpt lat="40.255983" lon="-4.906067">
        <ele>1251.0</ele>
        <time>2015-03-15T13:26:28Z</time>
      </trkpt>
      <trkpt lat="40.255850" lon="-4.906050">
        <ele>1252.0</ele>
        <time>2015-03-15T13:26:30Z</time>
      </trkpt>
      <trkpt lat="40.255717" lon="-4.906067">
        <ele>1254.0</ele>
        <time>2015-03-15T13:26:32Z</time>
      </trkpt>
      <trkpt lat="40.255600" lon="-4.906067">
        <ele>1256.0</ele>
        <time>2015-03-15T13:26:34Z</time>
      </trkpt>
      <trkpt lat="40.255483" lon="-4.906000">
        <ele>1261.0</ele>
        <time>2015-03-15T13:26:36Z</time>
      </trkpt>
      <trkpt lat="40.255383" lon="-4.905917">
        <ele>1265.0</ele>
        <time>2015-03-15T13:26:38Z</time>
      </trkpt>
      <trkpt lat="40.255300" lon="-4.905767">
        <ele>1266.0</ele>
        <time>2015-03-15T13:26:40Z</time>
      </trkpt>
      <trkpt lat="40.255233" lon="-4.905533">
        <ele>1266.0</ele>
        <time>2015-03-15T13:26:42Z</time>
      </trkpt>
      <trkpt lat="40.255150" lon="-4.905383">
        <ele>1264.0</ele>
        <time>2015-03-15T13:26:44Z</time>
      </trkpt>
      <trkpt lat="40.255033" lon="-4.905283">
        <ele>1262.0</ele>
        <time>2015-03-15T13:26:46Z</time>
      </trkpt>
      <trkpt lat="40.254900" lon="-4.905217">
        <ele>1264.0</ele>
        <time>2015-03-15T13:26:48Z</time>
      </trkpt>
      <trkpt lat="40.254800" lon="-4.905200">
        <ele>1266.0</ele>
        <time>2015-03-15T13:26:50Z</time>
      </trkpt>
      <trkpt lat="40.254683" lon="-4.905183">
        <ele>1268.0</ele>
        <time>2015-03-15T13:26:52Z</time>
      </trkpt>
      <trkpt lat="40.254583" lon="-4.905150">
        <ele>1268.0</ele>
        <time>2015-03-15T13:26:54Z</time>
      </trkpt>
      <trkpt lat="40.254467" lon="-4.905067">
        <ele>1264.0</ele>
        <time>2015-03-15T13:26:56Z</time>
      </trkpt>
      <trkpt lat="40.254333" lon="-4.904983">
        <ele>1263.0</ele>
        <time>2015-03-15T13:26:58Z</time>
      </trkpt>
      <trkpt lat="40.254217" lon="-4.904983">
        <ele>1262.0</ele>
        <time>2015-03-15T13:27:00Z</time>
      </trkpt>
      <trkpt lat="40.254100" lon="-4.904967">
        <ele>1262.0</ele>
        <time>2015-03-15T13:27:02Z</time>
      </trkpt>
      <trkpt lat="40.253967" lon="-4.904950">
        <ele>1261.0</ele>
        <time>2015-03-15T13:27:04Z</time>
      </trkpt>
      <trkpt lat="40.253850" lon="-4.904933">
        <ele>1262.0</ele>
        <time>2015-03-15T13:27:06Z</time>
      </trkpt>
      <trkpt lat="40.253750" lon="-4.904917">
        <ele>1263.0</ele>
        <time>2015-03-15T13:27:08Z</time>
      </trkpt>
      <trkpt lat="40.253650" lon="-4.904900">
        <ele>1262.0</ele>
        <time>2015-03-15T13:27:10Z</time>
      </trkpt>
      <trkpt lat="40.253533" lon="-4.904867">
        <ele>1262.0</ele>
        <time>2015-03-15T13:27:12Z</time>
      </trkpt>
      <trkpt lat="40.253417" lon="-4.904833">
        <ele>1262.0</ele>
        <time>2015-03-15T13:27:14Z</time>
      </trkpt>
      <trkpt lat="40.253317" lon="-4.904767">
        <ele>1262.0</ele>
        <time>2015-03-15T13:27:16Z</time>
      </trkpt>
      <trkpt lat="40.253200" lon="-4.904717">
        <ele>1259.0</ele>
        <time>2015-03-15T13:27:18Z</time>
      </trkpt>
      <trkpt lat="40.253067" lon="-4.904650">
        <ele>1258.0</ele>
        <time>2015-03-15T13:27:20Z</time>
      </trkpt>
      <trkpt lat="40.252983" lon="-4.904583">
        <ele>1259.0</ele>
        <time>2015-03-15T13:27:22Z</time>
      </trkpt>
      <trkpt lat="40.252883" lon="-4.904483">
        <ele>1256.0</ele>
        <time>2015-03-15T13:27:24Z</time>
      </trkpt>
      <trkpt lat="40.252733" lon="-4.904400">
        <ele>1250.0</ele>
        <time>2015-03-15T13:27:26Z</time>
      </trkpt>
      <trkpt lat="40.252583" lon="-4.904350">
        <ele>1251.0</ele>
        <time>2015-03-15T13:27:28Z</time>
      </trkpt>
      <trkpt lat="40.252483" lon="-4.904300">
        <ele>1251.0</ele>
        <time>2015-03-15T13:27:30Z</time>
      </trkpt>
      <trkpt lat="40.252350" lon="-4.904250">
        <ele>1251.0</ele>
        <time>2015-03-15T13:27:32Z</time>
      </trkpt>
      <trkpt lat="40.252217" lon="-4.904167">
        <ele>1252.0</ele>
        <time>2015-03-15T13:27:34Z</time>
      </trkpt>
      <trkpt lat="40.252083" lon="-4.904100">
        <ele>1254.0</ele>
        <time>2015-03-15T13:27:36Z</time>
      </trkpt>
      <trkpt lat="40.251933" lon="-4.904067">
        <ele>1257.0</ele>
        <time>2015-03-15T13:27:38Z</time>
      </trkpt>
      <trkpt lat="40.251800" lon="-4.903983">
        <ele>1259.0</ele>
        <time>2015-03-15T13:27:40Z</time>
      </trkpt>
      <trkpt lat="40.251683" lon="-4.903883">
        <ele>1261.0</ele>
        <time>2015-03-15T13:27:42Z</time>
      </trkpt>
      <trkpt lat="40.251567" lon="-4.903783">
        <ele>1261.0</ele>
        <time>2015-03-15T13:27:44Z</time>
      </trkpt>
      <trkpt lat="40.251433" lon="-4.903650">
        <ele>1259.0</ele>
        <time>2015-03-15T13:27:46Z</time>
      </trkpt>
      <trkpt lat="40.251300" lon="-4.903533">
        <ele>1259.0</ele>
        <time>2015-03-15T13:27:48Z</time>
      </trkpt>
      <trkpt lat="40.251183" lon="-4.903450">
        <ele>1259.0</ele>
        <time>2015-03-15T13:27:50Z</time>
      </trkpt>
      <trkpt lat="40.251067" lon="-4.903367">
        <ele>1259.0</ele>
        <time>2015-03-15T13:27:52Z</time>
      </trkpt>
      <trkpt lat="40.250950" lon="-4.903300">
        <ele>1258.0</ele>
        <time>2015-03-15T13:27:54Z</time>
      </trkpt>
      <trkpt lat="40.250817" lon="-4.903233">
        <ele>1259.0</ele>
        <time>2015-03-15T13:27:56Z</time>
      </trkpt>
      <trkpt lat="40.250700" lon="-4.903167">
        <ele>1263.0</ele>
        <time>2015-03-15T13:27:58Z</time>
      </trkpt>
      <trkpt lat="40.250600" lon="-4.903117">
        <ele>1265.0</ele>
        <time>2015-03-15T13:28:00Z</time>
      </trkpt>
      <trkpt lat="40.250467" lon="-4.903150">
        <ele>1265.0</ele>
        <time>2015-03-15T13:28:02Z</time>
      </trkpt>
      <trkpt lat="40.250333" lon="-4.903233">
        <ele>1269.0</ele>
        <time>2015-03-15T13:28:04Z</time>
      </trkpt>
      <trkpt lat="40.250233" lon="-4.903200">
        <ele>1274.0</ele>
        <time>2015-03-15T13:28:06Z</time>
      </trkpt>
      <trkpt lat="40.250183" lon="-4.903100">
        <ele>1279.0</ele>
        <time>2015-03-15T13:28:08Z</time>
      </trkpt>
      <trkpt lat="40.250133" lon="-4.902950">
        <ele>1281.0</ele>
        <time>2015-03-15T13:28:10Z</time>
      </trkpt>
      <trkpt lat="40.250167" lon="-4.902683">
        <ele>1283.0</ele>
        <time>2015-03-15T13:28:12Z</time>
      </trkpt>
      <trkpt lat="40.250267" lon="-4.902433">
        <ele>1291.0</ele>
        <time>2015-03-15T13:28:14Z</time>
      </trkpt>
      <trkpt lat="40.250433" lon="-4.902267">
        <ele>1297.0</ele>
        <time>2015-03-15T13:28:16Z</time>
      </trkpt>
      <trkpt lat="40.250633" lon="-4.902217">
        <ele>1301.0</ele>
        <time>2015-03-15T13:28:18Z</time>
      </trkpt>
      <trkpt lat="40.250850" lon="-4.902283">
        <ele>1304.0</ele>
        <time>2015-03-15T13:28:20Z</time>
      </trkpt>
      <trkpt lat="40.250983" lon="-4.902400">
        <ele>1306.0</ele>
        <time>2015-03-15T13:28:22Z</time>
      </trkpt>
      <trkpt lat="40.251033" lon="-4.902583">
        <ele>1306.0</ele>
        <time>2015-03-15T13:28:24Z</time>
      </trkpt>
      <trkpt lat="40.250967" lon="-4.902767">
        <ele>1306.0</ele>
        <time>2015-03-15T13:28:26Z</time>
      </trkpt>
      <trkpt lat="40.250900" lon="-4.902900">
        <ele>1314.0</ele>
        <time>2015-03-15T13:28:28Z</time>
      </trkpt>
      <trkpt lat="40.250867" lon="-4.902983">
        <ele>1317.0</ele>
        <time>2015-03-15T13:28:30Z</time>
      </trkpt>
      <trkpt lat="40.250783" lon="-4.903033">
        <ele>1318.0</ele>
        <time>2015-03-15T13:28:32Z</time>
      </trkpt>
      <trkpt lat="40.250667" lon="-4.902967">
        <ele>1320.0</ele>
        <time>2015-03-15T13:28:34Z</time>
      </trkpt>
      <trkpt lat="40.250617" lon="-4.902817">
        <ele>1326.0</ele>
        <time>2015-03-15T13:28:36Z</time>
      </trkpt>
      <trkpt lat="40.250633" lon="-4.902700">
        <ele>1330.0</ele>
        <time>2015-03-15T13:28:38Z</time>
      </trkpt>
      <trkpt lat="40.250683" lon="-4.902517">
        <ele>1329.0</ele>
        <time>2015-03-15T13:28:40Z</time>
      </trkpt>
      <trkpt lat="40.250800" lon="-4.902300">
        <ele>1332.0</ele>
        <time>2015-03-15T13:28:42Z</time>
      </trkpt>
      <trkpt lat="40.250917" lon="-4.902150">
        <ele>1341.0</ele>
        <time>2015-03-15T13:28:44Z</time>
      </trkpt>
      <trkpt lat="40.251050" lon="-4.902050">
        <ele>1345.0</ele>
        <time>2015-03-15T13:28:46Z</time>
      </trkpt>
      <trkpt lat="40.251250" lon="-4.901917">
        <ele>1348.0</ele>
        <time>2015-03-15T13:28:48Z</time>
      </trkpt>
      <trkpt lat="40.251483" lon="-4.901867">
        <ele>1354.0</ele>
        <time>2015-03-15T13:28:50Z</time>
      </trkpt>
      <trkpt lat="40.251667" lon="-4.901917">
        <ele>1360.0</ele>
        <time>2015-03-15T13:28:52Z</time>
      </trkpt>
      <trkpt lat="40.251800" lon="-4.902067">
        <ele>1362.0</ele>
        <time>2015-03-15T13:28:54Z</time>
      </trkpt>
      <trkpt lat="40.251833" lon="-4.902283">
        <ele>1364.0</ele>
        <time>2015-03-15T13:28:56Z</time>
      </trkpt>
      <trkpt lat="40.251817" lon="-4.902483">
        <ele>1370.0</ele>
        <time>2015-03-15T13:28:58Z</time>
      </trkpt>
      <trkpt lat="40.251800" lon="-4.902617">
        <ele>1375.0</ele>
        <time>2015-03-15T13:29:00Z</time>
      </trkpt>
      <trkpt lat="40.251750" lon="-4.902750">
        <ele>1378.0</ele>
        <time>2015-03-15T13:29:02Z</time>
      </trkpt>
      <trkpt lat="40.251667" lon="-4.902817">
        <ele>1384.0</ele>
        <time>2015-03-15T13:29:04Z</time>
      </trkpt>
      <trkpt lat="40.251617" lon="-4.902833">
        <ele>1390.0</ele>
        <time>2015-03-15T13:29:06Z</time>
      </trkpt>
      <trkpt lat="40.251550" lon="-4.902800">
        <ele>1393.0</ele>
        <time>2015-03-15T13:29:08Z</time>
      </trkpt>
      <trkpt lat="40.251483" lon="-4.902700">
        <ele>1396.0</ele>
        <time>2015-03-15T13:29:10Z</time>
      </trkpt>
      <trkpt lat="40.251450" lon="-4.902633">
        <ele>1400.0</ele>
        <time>2015-03-15T13:29:12Z</time>
      </trkpt>
      <trkpt lat="40.251433" lon="-4.902517">
        <ele>1401.0</ele>
        <time>2015-03-15T13:29:14Z</time>
      </trkpt>
      <trkpt lat="40.251433" lon="-4.902383">
        <ele>1404.0</ele>
        <time>2015-03-15T13:29:16Z</time>
      </trkpt>
      <trkpt lat="40.251450" lon="-4.902233">
        <ele>1407.0</ele>
        <time>2015-03-15T13:29:18Z</time>
      </trkpt>
      <trkpt lat="40.251483" lon="-4.902083">
        <ele>1411.0</ele>
        <time>2015-03-15T13:29:20Z</time>
      </trkpt>
      <trkpt lat="40.251617" lon="-4.901933">
        <ele>1418.0</ele>
        <time>2015-03-15T13:29:22Z</time>
      </trkpt>
      <trkpt lat="40.251783" lon="-4.901900">
        <ele>1426.0</ele>
        <time>2015-03-15T13:29:24Z</time>
      </trkpt>
      <trkpt lat="40.251933" lon="-4.901967">
        <ele>1432.0</ele>
        <time>2015-03-15T13:29:26Z</time>
      </trkpt>
      <trkpt lat="40.252100" lon="-4.902117">
        <ele>1438.0</ele>
        <time>2015-03-15T13:29:28Z</time>
      </trkpt>
      <trkpt lat="40.252200" lon="-4.902317">
        <ele>1447.0</ele>
        <time>2015-03-15T13:29:30Z</time>
      </trkpt>
      <trkpt lat="40.252250" lon="-4.902533">
        <ele>1454.0</ele>
        <time>2015-03-15T13:29:32Z</time>
      </trkpt>
      <trkpt lat="40.252233" lon="-4.902750">
        <ele>1462.0</ele>
        <time>2015-03-15T13:29:34Z</time>
      </trkpt>
      <trkpt lat="40.252167" lon="-4.902867">
        <ele>1469.0</ele>
        <time>2015-03-15T13:29:36Z</time>
      </trkpt>
      <trkpt lat="40.252133" lon="-4.902900">
        <ele>1475.0</ele>
        <time>2015-03-15T13:29:38Z</time>
      </trkpt>
      <trkpt lat="40.252083" lon="-4.902850">
        <ele>1477.0</ele>
        <time>2015-03-15T13:29:40Z</time>
      </trkpt>
      <trkpt lat="40.252067" lon="-4.902683">
        <ele>1480.0</ele>
        <time>2015-03-15T13:29:42Z</time>
      </trkpt>
      <trkpt lat="40.252117" lon="-4.902550">
        <ele>1488.0</ele>
        <time>2015-03-15T13:29:44Z</time>
      </trkpt>
      <trkpt lat="40.252183" lon="-4.902450">
        <ele>1495.0</ele>
        <time>2015-03-15T13:29:46Z</time>
      </trkpt>
      <trkpt lat="40.252333" lon="-4.902350">
        <ele>1501.0</ele>
        <time>2015-03-15T13:29:48Z</time>
      </trkpt>
      <trkpt lat="40.252567" lon="-4.902317">
        <ele>1509.0</ele>
        <time>2015-03-15T13:29:50Z</time>
      </trkpt>
      <trkpt lat="40.252767" lon="-4.902333">
        <ele>1520.0</ele>
        <time>2015-03-15T13:29:52Z</time>
      </trkpt>
      <trkpt lat="40.252950" lon="-4.902400">
        <ele>1526.0</ele>
        <time>2015-03-15T13:29:54Z</time>
      </trkpt>
      <trkpt lat="40.253150" lon="-4.902517">
        <ele>1529.0</ele>
        <time>2015-03-15T13:29:56Z</time>
      </trkpt>
      <trkpt lat="40.253317" lon="-4.902700">
        <ele>1536.0</ele>
        <time>2015-03-15T13:29:58Z</time>
      </trkpt>
      <trkpt lat="40.253367" lon="-4.902883">
        <ele>1543.0</ele>
        <time>2015-03-15T13:30:00Z</time>
      </trkpt>
      <trkpt lat="40.253433" lon="-4.903083">
        <ele>1546.0</ele>
        <time>2015-03-15T13:30:02Z</time>
      </trkpt>
      <trkpt lat="40.253517" lon="-4.903317">
        <ele>1549.0</ele>
        <time>2015-03-15T13:30:04Z</time>
      </trkpt>
      <trkpt lat="40.253517" lon="-4.903500">
        <ele>1551.0</ele>
        <time>2015-03-15T13:30:06Z</time>
      </trkpt>
      <trkpt lat="40.253517" lon="-4.903633">
        <ele>1553.0</ele>
        <time>2015-03-15T13:30:08Z</time>
      </trkpt>
      <trkpt lat="40.253500" lon="-4.903783">
        <ele>1553.0</ele>
        <time>2015-03-15T13:30:10Z</time>
      </trkpt>
      <trkpt lat="40.253467" lon="-4.903883">
        <ele>1553.0</ele>
        <time>2015-03-15T13:30:12Z</time>
      </trkpt>
      <trkpt lat="40.253400" lon="-4.903950">
        <ele>1553.0</ele>
        <time>2015-03-15T13:30:14Z</time>
      </trkpt>
      <trkpt lat="40.253333" lon="-4.903967">
        <ele>1552.0</ele>
        <time>2015-03-15T13:30:16Z</time>
      </trkpt>
      <trkpt lat="40.253250" lon="-4.903933">
        <ele>1551.0</ele>
        <time>2015-03-15T13:30:18Z</time>
      </trkpt>
      <trkpt lat="40.253183" lon="-4.903867">
        <ele>1552.0</ele>
        <time>2015-03-15T13:30:20Z</time>
      </trkpt>
      <trkpt lat="40.253117" lon="-4.903800">
        <ele>1553.0</ele>
        <time>2015-03-15T13:30:22Z</time>
      </trkpt>
      <trkpt lat="40.253067" lon="-4.903683">
        <ele>1549.0</ele>
        <time>2015-03-15T13:30:24Z</time>
      </trkpt>
      <trkpt lat="40.253017" lon="-4.903500">
        <ele>1546.0</ele>
        <time>2015-03-15T13:30:26Z</time>
      </trkpt>
      <trkpt lat="40.252967" lon="-4.903367">
        <ele>1552.0</ele>
        <time>2015-03-15T13:30:28Z</time>
      </trkpt>
      <trkpt lat="40.252933" lon="-4.903300">
        <ele>1556.0</ele>
        <time>2015-03-15T13:30:30Z</time>
      </trkpt>
      <trkpt lat="40.252917" lon="-4.903167">
        <ele>1554.0</ele>
        <time>2015-03-15T13:30:32Z</time>
      </trkpt>
      <trkpt lat="40.252967" lon="-4.902950">
        <ele>1552.0</ele>
        <time>2015-03-15T13:30:34Z</time>
      </trkpt>
      <trkpt lat="40.253050" lon="-4.902733">
        <ele>1557.0</ele>
        <time>2015-03-15T13:30:36Z</time>
      </trkpt>
      <trkpt lat="40.253183" lon="-4.902550">
        <ele>1566.0</ele>
        <time>2015-03-15T13:30:38Z</time>
      </trkpt>
      <trkpt lat="40.253350" lon="-4.902433">
        <ele>1572.0</ele>
        <time>2015-03-15T13:30:40Z</time>
      </trkpt>
      <trkpt lat="40.253550" lon="-4.902400">
        <ele>1577.0</ele>
        <time>2015-03-15T13:30:42Z</time>
      </trkpt>
      <trkpt lat="40.253750" lon="-4.902467">
        <ele>1579.0</ele>
        <time>2015-03-15T13:30:44Z</time>
      </trkpt>
      <trkpt lat="40.253950" lon="-4.902617">
        <ele>1581.0</ele>
        <time>2015-03-15T13:30:46Z</time>
      </trkpt>
      <trkpt lat="40.254117" lon="-4.902817">
        <ele>1584.0</ele>
        <time>2015-03-15T13:30:48Z</time>
      </trkpt>
      <trkpt lat="40.254200" lon="-4.903067">
        <ele>1586.0</ele>
        <time>2015-03-15T13:30:50Z</time>
      </trkpt>
      <trkpt lat="40.254217" lon="-4.903283">
        <ele>1589.0</ele>
        <time>2015-03-15T13:30:52Z</time>
      </trkpt>
      <trkpt lat="40.254217" lon="-4.903450">
        <ele>1590.0</ele>
        <time>2015-03-15T13:30:54Z</time>
      </trkpt>
      <trkpt lat="40.254183" lon="-4.903567">
        <ele>1590.0</ele>
        <time>2015-03-15T13:30:56Z</time>
      </trkpt>
      <trkpt lat="40.254117" lon="-4.903600">
        <ele>1589.0</ele>
        <time>2015-03-15T13:30:58Z</time>
      </trkpt>
      <trkpt lat="40.254017" lon="-4.903567">
        <ele>1589.0</ele>
        <time>2015-03-15T13:31:00Z</time>
      </trkpt>
      <trkpt lat="40.253933" lon="-4.903550">
        <ele>1589.0</ele>
        <time>2015-03-15T13:31:02Z</time>
      </trkpt>
      <trkpt lat="40.253850" lon="-4.903500">
        <ele>1589.0</ele>
        <time>2015-03-15T13:31:04Z</time>
      </trkpt>
      <trkpt lat="40.253783" lon="-4.903483">
        <ele>1589.0</ele>
        <time>2015-03-15T13:31:06Z</time>
      </trkpt>
      <trkpt lat="40.253700" lon="-4.903450">
        <ele>1590.0</ele>
        <time>2015-03-15T13:31:08Z</time>
      </trkpt>
      <trkpt lat="40.253600" lon="-4.903400">
        <ele>1590.0</ele>
        <time>2015-03-15T13:31:10Z</time>
      </trkpt>
      <trkpt lat="40.253500" lon="-4.903367">
        <ele>1589.0</ele>
        <time>2015-03-15T13:31:12Z</time>
      </trkpt>
      <trkpt lat="40.253400" lon="-4.903317">
        <ele>1589.0</ele>
        <time>2015-03-15T13:31:14Z</time>
      </trkpt>
      <trkpt lat="40.253300" lon="-4.903267">
        <ele>1592.0</ele>
        <time>2015-03-15T13:31:16Z</time>
      </trkpt>
      <trkpt lat="40.253200" lon="-4.903233">
        <ele>1595.0</ele>
        <time>2015-03-15T13:31:18Z</time>
      </trkpt>
      <trkpt lat="40.253117" lon="-4.903183">
        <ele>1597.0</ele>
        <time>2015-03-15T13:31:20Z</time>
      </trkpt>
      <trkpt lat="40.253033" lon="-4.903100">
        <ele>1600.0</ele>
        <time>2015-03-15T13:31:22Z</time>
      </trkpt>
      <trkpt lat="40.252950" lon="-4.903017">
        <ele>1604.0</ele>
        <time>2015-03-15T13:31:24Z</time>
      </trkpt>
      <trkpt lat="40.252900" lon="-4.902900">
        <ele>1608.0</ele>
        <time>2015-03-15T13:31:26Z</time>
      </trkpt>
      <trkpt lat="40.252867" lon="-4.902750">
        <ele>1612.0</ele>
        <time>2015-03-15T13:31:28Z</time>
      </trkpt>
      <trkpt lat="40.252833" lon="-4.902550">
        <ele>1616.0</ele>
        <time>2015-03-15T13:31:30Z</time>
      </trkpt>
      <trkpt lat="40.252850" lon="-4.902350">
        <ele>1625.0</ele>
        <time>2015-03-15T13:31:32Z</time>
      </trkpt>
      <trkpt lat="40.252917" lon="-4.902183">
        <ele>1629.0</ele>
        <time>2015-03-15T13:31:34Z</time>
      </trkpt>
      <trkpt lat="40.253083" lon="-4.902017">
        <ele>1631.0</ele>
        <time>2015-03-15T13:31:36Z</time>
      </trkpt>
      <trkpt lat="40.253267" lon="-4.901967">
        <ele>1637.0</ele>
        <time>2015-03-15T13:31:38Z</time>
      </trkpt>
      <trkpt lat="40.253450" lon="-4.902100">
        <ele>1641.0</ele>
        <time>2015-03-15T13:31:40Z</time>
      </trkpt>
      <trkpt lat="40.253533" lon="-4.902300">
        <ele>1645.0</ele>
        <time>2015-03-15T13:31:42Z</time>
      </trkpt>
      <trkpt lat="40.253583" lon="-4.902483">
        <ele>1649.0</ele>
        <time>2015-03-15T13:31:44Z</time>
      </trkpt>
      <trkpt lat="40.253567" lon="-4.902700">
        <ele>1650.0</ele>
        <time>2015-03-15T13:31:46Z</time>
      </trkpt>
      <trkpt lat="40.253483" lon="-4.902883">
        <ele>1655.0</ele>
        <time>2015-03-15T13:31:48Z</time>
      </trkpt>
      <trkpt lat="40.253417" lon="-4.903000">
        <ele>1663.0</ele>
        <time>2015-03-15T13:31:50Z</time>
      </trkpt>
      <trkpt lat="40.253350" lon="-4.903117">
        <ele>1670.0</ele>
        <time>2015-03-15T13:31:52Z</time>
      </trkpt>
      <trkpt lat="40.253283" lon="-4.903217">
        <ele>1674.0</ele>
        <time>2015-03-15T13:31:54Z</time>
      </trkpt>
      <trkpt lat="40.253183" lon="-4.903217">
        <ele>1677.0</ele>
        <time>2015-03-15T13:31:56Z</time>
      </trkpt>
      <trkpt lat="40.253117" lon="-4.903167">
        <ele>1683.0</ele>
        <time>2015-03-15T13:31:58Z</time>
      </trkpt>
      <trkpt lat="40.253083" lon="-4.903033">
        <ele>1685.0</ele>
        <time>2015-03-15T13:32:00Z</time>
      </trkpt>
      <trkpt lat="40.253083" lon="-4.902833">
        <ele>1686.0</ele>
        <time>2015-03-15T13:32:02Z</time>
      </trkpt>
      <trkpt lat="40.253167" lon="-4.902600">
        <ele>1690.0</ele>
        <time>2015-03-15T13:32:04Z</time>
      </trkpt>
      <trkpt lat="40.253300" lon="-4.902433">
        <ele>1698.0</ele>
        <time>2015-03-15T13:32:06Z</time>
      </trkpt>
      <trkpt lat="40.253483" lon="-4.902333">
        <ele>1704.0</ele>
        <time>2015-03-15T13:32:08Z</time>
      </trkpt>
      <trkpt lat="40.253650" lon="-4.902267">
        <ele>1710.0</ele>
        <time>2015-03-15T13:32:10Z</time>
      </trkpt>
      <trkpt lat="40.253850" lon="-4.902333">
        <ele>1712.0</ele>
        <time>2015-03-15T13:32:12Z</time>
      </trkpt>
      <trkpt lat="40.254000" lon="-4.902500">
        <ele>1717.0</ele>
        <time>2015-03-15T13:32:14Z</time>
      </trkpt>
      <trkpt lat="40.254117" lon="-4.902683">
        <ele>1724.0</ele>
        <time>2015-03-15T13:32:16Z</time>
      </trkpt>
      <trkpt lat="40.254167" lon="-4.902900">
        <ele>1727.0</ele>
        <time>2015-03-15T13:32:18Z</time>
      </trkpt>
      <trkpt lat="40.254133" lon="-4.903150">
        <ele>1732.0</ele>
        <time>2015-03-15T13:32:20Z</time>
      </trkpt>
      <trkpt lat="40.254100" lon="-4.903267">
        <ele>1741.0</ele>
        <time>2015-03-15T13:32:22Z</time>
      </trkpt>
      <trkpt lat="40.254050" lon="-4.903333">
        <ele>1745.0</ele>
        <time>2015-03-15T13:32:24Z</time>
      </trkpt>
      <trkpt lat="40.253950" lon="-4.903367">
        <ele>1748.0</ele>
        <time>2015-03-15T13:32:26Z</time>
      </trkpt>
      <trkpt lat="40.253850" lon="-4.903283">
        <ele>1752.0</ele>
        <time>2015-03-15T13:32:28Z</time>
      </trkpt>
      <trkpt lat="40.253817" lon="-4.903167">
        <ele>1757.0</ele>
        <time>2015-03-15T13:32:30Z</time>
      </trkpt>
      <trkpt lat="40.253817" lon="-4.903000">
        <ele>1761.0</ele>
        <time>2015-03-15T13:32:32Z</time>
      </trkpt>
      <trkpt lat="40.253850" lon="-4.902767">
        <ele>1764.0</ele>
        <time>2015-03-15T13:32:34Z</time>
      </trkpt>
      <trkpt lat="40.253983" lon="-4.902533">
        <ele>1772.0</ele>
        <time>2015-03-15T13:32:36Z</time>
      </trkpt>
      <trkpt lat="40.254133" lon="-4.902383">
        <ele>1778.0</ele>
        <time>2015-03-15T13:32:38Z</time>
      </trkpt>
      <trkpt lat="40.254300" lon="-4.902250">
        <ele>1784.0</ele>
        <time>2015-03-15T13:32:40Z</time>
      </trkpt>
      <trkpt lat="40.254483" lon="-4.902233">
        <ele>1787.0</ele>
        <time>2015-03-15T13:32:42Z</time>
      </trkpt>
      <trkpt lat="40.254667" lon="-4.902350">
        <ele>1792.0</ele>
        <time>2015-03-15T13:32:44Z</time>
      </trkpt>
      <trkpt lat="40.254767" lon="-4.902533">
        <ele>1796.0</ele>
        <time>2015-03-15T13:32:46Z</time>
      </trkpt>
      <trkpt lat="40.254850" lon="-4.902750">
        <ele>1798.0</ele>
        <time>2015-03-15T13:32:48Z</time>
      </trkpt>
      <trkpt lat="40.254867" lon="-4.903017">
        <ele>1802.0</ele>
        <time>2015-03-15T13:32:50Z</time>
      </trkpt>
      <trkpt lat="40.254833" lon="-4.903233">
        <ele>1811.0</ele>
        <time>2015-03-15T13:32:52Z</time>
      </trkpt>
      <trkpt lat="40.254800" lon="-4.903367">
        <ele>1817.0</ele>
        <time>2015-03-15T13:32:54Z</time>
      </trkpt>
      <trkpt lat="40.254717" lon="-4.903450">
        <ele>1820.0</ele>
        <time>2015-03-15T13:32:56Z</time>
      </trkpt>
      <trkpt lat="40.254617" lon="-4.903450">
        <ele>1823.0</ele>
        <time>2015-03-15T13:32:58Z</time>
      </trkpt>
      <trkpt lat="40.254567" lon="-4.903350">
        <ele>1826.0</ele>
        <time>2015-03-15T13:33:00Z</time>
      </trkpt>
      <trkpt lat="40.254517" lon="-4.903267">
        <ele>1827.0</ele>
        <time>2015-03-15T13:33:02Z</time>
      </trkpt>
      <trkpt lat="40.254433" lon="-4.903150">
        <ele>1828.0</ele>
        <time>2015-03-15T13:33:04Z</time>
      </trkpt>
      <trkpt lat="40.254333" lon="-4.903067">
        <ele>1830.0</ele>
        <time>2015-03-15T13:33:06Z</time>
      </trkpt>
      <trkpt lat="40.254233" lon="-4.902967">
        <ele>1831.0</ele>
        <time>2015-03-15T13:33:08Z</time>
      </trkpt>
      <trkpt lat="40.254150" lon="-4.902833">
        <ele>1832.0</ele>
        <time>2015-03-15T13:33:10Z</time>
      </trkpt>
      <trkpt lat="40.254067" lon="-4.902683">
        <ele>1834.0</ele>
        <time>2015-03-15T13:33:12Z</time>
      </trkpt>
      <trkpt lat="40.254017" lon="-4.902517">
        <ele>1834.0</ele>
        <time>2015-03-15T13:33:14Z</time>
      </trkpt>
      <trkpt lat="40.253967" lon="-4.902283">
        <ele>1836.0</ele>
        <time>2015-03-15T13:33:16Z</time>
      </trkpt>
      <trkpt lat="40.253900" lon="-4.902067">
        <ele>1837.0</ele>
        <time>2015-03-15T13:33:18Z</time>
      </trkpt>
      <trkpt lat="40.253800" lon="-4.901900">
        <ele>1838.0</ele>
        <time>2015-03-15T13:33:20Z</time>
      </trkpt>
      <trkpt lat="40.253700" lon="-4.901800">
        <ele>1839.0</ele>
        <time>2015-03-15T13:33:22Z</time>
      </trkpt>
      <trkpt lat="40.253567" lon="-4.901733">
        <ele>1843.0</ele>
        <time>2015-03-15T13:33:24Z</time>
      </trkpt>
      <trkpt lat="40.253467" lon="-4.901700">
        <ele>1845.0</ele>
        <time>2015-03-15T13:33:26Z</time>
      </trkpt>
      <trkpt lat="40.253333" lon="-4.901733">
        <ele>1843.0</ele>
        <time>2015-03-15T13:33:28Z</time>
      </trkpt>
      <trkpt lat="40.253183" lon="-4.901767">
        <ele>1843.0</ele>
        <time>2015-03-15T13:33:30Z</time>
      </trkpt>
      <trkpt lat="40.253050" lon="-4.901733">
        <ele>1846.0</ele>
        <time>2015-03-15T13:33:32Z</time>
      </trkpt>
      <trkpt lat="40.252933" lon="-4.901650">
        <ele>1846.0</ele>
        <time>2015-03-15T13:33:34Z</time>
      </trkpt>
      <trkpt lat="40.252817" lon="-4.901517">
        <ele>1845.0</ele>
        <time>2015-03-15T13:33:36Z</time>
      </trkpt>
      <trkpt lat="40.252683" lon="-4.901317">
        <ele>1845.0</ele>
        <time>2015-03-15T13:33:38Z</time>
      </trkpt>
      <trkpt lat="40.252550" lon="-4.901117">
        <ele>1848.0</ele>
        <time>2015-03-15T13:33:40Z</time>
      </trkpt>
      <trkpt lat="40.252417" lon="-4.900983">
        <ele>1854.0</ele>
        <time>2015-03-15T13:33:42Z</time>
      </trkpt>
      <trkpt lat="40.252300" lon="-4.900867">
        <ele>1861.0</ele>
        <time>2015-03-15T13:33:44Z</time>
      </trkpt>
      <trkpt lat="40.252200" lon="-4.900783">
        <ele>1864.0</ele>
        <time>2015-03-15T13:33:46Z</time>
      </trkpt>
      <trkpt lat="40.252100" lon="-4.900567">
        <ele>1865.0</ele>
        <time>2015-03-15T13:33:48Z</time>
      </trkpt>
      <trkpt lat="40.252100" lon="-4.900300">
        <ele>1873.0</ele>
        <time>2015-03-15T13:33:50Z</time>
      </trkpt>
      <trkpt lat="40.252200" lon="-4.900083">
        <ele>1878.0</ele>
        <time>2015-03-15T13:33:52Z</time>
      </trkpt>
      <trkpt lat="40.252350" lon="-4.899933">
        <ele>1877.0</ele>
        <time>2015-03-15T13:33:54Z</time>
      </trkpt>
      <trkpt lat="40.252567" lon="-4.899883">
        <ele>1877.0</ele>
        <time>2015-03-15T13:33:56Z</time>
      </trkpt>
      <trkpt lat="40.252750" lon="-4.899950">
        <ele>1878.0</ele>
        <time>2015-03-15T13:33:58Z</time>
      </trkpt>
      <trkpt lat="40.252867" lon="-4.900100">
        <ele>1879.0</ele>
        <time>2015-03-15T13:34:00Z</time>
      </trkpt>
      <trkpt lat="40.252917" lon="-4.900300">
        <ele>1881.0</ele>
        <time>2015-03-15T13:34:02Z</time>
      </trkpt>
      <trkpt lat="40.252900" lon="-4.900500">
        <ele>1884.0</ele>
        <time>2015-03-15T13:34:04Z</time>
      </trkpt>
      <trkpt lat="40.252867" lon="-4.900650">
        <ele>1890.0</ele>
        <time>2015-03-15T13:34:06Z</time>
      </trkpt>
      <trkpt lat="40.252800" lon="-4.900767">
        <ele>1894.0</ele>
        <time>2015-03-15T13:34:08Z</time>
      </trkpt>
      <trkpt lat="40.252667" lon="-4.900833">
        <ele>1895.0</ele>
        <time>2015-03-15T13:34:10Z</time>
      </trkpt>
      <trkpt lat="40.252483" lon="-4.900833">
        <ele>1897.0</ele>
        <time>2015-03-15T13:34:12Z</time>
      </trkpt>
      <trkpt lat="40.252333" lon="-4.900867">
        <ele>1900.0</ele>
        <time>2015-03-15T13:34:14Z</time>
      </trkpt>
      <trkpt lat="40.252217" lon="-4.900933">
        <ele>1901.0</ele>
        <time>2015-03-15T13:34:16Z</time>
      </trkpt>
      <trkpt lat="40.252050" lon="-4.900983">
        <ele>1904.0</ele>
        <time>2015-03-15T13:34:18Z</time>
      </trkpt>
      <trkpt lat="40.251900" lon="-4.901000">
        <ele>1909.0</ele>
        <time>2015-03-15T13:34:20Z</time>
      </trkpt>
      <trkpt lat="40.251783" lon="-4.901017">
        <ele>1912.0</ele>
        <time>2015-03-15T13:34:22Z</time>
      </trkpt>
      <trkpt lat="40.251650" lon="-4.900967">
        <ele>1911.0</ele>
        <time>2015-03-15T13:34:24Z</time>
      </trkpt>
      <trkpt lat="40.251483" lon="-4.900883">
        <ele>1912.0</ele>
        <time>2015-03-15T13:34:26Z</time>
      </trkpt>
      <trkpt lat="40.251333" lon="-4.900783">
        <ele>1915.0</ele>
        <time>2015-03-15T13:34:28Z</time>
      </trkpt>
      <trkpt lat="40.251217" lon="-4.900633">
        <ele>1916.0</ele>
        <time>2015-03-15T13:34:30Z</time>
      </trkpt>
      <trkpt lat="40.251100" lon="-4.900417">
        <ele>1917.0</ele>
        <time>2015-03-15T13:34:32Z</time>
      </trkpt>
      <trkpt lat="40.250983" lon="-4.900200">
        <ele>1920.0</ele>
        <time>2015-03-15T13:34:34Z</time>
      </trkpt>
      <trkpt lat="40.250850" lon="-4.900067">
        <ele>1923.0</ele>
        <time>2015-03-15T13:34:36Z</time>
      </trkpt>
      <trkpt lat="40.250717" lon="-4.900000">
        <ele>1925.0</ele>
        <time>2015-03-15T13:34:38Z</time>
      </trkpt>
      <trkpt lat="40.250567" lon="-4.900000">
        <ele>1926.0</ele>
        <time>2015-03-15T13:34:40Z</time>
      </trkpt>
      <trkpt lat="40.250433" lon="-4.900000">
        <ele>1927.0</ele>
        <time>2015-03-15T13:34:42Z</time>
      </trkpt>
      <trkpt lat="40.250267" lon="-4.900017">
        <ele>1927.0</ele>
        <time>2015-03-15T13:34:44Z</time>
      </trkpt>
      <trkpt lat="40.250117" lon="-4.900033">
        <ele>1927.0</ele>
        <time>2015-03-15T13:34:46Z</time>
      </trkpt>
      <trkpt lat="40.249967" lon="-4.900050">
        <ele>1927.0</ele>
        <time>2015-03-15T13:34:48Z</time>
      </trkpt>
      <trkpt lat="40.249817" lon="-4.900083">
        <ele>1927.0</ele>
        <time>2015-03-15T13:34:50Z</time>
      </trkpt>
      <trkpt lat="40.249667" lon="-4.900133">
        <ele>1926.0</ele>
        <time>2015-03-15T13:34:52Z</time>
      </trkpt>
      <trkpt lat="40.249517" lon="-4.900167">
        <ele>1926.0</ele>
        <time>2015-03-15T13:34:54Z</time>
      </trkpt>
      <trkpt lat="40.249367" lon="-4.900183">
        <ele>1927.0</ele>
        <time>2015-03-15T13:34:56Z</time>
      </trkpt>
      <trkpt lat="40.249217" lon="-4.900183">
        <ele>1925.0</ele>
        <time>2015-03-15T13:34:58Z</time>
      </trkpt>
      <trkpt lat="40.249050" lon="-4.900200">
        <ele>1923.0</ele>
        <time>2015-03-15T13:35:00Z</time>
      </trkpt>
      <trkpt lat="40.248883" lon="-4.900217">
        <ele>1922.0</ele>
        <time>2015-03-15T13:35:02Z</time>
      </trkpt>
      <trkpt lat="40.248717" lon="-4.900267">
        <ele>1921.0</ele>
        <time>2015-03-15T13:35:04Z</time>
      </trkpt>
      <trkpt lat="40.248550" lon="-4.900317">
        <ele>1920.0</ele>
        <time>2015-03-15T13:35:06Z</time>
      </trkpt>
      <trkpt lat="40.248400" lon="-4.900350">
        <ele>1918.0</ele>
        <time>2015-03-15T13:35:08Z</time>
      </trkpt>
      <trkpt lat="40.248233" lon="-4.900400">
        <ele>1914.0</ele>
        <time>2015-03-15T13:35:10Z</time>
      </trkpt>
      <trkpt lat="40.248050" lon="-4.900450">
        <ele>1912.0</ele>
        <time>2015-03-15T13:35:12Z</time>
      </trkpt>
      <trkpt lat="40.247900" lon="-4.900500">
        <ele>1911.0</ele>
        <time>2015-03-15T13:35:14Z</time>
      </trkpt>
      <trkpt lat="40.247767" lon="-4.900550">
        <ele>1907.0</ele>
        <time>2015-03-15T13:35:16Z</time>
      </trkpt>
      <trkpt lat="40.247633" lon="-4.900633">
        <ele>1905.0</ele>
        <time>2015-03-15T13:35:18Z</time>
      </trkpt>
      <trkpt lat="40.247500" lon="-4.900717">
        <ele>1903.0</ele>
        <time>2015-03-15T13:35:20Z</time>
      </trkpt>
      <trkpt lat="40.247367" lon="-4.900783">
        <ele>1900.0</ele>
        <time>2015-03-15T13:35:22Z</time>
      </trkpt>
      <trkpt lat="40.247217" lon="-4.900817">
        <ele>1898.0</ele>
        <time>2015-03-15T13:35:24Z</time>
      </trkpt>
      <trkpt lat="40.247067" lon="-4.900867">
        <ele>1898.0</ele>
        <time>2015-03-15T13:35:26Z</time>
      </trkpt>
      <trkpt lat="40.246933" lon="-4.900883">
        <ele>1896.0</ele>
        <time>2015-03-15T13:35:28Z</time>
      </trkpt>
      <trkpt lat="40.246767" lon="-4.900917">
        <ele>1893.0</ele>
        <time>2015-03-15T13:35:30Z</time>
      </trkpt>
      <trkpt lat="40.246617" lon="-4.900967">
        <ele>1891.0</ele>
        <time>2015-03-15T13:35:32Z</time>
      </trkpt>
      <trkpt lat="40.246483" lon="-4.901033">
        <ele>1891.0</ele>
        <time>2015-03-15T13:35:34Z</time>
      </trkpt>
      <trkpt lat="40.246367" lon="-4.901100">
        <ele>1888.0</ele>
        <time>2015-03-15T13:35:36Z</time>
      </trkpt>
      <trkpt lat="40.246250" lon="-4.901217">
        <ele>1884.0</ele>
        <time>2015-03-15T13:35:38Z</time>
      </trkpt>
      <trkpt lat="40.246117" lon="-4.901317">
        <ele>1882.0</ele>
        <time>2015-03-15T13:35:40Z</time>
      </trkpt>
      <trkpt lat="40.246000" lon="-4.901400">
        <ele>1880.0</ele>
        <time>2015-03-15T13:35:42Z</time>
      </trkpt>
      <trkpt lat="40.245850" lon="-4.901483">
        <ele>1877.0</ele>
        <time>2015-03-15T13:35:44Z</time>
      </trkpt>
      <trkpt lat="40.245683" lon="-4.901533">
        <ele>1875.0</ele>
        <time>2015-03-15T13:35:46Z</time>
      </trkpt>
      <trkpt lat="40.245550" lon="-4.901583">
        <ele>1874.0</ele>
        <time>2015-03-15T13:35:48Z</time>
      </trkpt>
      <trkpt lat="40.245400" lon="-4.901650">
        <ele>1871.0</ele>
        <time>2015-03-15T13:35:50Z</time>
      </trkpt>
      <trkpt lat="40.245267" lon="-4.901700">
        <ele>1869.0</ele>
        <time>2015-03-15T13:35:52Z</time>
      </trkpt>
      <trkpt lat="40.245133" lon="-4.901783">
        <ele>1867.0</ele>
        <time>2015-03-15T13:35:54Z</time>
      </trkpt>
      <trkpt lat="40.245000" lon="-4.901850">
        <ele>1865.0</ele>
        <time>2015-03-15T13:35:56Z</time>
      </trkpt>
      <trkpt lat="40.244867" lon="-4.901900">
        <ele>1861.0</ele>
        <time>2015-03-15T13:35:58Z</time>
      </trkpt>
      <trkpt lat="40.244717" lon="-4.901983">
        <ele>1857.0</ele>
        <time>2015-03-15T13:36:00Z</time>
      </trkpt>
      <trkpt lat="40.244567" lon="-4.902033">
        <ele>1854.0</ele>
        <time>2015-03-15T13:36:02Z</time>
      </trkpt>
      <trkpt lat="40.244417" lon="-4.902067">
        <ele>1851.0</ele>
        <time>2015-03-15T13:36:04Z</time>
      </trkpt>
      <trkpt lat="40.244250" lon="-4.902117">
        <ele>1847.0</ele>
        <time>2015-03-15T13:36:06Z</time>
      </trkpt>
      <trkpt lat="40.244083" lon="-4.902167">
        <ele>1844.0</ele>
        <time>2015-03-15T13:36:08Z</time>
      </trkpt>
      <trkpt lat="40.243933" lon="-4.902233">
        <ele>1844.0</ele>
        <time>2015-03-15T13:36:10Z</time>
      </trkpt>
      <trkpt lat="40.243800" lon="-4.902300">
        <ele>1844.0</ele>
        <time>2015-03-15T13:36:12Z</time>
      </trkpt>
      <trkpt lat="40.243650" lon="-4.902333">
        <ele>1841.0</ele>
        <time>2015-03-15T13:36:14Z</time>
      </trkpt>
      <trkpt lat="40.243483" lon="-4.902383">
        <ele>1838.0</ele>
        <time>2015-03-15T13:36:16Z</time>
      </trkpt>
      <trkpt lat="40.243300" lon="-4.902417">
        <ele>1837.0</ele>
        <time>2015-03-15T13:36:18Z</time>
      </trkpt>
      <trkpt lat="40.243117" lon="-4.902433">
        <ele>1836.0</ele>
        <time>2015-03-15T13:36:20Z</time>
      </trkpt>
      <trkpt lat="40.242933" lon="-4.902450">
        <ele>1833.0</ele>
        <time>2015-03-15T13:36:22Z</time>
      </trkpt>
      <trkpt lat="40.242750" lon="-4.902450">
        <ele>1830.0</ele>
        <time>2015-03-15T13:36:24Z</time>
      </trkpt>
      <trkpt lat="40.242550" lon="-4.902450">
        <ele>1827.0</ele>
        <time>2015-03-15T13:36:26Z</time>
      </trkpt>
      <trkpt lat="40.242367" lon="-4.902450">
        <ele>1826.0</ele>
        <time>2015-03-15T13:36:28Z</time>
      </trkpt>
      <trkpt lat="40.242200" lon="-4.902450">
        <ele>1824.0</ele>
        <time>2015-03-15T13:36:30Z</time>
      </trkpt>
      <trkpt lat="40.242000" lon="-4.902433">
        <ele>1821.0</ele>
        <time>2015-03-15T13:36:32Z</time>
      </trkpt>
      <trkpt lat="40.241800" lon="-4.902417">
        <ele>1820.0</ele>
        <time>2015-03-15T13:36:34Z</time>
      </trkpt>
      <trkpt lat="40.241633" lon="-4.902400">
        <ele>1818.0</ele>
        <time>2015-03-15T13:36:36Z</time>
      </trkpt>
      <trkpt lat="40.241433" lon="-4.902367">
        <ele>1814.0</ele>
        <time>2015-03-15T13:36:38Z</time>
      </trkpt>
      <trkpt lat="40.241250" lon="-4.902333">
        <ele>1810.0</ele>
        <time>2015-03-15T13:36:40Z</time>
      </trkpt>
      <trkpt lat="40.241067" lon="-4.902300">
        <ele>1806.0</ele>
        <time>2015-03-15T13:36:42Z</time>
      </trkpt>
      <trkpt lat="40.240900" lon="-4.902250">
        <ele>1802.0</ele>
        <time>2015-03-15T13:36:44Z</time>
      </trkpt>
      <trkpt lat="40.240717" lon="-4.902200">
        <ele>1798.0</ele>
        <time>2015-03-15T13:36:46Z</time>
      </trkpt>
      <trkpt lat="40.240550" lon="-4.902150">
        <ele>1794.0</ele>
        <time>2015-03-15T13:36:48Z</time>
      </trkpt>
      <trkpt lat="40.240383" lon="-4.902117">
        <ele>1788.0</ele>
        <time>2015-03-15T13:36:50Z</time>
      </trkpt>
      <trkpt lat="40.240217" lon="-4.902100">
        <ele>1784.0</ele>
        <time>2015-03-15T13:36:52Z</time>
      </trkpt>
      <trkpt lat="40.240133" lon="-4.902083">
        <ele>1783.0</ele>
        <time>2015-03-15T13:36:53Z</time>
      </trkpt>
      <trkpt lat="40.239967" lon="-4.902017">
        <ele>1778.0</ele>
        <time>2015-03-15T13:36:55Z</time>
      </trkpt>
      <trkpt lat="40.239783" lon="-4.901983">
        <ele>1773.0</ele>
        <time>2015-03-15T13:36:57Z</time>
      </trkpt>
      <trkpt lat="40.239617" lon="-4.901933">
        <ele>1770.0</ele>
        <time>2015-03-15T13:36:59Z</time>
      </trkpt>
      <trkpt lat="40.239467" lon="-4.901883">
        <ele>1765.0</ele>
        <time>2015-03-15T13:37:01Z</time>
      </trkpt>
      <trkpt lat="40.239300" lon="-4.901867">
        <ele>1758.0</ele>
        <time>2015-03-15T13:37:03Z</time>
      </trkpt>
      <trkpt lat="40.239100" lon="-4.901833">
        <ele>1753.0</ele>
        <time>2015-03-15T13:37:05Z</time>
      </trkpt>
      <trkpt lat="40.238933" lon="-4.901817">
        <ele>1752.0</ele>
        <time>2015-03-15T13:37:07Z</time>
      </trkpt>
      <trkpt lat="40.238783" lon="-4.901800">
        <ele>1747.0</ele>
        <time>2015-03-15T13:37:09Z</time>
      </trkpt>
      <trkpt lat="40.238600" lon="-4.901783">
        <ele>1742.0</ele>
        <time>2015-03-15T13:37:11Z</time>
      </trkpt>
      <trkpt lat="40.238450" lon="-4.901767">
        <ele>1738.0</ele>
        <time>2015-03-15T13:37:13Z</time>
      </trkpt>
      <trkpt lat="40.238367" lon="-4.901767">
        <ele>1736.0</ele>
        <time>2015-03-15T13:37:14Z</time>
      </trkpt>
      <trkpt lat="40.238200" lon="-4.901750">
        <ele>1730.0</ele>
        <time>2015-03-15T13:37:16Z</time>
      </trkpt>
      <trkpt lat="40.238000" lon="-4.901733">
        <ele>1726.0</ele>
        <time>2015-03-15T13:37:18Z</time>
      </trkpt>
      <trkpt lat="40.237833" lon="-4.901733">
        <ele>1724.0</ele>
        <time>2015-03-15T13:37:20Z</time>
      </trkpt>
      <trkpt lat="40.237683" lon="-4.901683">
        <ele>1722.0</ele>
        <time>2015-03-15T13:37:22Z</time>
      </trkpt>
      <trkpt lat="40.237533" lon="-4.901617">
        <ele>1719.0</ele>
        <time>2015-03-15T13:37:24Z</time>
      </trkpt>
      <trkpt lat="40.237400" lon="-4.901467">
        <ele>1715.0</ele>
        <time>2015-03-15T13:37:26Z</time>
      </trkpt>
      <trkpt lat="40.237367" lon="-4.901217">
        <ele>1711.0</ele>
        <time>2015-03-15T13:37:28Z</time>
      </trkpt>
      <trkpt lat="40.237450" lon="-4.900983">
        <ele>1709.0</ele>
        <time>2015-03-15T13:37:30Z</time>
      </trkpt>
      <trkpt lat="40.237600" lon="-4.900817">
        <ele>1708.0</ele>
        <time>2015-03-15T13:37:32Z</time>
      </trkpt>
      <trkpt lat="40.237750" lon="-4.900700">
        <ele>1705.0</ele>
        <time>2015-03-15T13:37:34Z</time>
      </trkpt>
      <trkpt lat="40.237933" lon="-4.900633">
        <ele>1701.0</ele>
        <time>2015-03-15T13:37:36Z</time>
      </trkpt>
      <trkpt lat="40.238133" lon="-4.900567">
        <ele>1697.0</ele>
        <time>2015-03-15T13:37:38Z</time>
      </trkpt>
      <trkpt lat="40.238333" lon="-4.900567">
        <ele>1694.0</ele>
        <time>2015-03-15T13:37:40Z</time>
      </trkpt>
      <trkpt lat="40.238517" lon="-4.900583">
        <ele>1689.0</ele>
        <time>2015-03-15T13:37:42Z</time>
      </trkpt>
      <trkpt lat="40.238717" lon="-4.900617">
        <ele>1684.0</ele>
        <time>2015-03-15T13:37:44Z</time>
      </trkpt>
      <trkpt lat="40.238917" lon="-4.900633">
        <ele>1681.0</ele>
        <time>2015-03-15T13:37:46Z</time>
      </trkpt>
      <trkpt lat="40.239067" lon="-4.900683">
        <ele>1677.0</ele>
        <time>2015-03-15T13:37:48Z</time>
      </trkpt>
      <trkpt lat="40.239250" lon="-4.900733">
        <ele>1671.0</ele>
        <time>2015-03-15T13:37:50Z</time>
      </trkpt>
      <trkpt lat="40.239433" lon="-4.900767">
        <ele>1667.0</ele>
        <time>2015-03-15T13:37:52Z</time>
      </trkpt>
      <trkpt lat="40.239617" lon="-4.900800">
        <ele>1664.0</ele>
        <time>2015-03-15T13:37:54Z</time>
      </trkpt>
      <trkpt lat="40.239800" lon="-4.900833">
        <ele>1659.0</ele>
        <time>2015-03-15T13:37:56Z</time>
      </trkpt>
      <trkpt lat="40.240000" lon="-4.900850">
        <ele>1654.0</ele>
        <time>2015-03-15T13:37:58Z</time>
      </trkpt>
      <trkpt lat="40.240183" lon="-4.900867">
        <ele>1650.0</ele>
        <time>2015-03-15T13:38:00Z</time>
      </trkpt>
      <trkpt lat="40.240383" lon="-4.900850">
        <ele>1645.0</ele>
        <time>2015-03-15T13:38:02Z</time>
      </trkpt>
      <trkpt lat="40.240567" lon="-4.900850">
        <ele>1641.0</ele>
        <time>2015-03-15T13:38:04Z</time>
      </trkpt>
      <trkpt lat="40.240767" lon="-4.900833">
        <ele>1637.0</ele>
        <time>2015-03-15T13:38:06Z</time>
      </trkpt>
      <trkpt lat="40.240967" lon="-4.900817">
        <ele>1633.0</ele>
        <time>2015-03-15T13:38:08Z</time>
      </trkpt>
      <trkpt lat="40.241150" lon="-4.900817">
        <ele>1628.0</ele>
        <time>2015-03-15T13:38:10Z</time>
      </trkpt>
      <trkpt lat="40.241350" lon="-4.900817">
        <ele>1624.0</ele>
        <time>2015-03-15T13:38:12Z</time>
      </trkpt>
      <trkpt lat="40.241533" lon="-4.900817">
        <ele>1620.0</ele>
        <time>2015-03-15T13:38:14Z</time>
      </trkpt>
      <trkpt lat="40.241750" lon="-4.900800">
        <ele>1616.0</ele>
        <time>2015-03-15T13:38:16Z</time>
      </trkpt>
      <trkpt lat="40.241950" lon="-4.900783">
        <ele>1613.0</ele>
        <time>2015-03-15T13:38:18Z</time>
      </trkpt>
      <trkpt lat="40.242150" lon="-4.900783">
        <ele>1609.0</ele>
        <time>2015-03-15T13:38:20Z</time>
      </trkpt>
      <trkpt lat="40.242350" lon="-4.900783">
        <ele>1606.0</ele>
        <time>2015-03-15T13:38:22Z</time>
      </trkpt>
      <trkpt lat="40.242533" lon="-4.900783">
        <ele>1603.0</ele>
        <time>2015-03-15T13:38:24Z</time>
      </trkpt>
      <trkpt lat="40.242750" lon="-4.900767">
        <ele>1600.0</ele>
        <time>2015-03-15T13:38:26Z</time>
      </trkpt>
      <trkpt lat="40.242950" lon="-4.900783">
        <ele>1598.0</ele>
        <time>2015-03-15T13:38:28Z</time>
      </trkpt>
      <trkpt lat="40.243133" lon="-4.900800">
        <ele>1596.0</ele>
        <time>2015-03-15T13:38:30Z</time>
      </trkpt>
      <trkpt lat="40.243333" lon="-4.900817">
        <ele>1593.0</ele>
        <time>2015-03-15T13:38:32Z</time>
      </trkpt>
      <trkpt lat="40.243550" lon="-4.900850">
        <ele>1590.0</ele>
        <time>2015-03-15T13:38:34Z</time>
      </trkpt>
      <trkpt lat="40.243767" lon="-4.900917">
        <ele>1590.0</ele>
        <time>2015-03-15T13:38:36Z</time>
      </trkpt>
      <trkpt lat="40.243983" lon="-4.901017">
        <ele>1596.0</ele>
        <time>2015-03-15T13:38:38Z</time>
      </trkpt>
      <trkpt lat="40.244150" lon="-4.901067">
        <ele>1601.0</ele>
        <time>2015-03-15T13:38:40Z</time>
      </trkpt>
      <trkpt lat="40.244350" lon="-4.901100">
        <ele>1603.0</ele>
        <time>2015-03-15T13:38:42Z</time>
      </trkpt>
      <trkpt lat="40.244567" lon="-4.901017">
        <ele>1606.0</ele>
        <time>2015-03-15T13:38:44Z</time>
      </trkpt>
      <trkpt lat="40.244767" lon="-4.900967">
        <ele>1613.0</ele>
        <time>2015-03-15T13:38:46Z</time>
      </trkpt>
      <trkpt lat="40.244967" lon="-4.901017">
        <ele>1618.0</ele>
        <time>2015-03-15T13:38:48Z</time>
      </trkpt>
      <trkpt lat="40.245150" lon="-4.901117">
        <ele>1620.0</ele>
        <time>2015-03-15T13:38:50Z</time>
      </trkpt>
      <trkpt lat="40.245283" lon="-4.901300">
        <ele>1621.0</ele>
        <time>2015-03-15T13:38:52Z</time>
      </trkpt>
      <trkpt lat="40.245333" lon="-4.901533">
        <ele>1620.0</ele>
        <time>2015-03-15T13:38:54Z</time>
      </trkpt>
      <trkpt lat="40.245283" lon="-4.901733">
        <ele>1619.0</ele>
        <time>2015-03-15T13:38:56Z</time>
      </trkpt>
      <trkpt lat="40.245217" lon="-4.901867">
        <ele>1617.0</ele>
        <time>2015-03-15T13:38:58Z</time>
      </trkpt>
      <trkpt lat="40.245100" lon="-4.901917">
        <ele>1615.0</ele>
        <time>2015-03-15T13:39:00Z</time>
      </trkpt>
      <trkpt lat="40.244967" lon="-4.901850">
        <ele>1610.0</ele>
        <time>2015-03-15T13:39:02Z</time>
      </trkpt>
      <trkpt lat="40.244900" lon="-4.901650">
        <ele>1608.0</ele>
        <time>2015-03-15T13:39:04Z</time>
      </trkpt>
      <trkpt lat="40.244967" lon="-4.901400">
        <ele>1608.0</ele>
        <time>2015-03-15T13:39:06Z</time>
      </trkpt>
      <trkpt lat="40.245100" lon="-4.901217">
        <ele>1612.0</ele>
        <time>2015-03-15T13:39:08Z</time>
      </trkpt>
      <trkpt lat="40.245233" lon="-4.901083">
        <ele>1615.0</ele>
        <time>2015-03-15T13:39:10Z</time>
      </trkpt>
      <trkpt lat="40.245367" lon="-4.900917">
        <ele>1618.0</ele>
        <time>2015-03-15T13:39:12Z</time>
      </trkpt>
      <trkpt lat="40.245483" lon="-4.900767">
        <ele>1621.0</ele>
        <time>2015-03-15T13:39:14Z</time>
      </trkpt>
      <trkpt lat="40.245650" lon="-4.900617">
        <ele>1623.0</ele>
        <time>2015-03-15T13:39:16Z</time>
      </trkpt>
      <trkpt lat="40.245800" lon="-4.900467">
        <ele>1626.0</ele>
        <time>2015-03-15T13:39:18Z</time>
      </trkpt>
      <trkpt lat="40.245967" lon="-4.900317">
        <ele>1629.0</ele>
        <time>2015-03-15T13:39:20Z</time>
      </trkpt>
      <trkpt lat="40.246150" lon="-4.900217">
        <ele>1633.0</ele>
        <time>2015-03-15T13:39:22Z</time>
      </trkpt>
      <trkpt lat="40.246333" lon="-4.900200">
        <ele>1634.0</ele>
        <time>2015-03-15T13:39:24Z</time>
      </trkpt>
      <trkpt lat="40.246517" lon="-4.900217">
        <ele>1635.0</ele>
        <time>2015-03-15T13:39:26Z</time>
      </trkpt>
      <trkpt lat="40.246700" lon="-4.900300">
        <ele>1636.0</ele>
        <time>2015-03-15T13:39:28Z</time>
      </trkpt>
      <trkpt lat="40.246867" lon="-4.900450">
        <ele>1634.0</ele>
        <time>2015-03-15T13:39:30Z</time>
      </trkpt>
      <trkpt lat="40.247017" lon="-4.900600">
        <ele>1632.0</ele>
        <time>2015-03-15T13:39:32Z</time>
      </trkpt>
      <trkpt lat="40.247217" lon="-4.900700">
        <ele>1628.0</ele>
        <time>2015-03-15T13:39:34Z</time>
      </trkpt>
      <trkpt lat="40.247433" lon="-4.900767">
        <ele>1627.0</ele>
        <time>2015-03-15T13:39:36Z</time>
      </trkpt>
      <trkpt lat="40.247667" lon="-4.900783">
        <ele>1625.0</ele>
        <time>2015-03-15T13:39:38Z</time>
      </trkpt>
      <trkpt lat="40.247900" lon="-4.900800">
        <ele>1621.0</ele>
        <time>2015-03-15T13:39:40Z</time>
      </trkpt>
      <trkpt lat="40.248150" lon="-4.900800">
        <ele>1618.0</ele>
        <time>2015-03-15T13:39:42Z</time>
      </trkpt>
      <trkpt lat="40.248400" lon="-4.900817">
        <ele>1615.0</ele>
        <time>2015-03-15T13:39:44Z</time>
      </trkpt>
      <trkpt lat="40.248633" lon="-4.900867">
        <ele>1612.0</ele>
        <time>2015-03-15T13:39:46Z</time>
      </trkpt>
      <trkpt lat="40.248883" lon="-4.900917">
        <ele>1609.0</ele>
        <time>2015-03-15T13:39:48Z</time>
      </trkpt>
      <trkpt lat="40.249167" lon="-4.900983">
        <ele>1608.0</ele>
        <time>2015-03-15T13:39:50Z</time>
      </trkpt>
      <trkpt lat="40.249433" lon="-4.900983">
        <ele>1608.0</ele>
        <time>2015-03-15T13:39:52Z</time>
      </trkpt>
      <trkpt lat="40.249717" lon="-4.901000">
        <ele>1611.0</ele>
        <time>2015-03-15T13:39:54Z</time>
      </trkpt>
      <trkpt lat="40.249983" lon="-4.901017">
        <ele>1617.0</ele>
        <time>2015-03-15T13:39:56Z</time>
      </trkpt>
      <trkpt lat="40.250217" lon="-4.901050">
        <ele>1623.0</ele>
        <time>2015-03-15T13:39:58Z</time>
      </trkpt>
      <trkpt lat="40.250433" lon="-4.901150">
        <ele>1626.0</ele>
        <time>2015-03-15T13:40:00Z</time>
      </trkpt>
      <trkpt lat="40.250600" lon="-4.901383">
        <ele>1627.0</ele>
        <time>2015-03-15T13:40:02Z</time>
      </trkpt>
      <trkpt lat="40.250633" lon="-4.901617">
        <ele>1631.0</ele>
        <time>2015-03-15T13:40:04Z</time>
      </trkpt>
      <trkpt lat="40.250617" lon="-4.901750">
        <ele>1632.0</ele>
        <time>2015-03-15T13:40:06Z</time>
      </trkpt>
      <trkpt lat="40.250600" lon="-4.901900">
        <ele>1630.0</ele>
        <time>2015-03-15T13:40:08Z</time>
      </trkpt>
      <trkpt lat="40.250500" lon="-4.902100">
        <ele>1628.0</ele>
        <time>2015-03-15T13:40:10Z</time>
      </trkpt>
      <trkpt lat="40.250383" lon="-4.902150">
        <ele>1629.0</ele>
        <time>2015-03-15T13:40:12Z</time>
      </trkpt>
      <trkpt lat="40.250283" lon="-4.902133">
        <ele>1630.0</ele>
        <time>2015-03-15T13:40:14Z</time>
      </trkpt>
      <trkpt lat="40.250200" lon="-4.902033">
        <ele>1628.0</ele>
        <time>2015-03-15T13:40:16Z</time>
      </trkpt>
      <trkpt lat="40.250150" lon="-4.901883">
        <ele>1628.0</ele>
        <time>2015-03-15T13:40:18Z</time>
      </trkpt>
      <trkpt lat="40.250167" lon="-4.901717">
        <ele>1629.0</ele>
        <time>2015-03-15T13:40:20Z</time>
      </trkpt>
      <trkpt lat="40.250233" lon="-4.901500">
        <ele>1628.0</ele>
        <time>2015-03-15T13:40:22Z</time>
      </trkpt>
      <trkpt lat="40.250350" lon="-4.901267">
        <ele>1628.0</ele>
        <time>2015-03-15T13:40:24Z</time>
      </trkpt>
      <trkpt lat="40.250517" lon="-4.901083">
        <ele>1633.0</ele>
        <time>2015-03-15T13:40:26Z</time>
      </trkpt>
      <trkpt lat="40.250700" lon="-4.900933">
        <ele>1637.0</ele>
        <time>2015-03-15T13:40:28Z</time>
      </trkpt>
      <trkpt lat="40.250917" lon="-4.900800">
        <ele>1642.0</ele>
        <time>2015-03-15T13:40:30Z</time>
      </trkpt>
      <trkpt lat="40.251133" lon="-4.900683">
        <ele>1647.0</ele>
        <time>2015-03-15T13:40:32Z</time>
      </trkpt>
      <trkpt lat="40.251383" lon="-4.900617">
        <ele>1653.0</ele>
        <time>2015-03-15T13:40:34Z</time>
      </trkpt>
      <trkpt lat="40.251650" lon="-4.900600">
        <ele>1662.0</ele>
        <time>2015-03-15T13:40:36Z</time>
      </trkpt>
      <trkpt lat="40.251867" lon="-4.900633">
        <ele>1670.0</ele>
        <time>2015-03-15T13:40:38Z</time>
      </trkpt>
      <trkpt lat="40.252050" lon="-4.900733">
        <ele>1675.0</ele>
        <time>2015-03-15T13:40:40Z</time>
      </trkpt>
      <trkpt lat="40.252200" lon="-4.900933">
        <ele>1677.0</ele>
        <time>2015-03-15T13:40:42Z</time>
      </trkpt>
      <trkpt lat="40.252317" lon="-4.901133">
        <ele>1680.0</ele>
        <time>2015-03-15T13:40:44Z</time>
      </trkpt>
      <trkpt lat="40.252333" lon="-4.901350">
        <ele>1681.0</ele>
        <time>2015-03-15T13:40:46Z</time>
      </trkpt>
      <trkpt lat="40.252317" lon="-4.901567">
        <ele>1685.0</ele>
        <time>2015-03-15T13:40:48Z</time>
      </trkpt>
      <trkpt lat="40.252333" lon="-4.901783">
        <ele>1690.0</ele>
        <time>2015-03-15T13:40:50Z</time>
      </trkpt>
      <trkpt lat="40.252367" lon="-4.901933">
        <ele>1692.0</ele>
        <time>2015-03-15T13:40:52Z</time>
      </trkpt>
      <trkpt lat="40.252317" lon="-4.902133">
        <ele>1691.0</ele>
        <time>2015-03-15T13:40:54Z</time>
      </trkpt>
      <trkpt lat="40.252250" lon="-4.902250">
        <ele>1690.0</ele>
        <time>2015-03-15T13:40:56Z</time>
      </trkpt>
      <trkpt lat="40.252167" lon="-4.902200">
        <ele>1686.0</ele>
        <time>2015-03-15T13:40:58Z</time>
      </trkpt>
      <trkpt lat="40.252167" lon="-4.902000">
        <ele>1682.0</ele>
        <time>2015-03-15T13:41:00Z</time>
      </trkpt>
      <trkpt lat="40.252267" lon="-4.901750">
        <ele>1685.0</ele>
        <time>2015-03-15T13:41:02Z</time>
      </trkpt>
      <trkpt lat="40.252383" lon="-4.901567">
        <ele>1689.0</ele>
        <time>2015-03-15T13:41:04Z</time>
      </trkpt>
      <trkpt lat="40.252533" lon="-4.901367">
        <ele>1690.0</ele>
        <time>2015-03-15T13:41:06Z</time>
      </trkpt>
      <trkpt lat="40.252717" lon="-4.901183">
        <ele>1697.0</ele>
        <time>2015-03-15T13:41:08Z</time>
      </trkpt>
      <trkpt lat="40.252900" lon="-4.901083">
        <ele>1708.0</ele>
        <time>2015-03-15T13:41:10Z</time>
      </trkpt>
      <trkpt lat="40.253117" lon="-4.901083">
        <ele>1713.0</ele>
        <time>2015-03-15T13:41:12Z</time>
      </trkpt>
      <trkpt lat="40.253367" lon="-4.901217">
        <ele>1713.0</ele>
        <time>2015-03-15T13:41:14Z</time>
      </trkpt>
      <trkpt lat="40.253550" lon="-4.901450">
        <ele>1718.0</ele>
        <time>2015-03-15T13:41:16Z</time>
      </trkpt>
      <trkpt lat="40.253650" lon="-4.901633">
        <ele>1722.0</ele>
        <time>2015-03-15T13:41:18Z</time>
      </trkpt>
      <trkpt lat="40.253717" lon="-4.901833">
        <ele>1722.0</ele>
        <time>2015-03-15T13:41:20Z</time>
      </trkpt>
      <trkpt lat="40.253700" lon="-4.902033">
        <ele>1721.0</ele>
        <time>2015-03-15T13:41:22Z</time>
      </trkpt>
      <trkpt lat="40.253633" lon="-4.902133">
        <ele>1723.0</ele>
        <time>2015-03-15T13:41:24Z</time>
      </trkpt>
      <trkpt lat="40.253583" lon="-4.902067">
        <ele>1723.0</ele>
        <time>2015-03-15T13:41:26Z</time>
      </trkpt>
      <trkpt lat="40.253533" lon="-4.902000">
        <ele>1723.0</ele>
        <time>2015-03-15T13:41:28Z</time>
      </trkpt>
      <trkpt lat="40.253467" lon="-4.901917">
        <ele>1725.0</ele>
        <time>2015-03-15T13:41:30Z</time>
      </trkpt>
      <trkpt lat="40.253433" lon="-4.901800">
        <ele>1730.0</ele>
        <time>2015-03-15T13:41:32Z</time>
      </trkpt>
      <trkpt lat="40.253467" lon="-4.901683">
        <ele>1734.0</ele>
        <time>2015-03-15T13:41:34Z</time>
      </trkpt>
      <trkpt lat="40.253533" lon="-4.901483">
        <ele>1735.0</ele>
        <time>2015-03-15T13:41:36Z</time>
      </trkpt>
      <trkpt lat="40.253667" lon="-4.901267">
        <ele>1737.0</ele>
        <time>2015-03-15T13:41:38Z</time>
      </trkpt>
      <trkpt lat="40.253850" lon="-4.901100">
        <ele>1742.0</ele>
        <time>2015-03-15T13:41:40Z</time>
      </trkpt>
      <trkpt lat="40.254050" lon="-4.900950">
        <ele>1747.0</ele>
        <time>2015-03-15T13:41:42Z</time>
      </trkpt>
      <trkpt lat="40.254300" lon="-4.900883">
        <ele>1750.0</ele>
        <time>2015-03-15T13:41:44Z</time>
      </trkpt>
      <trkpt lat="40.254533" lon="-4.900883">
        <ele>1753.0</ele>
        <time>2015-03-15T13:41:46Z</time>
      </trkpt>
      <trkpt lat="40.254750" lon="-4.900967">
        <ele>1754.0</ele>
        <time>2015-03-15T13:41:48Z</time>
      </trkpt>
      <trkpt lat="40.254933" lon="-4.901117">
        <ele>1754.0</ele>
        <time>2015-03-15T13:41:50Z</time>
      </trkpt>
      <trkpt lat="40.255083" lon="-4.901250">
        <ele>1754.0</ele>
        <time>2015-03-15T13:41:52Z</time>
      </trkpt>
      <trkpt lat="40.255167" lon="-4.901433">
        <ele>1752.0</ele>
        <time>2015-03-15T13:41:54Z</time>
      </trkpt>
      <trkpt lat="40.255183" lon="-4.901633">
        <ele>1752.0</ele>
        <time>2015-03-15T13:41:56Z</time>
      </trkpt>
      <trkpt lat="40.255200" lon="-4.901733">
        <ele>1754.0</ele>
        <time>2015-03-15T13:41:57Z</time>
      </trkpt>
      <trkpt lat="40.255183" lon="-4.901867">
        <ele>1755.0</ele>
        <time>2015-03-15T13:41:59Z</time>
      </trkpt>
      <trkpt lat="40.255100" lon="-4.901933">
        <ele>1754.0</ele>
        <time>2015-03-15T13:42:01Z</time>
      </trkpt>
      <trkpt lat="40.255000" lon="-4.901917">
        <ele>1755.0</ele>
        <time>2015-03-15T13:42:03Z</time>
      </trkpt>
      <trkpt lat="40.254933" lon="-4.901817">
        <ele>1758.0</ele>
        <time>2015-03-15T13:42:05Z</time>
      </trkpt>
      <trkpt lat="40.254883" lon="-4.901667">
        <ele>1761.0</ele>
        <time>2015-03-15T13:42:07Z</time>
      </trkpt>
      <trkpt lat="40.254883" lon="-4.901467">
        <ele>1766.0</ele>
        <time>2015-03-15T13:42:09Z</time>
      </trkpt>
      <trkpt lat="40.254967" lon="-4.901267">
        <ele>1770.0</ele>
        <time>2015-03-15T13:42:11Z</time>
      </trkpt>
      <trkpt lat="40.255083" lon="-4.901050">
        <ele>1773.0</ele>
        <time>2015-03-15T13:42:13Z</time>
      </trkpt>
      <trkpt lat="40.255183" lon="-4.900833">
        <ele>1775.0</ele>
        <time>2015-03-15T13:42:15Z</time>
      </trkpt>
      <trkpt lat="40.255350" lon="-4.900583">
        <ele>1777.0</ele>
        <time>2015-03-15T13:42:17Z</time>
      </trkpt>
      <trkpt lat="40.255517" lon="-4.900383">
        <ele>1784.0</ele>
        <time>2015-03-15T13:42:19Z</time>
      </trkpt>
      <trkpt lat="40.255683" lon="-4.900250">
        <ele>1788.0</ele>
        <time>2015-03-15T13:42:21Z</time>
      </trkpt>
      <trkpt lat="40.255900" lon="-4.900233">
        <ele>1787.0</ele>
        <time>2015-03-15T13:42:23Z</time>
      </trkpt>
      <trkpt lat="40.256117" lon="-4.900317">
        <ele>1788.0</ele>
        <time>2015-03-15T13:42:25Z</time>
      </trkpt>
      <trkpt lat="40.256300" lon="-4.900400">
        <ele>1792.0</ele>
        <time>2015-03-15T13:42:27Z</time>
      </trkpt>
      <trkpt lat="40.256450" lon="-4.900533">
        <ele>1795.0</ele>
        <time>2015-03-15T13:42:29Z</time>
      </trkpt>
      <trkpt lat="40.256533" lon="-4.900683">
        <ele>1795.0</ele>
        <time>2015-03-15T13:42:31Z</time>
      </trkpt>
      <trkpt lat="40.256550" lon="-4.900867">
        <ele>1794.0</ele>
        <time>2015-03-15T13:42:33Z</time>
      </trkpt>
      <trkpt lat="40.256500" lon="-4.901033">
        <ele>1795.0</ele>
        <time>2015-03-15T13:42:35Z</time>
      </trkpt>
      <trkpt lat="40.256450" lon="-4.901150">
        <ele>1797.0</ele>
        <time>2015-03-15T13:42:37Z</time>
      </trkpt>
      <trkpt lat="40.256383" lon="-4.901217">
        <ele>1797.0</ele>
        <time>2015-03-15T13:42:39Z</time>
      </trkpt>
      <trkpt lat="40.256267" lon="-4.901200">
        <ele>1797.0</ele>
        <time>2015-03-15T13:42:41Z</time>
      </trkpt>
      <trkpt lat="40.256183" lon="-4.901100">
        <ele>1802.0</ele>
        <time>2015-03-15T13:42:43Z</time>
      </trkpt>
      <trkpt lat="40.256150" lon="-4.901050">
        <ele>1808.0</ele>
        <time>2015-03-15T13:42:45Z</time>
      </trkpt>
      <trkpt lat="40.256117" lon="-4.900983">
        <ele>1809.0</ele>
        <time>2015-03-15T13:42:47Z</time>
      </trkpt>
      <trkpt lat="40.256100" lon="-4.900800">
        <ele>1811.0</ele>
        <time>2015-03-15T13:42:49Z</time>
      </trkpt>
      <trkpt lat="40.256150" lon="-4.900600">
        <ele>1821.0</ele>
        <time>2015-03-15T13:42:51Z</time>
      </trkpt>
      <trkpt lat="40.256233" lon="-4.900417">
        <ele>1827.0</ele>
        <time>2015-03-15T13:42:53Z</time>
      </trkpt>
      <trkpt lat="40.256250" lon="-4.900200">
        <ele>1829.0</ele>
        <time>2015-03-15T13:42:55Z</time>
      </trkpt>
      <trkpt lat="40.256233" lon="-4.899967">
        <ele>1832.0</ele>
        <time>2015-03-15T13:42:57Z</time>
      </trkpt>
      <trkpt lat="40.256333" lon="-4.899717">
        <ele>1837.0</ele>
        <time>2015-03-15T13:42:59Z</time>
      </trkpt>
      <trkpt lat="40.256517" lon="-4.899550">
        <ele>1844.0</ele>
        <time>2015-03-15T13:43:01Z</time>
      </trkpt>
      <trkpt lat="40.256733" lon="-4.899467">
        <ele>1851.0</ele>
        <time>2015-03-15T13:43:03Z</time>
      </trkpt>
      <trkpt lat="40.256933" lon="-4.899483">
        <ele>1855.0</ele>
        <time>2015-03-15T13:43:05Z</time>
      </trkpt>
      <trkpt lat="40.257133" lon="-4.899617">
        <ele>1857.0</ele>
        <time>2015-03-15T13:43:07Z</time>
      </trkpt>
      <trkpt lat="40.257283" lon="-4.899800">
        <ele>1859.0</ele>
        <time>2015-03-15T13:43:09Z</time>
      </trkpt>
      <trkpt lat="40.257400" lon="-4.900000">
        <ele>1860.0</ele>
        <time>2015-03-15T13:43:11Z</time>
      </trkpt>
      <trkpt lat="40.257433" lon="-4.900233">
        <ele>1859.0</ele>
        <time>2015-03-15T13:43:13Z</time>
      </trkpt>
      <trkpt lat="40.257383" lon="-4.900483">
        <ele>1859.0</ele>
        <time>2015-03-15T13:43:15Z</time>
      </trkpt>
      <trkpt lat="40.257333" lon="-4.900667">
        <ele>1865.0</ele>
        <time>2015-03-15T13:43:17Z</time>
      </trkpt>
      <trkpt lat="40.257283" lon="-4.900800">
        <ele>1871.0</ele>
        <time>2015-03-15T13:43:19Z</time>
      </trkpt>
      <trkpt lat="40.257217" lon="-4.900883">
        <ele>1878.0</ele>
        <time>2015-03-15T13:43:21Z</time>
      </trkpt>
      <trkpt lat="40.257133" lon="-4.900883">
        <ele>1882.0</ele>
        <time>2015-03-15T13:43:23Z</time>
      </trkpt>
      <trkpt lat="40.257033" lon="-4.900833">
        <ele>1885.0</ele>
        <time>2015-03-15T13:43:25Z</time>
      </trkpt>
      <trkpt lat="40.256917" lon="-4.900783">
        <ele>1891.0</ele>
        <time>2015-03-15T13:43:27Z</time>
      </trkpt>
      <trkpt lat="40.256850" lon="-4.900683">
        <ele>1899.0</ele>
        <time>2015-03-15T13:43:29Z</time>
      </trkpt>
      <trkpt lat="40.256800" lon="-4.900483">
        <ele>1901.0</ele>
        <time>2015-03-15T13:43:31Z</time>
      </trkpt>
      <trkpt lat="40.256817" lon="-4.900250">
        <ele>1904.0</ele>
        <time>2015-03-15T13:43:33Z</time>
      </trkpt>
      <trkpt lat="40.256883" lon="-4.900033">
        <ele>1910.0</ele>
        <time>2015-03-15T13:43:35Z</time>
      </trkpt>
      <trkpt lat="40.256983" lon="-4.899850">
        <ele>1914.0</ele>
        <time>2015-03-15T13:43:37Z</time>
      </trkpt>
      <trkpt lat="40.257133" lon="-4.899617">
        <ele>1915.0</ele>
        <time>2015-03-15T13:43:39Z</time>
      </trkpt>
      <trkpt lat="40.257350" lon="-4.899433">
        <ele>1921.0</ele>
        <time>2015-03-15T13:43:41Z</time>
      </trkpt>
      <trkpt lat="40.257550" lon="-4.899350">
        <ele>1930.0</ele>
        <time>2015-03-15T13:43:43Z</time>
      </trkpt>
      <trkpt lat="40.257750" lon="-4.899317">
        <ele>1932.0</ele>
        <time>2015-03-15T13:43:45Z</time>
      </trkpt>
      <trkpt lat="40.257983" lon="-4.899383">
        <ele>1931.0</ele>
        <time>2015-03-15T13:43:47Z</time>
      </trkpt>
      <trkpt lat="40.258133" lon="-4.899600">
        <ele>1932.0</ele>
        <time>2015-03-15T13:43:49Z</time>
      </trkpt>
      <trkpt lat="40.258250" lon="-4.899767">
        <ele>1939.0</ele>
        <time>2015-03-15T13:43:51Z</time>
      </trkpt>
      <trkpt lat="40.258367" lon="-4.899933">
        <ele>1943.0</ele>
        <time>2015-03-15T13:43:53Z</time>
      </trkpt>
      <trkpt lat="40.258433" lon="-4.900133">
        <ele>1942.0</ele>
        <time>2015-03-15T13:43:55Z</time>
      </trkpt>
      <trkpt lat="40.258367" lon="-4.900317">
        <ele>1944.0</ele>
        <time>2015-03-15T13:43:57Z</time>
      </trkpt>
      <trkpt lat="40.258300" lon="-4.900383">
        <ele>1951.0</ele>
        <time>2015-03-15T13:43:59Z</time>
      </trkpt>
      <trkpt lat="40.258250" lon="-4.900383">
        <ele>1955.0</ele>
        <time>2015-03-15T13:44:01Z</time>
      </trkpt>
      <trkpt lat="40.258183" lon="-4.900250">
        <ele>1957.0</ele>
        <time>2015-03-15T13:44:03Z</time>
      </trkpt>
      <trkpt lat="40.258167" lon="-4.900050">
        <ele>1963.0</ele>
        <time>2015-03-15T13:44:05Z</time>
      </trkpt>
      <trkpt lat="40.258183" lon="-4.899900">
        <ele>1967.0</ele>
        <time>2015-03-15T13:44:07Z</time>
      </trkpt>
      <trkpt lat="40.258167" lon="-4.899717">
        <ele>1968.0</ele>
        <time>2015-03-15T13:44:09Z</time>
      </trkpt>
      <trkpt lat="40.258200" lon="-4.899467">
        <ele>1972.0</ele>
        <time>2015-03-15T13:44:11Z</time>
      </trkpt>
      <trkpt lat="40.258250" lon="-4.899267">
        <ele>1977.0</ele>
        <time>2015-03-15T13:44:13Z</time>
      </trkpt>
      <trkpt lat="40.258350" lon="-4.899083">
        <ele>1980.0</ele>
        <time>2015-03-15T13:44:15Z</time>
      </trkpt>
      <trkpt lat="40.258500" lon="-4.898850">
        <ele>1980.0</ele>
        <time>2015-03-15T13:44:17Z</time>
      </trkpt>
      <trkpt lat="40.258650" lon="-4.898600">
        <ele>1985.0</ele>
        <time>2015-03-15T13:44:19Z</time>
      </trkpt>
      <trkpt lat="40.258800" lon="-4.898433">
        <ele>1990.0</ele>
        <time>2015-03-15T13:44:21Z</time>
      </trkpt>
      <trkpt lat="40.258967" lon="-4.898350">
        <ele>1991.0</ele>
        <time>2015-03-15T13:44:23Z</time>
      </trkpt>
      <trkpt lat="40.259200" lon="-4.898333">
        <ele>1990.0</ele>
        <time>2015-03-15T13:44:25Z</time>
      </trkpt>
      <trkpt lat="40.259400" lon="-4.898383">
        <ele>1991.0</ele>
        <time>2015-03-15T13:44:27Z</time>
      </trkpt>
      <trkpt lat="40.259517" lon="-4.898583">
        <ele>1989.0</ele>
        <time>2015-03-15T13:44:29Z</time>
      </trkpt>
      <trkpt lat="40.259567" lon="-4.898783">
        <ele>1993.0</ele>
        <time>2015-03-15T13:44:31Z</time>
      </trkpt>
      <trkpt lat="40.259550" lon="-4.898917">
        <ele>1997.0</ele>
        <time>2015-03-15T13:44:33Z</time>
      </trkpt>
      <trkpt lat="40.259467" lon="-4.899000">
        <ele>1999.0</ele>
        <time>2015-03-15T13:44:35Z</time>
      </trkpt>
      <trkpt lat="40.259383" lon="-4.899000">
        <ele>1999.0</ele>
        <time>2015-03-15T13:44:37Z</time>
      </trkpt>
      <trkpt lat="40.259283" lon="-4.898933">
        <ele>1996.0</ele>
        <time>2015-03-15T13:44:39Z</time>
      </trkpt>
      <trkpt lat="40.259150" lon="-4.898833">
        <ele>1994.0</ele>
        <time>2015-03-15T13:44:41Z</time>
      </trkpt>
      <trkpt lat="40.259017" lon="-4.898683">
        <ele>1995.0</ele>
        <time>2015-03-15T13:44:43Z</time>
      </trkpt>
      <trkpt lat="40.258900" lon="-4.898500">
        <ele>1999.0</ele>
        <time>2015-03-15T13:44:45Z</time>
      </trkpt>
      <trkpt lat="40.258817" lon="-4.898300">
        <ele>2006.0</ele>
        <time>2015-03-15T13:44:47Z</time>
      </trkpt>
      <trkpt lat="40.258750" lon="-4.898067">
        <ele>2011.0</ele>
        <time>2015-03-15T13:44:49Z</time>
      </trkpt>
      <trkpt lat="40.258700" lon="-4.897817">
        <ele>2016.0</ele>
        <time>2015-03-15T13:44:51Z</time>
      </trkpt>
      <trkpt lat="40.258717" lon="-4.897567">
        <ele>2021.0</ele>
        <time>2015-03-15T13:44:53Z</time>
      </trkpt>
      <trkpt lat="40.258800" lon="-4.897333">
        <ele>2025.0</ele>
        <time>2015-03-15T13:44:55Z</time>
      </trkpt>
      <trkpt lat="40.258900" lon="-4.897133">
        <ele>2027.0</ele>
        <time>2015-03-15T13:44:57Z</time>
      </trkpt>
      <trkpt lat="40.259083" lon="-4.896950">
        <ele>2029.0</ele>
        <time>2015-03-15T13:44:59Z</time>
      </trkpt>
      <trkpt lat="40.259300" lon="-4.896817">
        <ele>2032.0</ele>
        <time>2015-03-15T13:45:01Z</time>
      </trkpt>
      <trkpt lat="40.259533" lon="-4.896800">
        <ele>2035.0</ele>
        <time>2015-03-15T13:45:03Z</time>
      </trkpt>
      <trkpt lat="40.259733" lon="-4.896900">
        <ele>2036.0</ele>
        <time>2015-03-15T13:45:05Z</time>
      </trkpt>
      <trkpt lat="40.259883" lon="-4.897067">
        <ele>2038.0</ele>
        <time>2015-03-15T13:45:07Z</time>
      </trkpt>
      <trkpt lat="40.259950" lon="-4.897267">
        <ele>2039.0</ele>
        <time>2015-03-15T13:45:09Z</time>
      </trkpt>
      <trkpt lat="40.259933" lon="-4.897483">
        <ele>2040.0</ele>
        <time>2015-03-15T13:45:11Z</time>
      </trkpt>
      <trkpt lat="40.259867" lon="-4.897633">
        <ele>2044.0</ele>
        <time>2015-03-15T13:45:13Z</time>
      </trkpt>
      <trkpt lat="40.259767" lon="-4.897717">
        <ele>2047.0</ele>
        <time>2015-03-15T13:45:15Z</time>
      </trkpt>
      <trkpt lat="40.259633" lon="-4.897700">
        <ele>2049.0</ele>
        <time>2015-03-15T13:45:17Z</time>
      </trkpt>
      <trkpt lat="40.259517" lon="-4.897583">
        <ele>2052.0</ele>
        <time>2015-03-15T13:45:19Z</time>
      </trkpt>
      <trkpt lat="40.259400" lon="-4.897417">
        <ele>2058.0</ele>
        <time>2015-03-15T13:45:21Z</time>
      </trkpt>
      <trkpt lat="40.259333" lon="-4.897233">
        <ele>2064.0</ele>
        <time>2015-03-15T13:45:23Z</time>
      </trkpt>
      <trkpt lat="40.259317" lon="-4.897050">
        <ele>2065.0</ele>
        <time>2015-03-15T13:45:25Z</time>
      </trkpt>
      <trkpt lat="40.259300" lon="-4.896767">
        <ele>2064.0</ele>
        <time>2015-03-15T13:45:27Z</time>
      </trkpt>
      <trkpt lat="40.259300" lon="-4.896483">
        <ele>2067.0</ele>
        <time>2015-03-15T13:45:29Z</time>
      </trkpt>
      <trkpt lat="40.259300" lon="-4.896250">
        <ele>2073.0</ele>
        <time>2015-03-15T13:45:31Z</time>
      </trkpt>
      <trkpt lat="40.259300" lon="-4.896033">
        <ele>2076.0</ele>
        <time>2015-03-15T13:45:33Z</time>
      </trkpt>
      <trkpt lat="40.259350" lon="-4.895783">
        <ele>2078.0</ele>
        <time>2015-03-15T13:45:35Z</time>
      </trkpt>
      <trkpt lat="40.259450" lon="-4.895533">
        <ele>2080.0</ele>
        <time>2015-03-15T13:45:37Z</time>
      </trkpt>
      <trkpt lat="40.259550" lon="-4.895300">
        <ele>2081.0</ele>
        <time>2015-03-15T13:45:39Z</time>
      </trkpt>
      <trkpt lat="40.259683" lon="-4.895067">
        <ele>2082.0</ele>
        <time>2015-03-15T13:45:41Z</time>
      </trkpt>
      <trkpt lat="40.259867" lon="-4.894850">
        <ele>2081.0</ele>
        <time>2015-03-15T13:45:43Z</time>
      </trkpt>
      <trkpt lat="40.260033" lon="-4.894650">
        <ele>2082.0</ele>
        <time>2015-03-15T13:45:45Z</time>
      </trkpt>
      <trkpt lat="40.260167" lon="-4.894417">
        <ele>2079.0</ele>
        <time>2015-03-15T13:45:47Z</time>
      </trkpt>
      <trkpt lat="40.260317" lon="-4.894150">
        <ele>2075.0</ele>
        <time>2015-03-15T13:45:49Z</time>
      </trkpt>
      <trkpt lat="40.260450" lon="-4.893883">
        <ele>2074.0</ele>
        <time>2015-03-15T13:45:51Z</time>
      </trkpt>
      <trkpt lat="40.260567" lon="-4.893617">
        <ele>2073.0</ele>
        <time>2015-03-15T13:45:53Z</time>
      </trkpt>
      <trkpt lat="40.260667" lon="-4.893367">
        <ele>2072.0</ele>
        <time>2015-03-15T13:45:55Z</time>
      </trkpt>
      <trkpt lat="40.260767" lon="-4.893117">
        <ele>2070.0</ele>
        <time>2015-03-15T13:45:57Z</time>
      </trkpt>
      <trkpt lat="40.260833" lon="-4.892850">
        <ele>2068.0</ele>
        <time>2015-03-15T13:45:59Z</time>
      </trkpt>
      <trkpt lat="40.260883" lon="-4.892583">
        <ele>2065.0</ele>
        <time>2015-03-15T13:46:01Z</time>
      </trkpt>
      <trkpt lat="40.260933" lon="-4.892317">
        <ele>2062.0</ele>
        <time>2015-03-15T13:46:03Z</time>
      </trkpt>
      <trkpt lat="40.260967" lon="-4.892033">
        <ele>2060.0</ele>
        <time>2015-03-15T13:46:05Z</time>
      </trkpt>
      <trkpt lat="40.261033" lon="-4.891783">
        <ele>2058.0</ele>
        <time>2015-03-15T13:46:07Z</time>
      </trkpt>
      <trkpt lat="40.261117" lon="-4.891533">
        <ele>2056.0</ele>
        <time>2015-03-15T13:46:09Z</time>
      </trkpt>
      <trkpt lat="40.261200" lon="-4.891267">
        <ele>2054.0</ele>
        <time>2015-03-15T13:46:11Z</time>
      </trkpt>
      <trkpt lat="40.261283" lon="-4.891000">
        <ele>2052.0</ele>
        <time>2015-03-15T13:46:13Z</time>
      </trkpt>
      <trkpt lat="40.261367" lon="-4.890700">
        <ele>2050.0</ele>
        <time>2015-03-15T13:46:15Z</time>
      </trkpt>
      <trkpt lat="40.261450" lon="-4.890433">
        <ele>2050.0</ele>
        <time>2015-03-15T13:46:17Z</time>
      </trkpt>
      <trkpt lat="40.261500" lon="-4.890183">
        <ele>2049.0</ele>
        <time>2015-03-15T13:46:19Z</time>
      </trkpt>
      <trkpt lat="40.261583" lon="-4.889900">
        <ele>2046.0</ele>
        <time>2015-03-15T13:46:21Z</time>
      </trkpt>
      <trkpt lat="40.261683" lon="-4.889617">
        <ele>2045.0</ele>
        <time>2015-03-15T13:46:23Z</time>
      </trkpt>
      <trkpt lat="40.261767" lon="-4.889350">
        <ele>2047.0</ele>
        <time>2015-03-15T13:46:25Z</time>
      </trkpt>
      <trkpt lat="40.261850" lon="-4.889083">
        <ele>2044.0</ele>
        <time>2015-03-15T13:46:27Z</time>
      </trkpt>
      <trkpt lat="40.261900" lon="-4.888800">
        <ele>2042.0</ele>
        <time>2015-03-15T13:46:29Z</time>
      </trkpt>
      <trkpt lat="40.261950" lon="-4.888500">
        <ele>2038.0</ele>
        <time>2015-03-15T13:46:31Z</time>
      </trkpt>
      <trkpt lat="40.261967" lon="-4.888200">
        <ele>2034.0</ele>
        <time>2015-03-15T13:46:33Z</time>
      </trkpt>
      <trkpt lat="40.261983" lon="-4.887900">
        <ele>2030.0</ele>
        <time>2015-03-15T13:46:35Z</time>
      </trkpt>
      <trkpt lat="40.262050" lon="-4.887600">
        <ele>2027.0</ele>
        <time>2015-03-15T13:46:37Z</time>
      </trkpt>
      <trkpt lat="40.262117" lon="-4.887300">
        <ele>2025.0</ele>
        <time>2015-03-15T13:46:39Z</time>
      </trkpt>
      <trkpt lat="40.262183" lon="-4.887017">
        <ele>2022.0</ele>
        <time>2015-03-15T13:46:41Z</time>
      </trkpt>
      <trkpt lat="40.262267" lon="-4.886700">
        <ele>2017.0</ele>
        <time>2015-03-15T13:46:43Z</time>
      </trkpt>
      <trkpt lat="40.262350" lon="-4.886367">
        <ele>2014.0</ele>
        <time>2015-03-15T13:46:45Z</time>
      </trkpt>
      <trkpt lat="40.262400" lon="-4.886083">
        <ele>2013.0</ele>
        <time>2015-03-15T13:46:47Z</time>
      </trkpt>
      <trkpt lat="40.262450" lon="-4.885817">
        <ele>2009.0</ele>
        <time>2015-03-15T13:46:49Z</time>
      </trkpt>
      <trkpt lat="40.262517" lon="-4.885500">
        <ele>2003.0</ele>
        <time>2015-03-15T13:46:51Z</time>
      </trkpt>
      <trkpt lat="40.262583" lon="-4.885217">
        <ele>2001.0</ele>
        <time>2015-03-15T13:46:53Z</time>
      </trkpt>
      <trkpt lat="40.262617" lon="-4.884933">
        <ele>2000.0</ele>
        <time>2015-03-15T13:46:55Z</time>
      </trkpt>
      <trkpt lat="40.262683" lon="-4.884617">
        <ele>1997.0</ele>
        <time>2015-03-15T13:46:57Z</time>
      </trkpt>
      <trkpt lat="40.262767" lon="-4.884350">
        <ele>1996.0</ele>
        <time>2015-03-15T13:46:59Z</time>
      </trkpt>
      <trkpt lat="40.262833" lon="-4.884100">
        <ele>1994.0</ele>
        <time>2015-03-15T13:47:01Z</time>
      </trkpt>
      <trkpt lat="40.262917" lon="-4.883833">
        <ele>1987.0</ele>
        <time>2015-03-15T13:47:03Z</time>
      </trkpt>
      <trkpt lat="40.263017" lon="-4.883550">
        <ele>1982.0</ele>
        <time>2015-03-15T13:47:05Z</time>
      </trkpt>
      <trkpt lat="40.263117" lon="-4.883300">
        <ele>1979.0</ele>
        <time>2015-03-15T13:47:07Z</time>
      </trkpt>
      <trkpt lat="40.263200" lon="-4.883067">
        <ele>1973.0</ele>
        <time>2015-03-15T13:47:09Z</time>
      </trkpt>
      <trkpt lat="40.263300" lon="-4.882800">
        <ele>1970.0</ele>
        <time>2015-03-15T13:47:11Z</time>
      </trkpt>
      <trkpt lat="40.263383" lon="-4.882550">
        <ele>1968.0</ele>
        <time>2015-03-15T13:47:13Z</time>
      </trkpt>
      <trkpt lat="40.263433" lon="-4.882267">
        <ele>1963.0</ele>
        <time>2015-03-15T13:47:15Z</time>
      </trkpt>
      <trkpt lat="40.263483" lon="-4.881967">
        <ele>1961.0</ele>
        <time>2015-03-15T13:47:17Z</time>
      </trkpt>
      <trkpt lat="40.263567" lon="-4.881700">
        <ele>1962.0</ele>
        <time>2015-03-15T13:47:19Z</time>
      </trkpt>
      <trkpt lat="40.263617" lon="-4.881467">
        <ele>1961.0</ele>
        <time>2015-03-15T13:47:21Z</time>
      </trkpt>
      <trkpt lat="40.263700" lon="-4.881183">
        <ele>1958.0</ele>
        <time>2015-03-15T13:47:23Z</time>
      </trkpt>
      <trkpt lat="40.263783" lon="-4.880917">
        <ele>1959.0</ele>
        <time>2015-03-15T13:47:25Z</time>
      </trkpt>
      <trkpt lat="40.263833" lon="-4.880700">
        <ele>1959.0</ele>
        <time>2015-03-15T13:47:27Z</time>
      </trkpt>
      <trkpt lat="40.263883" lon="-4.880450">
        <ele>1957.0</ele>
        <time>2015-03-15T13:47:29Z</time>
      </trkpt>
      <trkpt lat="40.263933" lon="-4.880183">
        <ele>1956.0</ele>
        <time>2015-03-15T13:47:31Z</time>
      </trkpt>
      <trkpt lat="40.263983" lon="-4.879917">
        <ele>1957.0</ele>
        <time>2015-03-15T13:47:33Z</time>
      </trkpt>
      <trkpt lat="40.264050" lon="-4.879700">
        <ele>1955.0</ele>
        <time>2015-03-15T13:47:35Z</time>
      </trkpt>
      <trkpt lat="40.264133" lon="-4.879467">
        <ele>1951.0</ele>
        <time>2015-03-15T13:47:37Z</time>
      </trkpt>
      <trkpt lat="40.264217" lon="-4.879200">
        <ele>1947.0</ele>
        <time>2015-03-15T13:47:39Z</time>
      </trkpt>
      <trkpt lat="40.264300" lon="-4.878967">
        <ele>1944.0</ele>
        <time>2015-03-15T13:47:41Z</time>
      </trkpt>
      <trkpt lat="40.264383" lon="-4.878733">
        <ele>1940.0</ele>
        <time>2015-03-15T13:47:43Z</time>
      </trkpt>
      <trkpt lat="40.264467" lon="-4.878483">
        <ele>1935.0</ele>
        <time>2015-03-15T13:47:45Z</time>
      </trkpt>
      <trkpt lat="40.264533" lon="-4.878233">
        <ele>1931.0</ele>
        <time>2015-03-15T13:47:47Z</time>
      </trkpt>
      <trkpt lat="40.264617" lon="-4.877983">
        <ele>1925.0</ele>
        <time>2015-03-15T13:47:49Z</time>
      </trkpt>
      <trkpt lat="40.264700" lon="-4.877717">
        <ele>1920.0</ele>
        <time>2015-03-15T13:47:51Z</time>
      </trkpt>
      <trkpt lat="40.264800" lon="-4.877500">
        <ele>1916.0</ele>
        <time>2015-03-15T13:47:53Z</time>
      </trkpt>
      <trkpt lat="40.264883" lon="-4.877283">
        <ele>1910.0</ele>
        <time>2015-03-15T13:47:55Z</time>
      </trkpt>
      <trkpt lat="40.264983" lon="-4.877067">
        <ele>1904.0</ele>
        <time>2015-03-15T13:47:57Z</time>
      </trkpt>
      <trkpt lat="40.265083" lon="-4.876833">
        <ele>1898.0</ele>
        <time>2015-03-15T13:47:59Z</time>
      </trkpt>
      <trkpt lat="40.265183" lon="-4.876617">
        <ele>1893.0</ele>
        <time>2015-03-15T13:48:01Z</time>
      </trkpt>
      <trkpt lat="40.265300" lon="-4.876383">
        <ele>1889.0</ele>
        <time>2015-03-15T13:48:03Z</time>
      </trkpt>
      <trkpt lat="40.265400" lon="-4.876150">
        <ele>1886.0</ele>
        <time>2015-03-15T13:48:05Z</time>
      </trkpt>
      <trkpt lat="40.265500" lon="-4.875900">
        <ele>1885.0</ele>
        <time>2015-03-15T13:48:07Z</time>
      </trkpt>
      <trkpt lat="40.265600" lon="-4.875700">
        <ele>1883.0</ele>
        <time>2015-03-15T13:48:09Z</time>
      </trkpt>
      <trkpt lat="40.265717" lon="-4.875467">
        <ele>1880.0</ele>
        <time>2015-03-15T13:48:11Z</time>
      </trkpt>
      <trkpt lat="40.265833" lon="-4.875233">
        <ele>1877.0</ele>
        <time>2015-03-15T13:48:13Z</time>
      </trkpt>
      <trkpt lat="40.265933" lon="-4.875033">
        <ele>1876.0</ele>
        <time>2015-03-15T13:48:15Z</time>
      </trkpt>
      <trkpt lat="40.266033" lon="-4.874850">
        <ele>1873.0</ele>
        <time>2015-03-15T13:48:17Z</time>
      </trkpt>
      <trkpt lat="40.266150" lon="-4.874650">
        <ele>1869.0</ele>
        <time>2015-03-15T13:48:19Z</time>
      </trkpt>
      <trkpt lat="40.266267" lon="-4.874450">
        <ele>1867.0</ele>
        <time>2015-03-15T13:48:21Z</time>
      </trkpt>
      <trkpt lat="40.266367" lon="-4.874300">
        <ele>1862.0</ele>
        <time>2015-03-15T13:48:23Z</time>
      </trkpt>
      <trkpt lat="40.266500" lon="-4.874100">
        <ele>1855.0</ele>
        <time>2015-03-15T13:48:25Z</time>
      </trkpt>
      <trkpt lat="40.266650" lon="-4.873900">
        <ele>1852.0</ele>
        <time>2015-03-15T13:48:27Z</time>
      </trkpt>
      <trkpt lat="40.266783" lon="-4.873700">
        <ele>1849.0</ele>
        <time>2015-03-15T13:48:29Z</time>
      </trkpt>
      <trkpt lat="40.266933" lon="-4.873500">
        <ele>1846.0</ele>
        <time>2015-03-15T13:48:31Z</time>
      </trkpt>
      <trkpt lat="40.267050" lon="-4.873300">
        <ele>1845.0</ele>
        <time>2015-03-15T13:48:33Z</time>
      </trkpt>
      <trkpt lat="40.267183" lon="-4.873100">
        <ele>1842.0</ele>
        <time>2015-03-15T13:48:35Z</time>
      </trkpt>
      <trkpt lat="40.267317" lon="-4.872917">
        <ele>1838.0</ele>
        <time>2015-03-15T13:48:37Z</time>
      </trkpt>
      <trkpt lat="40.267467" lon="-4.872717">
        <ele>1833.0</ele>
        <time>2015-03-15T13:48:39Z</time>
      </trkpt>
      <trkpt lat="40.267617" lon="-4.872533">
        <ele>1830.0</ele>
        <time>2015-03-15T13:48:41Z</time>
      </trkpt>
      <trkpt lat="40.267767" lon="-4.872367">
        <ele>1826.0</ele>
        <time>2015-03-15T13:48:43Z</time>
      </trkpt>
      <trkpt lat="40.267917" lon="-4.872183">
        <ele>1822.0</ele>
        <time>2015-03-15T13:48:45Z</time>
      </trkpt>
      <trkpt lat="40.268067" lon="-4.872017">
        <ele>1818.0</ele>
        <time>2015-03-15T13:48:47Z</time>
      </trkpt>
      <trkpt lat="40.268217" lon="-4.871833">
        <ele>1814.0</ele>
        <time>2015-03-15T13:48:49Z</time>
      </trkpt>
      <trkpt lat="40.268350" lon="-4.871633">
        <ele>1809.0</ele>
        <time>2015-03-15T13:48:51Z</time>
      </trkpt>
      <trkpt lat="40.268483" lon="-4.871417">
        <ele>1804.0</ele>
        <time>2015-03-15T13:48:53Z</time>
      </trkpt>
      <trkpt lat="40.268600" lon="-4.871183">
        <ele>1799.0</ele>
        <time>2015-03-15T13:48:55Z</time>
      </trkpt>
      <trkpt lat="40.268717" lon="-4.870967">
        <ele>1796.0</ele>
        <time>2015-03-15T13:48:57Z</time>
      </trkpt>
      <trkpt lat="40.268850" lon="-4.870733">
        <ele>1791.0</ele>
        <time>2015-03-15T13:48:59Z</time>
      </trkpt>
      <trkpt lat="40.268967" lon="-4.870500">
        <ele>1787.0</ele>
        <time>2015-03-15T13:49:01Z</time>
      </trkpt>
      <trkpt lat="40.269083" lon="-4.870267">
        <ele>1783.0</ele>
        <time>2015-03-15T13:49:03Z</time>
      </trkpt>
      <trkpt lat="40.269233" lon="-4.870050">
        <ele>1780.0</ele>
        <time>2015-03-15T13:49:05Z</time>
      </trkpt>
      <trkpt lat="40.269350" lon="-4.869850">
        <ele>1778.0</ele>
        <time>2015-03-15T13:49:07Z</time>
      </trkpt>
      <trkpt lat="40.269450" lon="-4.869667">
        <ele>1776.0</ele>
        <time>2015-03-15T13:49:09Z</time>
      </trkpt>
      <trkpt lat="40.269567" lon="-4.869433">
        <ele>1773.0</ele>
        <time>2015-03-15T13:49:11Z</time>
      </trkpt>
      <trkpt lat="40.269700" lon="-4.869217">
        <ele>1772.0</ele>
        <time>2015-03-15T13:49:13Z</time>
      </trkpt>
      <trkpt lat="40.269800" lon="-4.869033">
        <ele>1772.0</ele>
        <time>2015-03-15T13:49:15Z</time>
      </trkpt>
      <trkpt lat="40.269900" lon="-4.868850">
        <ele>1768.0</ele>
        <time>2015-03-15T13:49:17Z</time>
      </trkpt>
      <trkpt lat="40.270033" lon="-4.868633">
        <ele>1764.0</ele>
        <time>2015-03-15T13:49:19Z</time>
      </trkpt>
      <trkpt lat="40.270167" lon="-4.868417">
        <ele>1761.0</ele>
        <time>2015-03-15T13:49:21Z</time>
      </trkpt>
      <trkpt lat="40.270283" lon="-4.868217">
        <ele>1760.0</ele>
        <time>2015-03-15T13:49:23Z</time>
      </trkpt>
      <trkpt lat="40.270383" lon="-4.867983">
        <ele>1758.0</ele>
        <time>2015-03-15T13:49:25Z</time>
      </trkpt>
      <trkpt lat="40.270483" lon="-4.867767">
        <ele>1755.0</ele>
        <time>2015-03-15T13:49:27Z</time>
      </trkpt>
      <trkpt lat="40.270600" lon="-4.867550">
        <ele>1752.0</ele>
        <time>2015-03-15T13:49:29Z</time>
      </trkpt>
      <trkpt lat="40.270717" lon="-4.867333">
        <ele>1749.0</ele>
        <time>2015-03-15T13:49:31Z</time>
      </trkpt>
      <trkpt lat="40.270833" lon="-4.867100">
        <ele>1748.0</ele>
        <time>2015-03-15T13:49:33Z</time>
      </trkpt>
      <trkpt lat="40.270933" lon="-4.866900">
        <ele>1747.0</ele>
        <time>2015-03-15T13:49:35Z</time>
      </trkpt>
      <trkpt lat="40.271033" lon="-4.866717">
        <ele>1745.0</ele>
        <time>2015-03-15T13:49:37Z</time>
      </trkpt>
      <trkpt lat="40.271133" lon="-4.866517">
        <ele>1743.0</ele>
        <time>2015-03-15T13:49:39Z</time>
      </trkpt>
      <trkpt lat="40.271250" lon="-4.866300">
        <ele>1742.0</ele>
        <time>2015-03-15T13:49:41Z</time>
      </trkpt>
      <trkpt lat="40.271367" lon="-4.866117">
        <ele>1740.0</ele>
        <time>2015-03-15T13:49:43Z</time>
      </trkpt>
      <trkpt lat="40.271483" lon="-4.865917">
        <ele>1736.0</ele>
        <time>2015-03-15T13:49:45Z</time>
      </trkpt>
      <trkpt lat="40.271633" lon="-4.865717">
        <ele>1732.0</ele>
        <time>2015-03-15T13:49:47Z</time>
      </trkpt>
      <trkpt lat="40.271767" lon="-4.865533">
        <ele>1730.0</ele>
        <time>2015-03-15T13:49:49Z</time>
      </trkpt>
      <trkpt lat="40.271900" lon="-4.865367">
        <ele>1728.0</ele>
        <time>2015-03-15T13:49:51Z</time>
      </trkpt>
      <trkpt lat="40.272050" lon="-4.865183">
        <ele>1725.0</ele>
        <time>2015-03-15T13:49:53Z</time>
      </trkpt>
      <trkpt lat="40.272183" lon="-4.864983">
        <ele>1722.0</ele>
        <time>2015-03-15T13:49:55Z</time>
      </trkpt>
      <trkpt lat="40.272300" lon="-4.864800">
        <ele>1721.0</ele>
        <time>2015-03-15T13:49:57Z</time>
      </trkpt>
      <trkpt lat="40.272417" lon="-4.864633">
        <ele>1720.0</ele>
        <time>2015-03-15T13:49:59Z</time>
      </trkpt>
      <trkpt lat="40.272517" lon="-4.864450">
        <ele>1717.0</ele>
        <time>2015-03-15T13:50:01Z</time>
      </trkpt>
      <trkpt lat="40.272650" lon="-4.864267">
        <ele>1715.0</ele>
        <time>2015-03-15T13:50:03Z</time>
      </trkpt>
      <trkpt lat="40.272767" lon="-4.864083">
        <ele>1713.0</ele>
        <time>2015-03-15T13:50:05Z</time>
      </trkpt>
      <trkpt lat="40.272900" lon="-4.863900">
        <ele>1712.0</ele>
        <time>2015-03-15T13:50:07Z</time>
      </trkpt>
      <trkpt lat="40.273033" lon="-4.863700">
        <ele>1710.0</ele>
        <time>2015-03-15T13:50:09Z</time>
      </trkpt>
      <trkpt lat="40.273167" lon="-4.863500">
        <ele>1710.0</ele>
        <time>2015-03-15T13:50:11Z</time>
      </trkpt>
      <trkpt lat="40.273300" lon="-4.863317">
        <ele>1710.0</ele>
        <time>2015-03-15T13:50:13Z</time>
      </trkpt>
      <trkpt lat="40.273433" lon="-4.863133">
        <ele>1710.0</ele>
        <time>2015-03-15T13:50:15Z</time>
      </trkpt>
      <trkpt lat="40.273567" lon="-4.862967">
        <ele>1711.0</ele>
        <time>2015-03-15T13:50:17Z</time>
      </trkpt>
      <trkpt lat="40.273683" lon="-4.862817">
        <ele>1710.0</ele>
        <time>2015-03-15T13:50:19Z</time>
      </trkpt>
      <trkpt lat="40.273783" lon="-4.862650">
        <ele>1708.0</ele>
        <time>2015-03-15T13:50:21Z</time>
      </trkpt>
      <trkpt lat="40.273917" lon="-4.862483">
        <ele>1707.0</ele>
        <time>2015-03-15T13:50:23Z</time>
      </trkpt>
      <trkpt lat="40.274033" lon="-4.862333">
        <ele>1706.0</ele>
        <time>2015-03-15T13:50:25Z</time>
      </trkpt>
      <trkpt lat="40.274167" lon="-4.862167">
        <ele>1703.0</ele>
        <time>2015-03-15T13:50:27Z</time>
      </trkpt>
      <trkpt lat="40.274283" lon="-4.862000">
        <ele>1699.0</ele>
        <time>2015-03-15T13:50:29Z</time>
      </trkpt>
      <trkpt lat="40.274417" lon="-4.861800">
        <ele>1698.0</ele>
        <time>2015-03-15T13:50:31Z</time>
      </trkpt>
      <trkpt lat="40.274517" lon="-4.861633">
        <ele>1697.0</ele>
        <time>2015-03-15T13:50:33Z</time>
      </trkpt>
      <trkpt lat="40.274633" lon="-4.861450">
        <ele>1694.0</ele>
        <time>2015-03-15T13:50:35Z</time>
      </trkpt>
      <trkpt lat="40.274733" lon="-4.861250">
        <ele>1691.0</ele>
        <time>2015-03-15T13:50:37Z</time>
      </trkpt>
      <trkpt lat="40.274833" lon="-4.861033">
        <ele>1690.0</ele>
        <time>2015-03-15T13:50:39Z</time>
      </trkpt>
      <trkpt lat="40.274933" lon="-4.860850">
        <ele>1689.0</ele>
        <time>2015-03-15T13:50:41Z</time>
      </trkpt>
      <trkpt lat="40.275050" lon="-4.860633">
        <ele>1686.0</ele>
        <time>2015-03-15T13:50:43Z</time>
      </trkpt>
      <trkpt lat="40.275150" lon="-4.860433">
        <ele>1686.0</ele>
        <time>2015-03-15T13:50:45Z</time>
      </trkpt>
      <trkpt lat="40.275250" lon="-4.860250">
        <ele>1686.0</ele>
        <time>2015-03-15T13:50:47Z</time>
      </trkpt>
      <trkpt lat="40.275350" lon="-4.860067">
        <ele>1683.0</ele>
        <time>2015-03-15T13:50:49Z</time>
      </trkpt>
      <trkpt lat="40.275467" lon="-4.859850">
        <ele>1679.0</ele>
        <time>2015-03-15T13:50:51Z</time>
      </trkpt>
      <trkpt lat="40.275567" lon="-4.859633">
        <ele>1676.0</ele>
        <time>2015-03-15T13:50:53Z</time>
      </trkpt>
      <trkpt lat="40.275667" lon="-4.859417">
        <ele>1673.0</ele>
        <time>2015-03-15T13:50:55Z</time>
      </trkpt>
      <trkpt lat="40.275750" lon="-4.859200">
        <ele>1670.0</ele>
        <time>2015-03-15T13:50:57Z</time>
      </trkpt>
      <trkpt lat="40.275850" lon="-4.858983">
        <ele>1668.0</ele>
        <time>2015-03-15T13:50:59Z</time>
      </trkpt>
      <trkpt lat="40.275950" lon="-4.858783">
        <ele>1666.0</ele>
        <time>2015-03-15T13:51:01Z</time>
      </trkpt>
      <trkpt lat="40.276033" lon="-4.858550">
        <ele>1663.0</ele>
        <time>2015-03-15T13:51:03Z</time>
      </trkpt>
      <trkpt lat="40.276133" lon="-4.858317">
        <ele>1661.0</ele>
        <time>2015-03-15T13:51:05Z</time>
      </trkpt>
      <trkpt lat="40.276217" lon="-4.858100">
        <ele>1660.0</ele>
        <time>2015-03-15T13:51:07Z</time>
      </trkpt>
      <trkpt lat="40.276317" lon="-4.857883">
        <ele>1657.0</ele>
        <time>2015-03-15T13:51:09Z</time>
      </trkpt>
      <trkpt lat="40.276417" lon="-4.857667">
        <ele>1653.0</ele>
        <time>2015-03-15T13:51:11Z</time>
      </trkpt>
      <trkpt lat="40.276517" lon="-4.857433">
        <ele>1652.0</ele>
        <time>2015-03-15T13:51:13Z</time>
      </trkpt>
      <trkpt lat="40.276600" lon="-4.857233">
        <ele>1650.0</ele>
        <time>2015-03-15T13:51:15Z</time>
      </trkpt>
      <trkpt lat="40.276700" lon="-4.857033">
        <ele>1646.0</ele>
        <time>2015-03-15T13:51:17Z</time>
      </trkpt>
      <trkpt lat="40.276800" lon="-4.856800">
        <ele>1642.0</ele>
        <time>2015-03-15T13:51:19Z</time>
      </trkpt>
      <trkpt lat="40.276883" lon="-4.856567">
        <ele>1639.0</ele>
        <time>2015-03-15T13:51:21Z</time>
      </trkpt>
      <trkpt lat="40.276983" lon="-4.856367">
        <ele>1638.0</ele>
        <time>2015-03-15T13:51:23Z</time>
      </trkpt>
      <trkpt lat="40.277083" lon="-4.856200">
        <ele>1634.0</ele>
        <time>2015-03-15T13:51:25Z</time>
      </trkpt>
      <trkpt lat="40.277183" lon="-4.855967">
        <ele>1628.0</ele>
        <time>2015-03-15T13:51:27Z</time>
      </trkpt>
      <trkpt lat="40.277283" lon="-4.855750">
        <ele>1627.0</ele>
        <time>2015-03-15T13:51:29Z</time>
      </trkpt>
      <trkpt lat="40.277383" lon="-4.855550">
        <ele>1627.0</ele>
        <time>2015-03-15T13:51:31Z</time>
      </trkpt>
      <trkpt lat="40.277483" lon="-4.855350">
        <ele>1625.0</ele>
        <time>2015-03-15T13:51:33Z</time>
      </trkpt>
      <trkpt lat="40.277583" lon="-4.855133">
        <ele>1623.0</ele>
        <time>2015-03-15T13:51:35Z</time>
      </trkpt>
      <trkpt lat="40.277683" lon="-4.854933">
        <ele>1622.0</ele>
        <time>2015-03-15T13:51:37Z</time>
      </trkpt>
      <trkpt lat="40.277783" lon="-4.854750">
        <ele>1620.0</ele>
        <time>2015-03-15T13:51:39Z</time>
      </trkpt>
      <trkpt lat="40.277883" lon="-4.854567">
        <ele>1618.0</ele>
        <time>2015-03-15T13:51:41Z</time>
      </trkpt>
      <trkpt lat="40.278000" lon="-4.854367">
        <ele>1615.0</ele>
        <time>2015-03-15T13:51:43Z</time>
      </trkpt>
      <trkpt lat="40.278100" lon="-4.854167">
        <ele>1612.0</ele>
        <time>2015-03-15T13:51:45Z</time>
      </trkpt>
      <trkpt lat="40.278200" lon="-4.853983">
        <ele>1608.0</ele>
        <time>2015-03-15T13:51:47Z</time>
      </trkpt>
      <trkpt lat="40.278317" lon="-4.853767">
        <ele>1601.0</ele>
        <time>2015-03-15T13:51:49Z</time>
      </trkpt>
      <trkpt lat="40.278433" lon="-4.853533">
        <ele>1599.0</ele>
        <time>2015-03-15T13:51:51Z</time>
      </trkpt>
      <trkpt lat="40.278517" lon="-4.853350">
        <ele>1596.0</ele>
        <time>2015-03-15T13:51:53Z</time>
      </trkpt>
      <trkpt lat="40.278600" lon="-4.853133">
        <ele>1590.0</ele>
        <time>2015-03-15T13:51:55Z</time>
      </trkpt>
      <trkpt lat="40.278667" lon="-4.852883">
        <ele>1587.0</ele>
        <time>2015-03-15T13:51:57Z</time>
      </trkpt>
      <trkpt lat="40.278750" lon="-4.852683">
        <ele>1584.0</ele>
        <time>2015-03-15T13:51:59Z</time>
      </trkpt>
      <trkpt lat="40.278817" lon="-4.852450">
        <ele>1579.0</ele>
        <time>2015-03-15T13:52:01Z</time>
      </trkpt>
      <trkpt lat="40.278883" lon="-4.852200">
        <ele>1575.0</ele>
        <time>2015-03-15T13:52:03Z</time>
      </trkpt>
      <trkpt lat="40.278950" lon="-4.851983">
        <ele>1572.0</ele>
        <time>2015-03-15T13:52:05Z</time>
      </trkpt>
      <trkpt lat="40.279017" lon="-4.851750">
        <ele>1567.0</ele>
        <time>2015-03-15T13:52:07Z</time>
      </trkpt>
      <trkpt lat="40.279083" lon="-4.851500">
        <ele>1563.0</ele>
        <time>2015-03-15T13:52:09Z</time>
      </trkpt>
      <trkpt lat="40.279133" lon="-4.851267">
        <ele>1560.0</ele>
        <time>2015-03-15T13:52:11Z</time>
      </trkpt>
      <trkpt lat="40.279200" lon="-4.851033">
        <ele>1557.0</ele>
        <time>2015-03-15T13:52:13Z</time>
      </trkpt>
      <trkpt lat="40.279267" lon="-4.850800">
        <ele>1554.0</ele>
        <time>2015-03-15T13:52:15Z</time>
      </trkpt>
      <trkpt lat="40.279333" lon="-4.850583">
        <ele>1549.0</ele>
        <time>2015-03-15T13:52:17Z</time>
      </trkpt>
      <trkpt lat="40.279433" lon="-4.850333">
        <ele>1545.0</ele>
        <time>2015-03-15T13:52:19Z</time>
      </trkpt>
      <trkpt lat="40.279517" lon="-4.850100">
        <ele>1542.0</ele>
        <time>2015-03-15T13:52:21Z</time>
      </trkpt>
      <trkpt lat="40.279600" lon="-4.849883">
        <ele>1538.0</ele>
        <time>2015-03-15T13:52:23Z</time>
      </trkpt>
      <trkpt lat="40.279700" lon="-4.849617">
        <ele>1532.0</ele>
        <time>2015-03-15T13:52:25Z</time>
      </trkpt>
      <trkpt lat="40.279800" lon="-4.849367">
        <ele>1531.0</ele>
        <time>2015-03-15T13:52:27Z</time>
      </trkpt>
      <trkpt lat="40.279883" lon="-4.849150">
        <ele>1529.0</ele>
        <time>2015-03-15T13:52:29Z</time>
      </trkpt>
      <trkpt lat="40.279983" lon="-4.848917">
        <ele>1524.0</ele>
        <time>2015-03-15T13:52:31Z</time>
      </trkpt>
      <trkpt lat="40.280083" lon="-4.848650">
        <ele>1519.0</ele>
        <time>2015-03-15T13:52:33Z</time>
      </trkpt>
      <trkpt lat="40.280167" lon="-4.848400">
        <ele>1516.0</ele>
        <time>2015-03-15T13:52:35Z</time>
      </trkpt>
      <trkpt lat="40.280233" lon="-4.848133">
        <ele>1513.0</ele>
        <time>2015-03-15T13:52:37Z</time>
      </trkpt>
      <trkpt lat="40.280317" lon="-4.847867">
        <ele>1512.0</ele>
        <time>2015-03-15T13:52:39Z</time>
      </trkpt>
      <trkpt lat="40.280400" lon="-4.847600">
        <ele>1510.0</ele>
        <time>2015-03-15T13:52:41Z</time>
      </trkpt>
      <trkpt lat="40.280483" lon="-4.847350">
        <ele>1509.0</ele>
        <time>2015-03-15T13:52:43Z</time>
      </trkpt>
      <trkpt lat="40.280583" lon="-4.847100">
        <ele>1508.0</ele>
        <time>2015-03-15T13:52:45Z</time>
      </trkpt>
      <trkpt lat="40.280683" lon="-4.846850">
        <ele>1506.0</ele>
        <time>2015-03-15T13:52:47Z</time>
      </trkpt>
      <trkpt lat="40.280783" lon="-4.846583">
        <ele>1505.0</ele>
        <time>2015-03-15T13:52:49Z</time>
      </trkpt>
      <trkpt lat="40.280867" lon="-4.846333">
        <ele>1503.0</ele>
        <time>2015-03-15T13:52:51Z</time>
      </trkpt>
      <trkpt lat="40.280950" lon="-4.846100">
        <ele>1501.0</ele>
        <time>2015-03-15T13:52:53Z</time>
      </trkpt>
      <trkpt lat="40.281067" lon="-4.845867">
        <ele>1499.0</ele>
        <time>2015-03-15T13:52:55Z</time>
      </trkpt>
      <trkpt lat="40.281167" lon="-4.845633">
        <ele>1498.0</ele>
        <time>2015-03-15T13:52:57Z</time>
      </trkpt>
      <trkpt lat="40.281250" lon="-4.845417">
        <ele>1494.0</ele>
        <time>2015-03-15T13:52:59Z</time>
      </trkpt>
      <trkpt lat="40.281333" lon="-4.845150">
        <ele>1489.0</ele>
        <time>2015-03-15T13:53:01Z</time>
      </trkpt>
      <trkpt lat="40.281417" lon="-4.844900">
        <ele>1486.0</ele>
        <time>2015-03-15T13:53:03Z</time>
      </trkpt>
      <trkpt lat="40.281500" lon="-4.844667">
        <ele>1485.0</ele>
        <time>2015-03-15T13:53:05Z</time>
      </trkpt>
      <trkpt lat="40.281583" lon="-4.844450">
        <ele>1481.0</ele>
        <time>2015-03-15T13:53:07Z</time>
      </trkpt>
      <trkpt lat="40.281650" lon="-4.844200">
        <ele>1477.0</ele>
        <time>2015-03-15T13:53:09Z</time>
      </trkpt>
      <trkpt lat="40.281733" lon="-4.844000">
        <ele>1473.0</ele>
        <time>2015-03-15T13:53:11Z</time>
      </trkpt>
      <trkpt lat="40.281817" lon="-4.843783">
        <ele>1467.0</ele>
        <time>2015-03-15T13:53:13Z</time>
      </trkpt>
      <trkpt lat="40.281867" lon="-4.843517">
        <ele>1461.0</ele>
        <time>2015-03-15T13:53:15Z</time>
      </trkpt>
      <trkpt lat="40.281950" lon="-4.843267">
        <ele>1458.0</ele>
        <time>2015-03-15T13:53:17Z</time>
      </trkpt>
      <trkpt lat="40.282033" lon="-4.843067">
        <ele>1455.0</ele>
        <time>2015-03-15T13:53:19Z</time>
      </trkpt>
      <trkpt lat="40.282083" lon="-4.842833">
        <ele>1450.0</ele>
        <time>2015-03-15T13:53:21Z</time>
      </trkpt>
      <trkpt lat="40.282167" lon="-4.842583">
        <ele>1445.0</ele>
        <time>2015-03-15T13:53:23Z</time>
      </trkpt>
      <trkpt lat="40.282233" lon="-4.842367">
        <ele>1441.0</ele>
        <time>2015-03-15T13:53:25Z</time>
      </trkpt>
      <trkpt lat="40.282300" lon="-4.842133">
        <ele>1437.0</ele>
        <time>2015-03-15T13:53:27Z</time>
      </trkpt>
      <trkpt lat="40.282367" lon="-4.841917">
        <ele>1433.0</ele>
        <time>2015-03-15T13:53:29Z</time>
      </trkpt>
      <trkpt lat="40.282433" lon="-4.841683">
        <ele>1429.0</ele>
        <time>2015-03-15T13:53:31Z</time>
      </trkpt>
      <trkpt lat="40.282500" lon="-4.841450">
        <ele>1425.0</ele>
        <time>2015-03-15T13:53:33Z</time>
      </trkpt>
      <trkpt lat="40.282567" lon="-4.841217">
        <ele>1420.0</ele>
        <time>2015-03-15T13:53:35Z</time>
      </trkpt>
      <trkpt lat="40.282633" lon="-4.840983">
        <ele>1417.0</ele>
        <time>2015-03-15T13:53:37Z</time>
      </trkpt>
      <trkpt lat="40.282700" lon="-4.840750">
        <ele>1414.0</ele>
        <time>2015-03-15T13:53:39Z</time>
      </trkpt>
      <trkpt lat="40.282767" lon="-4.840517">
        <ele>1411.0</ele>
        <time>2015-03-15T13:53:41Z</time>
      </trkpt>
      <trkpt lat="40.282833" lon="-4.840283">
        <ele>1407.0</ele>
        <time>2015-03-15T13:53:43Z</time>
      </trkpt>
      <trkpt lat="40.282917" lon="-4.840050">
        <ele>1403.0</ele>
        <time>2015-03-15T13:53:45Z</time>
      </trkpt>
      <trkpt lat="40.282983" lon="-4.839800">
        <ele>1400.0</ele>
        <time>2015-03-15T13:53:47Z</time>
      </trkpt>
      <trkpt lat="40.283033" lon="-4.839533">
        <ele>1398.0</ele>
        <time>2015-03-15T13:53:49Z</time>
      </trkpt>
      <trkpt lat="40.283100" lon="-4.839300">
        <ele>1397.0</ele>
        <time>2015-03-15T13:53:51Z</time>
      </trkpt>
      <trkpt lat="40.283150" lon="-4.839083">
        <ele>1394.0</ele>
        <time>2015-03-15T13:53:53Z</time>
      </trkpt>
      <trkpt lat="40.283233" lon="-4.838850">
        <ele>1389.0</ele>
        <time>2015-03-15T13:53:55Z</time>
      </trkpt>
      <trkpt lat="40.283333" lon="-4.838617">
        <ele>1386.0</ele>
        <time>2015-03-15T13:53:57Z</time>
      </trkpt>
      <trkpt lat="40.283400" lon="-4.838383">
        <ele>1383.0</ele>
        <time>2015-03-15T13:53:59Z</time>
      </trkpt>
      <trkpt lat="40.283483" lon="-4.838167">
        <ele>1378.0</ele>
        <time>2015-03-15T13:54:01Z</time>
      </trkpt>
      <trkpt lat="40.283583" lon="-4.837917">
        <ele>1374.0</ele>
        <time>2015-03-15T13:54:03Z</time>
      </trkpt>
      <trkpt lat="40.283667" lon="-4.837700">
        <ele>1371.0</ele>
        <time>2015-03-15T13:54:05Z</time>
      </trkpt>
      <trkpt lat="40.283750" lon="-4.837483">
        <ele>1366.0</ele>
        <time>2015-03-15T13:54:07Z</time>
      </trkpt>
      <trkpt lat="40.283833" lon="-4.837250">
        <ele>1360.0</ele>
        <time>2015-03-15T13:54:09Z</time>
      </trkpt>
      <trkpt lat="40.283933" lon="-4.837017">
        <ele>1356.0</ele>
        <time>2015-03-15T13:54:11Z</time>
      </trkpt>
      <trkpt lat="40.284033" lon="-4.836800">
        <ele>1352.0</ele>
        <time>2015-03-15T13:54:13Z</time>
      </trkpt>
      <trkpt lat="40.284133" lon="-4.836550">
        <ele>1348.0</ele>
        <time>2015-03-15T13:54:15Z</time>
      </trkpt>
      <trkpt lat="40.284250" lon="-4.836317">
        <ele>1347.0</ele>
        <time>2015-03-15T13:54:17Z</time>
      </trkpt>
      <trkpt lat="40.284367" lon="-4.836117">
        <ele>1346.0</ele>
        <time>2015-03-15T13:54:19Z</time>
      </trkpt>
      <trkpt lat="40.284500" lon="-4.835917">
        <ele>1343.0</ele>
        <time>2015-03-15T13:54:21Z</time>
      </trkpt>
      <trkpt lat="40.284633" lon="-4.835683">
        <ele>1340.0</ele>
        <time>2015-03-15T13:54:23Z</time>
      </trkpt>
      <trkpt lat="40.284750" lon="-4.835483">
        <ele>1339.0</ele>
        <time>2015-03-15T13:54:25Z</time>
      </trkpt>
      <trkpt lat="40.284867" lon="-4.835267">
        <ele>1335.0</ele>
        <time>2015-03-15T13:54:27Z</time>
      </trkpt>
      <trkpt lat="40.284983" lon="-4.835050">
        <ele>1330.0</ele>
        <time>2015-03-15T13:54:29Z</time>
      </trkpt>
      <trkpt lat="40.285100" lon="-4.834800">
        <ele>1327.0</ele>
        <time>2015-03-15T13:54:31Z</time>
      </trkpt>
      <trkpt lat="40.285217" lon="-4.834567">
        <ele>1325.0</ele>
        <time>2015-03-15T13:54:33Z</time>
      </trkpt>
      <trkpt lat="40.285333" lon="-4.834317">
        <ele>1323.0</ele>
        <time>2015-03-15T13:54:35Z</time>
      </trkpt>
      <trkpt lat="40.285450" lon="-4.834083">
        <ele>1320.0</ele>
        <time>2015-03-15T13:54:37Z</time>
      </trkpt>
      <trkpt lat="40.285567" lon="-4.833833">
        <ele>1317.0</ele>
        <time>2015-03-15T13:54:39Z</time>
      </trkpt>
      <trkpt lat="40.285683" lon="-4.833583">
        <ele>1315.0</ele>
        <time>2015-03-15T13:54:41Z</time>
      </trkpt>
      <trkpt lat="40.285817" lon="-4.833333">
        <ele>1313.0</ele>
        <time>2015-03-15T13:54:43Z</time>
      </trkpt>
      <trkpt lat="40.285967" lon="-4.833083">
        <ele>1311.0</ele>
        <time>2015-03-15T13:54:45Z</time>
      </trkpt>
      <trkpt lat="40.286117" lon="-4.832867">
        <ele>1311.0</ele>
        <time>2015-03-15T13:54:47Z</time>
      </trkpt>
      <trkpt lat="40.286267" lon="-4.832667">
        <ele>1309.0</ele>
        <time>2015-03-15T13:54:49Z</time>
      </trkpt>
      <trkpt lat="40.286433" lon="-4.832450">
        <ele>1306.0</ele>
        <time>2015-03-15T13:54:51Z</time>
      </trkpt>
      <trkpt lat="40.286583" lon="-4.832233">
        <ele>1302.0</ele>
        <time>2015-03-15T13:54:53Z</time>
      </trkpt>
      <trkpt lat="40.286750" lon="-4.832000">
        <ele>1299.0</ele>
        <time>2015-03-15T13:54:55Z</time>
      </trkpt>
      <trkpt lat="40.286917" lon="-4.831767">
        <ele>1297.0</ele>
        <time>2015-03-15T13:54:57Z</time>
      </trkpt>
      <trkpt lat="40.287083" lon="-4.831533">
        <ele>1295.0</ele>
        <time>2015-03-15T13:54:59Z</time>
      </trkpt>
      <trkpt lat="40.287233" lon="-4.831300">
        <ele>1295.0</ele>
        <time>2015-03-15T13:55:01Z</time>
      </trkpt>
      <trkpt lat="40.287417" lon="-4.831100">
        <ele>1295.0</ele>
        <time>2015-03-15T13:55:03Z</time>
      </trkpt>
      <trkpt lat="40.287567" lon="-4.830917">
        <ele>1298.0</ele>
        <time>2015-03-15T13:55:05Z</time>
      </trkpt>
      <trkpt lat="40.287733" lon="-4.830733">
        <ele>1300.0</ele>
        <time>2015-03-15T13:55:07Z</time>
      </trkpt>
      <trkpt lat="40.287917" lon="-4.830533">
        <ele>1307.0</ele>
        <time>2015-03-15T13:55:09Z</time>
      </trkpt>
      <trkpt lat="40.288067" lon="-4.830350">
        <ele>1317.0</ele>
        <time>2015-03-15T13:55:11Z</time>
      </trkpt>
      <trkpt lat="40.288183" lon="-4.830233">
        <ele>1324.0</ele>
        <time>2015-03-15T13:55:13Z</time>
      </trkpt>
      <trkpt lat="40.288367" lon="-4.830167">
        <ele>1327.0</ele>
        <time>2015-03-15T13:55:15Z</time>
      </trkpt>
      <trkpt lat="40.288550" lon="-4.830217">
        <ele>1332.0</ele>
        <time>2015-03-15T13:55:17Z</time>
      </trkpt>
      <trkpt lat="40.288683" lon="-4.830333">
        <ele>1338.0</ele>
        <time>2015-03-15T13:55:19Z</time>
      </trkpt>
      <trkpt lat="40.288733" lon="-4.830517">
        <ele>1342.0</ele>
        <time>2015-03-15T13:55:21Z</time>
      </trkpt>
      <trkpt lat="40.288700" lon="-4.830700">
        <ele>1346.0</ele>
        <time>2015-03-15T13:55:23Z</time>
      </trkpt>
      <trkpt lat="40.288617" lon="-4.830817">
        <ele>1354.0</ele>
        <time>2015-03-15T13:55:25Z</time>
      </trkpt>
      <trkpt lat="40.288517" lon="-4.830817">
        <ele>1358.0</ele>
        <time>2015-03-15T13:55:27Z</time>
      </trkpt>
      <trkpt lat="40.288400" lon="-4.830700">
        <ele>1360.0</ele>
        <time>2015-03-15T13:55:29Z</time>
      </trkpt>
      <trkpt lat="40.288333" lon="-4.830467">
        <ele>1366.0</ele>
        <time>2015-03-15T13:55:31Z</time>
      </trkpt>
      <trkpt lat="40.288333" lon="-4.830267">
        <ele>1372.0</ele>
        <time>2015-03-15T13:55:33Z</time>
      </trkpt>
      <trkpt lat="40.288367" lon="-4.830050">
        <ele>1376.0</ele>
        <time>2015-03-15T13:55:35Z</time>
      </trkpt>
      <trkpt lat="40.288483" lon="-4.829800">
        <ele>1383.0</ele>
        <time>2015-03-15T13:55:37Z</time>
      </trkpt>
      <trkpt lat="40.288650" lon="-4.829650">
        <ele>1393.0</ele>
        <time>2015-03-15T13:55:39Z</time>
      </trkpt>
      <trkpt lat="40.288800" lon="-4.829583">
        <ele>1401.0</ele>
        <time>2015-03-15T13:55:41Z</time>
      </trkpt>
      <trkpt lat="40.288967" lon="-4.829550">
        <ele>1405.0</ele>
        <time>2015-03-15T13:55:43Z</time>
      </trkpt>
      <trkpt lat="40.289167" lon="-4.829600">
        <ele>1409.0</ele>
        <time>2015-03-15T13:55:45Z</time>
      </trkpt>
      <trkpt lat="40.289300" lon="-4.829750">
        <ele>1415.0</ele>
        <time>2015-03-15T13:55:47Z</time>
      </trkpt>
      <trkpt lat="40.289367" lon="-4.829917">
        <ele>1420.0</ele>
        <time>2015-03-15T13:55:49Z</time>
      </trkpt>
      <trkpt lat="40.289367" lon="-4.830100">
        <ele>1424.0</ele>
        <time>2015-03-15T13:55:51Z</time>
      </trkpt>
      <trkpt lat="40.289283" lon="-4.830267">
        <ele>1430.0</ele>
        <time>2015-03-15T13:55:53Z</time>
      </trkpt>
      <trkpt lat="40.289183" lon="-4.830350">
        <ele>1439.0</ele>
        <time>2015-03-15T13:55:55Z</time>
      </trkpt>
      <trkpt lat="40.289100" lon="-4.830350">
        <ele>1445.0</ele>
        <time>2015-03-15T13:55:57Z</time>
      </trkpt>
      <trkpt lat="40.288983" lon="-4.830300">
        <ele>1447.0</ele>
        <time>2015-03-15T13:55:59Z</time>
      </trkpt>
      <trkpt lat="40.288883" lon="-4.830183">
        <ele>1451.0</ele>
        <time>2015-03-15T13:56:01Z</time>
      </trkpt>
      <trkpt lat="40.288867" lon="-4.830000">
        <ele>1454.0</ele>
        <time>2015-03-15T13:56:03Z</time>
      </trkpt>
      <trkpt lat="40.288867" lon="-4.829783">
        <ele>1455.0</ele>
        <time>2015-03-15T13:56:05Z</time>
      </trkpt>
      <trkpt lat="40.288900" lon="-4.829533">
        <ele>1455.0</ele>
        <time>2015-03-15T13:56:07Z</time>
      </trkpt>
      <trkpt lat="40.289017" lon="-4.829283">
        <ele>1458.0</ele>
        <time>2015-03-15T13:56:09Z</time>
      </trkpt>
      <trkpt lat="40.289167" lon="-4.829050">
        <ele>1464.0</ele>
        <time>2015-03-15T13:56:11Z</time>
      </trkpt>
      <trkpt lat="40.289267" lon="-4.828817">
        <ele>1474.0</ele>
        <time>2015-03-15T13:56:13Z</time>
      </trkpt>
      <trkpt lat="40.289433" lon="-4.828633">
        <ele>1481.0</ele>
        <time>2015-03-15T13:56:15Z</time>
      </trkpt>
      <trkpt lat="40.289617" lon="-4.828533">
        <ele>1488.0</ele>
        <time>2015-03-15T13:56:17Z</time>
      </trkpt>
      <trkpt lat="40.289817" lon="-4.828517">
        <ele>1493.0</ele>
        <time>2015-03-15T13:56:19Z</time>
      </trkpt>
      <trkpt lat="40.290000" lon="-4.828600">
        <ele>1495.0</ele>
        <time>2015-03-15T13:56:21Z</time>
      </trkpt>
      <trkpt lat="40.290133" lon="-4.828783">
        <ele>1500.0</ele>
        <time>2015-03-15T13:56:23Z</time>
      </trkpt>
      <trkpt lat="40.290150" lon="-4.828967">
        <ele>1507.0</ele>
        <time>2015-03-15T13:56:25Z</time>
      </trkpt>
      <trkpt lat="40.290117" lon="-4.829083">
        <ele>1511.0</ele>
        <time>2015-03-15T13:56:27Z</time>
      </trkpt>
      <trkpt lat="40.290017" lon="-4.829167">
        <ele>1513.0</ele>
        <time>2015-03-15T13:56:29Z</time>
      </trkpt>
      <trkpt lat="40.289850" lon="-4.829150">
        <ele>1516.0</ele>
        <time>2015-03-15T13:56:31Z</time>
      </trkpt>
      <trkpt lat="40.289683" lon="-4.829033">
        <ele>1523.0</ele>
        <time>2015-03-15T13:56:33Z</time>
      </trkpt>
      <trkpt lat="40.289583" lon="-4.828917">
        <ele>1532.0</ele>
        <time>2015-03-15T13:56:35Z</time>
      </trkpt>
      <trkpt lat="40.289550" lon="-4.828733">
        <ele>1537.0</ele>
        <time>2015-03-15T13:56:37Z</time>
      </trkpt>
      <trkpt lat="40.289533" lon="-4.828450">
        <ele>1540.0</ele>
        <time>2015-03-15T13:56:39Z</time>
      </trkpt>
      <trkpt lat="40.289617" lon="-4.828183">
        <ele>1547.0</ele>
        <time>2015-03-15T13:56:41Z</time>
      </trkpt>
      <trkpt lat="40.289733" lon="-4.827967">
        <ele>1554.0</ele>
        <time>2015-03-15T13:56:43Z</time>
      </trkpt>
      <trkpt lat="40.289900" lon="-4.827800">
        <ele>1560.0</ele>
        <time>2015-03-15T13:56:45Z</time>
      </trkpt>
      <trkpt lat="40.290117" lon="-4.827733">
        <ele>1565.0</ele>
        <time>2015-03-15T13:56:47Z</time>
      </trkpt>
      <trkpt lat="40.290333" lon="-4.827833">
        <ele>1571.0</ele>
        <time>2015-03-15T13:56:49Z</time>
      </trkpt>
      <trkpt lat="40.290433" lon="-4.827983">
        <ele>1577.0</ele>
        <time>2015-03-15T13:56:51Z</time>
      </trkpt>
      <trkpt lat="40.290467" lon="-4.828150">
        <ele>1581.0</ele>
        <time>2015-03-15T13:56:53Z</time>
      </trkpt>
      <trkpt lat="40.290450" lon="-4.828333">
        <ele>1583.0</ele>
        <time>2015-03-15T13:56:55Z</time>
      </trkpt>
      <trkpt lat="40.290350" lon="-4.828467">
        <ele>1586.0</ele>
        <time>2015-03-15T13:56:57Z</time>
      </trkpt>
      <trkpt lat="40.290183" lon="-4.828500">
        <ele>1588.0</ele>
        <time>2015-03-15T13:56:59Z</time>
      </trkpt>
      <trkpt lat="40.290050" lon="-4.828450">
        <ele>1593.0</ele>
        <time>2015-03-15T13:57:01Z</time>
      </trkpt>
      <trkpt lat="40.289917" lon="-4.828367">
        <ele>1597.0</ele>
        <time>2015-03-15T13:57:03Z</time>
      </trkpt>
      <trkpt lat="40.289783" lon="-4.828200">
        <ele>1602.0</ele>
        <time>2015-03-15T13:57:05Z</time>
      </trkpt>
      <trkpt lat="40.289733" lon="-4.828000">
        <ele>1608.0</ele>
        <time>2015-03-15T13:57:07Z</time>
      </trkpt>
      <trkpt lat="40.289750" lon="-4.827783">
        <ele>1612.0</ele>
        <time>2015-03-15T13:57:09Z</time>
      </trkpt>
      <trkpt lat="40.289817" lon="-4.827567">
        <ele>1615.0</ele>
        <time>2015-03-15T13:57:11Z</time>
      </trkpt>
      <trkpt lat="40.289933" lon="-4.827367">
        <ele>1618.0</ele>
        <time>2015-03-15T13:57:13Z</time>
      </trkpt>
      <trkpt lat="40.290100" lon="-4.827183">
        <ele>1621.0</ele>
        <time>2015-03-15T13:57:15Z</time>
      </trkpt>
      <trkpt lat="40.290283" lon="-4.827067">
        <ele>1627.0</ele>
        <time>2015-03-15T13:57:17Z</time>
      </trkpt>
      <trkpt lat="40.290467" lon="-4.827033">
        <ele>1631.0</ele>
        <time>2015-03-15T13:57:19Z</time>
      </trkpt>
      <trkpt lat="40.290667" lon="-4.827067">
        <ele>1635.0</ele>
        <time>2015-03-15T13:57:21Z</time>
      </trkpt>
      <trkpt lat="40.290817" lon="-4.827200">
        <ele>1639.0</ele>
        <time>2015-03-15T13:57:23Z</time>
      </trkpt>
      <trkpt lat="40.290883" lon="-4.827400">
        <ele>1644.0</ele>
        <time>2015-03-15T13:57:25Z</time>
      </trkpt>
      <trkpt lat="40.290850" lon="-4.827600">
        <ele>1650.0</ele>
        <time>2015-03-15T13:57:27Z</time>
      </trkpt>
      <trkpt lat="40.290733" lon="-4.827650">
        <ele>1655.0</ele>
        <time>2015-03-15T13:57:29Z</time>
      </trkpt>
      <trkpt lat="40.290583" lon="-4.827600">
        <ele>1657.0</ele>
        <time>2015-03-15T13:57:31Z</time>
      </trkpt>
      <trkpt lat="40.290433" lon="-4.827483">
        <ele>1661.0</ele>
        <time>2015-03-15T13:57:33Z</time>
      </trkpt>
      <trkpt lat="40.290367" lon="-4.827300">
        <ele>1666.0</ele>
        <time>2015-03-15T13:57:35Z</time>
      </trkpt>
      <trkpt lat="40.290333" lon="-4.827117">
        <ele>1668.0</ele>
        <time>2015-03-15T13:57:37Z</time>
      </trkpt>
      <trkpt lat="40.290317" lon="-4.826883">
        <ele>1669.0</ele>
        <time>2015-03-15T13:57:39Z</time>
      </trkpt>
      <trkpt lat="40.290367" lon="-4.826600">
        <ele>1672.0</ele>
        <time>2015-03-15T13:57:41Z</time>
      </trkpt>
      <trkpt lat="40.290450" lon="-4.826383">
        <ele>1680.0</ele>
        <time>2015-03-15T13:57:43Z</time>
      </trkpt>
      <trkpt lat="40.290550" lon="-4.826183">
        <ele>1687.0</ele>
        <time>2015-03-15T13:57:45Z</time>
      </trkpt>
      <trkpt lat="40.290700" lon="-4.826017">
        <ele>1692.0</ele>
        <time>2015-03-15T13:57:47Z</time>
      </trkpt>
      <trkpt lat="40.290883" lon="-4.825917">
        <ele>1698.0</ele>
        <time>2015-03-15T13:57:49Z</time>
      </trkpt>
      <trkpt lat="40.291083" lon="-4.825883">
        <ele>1703.0</ele>
        <time>2015-03-15T13:57:51Z</time>
      </trkpt>
      <trkpt lat="40.291283" lon="-4.825933">
        <ele>1707.0</ele>
        <time>2015-03-15T13:57:53Z</time>
      </trkpt>
      <trkpt lat="40.291417" lon="-4.826067">
        <ele>1712.0</ele>
        <time>2015-03-15T13:57:55Z</time>
      </trkpt>
      <trkpt lat="40.291483" lon="-4.826250">
        <ele>1716.0</ele>
        <time>2015-03-15T13:57:57Z</time>
      </trkpt>
      <trkpt lat="40.291467" lon="-4.826467">
        <ele>1719.0</ele>
        <time>2015-03-15T13:57:59Z</time>
      </trkpt>
      <trkpt lat="40.291367" lon="-4.826583">
        <ele>1726.0</ele>
        <time>2015-03-15T13:58:01Z</time>
      </trkpt>
      <trkpt lat="40.291250" lon="-4.826583">
        <ele>1732.0</ele>
        <time>2015-03-15T13:58:03Z</time>
      </trkpt>
      <trkpt lat="40.291117" lon="-4.826483">
        <ele>1734.0</ele>
        <time>2015-03-15T13:58:05Z</time>
      </trkpt>
      <trkpt lat="40.290983" lon="-4.826300">
        <ele>1737.0</ele>
        <time>2015-03-15T13:58:07Z</time>
      </trkpt>
      <trkpt lat="40.290967" lon="-4.826033">
        <ele>1743.0</ele>
        <time>2015-03-15T13:58:09Z</time>
      </trkpt>
      <trkpt lat="40.291000" lon="-4.825817">
        <ele>1752.0</ele>
        <time>2015-03-15T13:58:11Z</time>
      </trkpt>
      <trkpt lat="40.291050" lon="-4.825600">
        <ele>1757.0</ele>
        <time>2015-03-15T13:58:13Z</time>
      </trkpt>
      <trkpt lat="40.291167" lon="-4.825367">
        <ele>1760.0</ele>
        <time>2015-03-15T13:58:15Z</time>
      </trkpt>
      <trkpt lat="40.291350" lon="-4.825200">
        <ele>1766.0</ele>
        <time>2015-03-15T13:58:17Z</time>
      </trkpt>
      <trkpt lat="40.291500" lon="-4.825100">
        <ele>1772.0</ele>
        <time>2015-03-15T13:58:19Z</time>
      </trkpt>
      <trkpt lat="40.291683" lon="-4.825067">
        <ele>1774.0</ele>
        <time>2015-03-15T13:58:21Z</time>
      </trkpt>
      <trkpt lat="40.291867" lon="-4.825150">
        <ele>1778.0</ele>
        <time>2015-03-15T13:58:23Z</time>
      </trkpt>
      <trkpt lat="40.291983" lon="-4.825317">
        <ele>1782.0</ele>
        <time>2015-03-15T13:58:25Z</time>
      </trkpt>
      <trkpt lat="40.292017" lon="-4.825500">
        <ele>1786.0</ele>
        <time>2015-03-15T13:58:27Z</time>
      </trkpt>
      <trkpt lat="40.291983" lon="-4.825683">
        <ele>1789.0</ele>
        <time>2015-03-15T13:58:29Z</time>
      </trkpt>
      <trkpt lat="40.291867" lon="-4.825800">
        <ele>1794.0</ele>
        <time>2015-03-15T13:58:31Z</time>
      </trkpt>
      <trkpt lat="40.291750" lon="-4.825800">
        <ele>1801.0</ele>
        <time>2015-03-15T13:58:33Z</time>
      </trkpt>
      <trkpt lat="40.291617" lon="-4.825750">
        <ele>1806.0</ele>
        <time>2015-03-15T13:58:35Z</time>
      </trkpt>
      <trkpt lat="40.291500" lon="-4.825617">
        <ele>1810.0</ele>
        <time>2015-03-15T13:58:37Z</time>
      </trkpt>
      <trkpt lat="40.291450" lon="-4.825400">
        <ele>1815.0</ele>
        <time>2015-03-15T13:58:39Z</time>
      </trkpt>
      <trkpt lat="40.291433" lon="-4.825167">
        <ele>1821.0</ele>
        <time>2015-03-15T13:58:41Z</time>
      </trkpt>
      <trkpt lat="40.291500" lon="-4.824950">
        <ele>1826.0</ele>
        <time>2015-03-15T13:58:43Z</time>
      </trkpt>
      <trkpt lat="40.291633" lon="-4.824750">
        <ele>1828.0</ele>
        <time>2015-03-15T13:58:45Z</time>
      </trkpt>
      <trkpt lat="40.291833" lon="-4.824633">
        <ele>1831.0</ele>
        <time>2015-03-15T13:58:47Z</time>
      </trkpt>
      <trkpt lat="40.292000" lon="-4.824617">
        <ele>1836.0</ele>
        <time>2015-03-15T13:58:49Z</time>
      </trkpt>
      <trkpt lat="40.292167" lon="-4.824650">
        <ele>1838.0</ele>
        <time>2015-03-15T13:58:51Z</time>
      </trkpt>
      <trkpt lat="40.292317" lon="-4.824800">
        <ele>1840.0</ele>
        <time>2015-03-15T13:58:53Z</time>
      </trkpt>
      <trkpt lat="40.292383" lon="-4.825000">
        <ele>1844.0</ele>
        <time>2015-03-15T13:58:55Z</time>
      </trkpt>
      <trkpt lat="40.292367" lon="-4.825183">
        <ele>1847.0</ele>
        <time>2015-03-15T13:58:57Z</time>
      </trkpt>
      <trkpt lat="40.292283" lon="-4.825333">
        <ele>1851.0</ele>
        <time>2015-03-15T13:58:59Z</time>
      </trkpt>
      <trkpt lat="40.292150" lon="-4.825433">
        <ele>1857.0</ele>
        <time>2015-03-15T13:59:01Z</time>
      </trkpt>
      <trkpt lat="40.292017" lon="-4.825400">
        <ele>1863.0</ele>
        <time>2015-03-15T13:59:03Z</time>
      </trkpt>
      <trkpt lat="40.291900" lon="-4.825300">
        <ele>1867.0</ele>
        <time>2015-03-15T13:59:05Z</time>
      </trkpt>
      <trkpt lat="40.291817" lon="-4.825083">
        <ele>1869.0</ele>
        <time>2015-03-15T13:59:07Z</time>
      </trkpt>
      <trkpt lat="40.291800" lon="-4.824800">
        <ele>1873.0</ele>
        <time>2015-03-15T13:59:09Z</time>
      </trkpt>
      <trkpt lat="40.291833" lon="-4.824583">
        <ele>1880.0</ele>
        <time>2015-03-15T13:59:11Z</time>
      </trkpt>
      <trkpt lat="40.291900" lon="-4.824350">
        <ele>1884.0</ele>
        <time>2015-03-15T13:59:13Z</time>
      </trkpt>
      <trkpt lat="40.292050" lon="-4.824150">
        <ele>1886.0</ele>
        <time>2015-03-15T13:59:15Z</time>
      </trkpt>
      <trkpt lat="40.292250" lon="-4.824017">
        <ele>1890.0</ele>
        <time>2015-03-15T13:59:17Z</time>
      </trkpt>
      <trkpt lat="40.292450" lon="-4.823983">
        <ele>1893.0</ele>
        <time>2015-03-15T13:59:19Z</time>
      </trkpt>
      <trkpt lat="40.292650" lon="-4.824017">
        <ele>1897.0</ele>
        <time>2015-03-15T13:59:21Z</time>
      </trkpt>
      <trkpt lat="40.292817" lon="-4.824133">
        <ele>1902.0</ele>
        <time>2015-03-15T13:59:23Z</time>
      </trkpt>
      <trkpt lat="40.292917" lon="-4.824267">
        <ele>1906.0</ele>
        <time>2015-03-15T13:59:25Z</time>
      </trkpt>
      <trkpt lat="40.292983" lon="-4.824467">
        <ele>1909.0</ele>
        <time>2015-03-15T13:59:27Z</time>
      </trkpt>
      <trkpt lat="40.292967" lon="-4.824650">
        <ele>1914.0</ele>
        <time>2015-03-15T13:59:29Z</time>
      </trkpt>
      <trkpt lat="40.292900" lon="-4.824783">
        <ele>1917.0</ele>
        <time>2015-03-15T13:59:31Z</time>
      </trkpt>
      <trkpt lat="40.292767" lon="-4.824883">
        <ele>1922.0</ele>
        <time>2015-03-15T13:59:33Z</time>
      </trkpt>
      <trkpt lat="40.292633" lon="-4.824867">
        <ele>1929.0</ele>
        <time>2015-03-15T13:59:35Z</time>
      </trkpt>
      <trkpt lat="40.292533" lon="-4.824750">
        <ele>1934.0</ele>
        <time>2015-03-15T13:59:37Z</time>
      </trkpt>
      <trkpt lat="40.292433" lon="-4.824550">
        <ele>1937.0</ele>
        <time>2015-03-15T13:59:39Z</time>
      </trkpt>
      <trkpt lat="40.292417" lon="-4.824300">
        <ele>1941.0</ele>
        <time>2015-03-15T13:59:41Z</time>
      </trkpt>
      <trkpt lat="40.292483" lon="-4.824033">
        <ele>1945.0</ele>
        <time>2015-03-15T13:59:43Z</time>
      </trkpt>
      <trkpt lat="40.292567" lon="-4.823800">
        <ele>1949.0</ele>
        <time>2015-03-15T13:59:45Z</time>
      </trkpt>
      <trkpt lat="40.292700" lon="-4.823567">
        <ele>1952.0</ele>
        <time>2015-03-15T13:59:47Z</time>
      </trkpt>
      <trkpt lat="40.292900" lon="-4.823433">
        <ele>1955.0</ele>
        <time>2015-03-15T13:59:49Z</time>
      </trkpt>
      <trkpt lat="40.293100" lon="-4.823367">
        <ele>1959.0</ele>
        <time>2015-03-15T13:59:51Z</time>
      </trkpt>
      <trkpt lat="40.293300" lon="-4.823367">
        <ele>1962.0</ele>
        <time>2015-03-15T13:59:53Z</time>
      </trkpt>
      <trkpt lat="40.293500" lon="-4.823467">
        <ele>1963.0</ele>
        <time>2015-03-15T13:59:55Z</time>
      </trkpt>
      <trkpt lat="40.293567" lon="-4.823650">
        <ele>1967.0</ele>
        <time>2015-03-15T13:59:57Z</time>
      </trkpt>
      <trkpt lat="40.293567" lon="-4.823800">
        <ele>1971.0</ele>
        <time>2015-03-15T13:59:59Z</time>
      </trkpt>
      <trkpt lat="40.293517" lon="-4.823950">
        <ele>1974.0</ele>
        <time>2015-03-15T14:00:01Z</time>
      </trkpt>
      <trkpt lat="40.293383" lon="-4.824033">
        <ele>1977.0</ele>
        <time>2015-03-15T14:00:03Z</time>
      </trkpt>
      <trkpt lat="40.293233" lon="-4.823967">
        <ele>1981.0</ele>
        <time>2015-03-15T14:00:05Z</time>
      </trkpt>
      <trkpt lat="40.293150" lon="-4.823800">
        <ele>1985.0</ele>
        <time>2015-03-15T14:00:07Z</time>
      </trkpt>
      <trkpt lat="40.293100" lon="-4.823550">
        <ele>1987.0</ele>
        <time>2015-03-15T14:00:09Z</time>
      </trkpt>
      <trkpt lat="40.293117" lon="-4.823300">
        <ele>1990.0</ele>
        <time>2015-03-15T14:00:11Z</time>
      </trkpt>
      <trkpt lat="40.293217" lon="-4.823067">
        <ele>1994.0</ele>
        <time>2015-03-15T14:00:13Z</time>
      </trkpt>
      <trkpt lat="40.293350" lon="-4.822867">
        <ele>1995.0</ele>
        <time>2015-03-15T14:00:15Z</time>
      </trkpt>
      <trkpt lat="40.293533" lon="-4.822717">
        <ele>1998.0</ele>
        <time>2015-03-15T14:00:17Z</time>
      </trkpt>
      <trkpt lat="40.293733" lon="-4.822633">
        <ele>2001.0</ele>
        <time>2015-03-15T14:00:19Z</time>
      </trkpt>
      <trkpt lat="40.293883" lon="-4.822633">
        <ele>2002.0</ele>
        <time>2015-03-15T14:00:21Z</time>
      </trkpt>
      <trkpt lat="40.294017" lon="-4.822733">
        <ele>2002.0</ele>
        <time>2015-03-15T14:00:23Z</time>
      </trkpt>
      <trkpt lat="40.294100" lon="-4.822867">
        <ele>2006.0</ele>
        <time>2015-03-15T14:00:25Z</time>
      </trkpt>
      <trkpt lat="40.294117" lon="-4.823000">
        <ele>2009.0</ele>
        <time>2015-03-15T14:00:27Z</time>
      </trkpt>
      <trkpt lat="40.294067" lon="-4.823133">
        <ele>2012.0</ele>
        <time>2015-03-15T14:00:29Z</time>
      </trkpt>
      <trkpt lat="40.293967" lon="-4.823217">
        <ele>2016.0</ele>
        <time>2015-03-15T14:00:31Z</time>
      </trkpt>
      <trkpt lat="40.293850" lon="-4.823183">
        <ele>2017.0</ele>
        <time>2015-03-15T14:00:33Z</time>
      </trkpt>
      <trkpt lat="40.293733" lon="-4.823067">
        <ele>2019.0</ele>
        <time>2015-03-15T14:00:35Z</time>
      </trkpt>
      <trkpt lat="40.293633" lon="-4.822867">
        <ele>2024.0</ele>
        <time>2015-03-15T14:00:37Z</time>
      </trkpt>
      <trkpt lat="40.293567" lon="-4.822650">
        <ele>2030.0</ele>
        <time>2015-03-15T14:00:39Z</time>
      </trkpt>
      <trkpt lat="40.293533" lon="-4.822433">
        <ele>2035.0</ele>
        <time>2015-03-15T14:00:41Z</time>
      </trkpt>
      <trkpt lat="40.293533" lon="-4.822183">
        <ele>2038.0</ele>
        <time>2015-03-15T14:00:43Z</time>
      </trkpt>
      <trkpt lat="40.293567" lon="-4.821933">
        <ele>2041.0</ele>
        <time>2015-03-15T14:00:45Z</time>
      </trkpt>
      <trkpt lat="40.293667" lon="-4.821700">
        <ele>2042.0</ele>
        <time>2015-03-15T14:00:47Z</time>
      </trkpt>
      <trkpt lat="40.293800" lon="-4.821500">
        <ele>2045.0</ele>
        <time>2015-03-15T14:00:49Z</time>
      </trkpt>
      <trkpt lat="40.293950" lon="-4.821367">
        <ele>2047.0</ele>
        <time>2015-03-15T14:00:51Z</time>
      </trkpt>
      <trkpt lat="40.294117" lon="-4.821333">
        <ele>2047.0</ele>
        <time>2015-03-15T14:00:53Z</time>
      </trkpt>
      <trkpt lat="40.294267" lon="-4.821417">
        <ele>2047.0</ele>
        <time>2015-03-15T14:00:55Z</time>
      </trkpt>
      <trkpt lat="40.294367" lon="-4.821533">
        <ele>2048.0</ele>
        <time>2015-03-15T14:00:57Z</time>
      </trkpt>
      <trkpt lat="40.294400" lon="-4.821717">
        <ele>2050.0</ele>
        <time>2015-03-15T14:00:59Z</time>
      </trkpt>
      <trkpt lat="40.294317" lon="-4.821850">
        <ele>2053.0</ele>
        <time>2015-03-15T14:01:01Z</time>
      </trkpt>
      <trkpt lat="40.294217" lon="-4.821933">
        <ele>2055.0</ele>
        <time>2015-03-15T14:01:03Z</time>
      </trkpt>
      <trkpt lat="40.294083" lon="-4.821950">
        <ele>2058.0</ele>
        <time>2015-03-15T14:01:05Z</time>
      </trkpt>
      <trkpt lat="40.293933" lon="-4.821900">
        <ele>2060.0</ele>
        <time>2015-03-15T14:01:07Z</time>
      </trkpt>
      <trkpt lat="40.293800" lon="-4.821783">
        <ele>2063.0</ele>
        <time>2015-03-15T14:01:09Z</time>
      </trkpt>
      <trkpt lat="40.293683" lon="-4.821617">
        <ele>2066.0</ele>
        <time>2015-03-15T14:01:11Z</time>
      </trkpt>
      <trkpt lat="40.293600" lon="-4.821383">
        <ele>2071.0</ele>
        <time>2015-03-15T14:01:13Z</time>
      </trkpt>
      <trkpt lat="40.293550" lon="-4.821167">
        <ele>2075.0</ele>
        <time>2015-03-15T14:01:15Z</time>
      </trkpt>
      <trkpt lat="40.293567" lon="-4.820933">
        <ele>2077.0</ele>
        <time>2015-03-15T14:01:17Z</time>
      </trkpt>
      <trkpt lat="40.293633" lon="-4.820650">
        <ele>2078.0</ele>
        <time>2015-03-15T14:01:19Z</time>
      </trkpt>
      <trkpt lat="40.293733" lon="-4.820417">
        <ele>2082.0</ele>
        <time>2015-03-15T14:01:21Z</time>
      </trkpt>
      <trkpt lat="40.293867" lon="-4.820233">
        <ele>2083.0</ele>
        <time>2015-03-15T14:01:23Z</time>
      </trkpt>
      <trkpt lat="40.294050" lon="-4.820067">
        <ele>2084.0</ele>
        <time>2015-03-15T14:01:25Z</time>
      </trkpt>
      <trkpt lat="40.294233" lon="-4.820017">
        <ele>2085.0</ele>
        <time>2015-03-15T14:01:27Z</time>
      </trkpt>
      <trkpt lat="40.294400" lon="-4.820067">
        <ele>2084.0</ele>
        <time>2015-03-15T14:01:29Z</time>
      </trkpt>
      <trkpt lat="40.294517" lon="-4.820200">
        <ele>2083.0</ele>
        <time>2015-03-15T14:01:31Z</time>
      </trkpt>
      <trkpt lat="40.294533" lon="-4.820383">
        <ele>2083.0</ele>
        <time>2015-03-15T14:01:33Z</time>
      </trkpt>
      <trkpt lat="40.294500" lon="-4.820533">
        <ele>2085.0</ele>
        <time>2015-03-15T14:01:35Z</time>
      </trkpt>
      <trkpt lat="40.294417" lon="-4.820667">
        <ele>2085.0</ele>
        <time>2015-03-15T14:01:37Z</time>
      </trkpt>
      <trkpt lat="40.294267" lon="-4.820750">
        <ele>2086.0</ele>
        <time>2015-03-15T14:01:39Z</time>
      </trkpt>
      <trkpt lat="40.294100" lon="-4.820717">
        <ele>2091.0</ele>
        <time>2015-03-15T14:01:41Z</time>
      </trkpt>
      <trkpt lat="40.293967" lon="-4.820617">
        <ele>2096.0</ele>
        <time>2015-03-15T14:01:43Z</time>
      </trkpt>
      <trkpt lat="40.293850" lon="-4.820467">
        <ele>2098.0</ele>
        <time>2015-03-15T14:01:45Z</time>
      </trkpt>
      <trkpt lat="40.293750" lon="-4.820250">
        <ele>2101.0</ele>
        <time>2015-03-15T14:01:47Z</time>
      </trkpt>
      <trkpt lat="40.293683" lon="-4.820033">
        <ele>2105.0</ele>
        <time>2015-03-15T14:01:49Z</time>
      </trkpt>
      <trkpt lat="40.293633" lon="-4.819800">
        <ele>2106.0</ele>
        <time>2015-03-15T14:01:51Z</time>
      </trkpt>
      <trkpt lat="40.293617" lon="-4.819533">
        <ele>2107.0</ele>
        <time>2015-03-15T14:01:53Z</time>
      </trkpt>
      <trkpt lat="40.293650" lon="-4.819283">
        <ele>2108.0</ele>
        <time>2015-03-15T14:01:55Z</time>
      </trkpt>
      <trkpt lat="40.293667" lon="-4.819033">
        <ele>2107.0</ele>
        <time>2015-03-15T14:01:57Z</time>
      </trkpt>
      <trkpt lat="40.293717" lon="-4.818750">
        <ele>2106.0</ele>
        <time>2015-03-15T14:01:59Z</time>
      </trkpt>
      <trkpt lat="40.293783" lon="-4.818467">
        <ele>2109.0</ele>
        <time>2015-03-15T14:02:01Z</time>
      </trkpt>
      <trkpt lat="40.293833" lon="-4.818217">
        <ele>2110.0</ele>
        <time>2015-03-15T14:02:03Z</time>
      </trkpt>
      <trkpt lat="40.293900" lon="-4.817933">
        <ele>2109.0</ele>
        <time>2015-03-15T14:02:05Z</time>
      </trkpt>
      <trkpt lat="40.293983" lon="-4.817650">
        <ele>2107.0</ele>
        <time>2015-03-15T14:02:07Z</time>
      </trkpt>
      <trkpt lat="40.294050" lon="-4.817350">
        <ele>2105.0</ele>
        <time>2015-03-15T14:02:09Z</time>
      </trkpt>
      <trkpt lat="40.294150" lon="-4.817083">
        <ele>2104.0</ele>
        <time>2015-03-15T14:02:11Z</time>
      </trkpt>
      <trkpt lat="40.294267" lon="-4.816833">
        <ele>2102.0</ele>
        <time>2015-03-15T14:02:13Z</time>
      </trkpt>
      <trkpt lat="40.294400" lon="-4.816567">
        <ele>2099.0</ele>
        <time>2015-03-15T14:02:15Z</time>
      </trkpt>
      <trkpt lat="40.294550" lon="-4.816300">
        <ele>2097.0</ele>
        <time>2015-03-15T14:02:17Z</time>
      </trkpt>
      <trkpt lat="40.294683" lon="-4.816050">
        <ele>2095.0</ele>
        <time>2015-03-15T14:02:19Z</time>
      </trkpt>
      <trkpt lat="40.294833" lon="-4.815783">
        <ele>2093.0</ele>
        <time>2015-03-15T14:02:21Z</time>
      </trkpt>
      <trkpt lat="40.295000" lon="-4.815517">
        <ele>2090.0</ele>
        <time>2015-03-15T14:02:23Z</time>
      </trkpt>
      <trkpt lat="40.295200" lon="-4.815250">
        <ele>2088.0</ele>
        <time>2015-03-15T14:02:25Z</time>
      </trkpt>
      <trkpt lat="40.295367" lon="-4.814967">
        <ele>2091.0</ele>
        <time>2015-03-15T14:02:27Z</time>
      </trkpt>
      <trkpt lat="40.295500" lon="-4.814750">
        <ele>2095.0</ele>
        <time>2015-03-15T14:02:29Z</time>
      </trkpt>
      <trkpt lat="40.295617" lon="-4.814500">
        <ele>2095.0</ele>
        <time>2015-03-15T14:02:31Z</time>
      </trkpt>
      <trkpt lat="40.295750" lon="-4.814233">
        <ele>2095.0</ele>
        <time>2015-03-15T14:02:33Z</time>
      </trkpt>
      <trkpt lat="40.295883" lon="-4.814000">
        <ele>2097.0</ele>
        <time>2015-03-15T14:02:35Z</time>
      </trkpt>
      <trkpt lat="40.296017" lon="-4.813750">
        <ele>2097.0</ele>
        <time>2015-03-15T14:02:37Z</time>
      </trkpt>
      <trkpt lat="40.296150" lon="-4.813500">
        <ele>2098.0</ele>
        <time>2015-03-15T14:02:39Z</time>
      </trkpt>
      <trkpt lat="40.296283" lon="-4.813250">
        <ele>2100.0</ele>
        <time>2015-03-15T14:02:41Z</time>
      </trkpt>
      <trkpt lat="40.296400" lon="-4.813000">
        <ele>2101.0</ele>
        <time>2015-03-15T14:02:43Z</time>
      </trkpt>
      <trkpt lat="40.296517" lon="-4.812750">
        <ele>2102.0</ele>
        <time>2015-03-15T14:02:45Z</time>
      </trkpt>
      <trkpt lat="40.296683" lon="-4.812550">
        <ele>2105.0</ele>
        <time>2015-03-15T14:02:47Z</time>
      </trkpt>
      <trkpt lat="40.296817" lon="-4.812367">
        <ele>2108.0</ele>
        <time>2015-03-15T14:02:49Z</time>
      </trkpt>
      <trkpt lat="40.296967" lon="-4.812167">
        <ele>2110.0</ele>
        <time>2015-03-15T14:02:51Z</time>
      </trkpt>
      <trkpt lat="40.297083" lon="-4.811933">
        <ele>2113.0</ele>
        <time>2015-03-15T14:02:53Z</time>
      </trkpt>
      <trkpt lat="40.297183" lon="-4.811683">
        <ele>2116.0</ele>
        <time>2015-03-15T14:02:55Z</time>
      </trkpt>
      <trkpt lat="40.297300" lon="-4.811417">
        <ele>2119.0</ele>
        <time>2015-03-15T14:02:57Z</time>
      </trkpt>
      <trkpt lat="40.297417" lon="-4.811183">
        <ele>2123.0</ele>
        <time>2015-03-15T14:02:59Z</time>
      </trkpt>
      <trkpt lat="40.297517" lon="-4.810933">
        <ele>2126.0</ele>
        <time>2015-03-15T14:03:01Z</time>
      </trkpt>
      <trkpt lat="40.297550" lon="-4.810650">
        <ele>2127.0</ele>
        <time>2015-03-15T14:03:03Z</time>
      </trkpt>
      <trkpt lat="40.297600" lon="-4.810317">
        <ele>2126.0</ele>
        <time>2015-03-15T14:03:05Z</time>
      </trkpt>
      <trkpt lat="40.297683" lon="-4.810033">
        <ele>2130.0</ele>
        <time>2015-03-15T14:03:07Z</time>
      </trkpt>
      <trkpt lat="40.297767" lon="-4.809833">
        <ele>2131.0</ele>
        <time>2015-03-15T14:03:09Z</time>
      </trkpt>
      <trkpt lat="40.297867" lon="-4.809600">
        <ele>2125.0</ele>
        <time>2015-03-15T14:03:11Z</time>
      </trkpt>
      <trkpt lat="40.298017" lon="-4.809350">
        <ele>2119.0</ele>
        <time>2015-03-15T14:03:13Z</time>
      </trkpt>
      <trkpt lat="40.298183" lon="-4.809133">
        <ele>2116.0</ele>
        <time>2015-03-15T14:03:15Z</time>
      </trkpt>
      <trkpt lat="40.298300" lon="-4.808917">
        <ele>2111.0</ele>
        <time>2015-03-15T14:03:17Z</time>
      </trkpt>
      <trkpt lat="40.298433" lon="-4.808683">
        <ele>2107.0</ele>
        <time>2015-03-15T14:03:19Z</time>
      </trkpt>
      <trkpt lat="40.298567" lon="-4.808467">
        <ele>2107.0</ele>
        <time>2015-03-15T14:03:21Z</time>
      </trkpt>
      <trkpt lat="40.298717" lon="-4.808217">
        <ele>2107.0</ele>
        <time>2015-03-15T14:03:23Z</time>
      </trkpt>
      <trkpt lat="40.298850" lon="-4.808017">
        <ele>2108.0</ele>
        <time>2015-03-15T14:03:25Z</time>
      </trkpt>
      <trkpt lat="40.298983" lon="-4.807800">
        <ele>2106.0</ele>
        <time>2015-03-15T14:03:27Z</time>
      </trkpt>
      <trkpt lat="40.299117" lon="-4.807583">
        <ele>2106.0</ele>
        <time>2015-03-15T14:03:29Z</time>
      </trkpt>
      <trkpt lat="40.299250" lon="-4.807400">
        <ele>2104.0</ele>
        <time>2015-03-15T14:03:31Z</time>
      </trkpt>
      <trkpt lat="40.299417" lon="-4.807217">
        <ele>2101.0</ele>
        <time>2015-03-15T14:03:33Z</time>
      </trkpt>
      <trkpt lat="40.299583" lon="-4.807033">
        <ele>2100.0</ele>
        <time>2015-03-15T14:03:35Z</time>
      </trkpt>
      <trkpt lat="40.299717" lon="-4.806850">
        <ele>2101.0</ele>
        <time>2015-03-15T14:03:37Z</time>
      </trkpt>
      <trkpt lat="40.299850" lon="-4.806667">
        <ele>2098.0</ele>
        <time>2015-03-15T14:03:39Z</time>
      </trkpt>
      <trkpt lat="40.300017" lon="-4.806467">
        <ele>2095.0</ele>
        <time>2015-03-15T14:03:41Z</time>
      </trkpt>
      <trkpt lat="40.300167" lon="-4.806250">
        <ele>2095.0</ele>
        <time>2015-03-15T14:03:43Z</time>
      </trkpt>
      <trkpt lat="40.300300" lon="-4.806050">
        <ele>2094.0</ele>
        <time>2015-03-15T14:03:45Z</time>
      </trkpt>
      <trkpt lat="40.300450" lon="-4.805833">
        <ele>2092.0</ele>
        <time>2015-03-15T14:03:47Z</time>
      </trkpt>
      <trkpt lat="40.300600" lon="-4.805633">
        <ele>2090.0</ele>
        <time>2015-03-15T14:03:49Z</time>
      </trkpt>
      <trkpt lat="40.300767" lon="-4.805433">
        <ele>2089.0</ele>
        <time>2015-03-15T14:03:51Z</time>
      </trkpt>
      <trkpt lat="40.300933" lon="-4.805250">
        <ele>2088.0</ele>
        <time>2015-03-15T14:03:53Z</time>
      </trkpt>
      <trkpt lat="40.301100" lon="-4.805050">
        <ele>2085.0</ele>
        <time>2015-03-15T14:03:55Z</time>
      </trkpt>
      <trkpt lat="40.301250" lon="-4.804833">
        <ele>2081.0</ele>
        <time>2015-03-15T14:03:57Z</time>
      </trkpt>
      <trkpt lat="40.301417" lon="-4.804667">
        <ele>2079.0</ele>
        <time>2015-03-15T14:03:59Z</time>
      </trkpt>
      <trkpt lat="40.301550" lon="-4.804517">
        <ele>2075.0</ele>
        <time>2015-03-15T14:04:01Z</time>
      </trkpt>
      <trkpt lat="40.301717" lon="-4.804333">
        <ele>2070.0</ele>
        <time>2015-03-15T14:04:03Z</time>
      </trkpt>
      <trkpt lat="40.301950" lon="-4.804167">
        <ele>2069.0</ele>
        <time>2015-03-15T14:04:05Z</time>
      </trkpt>
      <trkpt lat="40.302117" lon="-4.804017">
        <ele>2075.0</ele>
        <time>2015-03-15T14:04:07Z</time>
      </trkpt>
      <trkpt lat="40.302267" lon="-4.803867">
        <ele>2078.0</ele>
        <time>2015-03-15T14:04:09Z</time>
      </trkpt>
      <trkpt lat="40.302383" lon="-4.803700">
        <ele>2076.0</ele>
        <time>2015-03-15T14:04:11Z</time>
      </trkpt>
      <trkpt lat="40.302517" lon="-4.803517">
        <ele>2072.0</ele>
        <time>2015-03-15T14:04:13Z</time>
      </trkpt>
      <trkpt lat="40.302683" lon="-4.803350">
        <ele>2069.0</ele>
        <time>2015-03-15T14:04:15Z</time>
      </trkpt>
      <trkpt lat="40.302850" lon="-4.803183">
        <ele>2070.0</ele>
        <time>2015-03-15T14:04:17Z</time>
      </trkpt>
      <trkpt lat="40.302967" lon="-4.802967">
        <ele>2070.0</ele>
        <time>2015-03-15T14:04:19Z</time>
      </trkpt>
      <trkpt lat="40.303067" lon="-4.802750">
        <ele>2069.0</ele>
        <time>2015-03-15T14:04:21Z</time>
      </trkpt>
      <trkpt lat="40.303133" lon="-4.802483">
        <ele>2067.0</ele>
        <time>2015-03-15T14:04:23Z</time>
      </trkpt>
      <trkpt lat="40.303200" lon="-4.802183">
        <ele>2067.0</ele>
        <time>2015-03-15T14:04:25Z</time>
      </trkpt>
      <trkpt lat="40.303250" lon="-4.801917">
        <ele>2066.0</ele>
        <time>2015-03-15T14:04:27Z</time>
      </trkpt>
      <trkpt lat="40.303317" lon="-4.801650">
        <ele>2065.0</ele>
        <time>2015-03-15T14:04:29Z</time>
      </trkpt>
      <trkpt lat="40.303417" lon="-4.801400">
        <ele>2064.0</ele>
        <time>2015-03-15T14:04:31Z</time>
      </trkpt>
      <trkpt lat="40.303517" lon="-4.801133">
        <ele>2062.0</ele>
        <time>2015-03-15T14:04:33Z</time>
      </trkpt>
      <trkpt lat="40.303617" lon="-4.800867">
        <ele>2064.0</ele>
        <time>2015-03-15T14:04:35Z</time>
      </trkpt>
      <trkpt lat="40.303733" lon="-4.800667">
        <ele>2065.0</ele>
        <time>2015-03-15T14:04:37Z</time>
      </trkpt>
      <trkpt lat="40.303883" lon="-4.800450">
        <ele>2065.0</ele>
        <time>2015-03-15T14:04:39Z</time>
      </trkpt>
      <trkpt lat="40.304033" lon="-4.800217">
        <ele>2066.0</ele>
        <time>2015-03-15T14:04:41Z</time>
      </trkpt>
      <trkpt lat="40.304133" lon="-4.799983">
        <ele>2069.0</ele>
        <time>2015-03-15T14:04:43Z</time>
      </trkpt>
      <trkpt lat="40.304250" lon="-4.799767">
        <ele>2070.0</ele>
        <time>2015-03-15T14:04:45Z</time>
      </trkpt>
      <trkpt lat="40.304333" lon="-4.799533">
        <ele>2070.0</ele>
        <time>2015-03-15T14:04:47Z</time>
      </trkpt>
      <trkpt lat="40.304383" lon="-4.799267">
        <ele>2070.0</ele>
        <time>2015-03-15T14:04:49Z</time>
      </trkpt>
      <trkpt lat="40.304467" lon="-4.799017">
        <ele>2072.0</ele>
        <time>2015-03-15T14:04:51Z</time>
      </trkpt>
      <trkpt lat="40.304533" lon="-4.798783">
        <ele>2076.0</ele>
        <time>2015-03-15T14:04:53Z</time>
      </trkpt>
      <trkpt lat="40.304633" lon="-4.798583">
        <ele>2077.0</ele>
        <time>2015-03-15T14:04:55Z</time>
      </trkpt>
      <trkpt lat="40.304750" lon="-4.798350">
        <ele>2076.0</ele>
        <time>2015-03-15T14:04:57Z</time>
      </trkpt>
      <trkpt lat="40.304867" lon="-4.798100">
        <ele>2078.0</ele>
        <time>2015-03-15T14:04:59Z</time>
      </trkpt>
      <trkpt lat="40.304967" lon="-4.797883">
        <ele>2080.0</ele>
        <time>2015-03-15T14:05:01Z</time>
      </trkpt>
      <trkpt lat="40.305083" lon="-4.797650">
        <ele>2076.0</ele>
        <time>2015-03-15T14:05:03Z</time>
      </trkpt>
      <trkpt lat="40.305233" lon="-4.797383">
        <ele>2074.0</ele>
        <time>2015-03-15T14:05:05Z</time>
      </trkpt>
      <trkpt lat="40.305383" lon="-4.797150">
        <ele>2076.0</ele>
        <time>2015-03-15T14:05:07Z</time>
      </trkpt>
      <trkpt lat="40.305533" lon="-4.796950">
        <ele>2075.0</ele>
        <time>2015-03-15T14:05:09Z</time>
      </trkpt>
      <trkpt lat="40.305717" lon="-4.796717">
        <ele>2073.0</ele>
        <time>2015-03-15T14:05:11Z</time>
      </trkpt>
      <trkpt lat="40.305883" lon="-4.796500">
        <ele>2075.0</ele>
        <time>2015-03-15T14:05:13Z</time>
      </trkpt>
      <trkpt lat="40.306017" lon="-4.796300">
        <ele>2074.0</ele>
        <time>2015-03-15T14:05:15Z</time>
      </trkpt>
      <trkpt lat="40.306167" lon="-4.796083">
        <ele>2074.0</ele>
        <time>2015-03-15T14:05:17Z</time>
      </trkpt>
      <trkpt lat="40.306283" lon="-4.795850">
        <ele>2074.0</ele>
        <time>2015-03-15T14:05:19Z</time>
      </trkpt>
      <trkpt lat="40.306350" lon="-4.795633">
        <ele>2073.0</ele>
        <time>2015-03-15T14:05:21Z</time>
      </trkpt>
      <trkpt lat="40.306450" lon="-4.795400">
        <ele>2068.0</ele>
        <time>2015-03-15T14:05:23Z</time>
      </trkpt>
      <trkpt lat="40.306583" lon="-4.795167">
        <ele>2067.0</ele>
        <time>2015-03-15T14:05:25Z</time>
      </trkpt>
      <trkpt lat="40.306717" lon="-4.794983">
        <ele>2064.0</ele>
        <time>2015-03-15T14:05:27Z</time>
      </trkpt>
      <trkpt lat="40.306883" lon="-4.794817">
        <ele>2061.0</ele>
        <time>2015-03-15T14:05:29Z</time>
      </trkpt>
      <trkpt lat="40.307033" lon="-4.794633">
        <ele>2058.0</ele>
        <time>2015-03-15T14:05:31Z</time>
      </trkpt>
      <trkpt lat="40.307183" lon="-4.794450">
        <ele>2056.0</ele>
        <time>2015-03-15T14:05:33Z</time>
      </trkpt>
      <trkpt lat="40.307333" lon="-4.794283">
        <ele>2053.0</ele>
        <time>2015-03-15T14:05:35Z</time>
      </trkpt>
      <trkpt lat="40.307500" lon="-4.794117">
        <ele>2053.0</ele>
        <time>2015-03-15T14:05:37Z</time>
      </trkpt>
      <trkpt lat="40.307683" lon="-4.794000">
        <ele>2056.0</ele>
        <time>2015-03-15T14:05:39Z</time>
      </trkpt>
      <trkpt lat="40.307850" lon="-4.793883">
        <ele>2057.0</ele>
        <time>2015-03-15T14:05:41Z</time>
      </trkpt>
      <trkpt lat="40.308033" lon="-4.793783">
        <ele>2055.0</ele>
        <time>2015-03-15T14:05:43Z</time>
      </trkpt>
      <trkpt lat="40.308217" lon="-4.793650">
        <ele>2056.0</ele>
        <time>2015-03-15T14:05:45Z</time>
      </trkpt>
      <trkpt lat="40.308350" lon="-4.793533">
        <ele>2055.0</ele>
        <time>2015-03-15T14:05:47Z</time>
      </trkpt>
      <trkpt lat="40.308517" lon="-4.793417">
        <ele>2049.0</ele>
        <time>2015-03-15T14:05:49Z</time>
      </trkpt>
      <trkpt lat="40.308700" lon="-4.793267">
        <ele>2044.0</ele>
        <time>2015-03-15T14:05:51Z</time>
      </trkpt>
      <trkpt lat="40.308883" lon="-4.793117">
        <ele>2041.0</ele>
        <time>2015-03-15T14:05:53Z</time>
      </trkpt>
      <trkpt lat="40.309067" lon="-4.793000">
        <ele>2040.0</ele>
        <time>2015-03-15T14:05:55Z</time>
      </trkpt>
      <trkpt lat="40.309233" lon="-4.792867">
        <ele>2039.0</ele>
        <time>2015-03-15T14:05:57Z</time>
      </trkpt>
      <trkpt lat="40.309417" lon="-4.792750">
        <ele>2038.0</ele>
        <time>2015-03-15T14:05:59Z</time>
      </trkpt>
      <trkpt lat="40.309617" lon="-4.792650">
        <ele>2038.0</ele>
        <time>2015-03-15T14:06:01Z</time>
      </trkpt>
      <trkpt lat="40.309783" lon="-4.792533">
        <ele>2037.0</ele>
        <time>2015-03-15T14:06:03Z</time>
      </trkpt>
      <trkpt lat="40.309967" lon="-4.792400">
        <ele>2036.0</ele>
        <time>2015-03-15T14:06:05Z</time>
      </trkpt>
      <trkpt lat="40.310133" lon="-4.792250">
        <ele>2036.0</ele>
        <time>2015-03-15T14:06:07Z</time>
      </trkpt>
      <trkpt lat="40.310300" lon="-4.792100">
        <ele>2036.0</ele>
        <time>2015-03-15T14:06:09Z</time>
      </trkpt>
      <trkpt lat="40.310467" lon="-4.791933">
        <ele>2037.0</ele>
        <time>2015-03-15T14:06:11Z</time>
      </trkpt>
      <trkpt lat="40.310617" lon="-4.791817">
        <ele>2039.0</ele>
        <time>2015-03-15T14:06:13Z</time>
      </trkpt>
      <trkpt lat="40.310800" lon="-4.791700">
        <ele>2039.0</ele>
        <time>2015-03-15T14:06:15Z</time>
      </trkpt>
      <trkpt lat="40.310983" lon="-4.791567">
        <ele>2038.0</ele>
        <time>2015-03-15T14:06:17Z</time>
      </trkpt>
      <trkpt lat="40.311150" lon="-4.791417">
        <ele>2037.0</ele>
        <time>2015-03-15T14:06:19Z</time>
      </trkpt>
      <trkpt lat="40.311317" lon="-4.791283">
        <ele>2036.0</ele>
        <time>2015-03-15T14:06:21Z</time>
      </trkpt>
      <trkpt lat="40.311517" lon="-4.791183">
        <ele>2034.0</ele>
        <time>2015-03-15T14:06:23Z</time>
      </trkpt>
      <trkpt lat="40.311700" lon="-4.791067">
        <ele>2032.0</ele>
        <time>2015-03-15T14:06:25Z</time>
      </trkpt>
      <trkpt lat="40.311867" lon="-4.790967">
        <ele>2027.0</ele>
        <time>2015-03-15T14:06:27Z</time>
      </trkpt>
      <trkpt lat="40.312050" lon="-4.790817">
        <ele>2021.0</ele>
        <time>2015-03-15T14:06:29Z</time>
      </trkpt>
      <trkpt lat="40.312233" lon="-4.790700">
        <ele>2018.0</ele>
        <time>2015-03-15T14:06:31Z</time>
      </trkpt>
      <trkpt lat="40.312433" lon="-4.790600">
        <ele>2015.0</ele>
        <time>2015-03-15T14:06:33Z</time>
      </trkpt>
      <trkpt lat="40.312617" lon="-4.790483">
        <ele>2012.0</ele>
        <time>2015-03-15T14:06:35Z</time>
      </trkpt>
      <trkpt lat="40.312783" lon="-4.790333">
        <ele>2009.0</ele>
        <time>2015-03-15T14:06:37Z</time>
      </trkpt>
      <trkpt lat="40.312933" lon="-4.790183">
        <ele>2007.0</ele>
        <time>2015-03-15T14:06:39Z</time>
      </trkpt>
      <trkpt lat="40.313100" lon="-4.790050">
        <ele>2002.0</ele>
        <time>2015-03-15T14:06:41Z</time>
      </trkpt>
      <trkpt lat="40.313267" lon="-4.789867">
        <ele>2000.0</ele>
        <time>2015-03-15T14:06:43Z</time>
      </trkpt>
      <trkpt lat="40.313450" lon="-4.789700">
        <ele>2002.0</ele>
        <time>2015-03-15T14:06:45Z</time>
      </trkpt>
      <trkpt lat="40.313600" lon="-4.789600">
        <ele>2004.0</ele>
        <time>2015-03-15T14:06:47Z</time>
      </trkpt>
      <trkpt lat="40.313733" lon="-4.789450">
        <ele>2002.0</ele>
        <time>2015-03-15T14:06:49Z</time>
      </trkpt>
      <trkpt lat="40.313883" lon="-4.789267">
        <ele>1999.0</ele>
        <time>2015-03-15T14:06:51Z</time>
      </trkpt>
      <trkpt lat="40.314050" lon="-4.789100">
        <ele>1999.0</ele>
        <time>2015-03-15T14:06:53Z</time>
      </trkpt>
      <trkpt lat="40.314183" lon="-4.788950">
        <ele>1996.0</ele>
        <time>2015-03-15T14:06:55Z</time>
      </trkpt>
      <trkpt lat="40.314350" lon="-4.788783">
        <ele>1990.0</ele>
        <time>2015-03-15T14:06:57Z</time>
      </trkpt>
      <trkpt lat="40.314500" lon="-4.788583">
        <ele>1986.0</ele>
        <time>2015-03-15T14:06:59Z</time>
      </trkpt>
      <trkpt lat="40.314600" lon="-4.788383">
        <ele>1985.0</ele>
        <time>2015-03-15T14:07:01Z</time>
      </trkpt>
      <trkpt lat="40.314700" lon="-4.788200">
        <ele>1980.0</ele>
        <time>2015-03-15T14:07:03Z</time>
      </trkpt>
      <trkpt lat="40.314833" lon="-4.788000">
        <ele>1973.0</ele>
        <time>2015-03-15T14:07:05Z</time>
      </trkpt>
      <trkpt lat="40.314967" lon="-4.787783">
        <ele>1970.0</ele>
        <time>2015-03-15T14:07:07Z</time>
      </trkpt>
      <trkpt lat="40.315083" lon="-4.787583">
        <ele>1965.0</ele>
        <time>2015-03-15T14:07:09Z</time>
      </trkpt>
      <trkpt lat="40.315200" lon="-4.787350">
        <ele>1959.0</ele>
        <time>2015-03-15T14:07:11Z</time>
      </trkpt>
      <trkpt lat="40.315317" lon="-4.787117">
        <ele>1956.0</ele>
        <time>2015-03-15T14:07:13Z</time>
      </trkpt>
      <trkpt lat="40.315417" lon="-4.786900">
        <ele>1953.0</ele>
        <time>2015-03-15T14:07:15Z</time>
      </trkpt>
      <trkpt lat="40.315500" lon="-4.786650">
        <ele>1948.0</ele>
        <time>2015-03-15T14:07:17Z</time>
      </trkpt>
      <trkpt lat="40.315583" lon="-4.786400">
        <ele>1944.0</ele>
        <time>2015-03-15T14:07:19Z</time>
      </trkpt>
      <trkpt lat="40.315733" lon="-4.786183">
        <ele>1941.0</ele>
        <time>2015-03-15T14:07:21Z</time>
      </trkpt>
      <trkpt lat="40.315883" lon="-4.786000">
        <ele>1936.0</ele>
        <time>2015-03-15T14:07:23Z</time>
      </trkpt>
      <trkpt lat="40.316033" lon="-4.785800">
        <ele>1932.0</ele>
        <time>2015-03-15T14:07:25Z</time>
      </trkpt>
      <trkpt lat="40.316200" lon="-4.785633">
        <ele>1928.0</ele>
        <time>2015-03-15T14:07:27Z</time>
      </trkpt>
      <trkpt lat="40.316383" lon="-4.785467">
        <ele>1923.0</ele>
        <time>2015-03-15T14:07:29Z</time>
      </trkpt>
      <trkpt lat="40.316567" lon="-4.785300">
        <ele>1918.0</ele>
        <time>2015-03-15T14:07:31Z</time>
      </trkpt>
      <trkpt lat="40.316750" lon="-4.785133">
        <ele>1914.0</ele>
        <time>2015-03-15T14:07:33Z</time>
      </trkpt>
      <trkpt lat="40.316933" lon="-4.785000">
        <ele>1912.0</ele>
        <time>2015-03-15T14:07:35Z</time>
      </trkpt>
      <trkpt lat="40.317083" lon="-4.784850">
        <ele>1908.0</ele>
        <time>2015-03-15T14:07:37Z</time>
      </trkpt>
      <trkpt lat="40.317267" lon="-4.784700">
        <ele>1902.0</ele>
        <time>2015-03-15T14:07:39Z</time>
      </trkpt>
      <trkpt lat="40.317450" lon="-4.784550">
        <ele>1897.0</ele>
        <time>2015-03-15T14:07:41Z</time>
      </trkpt>
      <trkpt lat="40.317633" lon="-4.784417">
        <ele>1894.0</ele>
        <time>2015-03-15T14:07:43Z</time>
      </trkpt>
      <trkpt lat="40.317833" lon="-4.784317">
        <ele>1891.0</ele>
        <time>2015-03-15T14:07:45Z</time>
      </trkpt>
      <trkpt lat="40.318033" lon="-4.784183">
        <ele>1887.0</ele>
        <time>2015-03-15T14:07:47Z</time>
      </trkpt>
      <trkpt lat="40.318233" lon="-4.784033">
        <ele>1883.0</ele>
        <time>2015-03-15T14:07:49Z</time>
      </trkpt>
      <trkpt lat="40.318433" lon="-4.783900">
        <ele>1881.0</ele>
        <time>2015-03-15T14:07:51Z</time>
      </trkpt>
      <trkpt lat="40.318600" lon="-4.783750">
        <ele>1879.0</ele>
        <time>2015-03-15T14:07:53Z</time>
      </trkpt>
      <trkpt lat="40.318767" lon="-4.783633">
        <ele>1877.0</ele>
        <time>2015-03-15T14:07:55Z</time>
      </trkpt>
      <trkpt lat="40.318917" lon="-4.783533">
        <ele>1874.0</ele>
        <time>2015-03-15T14:07:57Z</time>
      </trkpt>
      <trkpt lat="40.319100" lon="-4.783400">
        <ele>1872.0</ele>
        <time>2015-03-15T14:07:59Z</time>
      </trkpt>
      <trkpt lat="40.319267" lon="-4.783300">
        <ele>1872.0</ele>
        <time>2015-03-15T14:08:01Z</time>
      </trkpt>
      <trkpt lat="40.319433" lon="-4.783200">
        <ele>1871.0</ele>
        <time>2015-03-15T14:08:03Z</time>
      </trkpt>
      <trkpt lat="40.319617" lon="-4.783100">
        <ele>1869.0</ele>
        <time>2015-03-15T14:08:05Z</time>
      </trkpt>
      <trkpt lat="40.319783" lon="-4.783000">
        <ele>1869.0</ele>
        <time>2015-03-15T14:08:07Z</time>
      </trkpt>
      <trkpt lat="40.319917" lon="-4.782900">
        <ele>1869.0</ele>
        <time>2015-03-15T14:08:09Z</time>
      </trkpt>
      <trkpt lat="40.320050" lon="-4.782783">
        <ele>1867.0</ele>
        <time>2015-03-15T14:08:11Z</time>
      </trkpt>
      <trkpt lat="40.320200" lon="-4.782650">
        <ele>1866.0</ele>
        <time>2015-03-15T14:08:13Z</time>
      </trkpt>
      <trkpt lat="40.320333" lon="-4.782533">
        <ele>1866.0</ele>
        <time>2015-03-15T14:08:15Z</time>
      </trkpt>
      <trkpt lat="40.320450" lon="-4.782400">
        <ele>1866.0</ele>
        <time>2015-03-15T14:08:17Z</time>
      </trkpt>
      <trkpt lat="40.320583" lon="-4.782283">
        <ele>1865.0</ele>
        <time>2015-03-15T14:08:19Z</time>
      </trkpt>
      <trkpt lat="40.320750" lon="-4.782150">
        <ele>1863.0</ele>
        <time>2015-03-15T14:08:21Z</time>
      </trkpt>
      <trkpt lat="40.320917" lon="-4.782033">
        <ele>1863.0</ele>
        <time>2015-03-15T14:08:23Z</time>
      </trkpt>
      <trkpt lat="40.321083" lon="-4.781900">
        <ele>1862.0</ele>
        <time>2015-03-15T14:08:25Z</time>
      </trkpt>
      <trkpt lat="40.321233" lon="-4.781733">
        <ele>1862.0</ele>
        <time>2015-03-15T14:08:27Z</time>
      </trkpt>
      <trkpt lat="40.321383" lon="-4.781567">
        <ele>1863.0</ele>
        <time>2015-03-15T14:08:29Z</time>
      </trkpt>
      <trkpt lat="40.321517" lon="-4.781417">
        <ele>1863.0</ele>
        <time>2015-03-15T14:08:31Z</time>
      </trkpt>
      <trkpt lat="40.321700" lon="-4.781317">
        <ele>1860.0</ele>
        <time>2015-03-15T14:08:33Z</time>
      </trkpt>
      <trkpt lat="40.321900" lon="-4.781217">
        <ele>1860.0</ele>
        <time>2015-03-15T14:08:35Z</time>
      </trkpt>
      <trkpt lat="40.322067" lon="-4.781100">
        <ele>1862.0</ele>
        <time>2015-03-15T14:08:37Z</time>
      </trkpt>
      <trkpt lat="40.322200" lon="-4.780983">
        <ele>1862.0</ele>
        <time>2015-03-15T14:08:39Z</time>
      </trkpt>
      <trkpt lat="40.322350" lon="-4.780800">
        <ele>1859.0</ele>
        <time>2015-03-15T14:08:41Z</time>
      </trkpt>
      <trkpt lat="40.322533" lon="-4.780633">
        <ele>1859.0</ele>
        <time>2015-03-15T14:08:43Z</time>
      </trkpt>
      <trkpt lat="40.322717" lon="-4.780500">
        <ele>1861.0</ele>
        <time>2015-03-15T14:08:45Z</time>
      </trkpt>
      <trkpt lat="40.322867" lon="-4.780333">
        <ele>1862.0</ele>
        <time>2015-03-15T14:08:47Z</time>
      </trkpt>
      <trkpt lat="40.323017" lon="-4.780150">
        <ele>1862.0</ele>
        <time>2015-03-15T14:08:49Z</time>
      </trkpt>
      <trkpt lat="40.323117" lon="-4.779933">
        <ele>1862.0</ele>
        <time>2015-03-15T14:08:51Z</time>
      </trkpt>
      <trkpt lat="40.323233" lon="-4.779750">
        <ele>1862.0</ele>
        <time>2015-03-15T14:08:53Z</time>
      </trkpt>
      <trkpt lat="40.323333" lon="-4.779583">
        <ele>1861.0</ele>
        <time>2015-03-15T14:08:55Z</time>
      </trkpt>
      <trkpt lat="40.323483" lon="-4.779400">
        <ele>1859.0</ele>
        <time>2015-03-15T14:08:57Z</time>
      </trkpt>
      <trkpt lat="40.323633" lon="-4.779183">
        <ele>1858.0</ele>
        <time>2015-03-15T14:08:59Z</time>
      </trkpt>
      <trkpt lat="40.323767" lon="-4.778983">
        <ele>1859.0</ele>
        <time>2015-03-15T14:09:01Z</time>
      </trkpt>
      <trkpt lat="40.323917" lon="-4.778783">
        <ele>1858.0</ele>
        <time>2015-03-15T14:09:03Z</time>
      </trkpt>
      <trkpt lat="40.324033" lon="-4.778583">
        <ele>1860.0</ele>
        <time>2015-03-15T14:09:05Z</time>
      </trkpt>
      <trkpt lat="40.324117" lon="-4.778383">
        <ele>1860.0</ele>
        <time>2015-03-15T14:09:07Z</time>
      </trkpt>
      <trkpt lat="40.324167" lon="-4.778183">
        <ele>1856.0</ele>
        <time>2015-03-15T14:09:09Z</time>
      </trkpt>
      <trkpt lat="40.324250" lon="-4.777950">
        <ele>1850.0</ele>
        <time>2015-03-15T14:09:11Z</time>
      </trkpt>
      <trkpt lat="40.324333" lon="-4.777733">
        <ele>1844.0</ele>
        <time>2015-03-15T14:09:13Z</time>
      </trkpt>
      <trkpt lat="40.324417" lon="-4.777500">
        <ele>1837.0</ele>
        <time>2015-03-15T14:09:15Z</time>
      </trkpt>
      <trkpt lat="40.324500" lon="-4.777267">
        <ele>1832.0</ele>
        <time>2015-03-15T14:09:17Z</time>
      </trkpt>
      <trkpt lat="40.324583" lon="-4.777033">
        <ele>1827.0</ele>
        <time>2015-03-15T14:09:19Z</time>
      </trkpt>
      <trkpt lat="40.324683" lon="-4.776817">
        <ele>1821.0</ele>
        <time>2015-03-15T14:09:21Z</time>
      </trkpt>
      <trkpt lat="40.324783" lon="-4.776567">
        <ele>1816.0</ele>
        <time>2015-03-15T14:09:23Z</time>
      </trkpt>
      <trkpt lat="40.324883" lon="-4.776317">
        <ele>1814.0</ele>
        <time>2015-03-15T14:09:25Z</time>
      </trkpt>
      <trkpt lat="40.324967" lon="-4.776100">
        <ele>1812.0</ele>
        <time>2015-03-15T14:09:27Z</time>
      </trkpt>
      <trkpt lat="40.325017" lon="-4.775850">
        <ele>1807.0</ele>
        <time>2015-03-15T14:09:29Z</time>
      </trkpt>
      <trkpt lat="40.325117" lon="-4.775567">
        <ele>1801.0</ele>
        <time>2015-03-15T14:09:31Z</time>
      </trkpt>
      <trkpt lat="40.325200" lon="-4.775283">
        <ele>1799.0</ele>
        <time>2015-03-15T14:09:33Z</time>
      </trkpt>
      <trkpt lat="40.325250" lon="-4.775033">
        <ele>1799.0</ele>
        <time>2015-03-15T14:09:35Z</time>
      </trkpt>
      <trkpt lat="40.325333" lon="-4.774833">
        <ele>1797.0</ele>
        <time>2015-03-15T14:09:37Z</time>
      </trkpt>
      <trkpt lat="40.325450" lon="-4.774600">
        <ele>1793.0</ele>
        <time>2015-03-15T14:09:39Z</time>
      </trkpt>
      <trkpt lat="40.325550" lon="-4.774300">
        <ele>1794.0</ele>
        <time>2015-03-15T14:09:41Z</time>
      </trkpt>
      <trkpt lat="40.325633" lon="-4.774033">
        <ele>1798.0</ele>
        <time>2015-03-15T14:09:43Z</time>
      </trkpt>
      <trkpt lat="40.325733" lon="-4.773767">
        <ele>1799.0</ele>
        <time>2015-03-15T14:09:45Z</time>
      </trkpt>
      <trkpt lat="40.325883" lon="-4.773467">
        <ele>1799.0</ele>
        <time>2015-03-15T14:09:47Z</time>
      </trkpt>
      <trkpt lat="40.326000" lon="-4.773217">
        <ele>1803.0</ele>
        <time>2015-03-15T14:09:49Z</time>
      </trkpt>
      <trkpt lat="40.326117" lon="-4.772983">
        <ele>1804.0</ele>
        <time>2015-03-15T14:09:51Z</time>
      </trkpt>
      <trkpt lat="40.326250" lon="-4.772700">
        <ele>1801.0</ele>
        <time>2015-03-15T14:09:53Z</time>
      </trkpt>
      <trkpt lat="40.326367" lon="-4.772417">
        <ele>1803.0</ele>
        <time>2015-03-15T14:09:55Z</time>
      </trkpt>
      <trkpt lat="40.326467" lon="-4.772183">
        <ele>1807.0</ele>
        <time>2015-03-15T14:09:57Z</time>
      </trkpt>
      <trkpt lat="40.326567" lon="-4.771967">
        <ele>1804.0</ele>
        <time>2015-03-15T14:09:59Z</time>
      </trkpt>
      <trkpt lat="40.326617" lon="-4.771667">
        <ele>1798.0</ele>
        <time>2015-03-15T14:10:01Z</time>
      </trkpt>
      <trkpt lat="40.326683" lon="-4.771333">
        <ele>1800.0</ele>
        <time>2015-03-15T14:10:03Z</time>
      </trkpt>
      <trkpt lat="40.326750" lon="-4.771083">
        <ele>1805.0</ele>
        <time>2015-03-15T14:10:05Z</time>
      </trkpt>
      <trkpt lat="40.326783" lon="-4.770867">
        <ele>1804.0</ele>
        <time>2015-03-15T14:10:07Z</time>
      </trkpt>
      <trkpt lat="40.326833" lon="-4.770583">
        <ele>1799.0</ele>
        <time>2015-03-15T14:10:09Z</time>
      </trkpt>
      <trkpt lat="40.326900" lon="-4.770300">
        <ele>1798.0</ele>
        <time>2015-03-15T14:10:11Z</time>
      </trkpt>
      <trkpt lat="40.326950" lon="-4.770050">
        <ele>1796.0</ele>
        <time>2015-03-15T14:10:13Z</time>
      </trkpt>
      <trkpt lat="40.327000" lon="-4.769767">
        <ele>1793.0</ele>
        <time>2015-03-15T14:10:15Z</time>
      </trkpt>
      <trkpt lat="40.327067" lon="-4.769500">
        <ele>1791.0</ele>
        <time>2015-03-15T14:10:17Z</time>
      </trkpt>
      <trkpt lat="40.327167" lon="-4.769233">
        <ele>1795.0</ele>
        <time>2015-03-15T14:10:19Z</time>
      </trkpt>
      <trkpt lat="40.327217" lon="-4.769050">
        <ele>1799.0</ele>
        <time>2015-03-15T14:10:21Z</time>
      </trkpt>
      <trkpt lat="40.327217" lon="-4.768817">
        <ele>1797.0</ele>
        <time>2015-03-15T14:10:23Z</time>
      </trkpt>
      <trkpt lat="40.327167" lon="-4.768533">
        <ele>1798.0</ele>
        <time>2015-03-15T14:10:25Z</time>
      </trkpt>
      <trkpt lat="40.327100" lon="-4.768283">
        <ele>1801.0</ele>
        <time>2015-03-15T14:10:27Z</time>
      </trkpt>
      <trkpt lat="40.327100" lon="-4.768033">
        <ele>1801.0</ele>
        <time>2015-03-15T14:10:29Z</time>
      </trkpt>
      <trkpt lat="40.327117" lon="-4.767767">
        <ele>1799.0</ele>
        <time>2015-03-15T14:10:31Z</time>
      </trkpt>
      <trkpt lat="40.327117" lon="-4.767450">
        <ele>1799.0</ele>
        <time>2015-03-15T14:10:33Z</time>
      </trkpt>
      <trkpt lat="40.327133" lon="-4.767183">
        <ele>1802.0</ele>
        <time>2015-03-15T14:10:35Z</time>
      </trkpt>
      <trkpt lat="40.327183" lon="-4.766967">
        <ele>1802.0</ele>
        <time>2015-03-15T14:10:37Z</time>
      </trkpt>
      <trkpt lat="40.327217" lon="-4.766750">
        <ele>1799.0</ele>
        <time>2015-03-15T14:10:39Z</time>
      </trkpt>
      <trkpt lat="40.327233" lon="-4.766500">
        <ele>1794.0</ele>
        <time>2015-03-15T14:10:41Z</time>
      </trkpt>
      <trkpt lat="40.327250" lon="-4.766250">
        <ele>1791.0</ele>
        <time>2015-03-15T14:10:43Z</time>
      </trkpt>
      <trkpt lat="40.327283" lon="-4.766000">
        <ele>1789.0</ele>
        <time>2015-03-15T14:10:45Z</time>
      </trkpt>
      <trkpt lat="40.327283" lon="-4.765767">
        <ele>1785.0</ele>
        <time>2015-03-15T14:10:47Z</time>
      </trkpt>
      <trkpt lat="40.327283" lon="-4.765517">
        <ele>1781.0</ele>
        <time>2015-03-15T14:10:49Z</time>
      </trkpt>
      <trkpt lat="40.327300" lon="-4.765267">
        <ele>1777.0</ele>
        <time>2015-03-15T14:10:51Z</time>
      </trkpt>
      <trkpt lat="40.327350" lon="-4.765017">
        <ele>1773.0</ele>
        <time>2015-03-15T14:10:53Z</time>
      </trkpt>
      <trkpt lat="40.327417" lon="-4.764767">
        <ele>1768.0</ele>
        <time>2015-03-15T14:10:55Z</time>
      </trkpt>
      <trkpt lat="40.327483" lon="-4.764517">
        <ele>1765.0</ele>
        <time>2015-03-15T14:10:57Z</time>
      </trkpt>
      <trkpt lat="40.327550" lon="-4.764250">
        <ele>1761.0</ele>
        <time>2015-03-15T14:10:59Z</time>
      </trkpt>
      <trkpt lat="40.327650" lon="-4.763967">
        <ele>1758.0</ele>
        <time>2015-03-15T14:11:01Z</time>
      </trkpt>
      <trkpt lat="40.327733" lon="-4.763717">
        <ele>1757.0</ele>
        <time>2015-03-15T14:11:03Z</time>
      </trkpt>
      <trkpt lat="40.327800" lon="-4.763483">
        <ele>1753.0</ele>
        <time>2015-03-15T14:11:05Z</time>
      </trkpt>
      <trkpt lat="40.327850" lon="-4.763217">
        <ele>1747.0</ele>
        <time>2015-03-15T14:11:07Z</time>
      </trkpt>
      <trkpt lat="40.327867" lon="-4.762933">
        <ele>1746.0</ele>
        <time>2015-03-15T14:11:09Z</time>
      </trkpt>
      <trkpt lat="40.327900" lon="-4.762733">
        <ele>1748.0</ele>
        <time>2015-03-15T14:11:11Z</time>
      </trkpt>
      <trkpt lat="40.327933" lon="-4.762517">
        <ele>1747.0</ele>
        <time>2015-03-15T14:11:13Z</time>
      </trkpt>
      <trkpt lat="40.327983" lon="-4.762267">
        <ele>1749.0</ele>
        <time>2015-03-15T14:11:15Z</time>
      </trkpt>
      <trkpt lat="40.328033" lon="-4.762050">
        <ele>1753.0</ele>
        <time>2015-03-15T14:11:17Z</time>
      </trkpt>
      <trkpt lat="40.328083" lon="-4.761833">
        <ele>1754.0</ele>
        <time>2015-03-15T14:11:19Z</time>
      </trkpt>
      <trkpt lat="40.328067" lon="-4.761600">
        <ele>1755.0</ele>
        <time>2015-03-15T14:11:21Z</time>
      </trkpt>
      <trkpt lat="40.328050" lon="-4.761383">
        <ele>1757.0</ele>
        <time>2015-03-15T14:11:23Z</time>
      </trkpt>
      <trkpt lat="40.328050" lon="-4.761150">
        <ele>1757.0</ele>
        <time>2015-03-15T14:11:25Z</time>
      </trkpt>
      <trkpt lat="40.328067" lon="-4.760917">
        <ele>1757.0</ele>
        <time>2015-03-15T14:11:27Z</time>
      </trkpt>
      <trkpt lat="40.328100" lon="-4.760700">
        <ele>1756.0</ele>
        <time>2015-03-15T14:11:29Z</time>
      </trkpt>
      <trkpt lat="40.328150" lon="-4.760467">
        <ele>1752.0</ele>
        <time>2015-03-15T14:11:31Z</time>
      </trkpt>
      <trkpt lat="40.328183" lon="-4.760217">
        <ele>1749.0</ele>
        <time>2015-03-15T14:11:33Z</time>
      </trkpt>
      <trkpt lat="40.328217" lon="-4.759950">
        <ele>1748.0</ele>
        <time>2015-03-15T14:11:35Z</time>
      </trkpt>
      <trkpt lat="40.328233" lon="-4.759717">
        <ele>1746.0</ele>
        <time>2015-03-15T14:11:37Z</time>
      </trkpt>
      <trkpt lat="40.328250" lon="-4.759467">
        <ele>1745.0</ele>
        <time>2015-03-15T14:11:39Z</time>
      </trkpt>
      <trkpt lat="40.328300" lon="-4.759200">
        <ele>1744.0</ele>
        <time>2015-03-15T14:11:41Z</time>
      </trkpt>
      <trkpt lat="40.328300" lon="-4.758967">
        <ele>1741.0</ele>
        <time>2015-03-15T14:11:43Z</time>
      </trkpt>
      <trkpt lat="40.328317" lon="-4.758717">
        <ele>1737.0</ele>
        <time>2015-03-15T14:11:45Z</time>
      </trkpt>
      <trkpt lat="40.328350" lon="-4.758450">
        <ele>1733.0</ele>
        <time>2015-03-15T14:11:47Z</time>
      </trkpt>
      <trkpt lat="40.328367" lon="-4.758183">
        <ele>1730.0</ele>
        <time>2015-03-15T14:11:49Z</time>
      </trkpt>
      <trkpt lat="40.328417" lon="-4.757950">
        <ele>1727.0</ele>
        <time>2015-03-15T14:11:51Z</time>
      </trkpt>
      <trkpt lat="40.328450" lon="-4.757700">
        <ele>1722.0</ele>
        <time>2015-03-15T14:11:53Z</time>
      </trkpt>
      <trkpt lat="40.328467" lon="-4.757450">
        <ele>1718.0</ele>
        <time>2015-03-15T14:11:55Z</time>
      </trkpt>
      <trkpt lat="40.328483" lon="-4.757217">
        <ele>1714.0</ele>
        <time>2015-03-15T14:11:57Z</time>
      </trkpt>
      <trkpt lat="40.328500" lon="-4.757017">
        <ele>1710.0</ele>
        <time>2015-03-15T14:11:59Z</time>
      </trkpt>
      <trkpt lat="40.328500" lon="-4.756783">
        <ele>1704.0</ele>
        <time>2015-03-15T14:12:01Z</time>
      </trkpt>
      <trkpt lat="40.328500" lon="-4.756550">
        <ele>1699.0</ele>
        <time>2015-03-15T14:12:03Z</time>
      </trkpt>
      <trkpt lat="40.328500" lon="-4.756300">
        <ele>1694.0</ele>
        <time>2015-03-15T14:12:05Z</time>
      </trkpt>
      <trkpt lat="40.328500" lon="-4.756067">
        <ele>1689.0</ele>
        <time>2015-03-15T14:12:07Z</time>
      </trkpt>
      <trkpt lat="40.328500" lon="-4.755817">
        <ele>1684.0</ele>
        <time>2015-03-15T14:12:09Z</time>
      </trkpt>
      <trkpt lat="40.328500" lon="-4.755583">
        <ele>1679.0</ele>
        <time>2015-03-15T14:12:11Z</time>
      </trkpt>
      <trkpt lat="40.328483" lon="-4.755350">
        <ele>1674.0</ele>
        <time>2015-03-15T14:12:13Z</time>
      </trkpt>
      <trkpt lat="40.328467" lon="-4.755100">
        <ele>1668.0</ele>
        <time>2015-03-15T14:12:15Z</time>
      </trkpt>
      <trkpt lat="40.328450" lon="-4.754867">
        <ele>1662.0</ele>
        <time>2015-03-15T14:12:17Z</time>
      </trkpt>
      <trkpt lat="40.328417" lon="-4.754617">
        <ele>1656.0</ele>
        <time>2015-03-15T14:12:19Z</time>
      </trkpt>
      <trkpt lat="40.328400" lon="-4.754383">
        <ele>1649.0</ele>
        <time>2015-03-15T14:12:21Z</time>
      </trkpt>
      <trkpt lat="40.328383" lon="-4.754133">
        <ele>1642.0</ele>
        <time>2015-03-15T14:12:23Z</time>
      </trkpt>
      <trkpt lat="40.328383" lon="-4.753900">
        <ele>1636.0</ele>
        <time>2015-03-15T14:12:25Z</time>
      </trkpt>
      <trkpt lat="40.328367" lon="-4.753667">
        <ele>1630.0</ele>
        <time>2015-03-15T14:12:27Z</time>
      </trkpt>
      <trkpt lat="40.328367" lon="-4.753400">
        <ele>1625.0</ele>
        <time>2015-03-15T14:12:29Z</time>
      </trkpt>
      <trkpt lat="40.328333" lon="-4.753150">
        <ele>1624.0</ele>
        <time>2015-03-15T14:12:31Z</time>
      </trkpt>
      <trkpt lat="40.328333" lon="-4.752917">
        <ele>1623.0</ele>
        <time>2015-03-15T14:12:33Z</time>
      </trkpt>
      <trkpt lat="40.328300" lon="-4.752683">
        <ele>1620.0</ele>
        <time>2015-03-15T14:12:35Z</time>
      </trkpt>
      <trkpt lat="40.328283" lon="-4.752450">
        <ele>1617.0</ele>
        <time>2015-03-15T14:12:37Z</time>
      </trkpt>
      <trkpt lat="40.328283" lon="-4.752217">
        <ele>1615.0</ele>
        <time>2015-03-15T14:12:39Z</time>
      </trkpt>
      <trkpt lat="40.328267" lon="-4.751983">
        <ele>1611.0</ele>
        <time>2015-03-15T14:12:41Z</time>
      </trkpt>
      <trkpt lat="40.328250" lon="-4.751733">
        <ele>1608.0</ele>
        <time>2015-03-15T14:12:43Z</time>
      </trkpt>
      <trkpt lat="40.328233" lon="-4.751500">
        <ele>1606.0</ele>
        <time>2015-03-15T14:12:45Z</time>
      </trkpt>
      <trkpt lat="40.328217" lon="-4.751300">
        <ele>1605.0</ele>
        <time>2015-03-15T14:12:47Z</time>
      </trkpt>
      <trkpt lat="40.328183" lon="-4.751100">
        <ele>1601.0</ele>
        <time>2015-03-15T14:12:49Z</time>
      </trkpt>
      <trkpt lat="40.328150" lon="-4.750867">
        <ele>1597.0</ele>
        <time>2015-03-15T14:12:51Z</time>
      </trkpt>
      <trkpt lat="40.328100" lon="-4.750633">
        <ele>1595.0</ele>
        <time>2015-03-15T14:12:53Z</time>
      </trkpt>
      <trkpt lat="40.328067" lon="-4.750417">
        <ele>1594.0</ele>
        <time>2015-03-15T14:12:55Z</time>
      </trkpt>
      <trkpt lat="40.328033" lon="-4.750200">
        <ele>1593.0</ele>
        <time>2015-03-15T14:12:57Z</time>
      </trkpt>
      <trkpt lat="40.328000" lon="-4.749967">
        <ele>1592.0</ele>
        <time>2015-03-15T14:12:59Z</time>
      </trkpt>
      <trkpt lat="40.327950" lon="-4.749733">
        <ele>1592.0</ele>
        <time>2015-03-15T14:13:01Z</time>
      </trkpt>
      <trkpt lat="40.327917" lon="-4.749500">
        <ele>1593.0</ele>
        <time>2015-03-15T14:13:03Z</time>
      </trkpt>
      <trkpt lat="40.327883" lon="-4.749283">
        <ele>1593.0</ele>
        <time>2015-03-15T14:13:05Z</time>
      </trkpt>
      <trkpt lat="40.327850" lon="-4.749033">
        <ele>1592.0</ele>
        <time>2015-03-15T14:13:07Z</time>
      </trkpt>
      <trkpt lat="40.327817" lon="-4.748783">
        <ele>1592.0</ele>
        <time>2015-03-15T14:13:09Z</time>
      </trkpt>
      <trkpt lat="40.327783" lon="-4.748550">
        <ele>1594.0</ele>
        <time>2015-03-15T14:13:11Z</time>
      </trkpt>
      <trkpt lat="40.327750" lon="-4.748333">
        <ele>1594.0</ele>
        <time>2015-03-15T14:13:13Z</time>
      </trkpt>
      <trkpt lat="40.327717" lon="-4.748083">
        <ele>1593.0</ele>
        <time>2015-03-15T14:13:15Z</time>
      </trkpt>
      <trkpt lat="40.327683" lon="-4.747817">
        <ele>1591.0</ele>
        <time>2015-03-15T14:13:17Z</time>
      </trkpt>
      <trkpt lat="40.327650" lon="-4.747583">
        <ele>1591.0</ele>
        <time>2015-03-15T14:13:19Z</time>
      </trkpt>
      <trkpt lat="40.327583" lon="-4.747333">
        <ele>1588.0</ele>
        <time>2015-03-15T14:13:21Z</time>
      </trkpt>
      <trkpt lat="40.327517" lon="-4.747083">
        <ele>1585.0</ele>
        <time>2015-03-15T14:13:23Z</time>
      </trkpt>
      <trkpt lat="40.327483" lon="-4.746833">
        <ele>1582.0</ele>
        <time>2015-03-15T14:13:25Z</time>
      </trkpt>
      <trkpt lat="40.327433" lon="-4.746583">
        <ele>1577.0</ele>
        <time>2015-03-15T14:13:27Z</time>
      </trkpt>
      <trkpt lat="40.327383" lon="-4.746333">
        <ele>1573.0</ele>
        <time>2015-03-15T14:13:29Z</time>
      </trkpt>
      <trkpt lat="40.327367" lon="-4.746100">
        <ele>1569.0</ele>
        <time>2015-03-15T14:13:31Z</time>
      </trkpt>
      <trkpt lat="40.327333" lon="-4.745833">
        <ele>1563.0</ele>
        <time>2015-03-15T14:13:33Z</time>
      </trkpt>
      <trkpt lat="40.327317" lon="-4.745550">
        <ele>1559.0</ele>
        <time>2015-03-15T14:13:35Z</time>
      </trkpt>
      <trkpt lat="40.327283" lon="-4.745317">
        <ele>1558.0</ele>
        <time>2015-03-15T14:13:37Z</time>
      </trkpt>
      <trkpt lat="40.327283" lon="-4.745100">
        <ele>1555.0</ele>
        <time>2015-03-15T14:13:39Z</time>
      </trkpt>
      <trkpt lat="40.327250" lon="-4.744850">
        <ele>1551.0</ele>
        <time>2015-03-15T14:13:41Z</time>
      </trkpt>
      <trkpt lat="40.327233" lon="-4.744617">
        <ele>1548.0</ele>
        <time>2015-03-15T14:13:43Z</time>
      </trkpt>
      <trkpt lat="40.327217" lon="-4.744400">
        <ele>1546.0</ele>
        <time>2015-03-15T14:13:45Z</time>
      </trkpt>
      <trkpt lat="40.327217" lon="-4.744167">
        <ele>1543.0</ele>
        <time>2015-03-15T14:13:47Z</time>
      </trkpt>
      <trkpt lat="40.327233" lon="-4.743950">
        <ele>1541.0</ele>
        <time>2015-03-15T14:13:49Z</time>
      </trkpt>
      <trkpt lat="40.327267" lon="-4.743733">
        <ele>1538.0</ele>
        <time>2015-03-15T14:13:51Z</time>
      </trkpt>
      <trkpt lat="40.327300" lon="-4.743500">
        <ele>1536.0</ele>
        <time>2015-03-15T14:13:53Z</time>
      </trkpt>
      <trkpt lat="40.327333" lon="-4.743267">
        <ele>1534.0</ele>
        <time>2015-03-15T14:13:55Z</time>
      </trkpt>
      <trkpt lat="40.327350" lon="-4.743017">
        <ele>1531.0</ele>
        <time>2015-03-15T14:13:57Z</time>
      </trkpt>
      <trkpt lat="40.327350" lon="-4.742767">
        <ele>1530.0</ele>
        <time>2015-03-15T14:13:59Z</time>
      </trkpt>
      <trkpt lat="40.327367" lon="-4.742550">
        <ele>1528.0</ele>
        <time>2015-03-15T14:14:01Z</time>
      </trkpt>
      <trkpt lat="40.327367" lon="-4.742317">
        <ele>1524.0</ele>
        <time>2015-03-15T14:14:03Z</time>
      </trkpt>
      <trkpt lat="40.327367" lon="-4.742067">
        <ele>1522.0</ele>
        <time>2015-03-15T14:14:05Z</time>
      </trkpt>
      <trkpt lat="40.327367" lon="-4.741817">
        <ele>1520.0</ele>
        <time>2015-03-15T14:14:07Z</time>
      </trkpt>
      <trkpt lat="40.327383" lon="-4.741567">
        <ele>1518.0</ele>
        <time>2015-03-15T14:14:09Z</time>
      </trkpt>
      <trkpt lat="40.327400" lon="-4.741317">
        <ele>1517.0</ele>
        <time>2015-03-15T14:14:11Z</time>
      </trkpt>
      <trkpt lat="40.327417" lon="-4.741067">
        <ele>1517.0</ele>
        <time>2015-03-15T14:14:13Z</time>
      </trkpt>
      <trkpt lat="40.327433" lon="-4.740817">
        <ele>1514.0</ele>
        <time>2015-03-15T14:14:15Z</time>
      </trkpt>
      <trkpt lat="40.327450" lon="-4.740550">
        <ele>1513.0</ele>
        <time>2015-03-15T14:14:17Z</time>
      </trkpt>
      <trkpt lat="40.327450" lon="-4.740300">
        <ele>1514.0</ele>
        <time>2015-03-15T14:14:19Z</time>
      </trkpt>
      <trkpt lat="40.327467" lon="-4.740100">
        <ele>1514.0</ele>
        <time>2015-03-15T14:14:21Z</time>
      </trkpt>
      <trkpt lat="40.327483" lon="-4.739883">
        <ele>1512.0</ele>
        <time>2015-03-15T14:14:23Z</time>
      </trkpt>
      <trkpt lat="40.327483" lon="-4.739650">
        <ele>1510.0</ele>
        <time>2015-03-15T14:14:25Z</time>
      </trkpt>
      <trkpt lat="40.327483" lon="-4.739450">
        <ele>1510.0</ele>
        <time>2015-03-15T14:14:27Z</time>
      </trkpt>
      <trkpt lat="40.327483" lon="-4.739250">
        <ele>1508.0</ele>
        <time>2015-03-15T14:14:29Z</time>
      </trkpt>
      <trkpt lat="40.327483" lon="-4.739017">
        <ele>1503.0</ele>
        <time>2015-03-15T14:14:31Z</time>
      </trkpt>
      <trkpt lat="40.327500" lon="-4.738733">
        <ele>1502.0</ele>
        <time>2015-03-15T14:14:33Z</time>
      </trkpt>
      <trkpt lat="40.327550" lon="-4.738500">
        <ele>1507.0</ele>
        <time>2015-03-15T14:14:35Z</time>
      </trkpt>
      <trkpt lat="40.327600" lon="-4.738283">
        <ele>1513.0</ele>
        <time>2015-03-15T14:14:37Z</time>
      </trkpt>
      <trkpt lat="40.327683" lon="-4.738100">
        <ele>1520.0</ele>
        <time>2015-03-15T14:14:39Z</time>
      </trkpt>
      <trkpt lat="40.327817" lon="-4.737950">
        <ele>1526.0</ele>
        <time>2015-03-15T14:14:41Z</time>
      </trkpt>
      <trkpt lat="40.327983" lon="-4.737867">
        <ele>1530.0</ele>
        <time>2015-03-15T14:14:43Z</time>
      </trkpt>
      <trkpt lat="40.328183" lon="-4.737850">
        <ele>1534.0</ele>
        <time>2015-03-15T14:14:45Z</time>
      </trkpt>
      <trkpt lat="40.328367" lon="-4.737950">
        <ele>1536.0</ele>
        <time>2015-03-15T14:14:47Z</time>
      </trkpt>
      <trkpt lat="40.328500" lon="-4.738150">
        <ele>1538.0</ele>
        <time>2015-03-15T14:14:49Z</time>
      </trkpt>
      <trkpt lat="40.328517" lon="-4.738383">
        <ele>1539.0</ele>
        <time>2015-03-15T14:14:51Z</time>
      </trkpt>
      <trkpt lat="40.328433" lon="-4.738583">
        <ele>1543.0</ele>
        <time>2015-03-15T14:14:53Z</time>
      </trkpt>
      <trkpt lat="40.328333" lon="-4.738667">
        <ele>1548.0</ele>
        <time>2015-03-15T14:14:55Z</time>
      </trkpt>
      <trkpt lat="40.328250" lon="-4.738700">
        <ele>1551.0</ele>
        <time>2015-03-15T14:14:57Z</time>
      </trkpt>
      <trkpt lat="40.328167" lon="-4.738633">
        <ele>1554.0</ele>
        <time>2015-03-15T14:14:59Z</time>
      </trkpt>
      <trkpt lat="40.328083" lon="-4.738483">
        <ele>1558.0</ele>
        <time>2015-03-15T14:15:01Z</time>
      </trkpt>
      <trkpt lat="40.328067" lon="-4.738333">
        <ele>1564.0</ele>
        <time>2015-03-15T14:15:03Z</time>
      </trkpt>
      <trkpt lat="40.328150" lon="-4.738150">
        <ele>1569.0</ele>
        <time>2015-03-15T14:15:05Z</time>
      </trkpt>
      <trkpt lat="40.328267" lon="-4.738000">
        <ele>1575.0</ele>
        <time>2015-03-15T14:15:07Z</time>
      </trkpt>
      <trkpt lat="40.328450" lon="-4.737933">
        <ele>1580.0</ele>
        <time>2015-03-15T14:15:09Z</time>
      </trkpt>
      <trkpt lat="40.328633" lon="-4.737933">
        <ele>1585.0</ele>
        <time>2015-03-15T14:15:11Z</time>
      </trkpt>
      <trkpt lat="40.328817" lon="-4.738033">
        <ele>1589.0</ele>
        <time>2015-03-15T14:15:13Z</time>
      </trkpt>
      <trkpt lat="40.328967" lon="-4.738217">
        <ele>1594.0</ele>
        <time>2015-03-15T14:15:15Z</time>
      </trkpt>
      <trkpt lat="40.329067" lon="-4.738417">
        <ele>1598.0</ele>
        <time>2015-03-15T14:15:17Z</time>
      </trkpt>
      <trkpt lat="40.329083" lon="-4.738650">
        <ele>1599.0</ele>
        <time>2015-03-15T14:15:19Z</time>
      </trkpt>
      <trkpt lat="40.328983" lon="-4.738850">
        <ele>1601.0</ele>
        <time>2015-03-15T14:15:21Z</time>
      </trkpt>
      <trkpt lat="40.328850" lon="-4.738900">
        <ele>1606.0</ele>
        <time>2015-03-15T14:15:23Z</time>
      </trkpt>
      <trkpt lat="40.328750" lon="-4.738900">
        <ele>1613.0</ele>
        <time>2015-03-15T14:15:25Z</time>
      </trkpt>
      <trkpt lat="40.328650" lon="-4.738867">
        <ele>1617.0</ele>
        <time>2015-03-15T14:15:27Z</time>
      </trkpt>
      <trkpt lat="40.328600" lon="-4.738733">
        <ele>1620.0</ele>
        <time>2015-03-15T14:15:29Z</time>
      </trkpt>
      <trkpt lat="40.328583" lon="-4.738550">
        <ele>1626.0</ele>
        <time>2015-03-15T14:15:31Z</time>
      </trkpt>
      <trkpt lat="40.328633" lon="-4.738367">
        <ele>1633.0</ele>
        <time>2015-03-15T14:15:33Z</time>
      </trkpt>
      <trkpt lat="40.328717" lon="-4.738217">
        <ele>1638.0</ele>
        <time>2015-03-15T14:15:35Z</time>
      </trkpt>
      <trkpt lat="40.328867" lon="-4.738083">
        <ele>1640.0</ele>
        <time>2015-03-15T14:15:37Z</time>
      </trkpt>
      <trkpt lat="40.329083" lon="-4.738033">
        <ele>1644.0</ele>
        <time>2015-03-15T14:15:39Z</time>
      </trkpt>
      <trkpt lat="40.329283" lon="-4.738133">
        <ele>1650.0</ele>
        <time>2015-03-15T14:15:41Z</time>
      </trkpt>
      <trkpt lat="40.329433" lon="-4.738317">
        <ele>1655.0</ele>
        <time>2015-03-15T14:15:43Z</time>
      </trkpt>
      <trkpt lat="40.329517" lon="-4.738550">
        <ele>1662.0</ele>
        <time>2015-03-15T14:15:45Z</time>
      </trkpt>
      <trkpt lat="40.329550" lon="-4.738783">
        <ele>1668.0</ele>
        <time>2015-03-15T14:15:47Z</time>
      </trkpt>
      <trkpt lat="40.329483" lon="-4.738983">
        <ele>1668.0</ele>
        <time>2015-03-15T14:15:49Z</time>
      </trkpt>
      <trkpt lat="40.329333" lon="-4.739133">
        <ele>1672.0</ele>
        <time>2015-03-15T14:15:51Z</time>
      </trkpt>
      <trkpt lat="40.329233" lon="-4.739133">
        <ele>1680.0</ele>
        <time>2015-03-15T14:15:53Z</time>
      </trkpt>
      <trkpt lat="40.329150" lon="-4.739083">
        <ele>1686.0</ele>
        <time>2015-03-15T14:15:55Z</time>
      </trkpt>
      <trkpt lat="40.329100" lon="-4.738967">
        <ele>1691.0</ele>
        <time>2015-03-15T14:15:57Z</time>
      </trkpt>
      <trkpt lat="40.329083" lon="-4.738817">
        <ele>1696.0</ele>
        <time>2015-03-15T14:15:59Z</time>
      </trkpt>
      <trkpt lat="40.329117" lon="-4.738650">
        <ele>1701.0</ele>
        <time>2015-03-15T14:16:01Z</time>
      </trkpt>
      <trkpt lat="40.329200" lon="-4.738467">
        <ele>1706.0</ele>
        <time>2015-03-15T14:16:03Z</time>
      </trkpt>
      <trkpt lat="40.329300" lon="-4.738317">
        <ele>1711.0</ele>
        <time>2015-03-15T14:16:05Z</time>
      </trkpt>
      <trkpt lat="40.329433" lon="-4.738183">
        <ele>1712.0</ele>
        <time>2015-03-15T14:16:07Z</time>
      </trkpt>
      <trkpt lat="40.329650" lon="-4.738083">
        <ele>1714.0</ele>
        <time>2015-03-15T14:16:09Z</time>
      </trkpt>
      <trkpt lat="40.329867" lon="-4.738067">
        <ele>1722.0</ele>
        <time>2015-03-15T14:16:11Z</time>
      </trkpt>
      <trkpt lat="40.330033" lon="-4.738117">
        <ele>1729.0</ele>
        <time>2015-03-15T14:16:13Z</time>
      </trkpt>
      <trkpt lat="40.330217" lon="-4.738267">
        <ele>1730.0</ele>
        <time>2015-03-15T14:16:15Z</time>
      </trkpt>
      <trkpt lat="40.330317" lon="-4.738533">
        <ele>1732.0</ele>
        <time>2015-03-15T14:16:17Z</time>
      </trkpt>
      <trkpt lat="40.330267" lon="-4.738750">
        <ele>1736.0</ele>
        <time>2015-03-15T14:16:19Z</time>
      </trkpt>
      <trkpt lat="40.330200" lon="-4.738900">
        <ele>1741.0</ele>
        <time>2015-03-15T14:16:21Z</time>
      </trkpt>
      <trkpt lat="40.330083" lon="-4.739000">
        <ele>1743.0</ele>
        <time>2015-03-15T14:16:23Z</time>
      </trkpt>
      <trkpt lat="40.329967" lon="-4.738967">
        <ele>1748.0</ele>
        <time>2015-03-15T14:16:25Z</time>
      </trkpt>
      <trkpt lat="40.329900" lon="-4.738867">
        <ele>1755.0</ele>
        <time>2015-03-15T14:16:27Z</time>
      </trkpt>
      <trkpt lat="40.329867" lon="-4.738750">
        <ele>1759.0</ele>
        <time>2015-03-15T14:16:29Z</time>
      </trkpt>
      <trkpt lat="40.329850" lon="-4.738583">
        <ele>1762.0</ele>
        <time>2015-03-15T14:16:31Z</time>
      </trkpt>
      <trkpt lat="40.329883" lon="-4.738400">
        <ele>1766.0</ele>
        <time>2015-03-15T14:16:33Z</time>
      </trkpt>
      <trkpt lat="40.329950" lon="-4.738250">
        <ele>1770.0</ele>
        <time>2015-03-15T14:16:35Z</time>
      </trkpt>
      <trkpt lat="40.330083" lon="-4.738100">
        <ele>1772.0</ele>
        <time>2015-03-15T14:16:37Z</time>
      </trkpt>
      <trkpt lat="40.330300" lon="-4.738017">
        <ele>1776.0</ele>
        <time>2015-03-15T14:16:39Z</time>
      </trkpt>
      <trkpt lat="40.330500" lon="-4.738050">
        <ele>1784.0</ele>
        <time>2015-03-15T14:16:41Z</time>
      </trkpt>
      <trkpt lat="40.330667" lon="-4.738167">
        <ele>1788.0</ele>
        <time>2015-03-15T14:16:43Z</time>
      </trkpt>
      <trkpt lat="40.330800" lon="-4.738367">
        <ele>1792.0</ele>
        <time>2015-03-15T14:16:45Z</time>
      </trkpt>
      <trkpt lat="40.330833" lon="-4.738600">
        <ele>1797.0</ele>
        <time>2015-03-15T14:16:47Z</time>
      </trkpt>
      <trkpt lat="40.330800" lon="-4.738783">
        <ele>1802.0</ele>
        <time>2015-03-15T14:16:49Z</time>
      </trkpt>
      <trkpt lat="40.330717" lon="-4.738900">
        <ele>1806.0</ele>
        <time>2015-03-15T14:16:51Z</time>
      </trkpt>
      <trkpt lat="40.330583" lon="-4.738883">
        <ele>1808.0</ele>
        <time>2015-03-15T14:16:53Z</time>
      </trkpt>
      <trkpt lat="40.330500" lon="-4.738750">
        <ele>1812.0</ele>
        <time>2015-03-15T14:16:55Z</time>
      </trkpt>
      <trkpt lat="40.330467" lon="-4.738600">
        <ele>1818.0</ele>
        <time>2015-03-15T14:16:57Z</time>
      </trkpt>
      <trkpt lat="40.330467" lon="-4.738417">
        <ele>1822.0</ele>
        <time>2015-03-15T14:16:59Z</time>
      </trkpt>
      <trkpt lat="40.330517" lon="-4.738183">
        <ele>1825.0</ele>
        <time>2015-03-15T14:17:01Z</time>
      </trkpt>
      <trkpt lat="40.330633" lon="-4.737983">
        <ele>1832.0</ele>
        <time>2015-03-15T14:17:03Z</time>
      </trkpt>
      <trkpt lat="40.330767" lon="-4.737817">
        <ele>1838.0</ele>
        <time>2015-03-15T14:17:05Z</time>
      </trkpt>
      <trkpt lat="40.330950" lon="-4.737733">
        <ele>1840.0</ele>
        <time>2015-03-15T14:17:07Z</time>
      </trkpt>
      <trkpt lat="40.331167" lon="-4.737717">
        <ele>1841.0</ele>
        <time>2015-03-15T14:17:09Z</time>
      </trkpt>
      <trkpt lat="40.331400" lon="-4.737800">
        <ele>1843.0</ele>
        <time>2015-03-15T14:17:11Z</time>
      </trkpt>
      <trkpt lat="40.331600" lon="-4.737983">
        <ele>1846.0</ele>
        <time>2015-03-15T14:17:13Z</time>
      </trkpt>
      <trkpt lat="40.331667" lon="-4.738217">
        <ele>1849.0</ele>
        <time>2015-03-15T14:17:15Z</time>
      </trkpt>
      <trkpt lat="40.331650" lon="-4.738417">
        <ele>1852.0</ele>
        <time>2015-03-15T14:17:17Z</time>
      </trkpt>
      <trkpt lat="40.331567" lon="-4.738583">
        <ele>1854.0</ele>
        <time>2015-03-15T14:17:19Z</time>
      </trkpt>
      <trkpt lat="40.331450" lon="-4.738667">
        <ele>1859.0</ele>
        <time>2015-03-15T14:17:21Z</time>
      </trkpt>
      <trkpt lat="40.331350" lon="-4.738667">
        <ele>1864.0</ele>
        <time>2015-03-15T14:17:23Z</time>
      </trkpt>
      <trkpt lat="40.331250" lon="-4.738617">
        <ele>1867.0</ele>
        <time>2015-03-15T14:17:25Z</time>
      </trkpt>
      <trkpt lat="40.331150" lon="-4.738467">
        <ele>1871.0</ele>
        <time>2015-03-15T14:17:27Z</time>
      </trkpt>
      <trkpt lat="40.331133" lon="-4.738283">
        <ele>1876.0</ele>
        <time>2015-03-15T14:17:29Z</time>
      </trkpt>
      <trkpt lat="40.331133" lon="-4.738100">
        <ele>1880.0</ele>
        <time>2015-03-15T14:17:31Z</time>
      </trkpt>
      <trkpt lat="40.331150" lon="-4.737867">
        <ele>1883.0</ele>
        <time>2015-03-15T14:17:33Z</time>
      </trkpt>
      <trkpt lat="40.331217" lon="-4.737617">
        <ele>1888.0</ele>
        <time>2015-03-15T14:17:35Z</time>
      </trkpt>
      <trkpt lat="40.331350" lon="-4.737433">
        <ele>1891.0</ele>
        <time>2015-03-15T14:17:37Z</time>
      </trkpt>
      <trkpt lat="40.331533" lon="-4.737300">
        <ele>1892.0</ele>
        <time>2015-03-15T14:17:39Z</time>
      </trkpt>
      <trkpt lat="40.331767" lon="-4.737283">
        <ele>1891.0</ele>
        <time>2015-03-15T14:17:41Z</time>
      </trkpt>
      <trkpt lat="40.332017" lon="-4.737350">
        <ele>1892.0</ele>
        <time>2015-03-15T14:17:43Z</time>
      </trkpt>
      <trkpt lat="40.332183" lon="-4.737483">
        <ele>1895.0</ele>
        <time>2015-03-15T14:17:45Z</time>
      </trkpt>
      <trkpt lat="40.332300" lon="-4.737667">
        <ele>1898.0</ele>
        <time>2015-03-15T14:17:47Z</time>
      </trkpt>
      <trkpt lat="40.332367" lon="-4.737867">
        <ele>1900.0</ele>
        <time>2015-03-15T14:17:49Z</time>
      </trkpt>
      <trkpt lat="40.332367" lon="-4.738083">
        <ele>1901.0</ele>
        <time>2015-03-15T14:17:51Z</time>
      </trkpt>
      <trkpt lat="40.332317" lon="-4.738250">
        <ele>1903.0</ele>
        <time>2015-03-15T14:17:53Z</time>
      </trkpt>
      <trkpt lat="40.332217" lon="-4.738383">
        <ele>1904.0</ele>
        <time>2015-03-15T14:17:55Z</time>
      </trkpt>
      <trkpt lat="40.332067" lon="-4.738417">
        <ele>1907.0</ele>
        <time>2015-03-15T14:17:57Z</time>
      </trkpt>
      <trkpt lat="40.331950" lon="-4.738400">
        <ele>1914.0</ele>
        <time>2015-03-15T14:17:59Z</time>
      </trkpt>
      <trkpt lat="40.331850" lon="-4.738383">
        <ele>1917.0</ele>
        <time>2015-03-15T14:18:01Z</time>
      </trkpt>
      <trkpt lat="40.331767" lon="-4.738250">
        <ele>1917.0</ele>
        <time>2015-03-15T14:18:03Z</time>
      </trkpt>
      <trkpt lat="40.331717" lon="-4.738067">
        <ele>1921.0</ele>
        <time>2015-03-15T14:18:05Z</time>
      </trkpt>
      <trkpt lat="40.331700" lon="-4.737883">
        <ele>1925.0</ele>
        <time>2015-03-15T14:18:07Z</time>
      </trkpt>
      <trkpt lat="40.331717" lon="-4.737667">
        <ele>1926.0</ele>
        <time>2015-03-15T14:18:09Z</time>
      </trkpt>
      <trkpt lat="40.331817" lon="-4.737450">
        <ele>1928.0</ele>
        <time>2015-03-15T14:18:11Z</time>
      </trkpt>
      <trkpt lat="40.331950" lon="-4.737250">
        <ele>1931.0</ele>
        <time>2015-03-15T14:18:13Z</time>
      </trkpt>
      <trkpt lat="40.332100" lon="-4.737083">
        <ele>1935.0</ele>
        <time>2015-03-15T14:18:15Z</time>
      </trkpt>
      <trkpt lat="40.332300" lon="-4.736983">
        <ele>1936.0</ele>
        <time>2015-03-15T14:18:17Z</time>
      </trkpt>
      <trkpt lat="40.332500" lon="-4.736933">
        <ele>1934.0</ele>
        <time>2015-03-15T14:18:19Z</time>
      </trkpt>
      <trkpt lat="40.332733" lon="-4.737033">
        <ele>1933.0</ele>
        <time>2015-03-15T14:18:21Z</time>
      </trkpt>
      <trkpt lat="40.332867" lon="-4.737217">
        <ele>1936.0</ele>
        <time>2015-03-15T14:18:23Z</time>
      </trkpt>
      <trkpt lat="40.332917" lon="-4.737367">
        <ele>1939.0</ele>
        <time>2015-03-15T14:18:25Z</time>
      </trkpt>
      <trkpt lat="40.332950" lon="-4.737583">
        <ele>1937.0</ele>
        <time>2015-03-15T14:18:27Z</time>
      </trkpt>
      <trkpt lat="40.332917" lon="-4.737767">
        <ele>1937.0</ele>
        <time>2015-03-15T14:18:29Z</time>
      </trkpt>
      <trkpt lat="40.332833" lon="-4.737917">
        <ele>1936.0</ele>
        <time>2015-03-15T14:18:31Z</time>
      </trkpt>
      <trkpt lat="40.332717" lon="-4.738033">
        <ele>1935.0</ele>
        <time>2015-03-15T14:18:33Z</time>
      </trkpt>
      <trkpt lat="40.332567" lon="-4.738050">
        <ele>1935.0</ele>
        <time>2015-03-15T14:18:35Z</time>
      </trkpt>
      <trkpt lat="40.332433" lon="-4.738000">
        <ele>1937.0</ele>
        <time>2015-03-15T14:18:37Z</time>
      </trkpt>
      <trkpt lat="40.332350" lon="-4.737933">
        <ele>1940.0</ele>
        <time>2015-03-15T14:18:39Z</time>
      </trkpt>
      <trkpt lat="40.332283" lon="-4.737783">
        <ele>1940.0</ele>
        <time>2015-03-15T14:18:41Z</time>
      </trkpt>
      <trkpt lat="40.332217" lon="-4.737600">
        <ele>1940.0</ele>
        <time>2015-03-15T14:18:43Z</time>
      </trkpt>
      <trkpt lat="40.332217" lon="-4.737417">
        <ele>1943.0</ele>
        <time>2015-03-15T14:18:45Z</time>
      </trkpt>
      <trkpt lat="40.332250" lon="-4.737233">
        <ele>1944.0</ele>
        <time>2015-03-15T14:18:47Z</time>
      </trkpt>
      <trkpt lat="40.332317" lon="-4.737017">
        <ele>1944.0</ele>
        <time>2015-03-15T14:18:49Z</time>
      </trkpt>
      <trkpt lat="40.332400" lon="-4.736817">
        <ele>1946.0</ele>
        <time>2015-03-15T14:18:51Z</time>
      </trkpt>
      <trkpt lat="40.332517" lon="-4.736633">
        <ele>1947.0</ele>
        <time>2015-03-15T14:18:53Z</time>
      </trkpt>
      <trkpt lat="40.332650" lon="-4.736467">
        <ele>1946.0</ele>
        <time>2015-03-15T14:18:55Z</time>
      </trkpt>
      <trkpt lat="40.332783" lon="-4.736250">
        <ele>1945.0</ele>
        <time>2015-03-15T14:18:57Z</time>
      </trkpt>
      <trkpt lat="40.332867" lon="-4.736017">
        <ele>1944.0</ele>
        <time>2015-03-15T14:18:59Z</time>
      </trkpt>
      <trkpt lat="40.332917" lon="-4.735783">
        <ele>1943.0</ele>
        <time>2015-03-15T14:19:01Z</time>
      </trkpt>
      <trkpt lat="40.332950" lon="-4.735533">
        <ele>1941.0</ele>
        <time>2015-03-15T14:19:03Z</time>
      </trkpt>
      <trkpt lat="40.332983" lon="-4.735283">
        <ele>1940.0</ele>
        <time>2015-03-15T14:19:05Z</time>
      </trkpt>
      <trkpt lat="40.333000" lon="-4.735067">
        <ele>1938.0</ele>
        <time>2015-03-15T14:19:07Z</time>
      </trkpt>
      <trkpt lat="40.333033" lon="-4.734833">
        <ele>1934.0</ele>
        <time>2015-03-15T14:19:09Z</time>
      </trkpt>
      <trkpt lat="40.333067" lon="-4.734600">
        <ele>1932.0</ele>
        <time>2015-03-15T14:19:11Z</time>
      </trkpt>
      <trkpt lat="40.333083" lon="-4.734350">
        <ele>1931.0</ele>
        <time>2015-03-15T14:19:13Z</time>
      </trkpt>
      <trkpt lat="40.333100" lon="-4.734133">
        <ele>1930.0</ele>
        <time>2015-03-15T14:19:15Z</time>
      </trkpt>
      <trkpt lat="40.333133" lon="-4.733933">
        <ele>1926.0</ele>
        <time>2015-03-15T14:19:17Z</time>
      </trkpt>
      <trkpt lat="40.333150" lon="-4.733667">
        <ele>1920.0</ele>
        <time>2015-03-15T14:19:19Z</time>
      </trkpt>
      <trkpt lat="40.333167" lon="-4.733400">
        <ele>1918.0</ele>
        <time>2015-03-15T14:19:21Z</time>
      </trkpt>
      <trkpt lat="40.333150" lon="-4.733150">
        <ele>1916.0</ele>
        <time>2015-03-15T14:19:23Z</time>
      </trkpt>
      <trkpt lat="40.333133" lon="-4.732900">
        <ele>1912.0</ele>
        <time>2015-03-15T14:19:25Z</time>
      </trkpt>
      <trkpt lat="40.333083" lon="-4.732650">
        <ele>1907.0</ele>
        <time>2015-03-15T14:19:27Z</time>
      </trkpt>
      <trkpt lat="40.333033" lon="-4.732400">
        <ele>1899.0</ele>
        <time>2015-03-15T14:19:29Z</time>
      </trkpt>
      <trkpt lat="40.332967" lon="-4.732150">
        <ele>1893.0</ele>
        <time>2015-03-15T14:19:31Z</time>
      </trkpt>
      <trkpt lat="40.332900" lon="-4.731950">
        <ele>1886.0</ele>
        <time>2015-03-15T14:19:33Z</time>
      </trkpt>
      <trkpt lat="40.332833" lon="-4.731717">
        <ele>1875.0</ele>
        <time>2015-03-15T14:19:35Z</time>
      </trkpt>
      <trkpt lat="40.332700" lon="-4.731500">
        <ele>1866.0</ele>
        <time>2015-03-15T14:19:37Z</time>
      </trkpt>
      <trkpt lat="40.332550" lon="-4.731317">
        <ele>1859.0</ele>
        <time>2015-03-15T14:19:39Z</time>
      </trkpt>
      <trkpt lat="40.332417" lon="-4.731133">
        <ele>1852.0</ele>
        <time>2015-03-15T14:19:41Z</time>
      </trkpt>
      <trkpt lat="40.332267" lon="-4.730933">
        <ele>1842.0</ele>
        <time>2015-03-15T14:19:43Z</time>
      </trkpt>
      <trkpt lat="40.332117" lon="-4.730717">
        <ele>1836.0</ele>
        <time>2015-03-15T14:19:45Z</time>
      </trkpt>
      <trkpt lat="40.332000" lon="-4.730517">
        <ele>1833.0</ele>
        <time>2015-03-15T14:19:47Z</time>
      </trkpt>
      <trkpt lat="40.331900" lon="-4.730300">
        <ele>1827.0</ele>
        <time>2015-03-15T14:19:49Z</time>
      </trkpt>
      <trkpt lat="40.331783" lon="-4.730050">
        <ele>1822.0</ele>
        <time>2015-03-15T14:19:51Z</time>
      </trkpt>
      <trkpt lat="40.331650" lon="-4.729867">
        <ele>1822.0</ele>
        <time>2015-03-15T14:19:53Z</time>
      </trkpt>
      <trkpt lat="40.331567" lon="-4.729700">
        <ele>1817.0</ele>
        <time>2015-03-15T14:19:55Z</time>
      </trkpt>
      <trkpt lat="40.331467" lon="-4.729483">
        <ele>1812.0</ele>
        <time>2015-03-15T14:19:57Z</time>
      </trkpt>
      <trkpt lat="40.331383" lon="-4.729283">
        <ele>1808.0</ele>
        <time>2015-03-15T14:19:59Z</time>
      </trkpt>
      <trkpt lat="40.331300" lon="-4.729067">
        <ele>1804.0</ele>
        <time>2015-03-15T14:20:01Z</time>
      </trkpt>
      <trkpt lat="40.331217" lon="-4.728867">
        <ele>1801.0</ele>
        <time>2015-03-15T14:20:03Z</time>
      </trkpt>
      <trkpt lat="40.331183" lon="-4.728667">
        <ele>1798.0</ele>
        <time>2015-03-15T14:20:05Z</time>
      </trkpt>
      <trkpt lat="40.331133" lon="-4.728450">
        <ele>1792.0</ele>
        <time>2015-03-15T14:20:07Z</time>
      </trkpt>
      <trkpt lat="40.331083" lon="-4.728217">
        <ele>1788.0</ele>
        <time>2015-03-15T14:20:09Z</time>
      </trkpt>
      <trkpt lat="40.331000" lon="-4.728033">
        <ele>1785.0</ele>
        <time>2015-03-15T14:20:11Z</time>
      </trkpt>
      <trkpt lat="40.330917" lon="-4.727850">
        <ele>1781.0</ele>
        <time>2015-03-15T14:20:13Z</time>
      </trkpt>
      <trkpt lat="40.330817" lon="-4.727650">
        <ele>1777.0</ele>
        <time>2015-03-15T14:20:15Z</time>
      </trkpt>
      <trkpt lat="40.330700" lon="-4.727467">
        <ele>1772.0</ele>
        <time>2015-03-15T14:20:17Z</time>
      </trkpt>
      <trkpt lat="40.330583" lon="-4.727267">
        <ele>1769.0</ele>
        <time>2015-03-15T14:20:19Z</time>
      </trkpt>
      <trkpt lat="40.330500" lon="-4.727067">
        <ele>1766.0</ele>
        <time>2015-03-15T14:20:21Z</time>
      </trkpt>
      <trkpt lat="40.330433" lon="-4.726883">
        <ele>1762.0</ele>
        <time>2015-03-15T14:20:23Z</time>
      </trkpt>
      <trkpt lat="40.330350" lon="-4.726650">
        <ele>1758.0</ele>
        <time>2015-03-15T14:20:25Z</time>
      </trkpt>
      <trkpt lat="40.330283" lon="-4.726433">
        <ele>1755.0</ele>
        <time>2015-03-15T14:20:27Z</time>
      </trkpt>
      <trkpt lat="40.330200" lon="-4.726217">
        <ele>1751.0</ele>
        <time>2015-03-15T14:20:29Z</time>
      </trkpt>
      <trkpt lat="40.330117" lon="-4.726000">
        <ele>1747.0</ele>
        <time>2015-03-15T14:20:31Z</time>
      </trkpt>
      <trkpt lat="40.330000" lon="-4.725800">
        <ele>1743.0</ele>
        <time>2015-03-15T14:20:33Z</time>
      </trkpt>
      <trkpt lat="40.329900" lon="-4.725583">
        <ele>1740.0</ele>
        <time>2015-03-15T14:20:35Z</time>
      </trkpt>
      <trkpt lat="40.329800" lon="-4.725383">
        <ele>1735.0</ele>
        <time>2015-03-15T14:20:37Z</time>
      </trkpt>
      <trkpt lat="40.329683" lon="-4.725200">
        <ele>1731.0</ele>
        <time>2015-03-15T14:20:39Z</time>
      </trkpt>
      <trkpt lat="40.329583" lon="-4.725033">
        <ele>1729.0</ele>
        <time>2015-03-15T14:20:41Z</time>
      </trkpt>
      <trkpt lat="40.329517" lon="-4.724883">
        <ele>1723.0</ele>
        <time>2015-03-15T14:20:43Z</time>
      </trkpt>
      <trkpt lat="40.329417" lon="-4.724700">
        <ele>1713.0</ele>
        <time>2015-03-15T14:20:45Z</time>
      </trkpt>
      <trkpt lat="40.329317" lon="-4.724483">
        <ele>1709.0</ele>
        <time>2015-03-15T14:20:47Z</time>
      </trkpt>
      <trkpt lat="40.329217" lon="-4.724333">
        <ele>1706.0</ele>
        <time>2015-03-15T14:20:49Z</time>
      </trkpt>
      <trkpt lat="40.329100" lon="-4.724167">
        <ele>1701.0</ele>
        <time>2015-03-15T14:20:51Z</time>
      </trkpt>
      <trkpt lat="40.328983" lon="-4.724033">
        <ele>1698.0</ele>
        <time>2015-03-15T14:20:53Z</time>
      </trkpt>
      <trkpt lat="40.328867" lon="-4.723933">
        <ele>1695.0</ele>
        <time>2015-03-15T14:20:55Z</time>
      </trkpt>
      <trkpt lat="40.328767" lon="-4.723767">
        <ele>1688.0</ele>
        <time>2015-03-15T14:20:57Z</time>
      </trkpt>
      <trkpt lat="40.328683" lon="-4.723583">
        <ele>1686.0</ele>
        <time>2015-03-15T14:20:59Z</time>
      </trkpt>
      <trkpt lat="40.328600" lon="-4.723400">
        <ele>1686.0</ele>
        <time>2015-03-15T14:21:01Z</time>
      </trkpt>
      <trkpt lat="40.328533" lon="-4.723233">
        <ele>1683.0</ele>
        <time>2015-03-15T14:21:03Z</time>
      </trkpt>
      <trkpt lat="40.328467" lon="-4.723050">
        <ele>1678.0</ele>
        <time>2015-03-15T14:21:05Z</time>
      </trkpt>
      <trkpt lat="40.328400" lon="-4.722867">
        <ele>1675.0</ele>
        <time>2015-03-15T14:21:07Z</time>
      </trkpt>
      <trkpt lat="40.328317" lon="-4.722700">
        <ele>1671.0</ele>
        <time>2015-03-15T14:21:09Z</time>
      </trkpt>
      <trkpt lat="40.328250" lon="-4.722517">
        <ele>1666.0</ele>
        <time>2015-03-15T14:21:11Z</time>
      </trkpt>
      <trkpt lat="40.328183" lon="-4.722333">
        <ele>1662.0</ele>
        <time>2015-03-15T14:21:13Z</time>
      </trkpt>
      <trkpt lat="40.328100" lon="-4.722150">
        <ele>1658.0</ele>
        <time>2015-03-15T14:21:15Z</time>
      </trkpt>
      <trkpt lat="40.328033" lon="-4.721967">
        <ele>1656.0</ele>
        <time>2015-03-15T14:21:17Z</time>
      </trkpt>
      <trkpt lat="40.327983" lon="-4.721783">
        <ele>1651.0</ele>
        <time>2015-03-15T14:21:19Z</time>
      </trkpt>
      <trkpt lat="40.327900" lon="-4.721633">
        <ele>1650.0</ele>
        <time>2015-03-15T14:21:21Z</time>
      </trkpt>
      <trkpt lat="40.327800" lon="-4.721550">
        <ele>1649.0</ele>
        <time>2015-03-15T14:21:23Z</time>
      </trkpt>
      <trkpt lat="40.327683" lon="-4.721467">
        <ele>1648.0</ele>
        <time>2015-03-15T14:21:25Z</time>
      </trkpt>
      <trkpt lat="40.327567" lon="-4.721350">
        <ele>1646.0</ele>
        <time>2015-03-15T14:21:27Z</time>
      </trkpt>
      <trkpt lat="40.327433" lon="-4.721217">
        <ele>1645.0</ele>
        <time>2015-03-15T14:21:29Z</time>
      </trkpt>
      <trkpt lat="40.327283" lon="-4.721133">
        <ele>1645.0</ele>
        <time>2015-03-15T14:21:31Z</time>
      </trkpt>
      <trkpt lat="40.327167" lon="-4.721083">
        <ele>1645.0</ele>
        <time>2015-03-15T14:21:33Z</time>
      </trkpt>
      <trkpt lat="40.327033" lon="-4.721017">
        <ele>1641.0</ele>
        <time>2015-03-15T14:21:35Z</time>
      </trkpt>
      <trkpt lat="40.326883" lon="-4.720950">
        <ele>1636.0</ele>
        <time>2015-03-15T14:21:37Z</time>
      </trkpt>
      <trkpt lat="40.326733" lon="-4.720883">
        <ele>1635.0</ele>
        <time>2015-03-15T14:21:39Z</time>
      </trkpt>
      <trkpt lat="40.326617" lon="-4.720850">
        <ele>1634.0</ele>
        <time>2015-03-15T14:21:41Z</time>
      </trkpt>
      <trkpt lat="40.326483" lon="-4.720833">
        <ele>1629.0</ele>
        <time>2015-03-15T14:21:43Z</time>
      </trkpt>
      <trkpt lat="40.326317" lon="-4.720783">
        <ele>1625.0</ele>
        <time>2015-03-15T14:21:45Z</time>
      </trkpt>
      <trkpt lat="40.326167" lon="-4.720767">
        <ele>1623.0</ele>
        <time>2015-03-15T14:21:47Z</time>
      </trkpt>
      <trkpt lat="40.326017" lon="-4.720733">
        <ele>1622.0</ele>
        <time>2015-03-15T14:21:49Z</time>
      </trkpt>
      <trkpt lat="40.325900" lon="-4.720650">
        <ele>1624.0</ele>
        <time>2015-03-15T14:21:51Z</time>
      </trkpt>
      <trkpt lat="40.325850" lon="-4.720550">
        <ele>1625.0</ele>
        <time>2015-03-15T14:21:53Z</time>
      </trkpt>
      <trkpt lat="40.325850" lon="-4.720400">
        <ele>1624.0</ele>
        <time>2015-03-15T14:21:55Z</time>
      </trkpt>
      <trkpt lat="40.325883" lon="-4.720267">
        <ele>1625.0</ele>
        <time>2015-03-15T14:21:57Z</time>
      </trkpt>
      <trkpt lat="40.325900" lon="-4.720150">
        <ele>1626.0</ele>
        <time>2015-03-15T14:21:59Z</time>
      </trkpt>
      <trkpt lat="40.325967" lon="-4.720000">
        <ele>1627.0</ele>
        <time>2015-03-15T14:22:01Z</time>
      </trkpt>
      <trkpt lat="40.326050" lon="-4.719817">
        <ele>1630.0</ele>
        <time>2015-03-15T14:22:03Z</time>
      </trkpt>
      <trkpt lat="40.326083" lon="-4.719650">
        <ele>1634.0</ele>
        <time>2015-03-15T14:22:05Z</time>
      </trkpt>
      <trkpt lat="40.326050" lon="-4.719517">
        <ele>1636.0</ele>
        <time>2015-03-15T14:22:07Z</time>
      </trkpt>
      <trkpt lat="40.325900" lon="-4.719417">
        <ele>1635.0</ele>
        <time>2015-03-15T14:22:09Z</time>
      </trkpt>
      <trkpt lat="40.325733" lon="-4.719450">
        <ele>1638.0</ele>
        <time>2015-03-15T14:22:11Z</time>
      </trkpt>
      <trkpt lat="40.325617" lon="-4.719567">
        <ele>1642.0</ele>
        <time>2015-03-15T14:22:13Z</time>
      </trkpt>
      <trkpt lat="40.325517" lon="-4.719750">
        <ele>1642.0</ele>
        <time>2015-03-15T14:22:15Z</time>
      </trkpt>
      <trkpt lat="40.325467" lon="-4.720017">
        <ele>1642.0</ele>
        <time>2015-03-15T14:22:17Z</time>
      </trkpt>
      <trkpt lat="40.325533" lon="-4.720283">
        <ele>1645.0</ele>
        <time>2015-03-15T14:22:19Z</time>
      </trkpt>
      <trkpt lat="40.325650" lon="-4.720500">
        <ele>1647.0</ele>
        <time>2015-03-15T14:22:21Z</time>
      </trkpt>
      <trkpt lat="40.325800" lon="-4.720667">
        <ele>1647.0</ele>
        <time>2015-03-15T14:22:23Z</time>
      </trkpt>
      <trkpt lat="40.326000" lon="-4.720700">
        <ele>1648.0</ele>
        <time>2015-03-15T14:22:25Z</time>
      </trkpt>
      <trkpt lat="40.326167" lon="-4.720650">
        <ele>1651.0</ele>
        <time>2015-03-15T14:22:27Z</time>
      </trkpt>
      <trkpt lat="40.326283" lon="-4.720550">
        <ele>1652.0</ele>
        <time>2015-03-15T14:22:29Z</time>
      </trkpt>
      <trkpt lat="40.326367" lon="-4.720383">
        <ele>1652.0</ele>
        <time>2015-03-15T14:22:31Z</time>
      </trkpt>
      <trkpt lat="40.326367" lon="-4.720200">
        <ele>1652.0</ele>
        <time>2015-03-15T14:22:33Z</time>
      </trkpt>
      <trkpt lat="40.326283" lon="-4.720067">
        <ele>1652.0</ele>
        <time>2015-03-15T14:22:35Z</time>
      </trkpt>
      <trkpt lat="40.326167" lon="-4.719983">
        <ele>1653.0</ele>
        <time>2015-03-15T14:22:37Z</time>
      </trkpt>
      <trkpt lat="40.326033" lon="-4.720000">
        <ele>1654.0</ele>
        <time>2015-03-15T14:22:39Z</time>
      </trkpt>
      <trkpt lat="40.325900" lon="-4.720100">
        <ele>1656.0</ele>
        <time>2015-03-15T14:22:41Z</time>
      </trkpt>
      <trkpt lat="40.325817" lon="-4.720283">
        <ele>1658.0</ele>
        <time>2015-03-15T14:22:43Z</time>
      </trkpt>
      <trkpt lat="40.325817" lon="-4.720517">
        <ele>1659.0</ele>
        <time>2015-03-15T14:22:45Z</time>
      </trkpt>
      <trkpt lat="40.325867" lon="-4.720783">
        <ele>1659.0</ele>
        <time>2015-03-15T14:22:47Z</time>
      </trkpt>
      <trkpt lat="40.326017" lon="-4.721000">
        <ele>1657.0</ele>
        <time>2015-03-15T14:22:49Z</time>
      </trkpt>
      <trkpt lat="40.326250" lon="-4.721117">
        <ele>1657.0</ele>
        <time>2015-03-15T14:22:51Z</time>
      </trkpt>
      <trkpt lat="40.326450" lon="-4.721167">
        <ele>1661.0</ele>
        <time>2015-03-15T14:22:53Z</time>
      </trkpt>
      <trkpt lat="40.326617" lon="-4.721150">
        <ele>1662.0</ele>
        <time>2015-03-15T14:22:55Z</time>
      </trkpt>
      <trkpt lat="40.326800" lon="-4.721033">
        <ele>1660.0</ele>
        <time>2015-03-15T14:22:57Z</time>
      </trkpt>
      <trkpt lat="40.326917" lon="-4.720867">
        <ele>1661.0</ele>
        <time>2015-03-15T14:22:59Z</time>
      </trkpt>
      <trkpt lat="40.326967" lon="-4.720700">
        <ele>1663.0</ele>
        <time>2015-03-15T14:23:01Z</time>
      </trkpt>
      <trkpt lat="40.326967" lon="-4.720517">
        <ele>1662.0</ele>
        <time>2015-03-15T14:23:03Z</time>
      </trkpt>
      <trkpt lat="40.326950" lon="-4.720350">
        <ele>1664.0</ele>
        <time>2015-03-15T14:23:05Z</time>
      </trkpt>
      <trkpt lat="40.326917" lon="-4.720200">
        <ele>1666.0</ele>
        <time>2015-03-15T14:23:07Z</time>
      </trkpt>
      <trkpt lat="40.326833" lon="-4.720067">
        <ele>1665.0</ele>
        <time>2015-03-15T14:23:09Z</time>
      </trkpt>
      <trkpt lat="40.326650" lon="-4.720000">
        <ele>1665.0</ele>
        <time>2015-03-15T14:23:11Z</time>
      </trkpt>
      <trkpt lat="40.326483" lon="-4.720050">
        <ele>1668.0</ele>
        <time>2015-03-15T14:23:13Z</time>
      </trkpt>
      <trkpt lat="40.326367" lon="-4.720150">
        <ele>1671.0</ele>
        <time>2015-03-15T14:23:15Z</time>
      </trkpt>
      <trkpt lat="40.326283" lon="-4.720350">
        <ele>1670.0</ele>
        <time>2015-03-15T14:23:17Z</time>
      </trkpt>
      <trkpt lat="40.326250" lon="-4.720617">
        <ele>1669.0</ele>
        <time>2015-03-15T14:23:19Z</time>
      </trkpt>
      <trkpt lat="40.326333" lon="-4.720867">
        <ele>1669.0</ele>
        <time>2015-03-15T14:23:21Z</time>
      </trkpt>
      <trkpt lat="40.326517" lon="-4.721050">
        <ele>1669.0</ele>
        <time>2015-03-15T14:23:23Z</time>
      </trkpt>
      <trkpt lat="40.326717" lon="-4.721117">
        <ele>1668.0</ele>
        <time>2015-03-15T14:23:25Z</time>
      </trkpt>
      <trkpt lat="40.326950" lon="-4.721133">
        <ele>1665.0</ele>
        <time>2015-03-15T14:23:27Z</time>
      </trkpt>
      <trkpt lat="40.327150" lon="-4.721067">
        <ele>1664.0</ele>
        <time>2015-03-15T14:23:29Z</time>
      </trkpt>
      <trkpt lat="40.327350" lon="-4.720967">
        <ele>1664.0</ele>
        <time>2015-03-15T14:23:31Z</time>
      </trkpt>
      <trkpt lat="40.327550" lon="-4.720867">
        <ele>1667.0</ele>
        <time>2015-03-15T14:23:33Z</time>
      </trkpt>
      <trkpt lat="40.327717" lon="-4.720750">
        <ele>1668.0</ele>
        <time>2015-03-15T14:23:35Z</time>
      </trkpt>
      <trkpt lat="40.327850" lon="-4.720567">
        <ele>1668.0</ele>
        <time>2015-03-15T14:23:37Z</time>
      </trkpt>
      <trkpt lat="40.327983" lon="-4.720383">
        <ele>1671.0</ele>
        <time>2015-03-15T14:23:39Z</time>
      </trkpt>
      <trkpt lat="40.328100" lon="-4.720217">
        <ele>1674.0</ele>
        <time>2015-03-15T14:23:41Z</time>
      </trkpt>
      <trkpt lat="40.328167" lon="-4.720033">
        <ele>1676.0</ele>
        <time>2015-03-15T14:23:43Z</time>
      </trkpt>
      <trkpt lat="40.328200" lon="-4.719833">
        <ele>1680.0</ele>
        <time>2015-03-15T14:23:45Z</time>
      </trkpt>
      <trkpt lat="40.328300" lon="-4.719683">
        <ele>1683.0</ele>
        <time>2015-03-15T14:23:47Z</time>
      </trkpt>
      <trkpt lat="40.328350" lon="-4.719500">
        <ele>1684.0</ele>
        <time>2015-03-15T14:23:49Z</time>
      </trkpt>
      <trkpt lat="40.328300" lon="-4.719283">
        <ele>1688.0</ele>
        <time>2015-03-15T14:23:51Z</time>
      </trkpt>
      <trkpt lat="40.328217" lon="-4.719133">
        <ele>1694.0</ele>
        <time>2015-03-15T14:23:53Z</time>
      </trkpt>
      <trkpt lat="40.328083" lon="-4.719067">
        <ele>1696.0</ele>
        <time>2015-03-15T14:23:55Z</time>
      </trkpt>
      <trkpt lat="40.327917" lon="-4.719083">
        <ele>1699.0</ele>
        <time>2015-03-15T14:23:57Z</time>
      </trkpt>
      <trkpt lat="40.327767" lon="-4.719250">
        <ele>1699.0</ele>
        <time>2015-03-15T14:23:59Z</time>
      </trkpt>
      <trkpt lat="40.327700" lon="-4.719500">
        <ele>1702.0</ele>
        <time>2015-03-15T14:24:01Z</time>
      </trkpt>
      <trkpt lat="40.327733" lon="-4.719750">
        <ele>1706.0</ele>
        <time>2015-03-15T14:24:03Z</time>
      </trkpt>
      <trkpt lat="40.327850" lon="-4.719933">
        <ele>1705.0</ele>
        <time>2015-03-15T14:24:05Z</time>
      </trkpt>
      <trkpt lat="40.328050" lon="-4.720017">
        <ele>1704.0</ele>
        <time>2015-03-15T14:24:07Z</time>
      </trkpt>
      <trkpt lat="40.328217" lon="-4.719933">
        <ele>1706.0</ele>
        <time>2015-03-15T14:24:09Z</time>
      </trkpt>
      <trkpt lat="40.328333" lon="-4.719767">
        <ele>1710.0</ele>
        <time>2015-03-15T14:24:11Z</time>
      </trkpt>
      <trkpt lat="40.328400" lon="-4.719617">
        <ele>1714.0</ele>
        <time>2015-03-15T14:24:13Z</time>
      </trkpt>
      <trkpt lat="40.328417" lon="-4.719383">
        <ele>1718.0</ele>
        <time>2015-03-15T14:24:15Z</time>
      </trkpt>
      <trkpt lat="40.328367" lon="-4.719183">
        <ele>1725.0</ele>
        <time>2015-03-15T14:24:17Z</time>
      </trkpt>
      <trkpt lat="40.328283" lon="-4.719050">
        <ele>1730.0</ele>
        <time>2015-03-15T14:24:19Z</time>
      </trkpt>
      <trkpt lat="40.328117" lon="-4.719000">
        <ele>1731.0</ele>
        <time>2015-03-15T14:24:21Z</time>
      </trkpt>
      <trkpt lat="40.327933" lon="-4.719033">
        <ele>1735.0</ele>
        <time>2015-03-15T14:24:23Z</time>
      </trkpt>
      <trkpt lat="40.327783" lon="-4.719133">
        <ele>1738.0</ele>
        <time>2015-03-15T14:24:25Z</time>
      </trkpt>
      <trkpt lat="40.327650" lon="-4.719350">
        <ele>1738.0</ele>
        <time>2015-03-15T14:24:27Z</time>
      </trkpt>
      <trkpt lat="40.327617" lon="-4.719650">
        <ele>1741.0</ele>
        <time>2015-03-15T14:24:29Z</time>
      </trkpt>
      <trkpt lat="40.327667" lon="-4.719883">
        <ele>1745.0</ele>
        <time>2015-03-15T14:24:31Z</time>
      </trkpt>
      <trkpt lat="40.327767" lon="-4.720050">
        <ele>1746.0</ele>
        <time>2015-03-15T14:24:33Z</time>
      </trkpt>
      <trkpt lat="40.327933" lon="-4.720167">
        <ele>1745.0</ele>
        <time>2015-03-15T14:24:35Z</time>
      </trkpt>
      <trkpt lat="40.328117" lon="-4.720167">
        <ele>1746.0</ele>
        <time>2015-03-15T14:24:37Z</time>
      </trkpt>
      <trkpt lat="40.328267" lon="-4.720050">
        <ele>1749.0</ele>
        <time>2015-03-15T14:24:39Z</time>
      </trkpt>
      <trkpt lat="40.328383" lon="-4.719867">
        <ele>1755.0</ele>
        <time>2015-03-15T14:24:41Z</time>
      </trkpt>
      <trkpt lat="40.328483" lon="-4.719733">
        <ele>1763.0</ele>
        <time>2015-03-15T14:24:43Z</time>
      </trkpt>
      <trkpt lat="40.328517" lon="-4.719600">
        <ele>1768.0</ele>
        <time>2015-03-15T14:24:45Z</time>
      </trkpt>
      <trkpt lat="40.328483" lon="-4.719433">
        <ele>1769.0</ele>
        <time>2015-03-15T14:24:47Z</time>
      </trkpt>
      <trkpt lat="40.328350" lon="-4.719350">
        <ele>1772.0</ele>
        <time>2015-03-15T14:24:49Z</time>
      </trkpt>
      <trkpt lat="40.328167" lon="-4.719367">
        <ele>1777.0</ele>
        <time>2015-03-15T14:24:51Z</time>
      </trkpt>
      <trkpt lat="40.328017" lon="-4.719467">
        <ele>1782.0</ele>
        <time>2015-03-15T14:24:53Z</time>
      </trkpt>
      <trkpt lat="40.327883" lon="-4.719633">
        <ele>1785.0</ele>
        <time>2015-03-15T14:24:55Z</time>
      </trkpt>
      <trkpt lat="40.327800" lon="-4.719867">
        <ele>1786.0</ele>
        <time>2015-03-15T14:24:57Z</time>
      </trkpt>
      <trkpt lat="40.327800" lon="-4.720183">
        <ele>1785.0</ele>
        <time>2015-03-15T14:24:59Z</time>
      </trkpt>
      <trkpt lat="40.327917" lon="-4.720433">
        <ele>1789.0</ele>
        <time>2015-03-15T14:25:01Z</time>
      </trkpt>
      <trkpt lat="40.328083" lon="-4.720567">
        <ele>1794.0</ele>
        <time>2015-03-15T14:25:03Z</time>
      </trkpt>
      <trkpt lat="40.328250" lon="-4.720617">
        <ele>1797.0</ele>
        <time>2015-03-15T14:25:05Z</time>
      </trkpt>
      <trkpt lat="40.328433" lon="-4.720567">
        <ele>1797.0</ele>
        <time>2015-03-15T14:25:07Z</time>
      </trkpt>
      <trkpt lat="40.328567" lon="-4.720433">
        <ele>1800.0</ele>
        <time>2015-03-15T14:25:09Z</time>
      </trkpt>
      <trkpt lat="40.328667" lon="-4.720300">
        <ele>1802.0</ele>
        <time>2015-03-15T14:25:11Z</time>
      </trkpt>
      <trkpt lat="40.328733" lon="-4.720133">
        <ele>1803.0</ele>
        <time>2015-03-15T14:25:13Z</time>
      </trkpt>
      <trkpt lat="40.328750" lon="-4.719933">
        <ele>1806.0</ele>
        <time>2015-03-15T14:25:15Z</time>
      </trkpt>
      <trkpt lat="40.328700" lon="-4.719767">
        <ele>1814.0</ele>
        <time>2015-03-15T14:25:17Z</time>
      </trkpt>
      <trkpt lat="40.328650" lon="-4.719650">
        <ele>1818.0</ele>
        <time>2015-03-15T14:25:19Z</time>
      </trkpt>
      <trkpt lat="40.328533" lon="-4.719550">
        <ele>1820.0</ele>
        <time>2015-03-15T14:25:21Z</time>
      </trkpt>
      <trkpt lat="40.328350" lon="-4.719517">
        <ele>1823.0</ele>
        <time>2015-03-15T14:25:23Z</time>
      </trkpt>
      <trkpt lat="40.328183" lon="-4.719617">
        <ele>1829.0</ele>
        <time>2015-03-15T14:25:25Z</time>
      </trkpt>
      <trkpt lat="40.328067" lon="-4.719783">
        <ele>1833.0</ele>
        <time>2015-03-15T14:25:27Z</time>
      </trkpt>
      <trkpt lat="40.328017" lon="-4.720017">
        <ele>1836.0</ele>
        <time>2015-03-15T14:25:29Z</time>
      </trkpt>
      <trkpt lat="40.328050" lon="-4.720267">
        <ele>1837.0</ele>
        <time>2015-03-15T14:25:31Z</time>
      </trkpt>
      <trkpt lat="40.328133" lon="-4.720533">
        <ele>1839.0</ele>
        <time>2015-03-15T14:25:33Z</time>
      </trkpt>
      <trkpt lat="40.328300" lon="-4.720733">
        <ele>1842.0</ele>
        <time>2015-03-15T14:25:35Z</time>
      </trkpt>
      <trkpt lat="40.328517" lon="-4.720817">
        <ele>1845.0</ele>
        <time>2015-03-15T14:25:37Z</time>
      </trkpt>
      <trkpt lat="40.328700" lon="-4.720750">
        <ele>1848.0</ele>
        <time>2015-03-15T14:25:39Z</time>
      </trkpt>
      <trkpt lat="40.328833" lon="-4.720600">
        <ele>1851.0</ele>
        <time>2015-03-15T14:25:41Z</time>
      </trkpt>
      <trkpt lat="40.328917" lon="-4.720417">
        <ele>1852.0</ele>
        <time>2015-03-15T14:25:43Z</time>
      </trkpt>
      <trkpt lat="40.328933" lon="-4.720217">
        <ele>1855.0</ele>
        <time>2015-03-15T14:25:45Z</time>
      </trkpt>
      <trkpt lat="40.328883" lon="-4.720067">
        <ele>1862.0</ele>
        <time>2015-03-15T14:25:47Z</time>
      </trkpt>
      <trkpt lat="40.328783" lon="-4.719967">
        <ele>1867.0</ele>
        <time>2015-03-15T14:25:49Z</time>
      </trkpt>
      <trkpt lat="40.328650" lon="-4.719917">
        <ele>1871.0</ele>
        <time>2015-03-15T14:25:51Z</time>
      </trkpt>
      <trkpt lat="40.328467" lon="-4.720000">
        <ele>1874.0</ele>
        <time>2015-03-15T14:25:53Z</time>
      </trkpt>
      <trkpt lat="40.328333" lon="-4.720183">
        <ele>1880.0</ele>
        <time>2015-03-15T14:25:55Z</time>
      </trkpt>
      <trkpt lat="40.328300" lon="-4.720400">
        <ele>1884.0</ele>
        <time>2015-03-15T14:25:57Z</time>
      </trkpt>
      <trkpt lat="40.328300" lon="-4.720650">
        <ele>1886.0</ele>
        <time>2015-03-15T14:25:59Z</time>
      </trkpt>
      <trkpt lat="40.328367" lon="-4.720933">
        <ele>1887.0</ele>
        <time>2015-03-15T14:26:01Z</time>
      </trkpt>
      <trkpt lat="40.328550" lon="-4.721100">
        <ele>1888.0</ele>
        <time>2015-03-15T14:26:03Z</time>
      </trkpt>
      <trkpt lat="40.328750" lon="-4.721150">
        <ele>1889.0</ele>
        <time>2015-03-15T14:26:05Z</time>
      </trkpt>
      <trkpt lat="40.328933" lon="-4.721100">
        <ele>1891.0</ele>
        <time>2015-03-15T14:26:07Z</time>
      </trkpt>
      <trkpt lat="40.329083" lon="-4.720967">
        <ele>1890.0</ele>
        <time>2015-03-15T14:26:09Z</time>
      </trkpt>
      <trkpt lat="40.329167" lon="-4.720750">
        <ele>1890.0</ele>
        <time>2015-03-15T14:26:11Z</time>
      </trkpt>
      <trkpt lat="40.329250" lon="-4.720550">
        <ele>1894.0</ele>
        <time>2015-03-15T14:26:13Z</time>
      </trkpt>
      <trkpt lat="40.329300" lon="-4.720383">
        <ele>1897.0</ele>
        <time>2015-03-15T14:26:15Z</time>
      </trkpt>
      <trkpt lat="40.329350" lon="-4.720183">
        <ele>1901.0</ele>
        <time>2015-03-15T14:26:17Z</time>
      </trkpt>
      <trkpt lat="40.329500" lon="-4.720033">
        <ele>1907.0</ele>
        <time>2015-03-15T14:26:19Z</time>
      </trkpt>
      <trkpt lat="40.329633" lon="-4.719900">
        <ele>1918.0</ele>
        <time>2015-03-15T14:26:21Z</time>
      </trkpt>
      <trkpt lat="40.329667" lon="-4.719733">
        <ele>1928.0</ele>
        <time>2015-03-15T14:26:23Z</time>
      </trkpt>
      <trkpt lat="40.329617" lon="-4.719567">
        <ele>1936.0</ele>
        <time>2015-03-15T14:26:25Z</time>
      </trkpt>
      <trkpt lat="40.329517" lon="-4.719433">
        <ele>1942.0</ele>
        <time>2015-03-15T14:26:27Z</time>
      </trkpt>
      <trkpt lat="40.329367" lon="-4.719333">
        <ele>1950.0</ele>
        <time>2015-03-15T14:26:29Z</time>
      </trkpt>
      <trkpt lat="40.329183" lon="-4.719367">
        <ele>1960.0</ele>
        <time>2015-03-15T14:26:31Z</time>
      </trkpt>
      <trkpt lat="40.329033" lon="-4.719483">
        <ele>1968.0</ele>
        <time>2015-03-15T14:26:33Z</time>
      </trkpt>
      <trkpt lat="40.328900" lon="-4.719667">
        <ele>1972.0</ele>
        <time>2015-03-15T14:26:35Z</time>
      </trkpt>
      <trkpt lat="40.328833" lon="-4.719933">
        <ele>1978.0</ele>
        <time>2015-03-15T14:26:37Z</time>
      </trkpt>
      <trkpt lat="40.328883" lon="-4.720167">
        <ele>1984.0</ele>
        <time>2015-03-15T14:26:39Z</time>
      </trkpt>
      <trkpt lat="40.329017" lon="-4.720367">
        <ele>1989.0</ele>
        <time>2015-03-15T14:26:41Z</time>
      </trkpt>
      <trkpt lat="40.329183" lon="-4.720467">
        <ele>1995.0</ele>
        <time>2015-03-15T14:26:43Z</time>
      </trkpt>
      <trkpt lat="40.329350" lon="-4.720483">
        <ele>2000.0</ele>
        <time>2015-03-15T14:26:45Z</time>
      </trkpt>
      <trkpt lat="40.329533" lon="-4.720500">
        <ele>2005.0</ele>
        <time>2015-03-15T14:26:47Z</time>
      </trkpt>
      <trkpt lat="40.329717" lon="-4.720433">
        <ele>2011.0</ele>
        <time>2015-03-15T14:26:49Z</time>
      </trkpt>
      <trkpt lat="40.329867" lon="-4.720367">
        <ele>2020.0</ele>
        <time>2015-03-15T14:26:51Z</time>
      </trkpt>
      <trkpt lat="40.329983" lon="-4.720233">
        <ele>2028.0</ele>
        <time>2015-03-15T14:26:53Z</time>
      </trkpt>
      <trkpt lat="40.330017" lon="-4.720050">
        <ele>2036.0</ele>
        <time>2015-03-15T14:26:55Z</time>
      </trkpt>
      <trkpt lat="40.330000" lon="-4.719850">
        <ele>2046.0</ele>
        <time>2015-03-15T14:26:57Z</time>
      </trkpt>
      <trkpt lat="40.329917" lon="-4.719750">
        <ele>2054.0</ele>
        <time>2015-03-15T14:26:59Z</time>
      </trkpt>
      <trkpt lat="40.329817" lon="-4.719683">
        <ele>2060.0</ele>
        <time>2015-03-15T14:27:01Z</time>
      </trkpt>
      <trkpt lat="40.329683" lon="-4.719567">
        <ele>2067.0</ele>
        <time>2015-03-15T14:27:03Z</time>
      </trkpt>
      <trkpt lat="40.329550" lon="-4.719533">
        <ele>2073.0</ele>
        <time>2015-03-15T14:27:05Z</time>
      </trkpt>
      <trkpt lat="40.329383" lon="-4.719650">
        <ele>2079.0</ele>
        <time>2015-03-15T14:27:07Z</time>
      </trkpt>
      <trkpt lat="40.329333" lon="-4.719917">
        <ele>2087.0</ele>
        <time>2015-03-15T14:27:09Z</time>
      </trkpt>
      <trkpt lat="40.329467" lon="-4.720117">
        <ele>2093.0</ele>
        <time>2015-03-15T14:27:11Z</time>
      </trkpt>
      <trkpt lat="40.329617" lon="-4.720233">
        <ele>2103.0</ele>
        <time>2015-03-15T14:27:13Z</time>
      </trkpt>
      <trkpt lat="40.329783" lon="-4.720283">
        <ele>2108.0</ele>
        <time>2015-03-15T14:27:15Z</time>
      </trkpt>
      <trkpt lat="40.330017" lon="-4.720250">
        <ele>2113.0</ele>
        <time>2015-03-15T14:27:17Z</time>
      </trkpt>
      <trkpt lat="40.330167" lon="-4.720167">
        <ele>2126.0</ele>
        <time>2015-03-15T14:27:19Z</time>
      </trkpt>
      <trkpt lat="40.330300" lon="-4.720067">
        <ele>2136.0</ele>
        <time>2015-03-15T14:27:21Z</time>
      </trkpt>
      <trkpt lat="40.330450" lon="-4.719900">
        <ele>2144.0</ele>
        <time>2015-03-15T14:27:23Z</time>
      </trkpt>
      <trkpt lat="40.330483" lon="-4.719683">
        <ele>2154.0</ele>
        <time>2015-03-15T14:27:25Z</time>
      </trkpt>
      <trkpt lat="40.330417" lon="-4.719517">
        <ele>2165.0</ele>
        <time>2015-03-15T14:27:27Z</time>
      </trkpt>
      <trkpt lat="40.330317" lon="-4.719467">
        <ele>2173.0</ele>
        <time>2015-03-15T14:27:29Z</time>
      </trkpt>
      <trkpt lat="40.330167" lon="-4.719500">
        <ele>2178.0</ele>
        <time>2015-03-15T14:27:31Z</time>
      </trkpt>
      <trkpt lat="40.330000" lon="-4.719683">
        <ele>2185.0</ele>
        <time>2015-03-15T14:27:33Z</time>
      </trkpt>
      <trkpt lat="40.329967" lon="-4.719883">
        <ele>2196.0</ele>
        <time>2015-03-15T14:27:35Z</time>
      </trkpt>
      <trkpt lat="40.330017" lon="-4.720067">
        <ele>2203.0</ele>
        <time>2015-03-15T14:27:37Z</time>
      </trkpt>
      <trkpt lat="40.330150" lon="-4.720300">
        <ele>2206.0</ele>
        <time>2015-03-15T14:27:39Z</time>
      </trkpt>
      <trkpt lat="40.330367" lon="-4.720433">
        <ele>2213.0</ele>
        <time>2015-03-15T14:27:41Z</time>
      </trkpt>
      <trkpt lat="40.330583" lon="-4.720450">
        <ele>2224.0</ele>
        <time>2015-03-15T14:27:43Z</time>
      </trkpt>
      <trkpt lat="40.330750" lon="-4.720400">
        <ele>2234.0</ele>
        <time>2015-03-15T14:27:45Z</time>
      </trkpt>
      <trkpt lat="40.330900" lon="-4.720233">
        <ele>2239.0</ele>
        <time>2015-03-15T14:27:47Z</time>
      </trkpt>
      <trkpt lat="40.331000" lon="-4.720000">
        <ele>2245.0</ele>
        <time>2015-03-15T14:27:49Z</time>
      </trkpt>
      <trkpt lat="40.330983" lon="-4.719717">
        <ele>2254.0</ele>
        <time>2015-03-15T14:27:51Z</time>
      </trkpt>
      <trkpt lat="40.330933" lon="-4.719550">
        <ele>2268.0</ele>
        <time>2015-03-15T14:27:53Z</time>
      </trkpt>
      <trkpt lat="40.330850" lon="-4.719467">
        <ele>2278.0</ele>
        <time>2015-03-15T14:27:55Z</time>
      </trkpt>
      <trkpt lat="40.330733" lon="-4.719400">
        <ele>2282.0</ele>
        <time>2015-03-15T14:27:57Z</time>
      </trkpt>
      <trkpt lat="40.330550" lon="-4.719450">
        <ele>2287.0</ele>
        <time>2015-03-15T14:27:59Z</time>
      </trkpt>
      <trkpt lat="40.330433" lon="-4.719650">
        <ele>2296.0</ele>
        <time>2015-03-15T14:28:01Z</time>
      </trkpt>
      <trkpt lat="40.330417" lon="-4.719883">
        <ele>2306.0</ele>
        <time>2015-03-15T14:28:03Z</time>
      </trkpt>
      <trkpt lat="40.330467" lon="-4.720117">
        <ele>2313.0</ele>
        <time>2015-03-15T14:28:05Z</time>
      </trkpt>
      <trkpt lat="40.330617" lon="-4.720317">
        <ele>2319.0</ele>
        <time>2015-03-15T14:28:07Z</time>
      </trkpt>
      <trkpt lat="40.330867" lon="-4.720383">
        <ele>2323.0</ele>
        <time>2015-03-15T14:28:09Z</time>
      </trkpt>
      <trkpt lat="40.331083" lon="-4.720300">
        <ele>2332.0</ele>
        <time>2015-03-15T14:28:11Z</time>
      </trkpt>
      <trkpt lat="40.331217" lon="-4.720100">
        <ele>2338.0</ele>
        <time>2015-03-15T14:28:13Z</time>
      </trkpt>
      <trkpt lat="40.331300" lon="-4.719833">
        <ele>2342.0</ele>
        <time>2015-03-15T14:28:15Z</time>
      </trkpt>
      <trkpt lat="40.331267" lon="-4.719567">
        <ele>2349.0</ele>
        <time>2015-03-15T14:28:17Z</time>
      </trkpt>
      <trkpt lat="40.331150" lon="-4.719433">
        <ele>2360.0</ele>
        <time>2015-03-15T14:28:19Z</time>
      </trkpt>
      <trkpt lat="40.331050" lon="-4.719383">
        <ele>2368.0</ele>
        <time>2015-03-15T14:28:21Z</time>
      </trkpt>
      <trkpt lat="40.330917" lon="-4.719383">
        <ele>2372.0</ele>
        <time>2015-03-15T14:28:23Z</time>
      </trkpt>
      <trkpt lat="40.330767" lon="-4.719500">
        <ele>2377.0</ele>
        <time>2015-03-15T14:28:25Z</time>
      </trkpt>
      <trkpt lat="40.330683" lon="-4.719683">
        <ele>2385.0</ele>
        <time>2015-03-15T14:28:27Z</time>
      </trkpt>
      <trkpt lat="40.330650" lon="-4.719850">
        <ele>2394.0</ele>
        <time>2015-03-15T14:28:29Z</time>
      </trkpt>
      <trkpt lat="40.330683" lon="-4.720083">
        <ele>2399.0</ele>
        <time>2015-03-15T14:28:31Z</time>
      </trkpt>
      <trkpt lat="40.330817" lon="-4.720300">
        <ele>2403.0</ele>
        <time>2015-03-15T14:28:33Z</time>
      </trkpt>
      <trkpt lat="40.331050" lon="-4.720383">
        <ele>2409.0</ele>
        <time>2015-03-15T14:28:35Z</time>
      </trkpt>
      <trkpt lat="40.331267" lon="-4.720317">
        <ele>2418.0</ele>
        <time>2015-03-15T14:28:37Z</time>
      </trkpt>
      <trkpt lat="40.331433" lon="-4.720167">
        <ele>2422.0</ele>
        <time>2015-03-15T14:28:39Z</time>
      </trkpt>
      <trkpt lat="40.331567" lon="-4.719950">
        <ele>2424.0</ele>
        <time>2015-03-15T14:28:41Z</time>
      </trkpt>
      <trkpt lat="40.331650" lon="-4.719650">
        <ele>2428.0</ele>
        <time>2015-03-15T14:28:43Z</time>
      </trkpt>
      <trkpt lat="40.331633" lon="-4.719383">
        <ele>2436.0</ele>
        <time>2015-03-15T14:28:45Z</time>
      </trkpt>
      <trkpt lat="40.331550" lon="-4.719217">
        <ele>2442.0</ele>
        <time>2015-03-15T14:28:47Z</time>
      </trkpt>
      <trkpt lat="40.331417" lon="-4.719150">
        <ele>2446.0</ele>
        <time>2015-03-15T14:28:49Z</time>
      </trkpt>
      <trkpt lat="40.331283" lon="-4.719183">
        <ele>2453.0</ele>
        <time>2015-03-15T14:28:51Z</time>
      </trkpt>
      <trkpt lat="40.331183" lon="-4.719300">
        <ele>2462.0</ele>
        <time>2015-03-15T14:28:53Z</time>
      </trkpt>
      <trkpt lat="40.331133" lon="-4.719467">
        <ele>2469.0</ele>
        <time>2015-03-15T14:28:55Z</time>
      </trkpt>
      <trkpt lat="40.331200" lon="-4.719633">
        <ele>2474.0</ele>
        <time>2015-03-15T14:28:57Z</time>
      </trkpt>
      <trkpt lat="40.331400" lon="-4.719733">
        <ele>2479.0</ele>
        <time>2015-03-15T14:28:59Z</time>
      </trkpt>
      <trkpt lat="40.331600" lon="-4.719550">
        <ele>2482.0</ele>
        <time>2015-03-15T14:29:01Z</time>
      </trkpt>
      <trkpt lat="40.331633" lon="-4.719200">
        <ele>2487.0</ele>
        <time>2015-03-15T14:29:03Z</time>
      </trkpt>
      <trkpt lat="40.331617" lon="-4.718967">
        <ele>2496.0</ele>
        <time>2015-03-15T14:29:05Z</time>
      </trkpt>
      <trkpt lat="40.331600" lon="-4.718733">
        <ele>2501.0</ele>
        <time>2015-03-15T14:29:07Z</time>
      </trkpt>
      <trkpt lat="40.331533" lon="-4.718483">
        <ele>2506.0</ele>
        <time>2015-03-15T14:29:09Z</time>
      </trkpt>
      <trkpt lat="40.331433" lon="-4.718300">
        <ele>2516.0</ele>
        <time>2015-03-15T14:29:11Z</time>
      </trkpt>
      <trkpt lat="40.331367" lon="-4.718133">
        <ele>2521.0</ele>
        <time>2015-03-15T14:29:13Z</time>
      </trkpt>
      <trkpt lat="40.331250" lon="-4.717917">
        <ele>2524.0</ele>
        <time>2015-03-15T14:29:15Z</time>
      </trkpt>
      <trkpt lat="40.331133" lon="-4.717750">
        <ele>2530.0</ele>
        <time>2015-03-15T14:29:17Z</time>
      </trkpt>
      <trkpt lat="40.331050" lon="-4.717567">
        <ele>2535.0</ele>
        <time>2015-03-15T14:29:19Z</time>
      </trkpt>
      <trkpt lat="40.330967" lon="-4.717350">
        <ele>2538.0</ele>
        <time>2015-03-15T14:29:21Z</time>
      </trkpt>
      <trkpt lat="40.330883" lon="-4.717133">
        <ele>2541.0</ele>
        <time>2015-03-15T14:29:23Z</time>
      </trkpt>
      <trkpt lat="40.330783" lon="-4.716900">
        <ele>2543.0</ele>
        <time>2015-03-15T14:29:25Z</time>
      </trkpt>
      <trkpt lat="40.330683" lon="-4.716667">
        <ele>2544.0</ele>
        <time>2015-03-15T14:29:27Z</time>
      </trkpt>
      <trkpt lat="40.330617" lon="-4.716400">
        <ele>2545.0</ele>
        <time>2015-03-15T14:29:29Z</time>
      </trkpt>
      <trkpt lat="40.330567" lon="-4.716117">
        <ele>2546.0</ele>
        <time>2015-03-15T14:29:31Z</time>
      </trkpt>
      <trkpt lat="40.330500" lon="-4.715833">
        <ele>2547.0</ele>
        <time>2015-03-15T14:29:33Z</time>
      </trkpt>
      <trkpt lat="40.330433" lon="-4.715567">
        <ele>2549.0</ele>
        <time>2015-03-15T14:29:35Z</time>
      </trkpt>
      <trkpt lat="40.330367" lon="-4.715333">
        <ele>2548.0</ele>
        <time>2015-03-15T14:29:37Z</time>
      </trkpt>
      <trkpt lat="40.330283" lon="-4.715067">
        <ele>2547.0</ele>
        <time>2015-03-15T14:29:39Z</time>
      </trkpt>
      <trkpt lat="40.330200" lon="-4.714800">
        <ele>2546.0</ele>
        <time>2015-03-15T14:29:41Z</time>
      </trkpt>
      <trkpt lat="40.330117" lon="-4.714550">
        <ele>2545.0</ele>
        <time>2015-03-15T14:29:43Z</time>
      </trkpt>
      <trkpt lat="40.330050" lon="-4.714250">
        <ele>2543.0</ele>
        <time>2015-03-15T14:29:45Z</time>
      </trkpt>
      <trkpt lat="40.329983" lon="-4.713967">
        <ele>2541.0</ele>
        <time>2015-03-15T14:29:47Z</time>
      </trkpt>
      <trkpt lat="40.329917" lon="-4.713683">
        <ele>2538.0</ele>
        <time>2015-03-15T14:29:49Z</time>
      </trkpt>
      <trkpt lat="40.329833" lon="-4.713400">
        <ele>2535.0</ele>
        <time>2015-03-15T14:29:51Z</time>
      </trkpt>
      <trkpt lat="40.329733" lon="-4.713133">
        <ele>2531.0</ele>
        <time>2015-03-15T14:29:53Z</time>
      </trkpt>
      <trkpt lat="40.329617" lon="-4.712883">
        <ele>2526.0</ele>
        <time>2015-03-15T14:29:55Z</time>
      </trkpt>
      <trkpt lat="40.329500" lon="-4.712633">
        <ele>2524.0</ele>
        <time>2015-03-15T14:29:57Z</time>
      </trkpt>
      <trkpt lat="40.329367" lon="-4.712433">
        <ele>2523.0</ele>
        <time>2015-03-15T14:29:59Z</time>
      </trkpt>
      <trkpt lat="40.329250" lon="-4.712233">
        <ele>2520.0</ele>
        <time>2015-03-15T14:30:01Z</time>
      </trkpt>
      <trkpt lat="40.329133" lon="-4.712050">
        <ele>2518.0</ele>
        <time>2015-03-15T14:30:03Z</time>
      </trkpt>
      <trkpt lat="40.329033" lon="-4.711883">
        <ele>2517.0</ele>
        <time>2015-03-15T14:30:05Z</time>
      </trkpt>
      <trkpt lat="40.328967" lon="-4.711700">
        <ele>2516.0</ele>
        <time>2015-03-15T14:30:07Z</time>
      </trkpt>
      <trkpt lat="40.328900" lon="-4.711500">
        <ele>2515.0</ele>
        <time>2015-03-15T14:30:09Z</time>
      </trkpt>
      <trkpt lat="40.328833" lon="-4.711317">
        <ele>2515.0</ele>
        <time>2015-03-15T14:30:11Z</time>
      </trkpt>
      <trkpt lat="40.328750" lon="-4.711167">
        <ele>2514.0</ele>
        <time>2015-03-15T14:30:13Z</time>
      </trkpt>
      <trkpt lat="40.328650" lon="-4.711017">
        <ele>2510.0</ele>
        <time>2015-03-15T14:30:15Z</time>
      </trkpt>
      <trkpt lat="40.328550" lon="-4.710817">
        <ele>2508.0</ele>
        <time>2015-03-15T14:30:17Z</time>
      </trkpt>
      <trkpt lat="40.328467" lon="-4.710650">
        <ele>2507.0</ele>
        <time>2015-03-15T14:30:19Z</time>
      </trkpt>
      <trkpt lat="40.328383" lon="-4.710483">
        <ele>2506.0</ele>
        <time>2015-03-15T14:30:21Z</time>
      </trkpt>
      <trkpt lat="40.328283" lon="-4.710283">
        <ele>2502.0</ele>
        <time>2015-03-15T14:30:23Z</time>
      </trkpt>
      <trkpt lat="40.328183" lon="-4.710083">
        <ele>2501.0</ele>
        <time>2015-03-15T14:30:25Z</time>
      </trkpt>
      <trkpt lat="40.328083" lon="-4.709917">
        <ele>2501.0</ele>
        <time>2015-03-15T14:30:27Z</time>
      </trkpt>
      <trkpt lat="40.328000" lon="-4.709717">
        <ele>2500.0</ele>
        <time>2015-03-15T14:30:29Z</time>
      </trkpt>
      <trkpt lat="40.327900" lon="-4.709500">
        <ele>2501.0</ele>
        <time>2015-03-15T14:30:31Z</time>
      </trkpt>
      <trkpt lat="40.327817" lon="-4.709317">
        <ele>2503.0</ele>
        <time>2015-03-15T14:30:33Z</time>
      </trkpt>
      <trkpt lat="40.327717" lon="-4.709167">
        <ele>2501.0</ele>
        <time>2015-03-15T14:30:35Z</time>
      </trkpt>
      <trkpt lat="40.327617" lon="-4.709000">
        <ele>2501.0</ele>
        <time>2015-03-15T14:30:37Z</time>
      </trkpt>
      <trkpt lat="40.327517" lon="-4.708833">
        <ele>2501.0</ele>
        <time>2015-03-15T14:30:39Z</time>
      </trkpt>
      <trkpt lat="40.327433" lon="-4.708683">
        <ele>2499.0</ele>
        <time>2015-03-15T14:30:41Z</time>
      </trkpt>
      <trkpt lat="40.327333" lon="-4.708517">
        <ele>2498.0</ele>
        <time>2015-03-15T14:30:43Z</time>
      </trkpt>
      <trkpt lat="40.327250" lon="-4.708350">
        <ele>2497.0</ele>
        <time>2015-03-15T14:30:45Z</time>
      </trkpt>
      <trkpt lat="40.327150" lon="-4.708183">
        <ele>2496.0</ele>
        <time>2015-03-15T14:30:47Z</time>
      </trkpt>
      <trkpt lat="40.327050" lon="-4.708000">
        <ele>2493.0</ele>
        <time>2015-03-15T14:30:49Z</time>
      </trkpt>
      <trkpt lat="40.326967" lon="-4.707817">
        <ele>2492.0</ele>
        <time>2015-03-15T14:30:51Z</time>
      </trkpt>
      <trkpt lat="40.326900" lon="-4.707650">
        <ele>2492.0</ele>
        <time>2015-03-15T14:30:53Z</time>
      </trkpt>
      <trkpt lat="40.326833" lon="-4.707483">
        <ele>2488.0</ele>
        <time>2015-03-15T14:30:55Z</time>
      </trkpt>
      <trkpt lat="40.326733" lon="-4.707267">
        <ele>2487.0</ele>
        <time>2015-03-15T14:30:57Z</time>
      </trkpt>
      <trkpt lat="40.326667" lon="-4.707100">
        <ele>2487.0</ele>
        <time>2015-03-15T14:30:59Z</time>
      </trkpt>
      <trkpt lat="40.326583" lon="-4.706950">
        <ele>2483.0</ele>
        <time>2015-03-15T14:31:01Z</time>
      </trkpt>
      <trkpt lat="40.326467" lon="-4.706750">
        <ele>2479.0</ele>
        <time>2015-03-15T14:31:03Z</time>
      </trkpt>
      <trkpt lat="40.326350" lon="-4.706583">
        <ele>2477.0</ele>
        <time>2015-03-15T14:31:05Z</time>
      </trkpt>
      <trkpt lat="40.326250" lon="-4.706417">
        <ele>2475.0</ele>
        <time>2015-03-15T14:31:07Z</time>
      </trkpt>
      <trkpt lat="40.326150" lon="-4.706233">
        <ele>2471.0</ele>
        <time>2015-03-15T14:31:09Z</time>
      </trkpt>
      <trkpt lat="40.326033" lon="-4.706050">
        <ele>2470.0</ele>
        <time>2015-03-15T14:31:11Z</time>
      </trkpt>
      <trkpt lat="40.325933" lon="-4.705900">
        <ele>2471.0</ele>
        <time>2015-03-15T14:31:13Z</time>
      </trkpt>
      <trkpt lat="40.325833" lon="-4.705750">
        <ele>2473.0</ele>
        <time>2015-03-15T14:31:15Z</time>
      </trkpt>
      <trkpt lat="40.325733" lon="-4.705600">
        <ele>2471.0</ele>
        <time>2015-03-15T14:31:17Z</time>
      </trkpt>
      <trkpt lat="40.325600" lon="-4.705433">
        <ele>2469.0</ele>
        <time>2015-03-15T14:31:19Z</time>
      </trkpt>
      <trkpt lat="40.325467" lon="-4.705283">
        <ele>2469.0</ele>
        <time>2015-03-15T14:31:21Z</time>
      </trkpt>
      <trkpt lat="40.325367" lon="-4.705100">
        <ele>2468.0</ele>
        <time>2015-03-15T14:31:23Z</time>
      </trkpt>
      <trkpt lat="40.325267" lon="-4.704900">
        <ele>2466.0</ele>
        <time>2015-03-15T14:31:25Z</time>
      </trkpt>
      <trkpt lat="40.325167" lon="-4.704700">
        <ele>2466.0</ele>
        <time>2015-03-15T14:31:27Z</time>
      </trkpt>
      <trkpt lat="40.325083" lon="-4.704500">
        <ele>2466.0</ele>
        <time>2015-03-15T14:31:29Z</time>
      </trkpt>
      <trkpt lat="40.324983" lon="-4.704317">
        <ele>2465.0</ele>
        <time>2015-03-15T14:31:31Z</time>
      </trkpt>
      <trkpt lat="40.324883" lon="-4.704133">
        <ele>2462.0</ele>
        <time>2015-03-15T14:31:33Z</time>
      </trkpt>
      <trkpt lat="40.324783" lon="-4.703933">
        <ele>2461.0</ele>
        <time>2015-03-15T14:31:35Z</time>
      </trkpt>
      <trkpt lat="40.324683" lon="-4.703733">
        <ele>2460.0</ele>
        <time>2015-03-15T14:31:37Z</time>
      </trkpt>
      <trkpt lat="40.324567" lon="-4.703550">
        <ele>2458.0</ele>
        <time>2015-03-15T14:31:39Z</time>
      </trkpt>
      <trkpt lat="40.324433" lon="-4.703400">
        <ele>2458.0</ele>
        <time>2015-03-15T14:31:41Z</time>
      </trkpt>
      <trkpt lat="40.324317" lon="-4.703283">
        <ele>2456.0</ele>
        <time>2015-03-15T14:31:43Z</time>
      </trkpt>
      <trkpt lat="40.324183" lon="-4.703133">
        <ele>2453.0</ele>
        <time>2015-03-15T14:31:45Z</time>
      </trkpt>
      <trkpt lat="40.324033" lon="-4.702967">
        <ele>2451.0</ele>
        <time>2015-03-15T14:31:47Z</time>
      </trkpt>
      <trkpt lat="40.323900" lon="-4.702833">
        <ele>2450.0</ele>
        <time>2015-03-15T14:31:49Z</time>
      </trkpt>
      <trkpt lat="40.323783" lon="-4.702700">
        <ele>2447.0</ele>
        <time>2015-03-15T14:31:51Z</time>
      </trkpt>
      <trkpt lat="40.323650" lon="-4.702533">
        <ele>2442.0</ele>
        <time>2015-03-15T14:31:53Z</time>
      </trkpt>
      <trkpt lat="40.323500" lon="-4.702367">
        <ele>2440.0</ele>
        <time>2015-03-15T14:31:55Z</time>
      </trkpt>
      <trkpt lat="40.323383" lon="-4.702217">
        <ele>2439.0</ele>
        <time>2015-03-15T14:31:57Z</time>
      </trkpt>
      <trkpt lat="40.323267" lon="-4.702017">
        <ele>2435.0</ele>
        <time>2015-03-15T14:31:59Z</time>
      </trkpt>
      <trkpt lat="40.323150" lon="-4.701800">
        <ele>2432.0</ele>
        <time>2015-03-15T14:32:01Z</time>
      </trkpt>
      <trkpt lat="40.323033" lon="-4.701583">
        <ele>2431.0</ele>
        <time>2015-03-15T14:32:03Z</time>
      </trkpt>
      <trkpt lat="40.322900" lon="-4.701383">
        <ele>2429.0</ele>
        <time>2015-03-15T14:32:05Z</time>
      </trkpt>
      <trkpt lat="40.322767" lon="-4.701183">
        <ele>2426.0</ele>
        <time>2015-03-15T14:32:07Z</time>
      </trkpt>
      <trkpt lat="40.322650" lon="-4.700983">
        <ele>2424.0</ele>
        <time>2015-03-15T14:32:09Z</time>
      </trkpt>
      <trkpt lat="40.322533" lon="-4.700783">
        <ele>2422.0</ele>
        <time>2015-03-15T14:32:11Z</time>
      </trkpt>
      <trkpt lat="40.322433" lon="-4.700583">
        <ele>2421.0</ele>
        <time>2015-03-15T14:32:13Z</time>
      </trkpt>
      <trkpt lat="40.322333" lon="-4.700400">
        <ele>2418.0</ele>
        <time>2015-03-15T14:32:15Z</time>
      </trkpt>
      <trkpt lat="40.322217" lon="-4.700167">
        <ele>2415.0</ele>
        <time>2015-03-15T14:32:17Z</time>
      </trkpt>
      <trkpt lat="40.322100" lon="-4.699933">
        <ele>2414.0</ele>
        <time>2015-03-15T14:32:19Z</time>
      </trkpt>
      <trkpt lat="40.322000" lon="-4.699717">
        <ele>2412.0</ele>
        <time>2015-03-15T14:32:21Z</time>
      </trkpt>
      <trkpt lat="40.321900" lon="-4.699500">
        <ele>2410.0</ele>
        <time>2015-03-15T14:32:23Z</time>
      </trkpt>
      <trkpt lat="40.321783" lon="-4.699317">
        <ele>2408.0</ele>
        <time>2015-03-15T14:32:25Z</time>
      </trkpt>
      <trkpt lat="40.321683" lon="-4.699183">
        <ele>2406.0</ele>
        <time>2015-03-15T14:32:27Z</time>
      </trkpt>
      <trkpt lat="40.321550" lon="-4.699000">
        <ele>2402.0</ele>
        <time>2015-03-15T14:32:29Z</time>
      </trkpt>
      <trkpt lat="40.321450" lon="-4.698783">
        <ele>2399.0</ele>
        <time>2015-03-15T14:32:31Z</time>
      </trkpt>
      <trkpt lat="40.321350" lon="-4.698600">
        <ele>2395.0</ele>
        <time>2015-03-15T14:32:33Z</time>
      </trkpt>
      <trkpt lat="40.321250" lon="-4.698417">
        <ele>2392.0</ele>
        <time>2015-03-15T14:32:35Z</time>
      </trkpt>
      <trkpt lat="40.321183" lon="-4.698233">
        <ele>2389.0</ele>
        <time>2015-03-15T14:32:37Z</time>
      </trkpt>
      <trkpt lat="40.321083" lon="-4.698100">
        <ele>2385.0</ele>
        <time>2015-03-15T14:32:39Z</time>
      </trkpt>
      <trkpt lat="40.320933" lon="-4.697983">
        <ele>2379.0</ele>
        <time>2015-03-15T14:32:41Z</time>
      </trkpt>
      <trkpt lat="40.320767" lon="-4.697867">
        <ele>2374.0</ele>
        <time>2015-03-15T14:32:43Z</time>
      </trkpt>
      <trkpt lat="40.320633" lon="-4.697700">
        <ele>2369.0</ele>
        <time>2015-03-15T14:32:45Z</time>
      </trkpt>
      <trkpt lat="40.320517" lon="-4.697517">
        <ele>2365.0</ele>
        <time>2015-03-15T14:32:47Z</time>
      </trkpt>
      <trkpt lat="40.320417" lon="-4.697317">
        <ele>2361.0</ele>
        <time>2015-03-15T14:32:49Z</time>
      </trkpt>
      <trkpt lat="40.320300" lon="-4.697100">
        <ele>2357.0</ele>
        <time>2015-03-15T14:32:51Z</time>
      </trkpt>
      <trkpt lat="40.320183" lon="-4.696900">
        <ele>2355.0</ele>
        <time>2015-03-15T14:32:53Z</time>
      </trkpt>
      <trkpt lat="40.320067" lon="-4.696700">
        <ele>2353.0</ele>
        <time>2015-03-15T14:32:55Z</time>
      </trkpt>
      <trkpt lat="40.319967" lon="-4.696533">
        <ele>2351.0</ele>
        <time>2015-03-15T14:32:57Z</time>
      </trkpt>
      <trkpt lat="40.319850" lon="-4.696333">
        <ele>2347.0</ele>
        <time>2015-03-15T14:32:59Z</time>
      </trkpt>
      <trkpt lat="40.319733" lon="-4.696133">
        <ele>2344.0</ele>
        <time>2015-03-15T14:33:01Z</time>
      </trkpt>
      <trkpt lat="40.319617" lon="-4.695950">
        <ele>2341.0</ele>
        <time>2015-03-15T14:33:03Z</time>
      </trkpt>
      <trkpt lat="40.319483" lon="-4.695750">
        <ele>2338.0</ele>
        <time>2015-03-15T14:33:05Z</time>
      </trkpt>
      <trkpt lat="40.319367" lon="-4.695567">
        <ele>2336.0</ele>
        <time>2015-03-15T14:33:07Z</time>
      </trkpt>
      <trkpt lat="40.319250" lon="-4.695383">
        <ele>2334.0</ele>
        <time>2015-03-15T14:33:09Z</time>
      </trkpt>
      <trkpt lat="40.319150" lon="-4.695183">
        <ele>2332.0</ele>
        <time>2015-03-15T14:33:11Z</time>
      </trkpt>
      <trkpt lat="40.319067" lon="-4.694967">
        <ele>2330.0</ele>
        <time>2015-03-15T14:33:13Z</time>
      </trkpt>
      <trkpt lat="40.318950" lon="-4.694767">
        <ele>2328.0</ele>
        <time>2015-03-15T14:33:15Z</time>
      </trkpt>
      <trkpt lat="40.318850" lon="-4.694567">
        <ele>2326.0</ele>
        <time>2015-03-15T14:33:17Z</time>
      </trkpt>
      <trkpt lat="40.318767" lon="-4.694350">
        <ele>2323.0</ele>
        <time>2015-03-15T14:33:19Z</time>
      </trkpt>
      <trkpt lat="40.318683" lon="-4.694133">
        <ele>2321.0</ele>
        <time>2015-03-15T14:33:21Z</time>
      </trkpt>
      <trkpt lat="40.318583" lon="-4.693917">
        <ele>2319.0</ele>
        <time>2015-03-15T14:33:23Z</time>
      </trkpt>
      <trkpt lat="40.318533" lon="-4.693700">
        <ele>2315.0</ele>
        <time>2015-03-15T14:33:25Z</time>
      </trkpt>
      <trkpt lat="40.318467" lon="-4.693467">
        <ele>2311.0</ele>
        <time>2015-03-15T14:33:27Z</time>
      </trkpt>
      <trkpt lat="40.318383" lon="-4.693250">
        <ele>2307.0</ele>
        <time>2015-03-15T14:33:29Z</time>
      </trkpt>
      <trkpt lat="40.318317" lon="-4.693000">
        <ele>2303.0</ele>
        <time>2015-03-15T14:33:31Z</time>
      </trkpt>
      <trkpt lat="40.318267" lon="-4.692767">
        <ele>2300.0</ele>
        <time>2015-03-15T14:33:33Z</time>
      </trkpt>
      <trkpt lat="40.318217" lon="-4.692517">
        <ele>2296.0</ele>
        <time>2015-03-15T14:33:35Z</time>
      </trkpt>
      <trkpt lat="40.318167" lon="-4.692267">
        <ele>2291.0</ele>
        <time>2015-03-15T14:33:37Z</time>
      </trkpt>
      <trkpt lat="40.318117" lon="-4.692017">
        <ele>2287.0</ele>
        <time>2015-03-15T14:33:39Z</time>
      </trkpt>
      <trkpt lat="40.318067" lon="-4.691767">
        <ele>2284.0</ele>
        <time>2015-03-15T14:33:41Z</time>
      </trkpt>
      <trkpt lat="40.318017" lon="-4.691550">
        <ele>2280.0</ele>
        <time>2015-03-15T14:33:43Z</time>
      </trkpt>
      <trkpt lat="40.317933" lon="-4.691317">
        <ele>2275.0</ele>
        <time>2015-03-15T14:33:45Z</time>
      </trkpt>
      <trkpt lat="40.317833" lon="-4.691067">
        <ele>2271.0</ele>
        <time>2015-03-15T14:33:47Z</time>
      </trkpt>
      <trkpt lat="40.317750" lon="-4.690833">
        <ele>2268.0</ele>
        <time>2015-03-15T14:33:49Z</time>
      </trkpt>
      <trkpt lat="40.317650" lon="-4.690633">
        <ele>2264.0</ele>
        <time>2015-03-15T14:33:51Z</time>
      </trkpt>
      <trkpt lat="40.317533" lon="-4.690417">
        <ele>2259.0</ele>
        <time>2015-03-15T14:33:53Z</time>
      </trkpt>
      <trkpt lat="40.317400" lon="-4.690183">
        <ele>2254.0</ele>
        <time>2015-03-15T14:33:55Z</time>
      </trkpt>
      <trkpt lat="40.317283" lon="-4.690000">
        <ele>2253.0</ele>
        <time>2015-03-15T14:33:57Z</time>
      </trkpt>
      <trkpt lat="40.317167" lon="-4.689817">
        <ele>2250.0</ele>
        <time>2015-03-15T14:33:59Z</time>
      </trkpt>
      <trkpt lat="40.317033" lon="-4.689600">
        <ele>2244.0</ele>
        <time>2015-03-15T14:34:01Z</time>
      </trkpt>
      <trkpt lat="40.316933" lon="-4.689367">
        <ele>2242.0</ele>
        <time>2015-03-15T14:34:03Z</time>
      </trkpt>
      <trkpt lat="40.316833" lon="-4.689150">
        <ele>2240.0</ele>
        <time>2015-03-15T14:34:05Z</time>
      </trkpt>
      <trkpt lat="40.316750" lon="-4.688917">
        <ele>2236.0</ele>
        <time>2015-03-15T14:34:07Z</time>
      </trkpt>
      <trkpt lat="40.316650" lon="-4.688700">
        <ele>2233.0</ele>
        <time>2015-03-15T14:34:09Z</time>
      </trkpt>
      <trkpt lat="40.316533" lon="-4.688500">
        <ele>2231.0</ele>
        <time>2015-03-15T14:34:11Z</time>
      </trkpt>
      <trkpt lat="40.316433" lon="-4.688300">
        <ele>2226.0</ele>
        <time>2015-03-15T14:34:13Z</time>
      </trkpt>
      <trkpt lat="40.316317" lon="-4.688050">
        <ele>2222.0</ele>
        <time>2015-03-15T14:34:15Z</time>
      </trkpt>
      <trkpt lat="40.316233" lon="-4.687817">
        <ele>2220.0</ele>
        <time>2015-03-15T14:34:17Z</time>
      </trkpt>
      <trkpt lat="40.316150" lon="-4.687583">
        <ele>2219.0</ele>
        <time>2015-03-15T14:34:19Z</time>
      </trkpt>
      <trkpt lat="40.316050" lon="-4.687350">
        <ele>2215.0</ele>
        <time>2015-03-15T14:34:21Z</time>
      </trkpt>
      <trkpt lat="40.315950" lon="-4.687100">
        <ele>2214.0</ele>
        <time>2015-03-15T14:34:23Z</time>
      </trkpt>
      <trkpt lat="40.315833" lon="-4.686867">
        <ele>2214.0</ele>
        <time>2015-03-15T14:34:25Z</time>
      </trkpt>
      <trkpt lat="40.315733" lon="-4.686650">
        <ele>2213.0</ele>
        <time>2015-03-15T14:34:27Z</time>
      </trkpt>
      <trkpt lat="40.315633" lon="-4.686417">
        <ele>2211.0</ele>
        <time>2015-03-15T14:34:29Z</time>
      </trkpt>
      <trkpt lat="40.315517" lon="-4.686167">
        <ele>2210.0</ele>
        <time>2015-03-15T14:34:31Z</time>
      </trkpt>
      <trkpt lat="40.315383" lon="-4.685917">
        <ele>2210.0</ele>
        <time>2015-03-15T14:34:33Z</time>
      </trkpt>
      <trkpt lat="40.315267" lon="-4.685683">
        <ele>2209.0</ele>
        <time>2015-03-15T14:34:35Z</time>
      </trkpt>
      <trkpt lat="40.315150" lon="-4.685450">
        <ele>2209.0</ele>
        <time>2015-03-15T14:34:37Z</time>
      </trkpt>
      <trkpt lat="40.315033" lon="-4.685200">
        <ele>2208.0</ele>
        <time>2015-03-15T14:34:39Z</time>
      </trkpt>
      <trkpt lat="40.314917" lon="-4.684967">
        <ele>2207.0</ele>
        <time>2015-03-15T14:34:41Z</time>
      </trkpt>
      <trkpt lat="40.314800" lon="-4.684733">
        <ele>2207.0</ele>
        <time>2015-03-15T14:34:43Z</time>
      </trkpt>
      <trkpt lat="40.314700" lon="-4.684500">
        <ele>2205.0</ele>
        <time>2015-03-15T14:34:45Z</time>
      </trkpt>
      <trkpt lat="40.314600" lon="-4.684267">
        <ele>2204.0</ele>
        <time>2015-03-15T14:34:47Z</time>
      </trkpt>
      <trkpt lat="40.314500" lon="-4.684067">
        <ele>2202.0</ele>
        <time>2015-03-15T14:34:49Z</time>
      </trkpt>
      <trkpt lat="40.314400" lon="-4.683850">
        <ele>2198.0</ele>
        <time>2015-03-15T14:34:51Z</time>
      </trkpt>
      <trkpt lat="40.314300" lon="-4.683617">
        <ele>2194.0</ele>
        <time>2015-03-15T14:34:53Z</time>
      </trkpt>
      <trkpt lat="40.314200" lon="-4.683383">
        <ele>2194.0</ele>
        <time>2015-03-15T14:34:55Z</time>
      </trkpt>
      <trkpt lat="40.314117" lon="-4.683183">
        <ele>2193.0</ele>
        <time>2015-03-15T14:34:57Z</time>
      </trkpt>
      <trkpt lat="40.314033" lon="-4.682950">
        <ele>2190.0</ele>
        <time>2015-03-15T14:34:59Z</time>
      </trkpt>
      <trkpt lat="40.313950" lon="-4.682717">
        <ele>2189.0</ele>
        <time>2015-03-15T14:35:01Z</time>
      </trkpt>
      <trkpt lat="40.313850" lon="-4.682483">
        <ele>2189.0</ele>
        <time>2015-03-15T14:35:03Z</time>
      </trkpt>
      <trkpt lat="40.313750" lon="-4.682267">
        <ele>2190.0</ele>
        <time>2015-03-15T14:35:05Z</time>
      </trkpt>
      <trkpt lat="40.313650" lon="-4.682033">
        <ele>2191.0</ele>
        <time>2015-03-15T14:35:07Z</time>
      </trkpt>
      <trkpt lat="40.313550" lon="-4.681833">
        <ele>2193.0</ele>
        <time>2015-03-15T14:35:09Z</time>
      </trkpt>
      <trkpt lat="40.313467" lon="-4.681600">
        <ele>2194.0</ele>
        <time>2015-03-15T14:35:11Z</time>
      </trkpt>
      <trkpt lat="40.313383" lon="-4.681350">
        <ele>2194.0</ele>
        <time>2015-03-15T14:35:13Z</time>
      </trkpt>
      <trkpt lat="40.313283" lon="-4.681100">
        <ele>2195.0</ele>
        <time>2015-03-15T14:35:15Z</time>
      </trkpt>
      <trkpt lat="40.313183" lon="-4.680883">
        <ele>2196.0</ele>
        <time>2015-03-15T14:35:17Z</time>
      </trkpt>
      <trkpt lat="40.313083" lon="-4.680667">
        <ele>2193.0</ele>
        <time>2015-03-15T14:35:19Z</time>
      </trkpt>
      <trkpt lat="40.312983" lon="-4.680417">
        <ele>2190.0</ele>
        <time>2015-03-15T14:35:21Z</time>
      </trkpt>
      <trkpt lat="40.312867" lon="-4.680183">
        <ele>2190.0</ele>
        <time>2015-03-15T14:35:23Z</time>
      </trkpt>
      <trkpt lat="40.312750" lon="-4.679967">
        <ele>2190.0</ele>
        <time>2015-03-15T14:35:25Z</time>
      </trkpt>
      <trkpt lat="40.312633" lon="-4.679750">
        <ele>2188.0</ele>
        <time>2015-03-15T14:35:27Z</time>
      </trkpt>
      <trkpt lat="40.312533" lon="-4.679517">
        <ele>2187.0</ele>
        <time>2015-03-15T14:35:29Z</time>
      </trkpt>
      <trkpt lat="40.312433" lon="-4.679283">
        <ele>2184.0</ele>
        <time>2015-03-15T14:35:31Z</time>
      </trkpt>
      <trkpt lat="40.312317" lon="-4.679033">
        <ele>2182.0</ele>
        <time>2015-03-15T14:35:33Z</time>
      </trkpt>
      <trkpt lat="40.312200" lon="-4.678800">
        <ele>2182.0</ele>
        <time>2015-03-15T14:35:35Z</time>
      </trkpt>
      <trkpt lat="40.312100" lon="-4.678583">
        <ele>2181.0</ele>
        <time>2015-03-15T14:35:37Z</time>
      </trkpt>
      <trkpt lat="40.312017" lon="-4.678350">
        <ele>2178.0</ele>
        <time>2015-03-15T14:35:39Z</time>
      </trkpt>
      <trkpt lat="40.311917" lon="-4.678117">
        <ele>2177.0</ele>
        <time>2015-03-15T14:35:41Z</time>
      </trkpt>
      <trkpt lat="40.311833" lon="-4.677917">
        <ele>2176.0</ele>
        <time>2015-03-15T14:35:43Z</time>
      </trkpt>
      <trkpt lat="40.311750" lon="-4.677683">
        <ele>2172.0</ele>
        <time>2015-03-15T14:35:45Z</time>
      </trkpt>
      <trkpt lat="40.311683" lon="-4.677433">
        <ele>2170.0</ele>
        <time>2015-03-15T14:35:47Z</time>
      </trkpt>
      <trkpt lat="40.311633" lon="-4.677183">
        <ele>2169.0</ele>
        <time>2015-03-15T14:35:49Z</time>
      </trkpt>
      <trkpt lat="40.311567" lon="-4.676950">
        <ele>2167.0</ele>
        <time>2015-03-15T14:35:51Z</time>
      </trkpt>
      <trkpt lat="40.311500" lon="-4.676700">
        <ele>2163.0</ele>
        <time>2015-03-15T14:35:53Z</time>
      </trkpt>
      <trkpt lat="40.311433" lon="-4.676467">
        <ele>2160.0</ele>
        <time>2015-03-15T14:35:55Z</time>
      </trkpt>
      <trkpt lat="40.311350" lon="-4.676250">
        <ele>2158.0</ele>
        <time>2015-03-15T14:35:57Z</time>
      </trkpt>
      <trkpt lat="40.311267" lon="-4.676050">
        <ele>2154.0</ele>
        <time>2015-03-15T14:35:59Z</time>
      </trkpt>
      <trkpt lat="40.311167" lon="-4.675833">
        <ele>2149.0</ele>
        <time>2015-03-15T14:36:01Z</time>
      </trkpt>
      <trkpt lat="40.311067" lon="-4.675617">
        <ele>2144.0</ele>
        <time>2015-03-15T14:36:03Z</time>
      </trkpt>
      <trkpt lat="40.310967" lon="-4.675417">
        <ele>2140.0</ele>
        <time>2015-03-15T14:36:05Z</time>
      </trkpt>
      <trkpt lat="40.310867" lon="-4.675200">
        <ele>2136.0</ele>
        <time>2015-03-15T14:36:07Z</time>
      </trkpt>
      <trkpt lat="40.310783" lon="-4.674983">
        <ele>2131.0</ele>
        <time>2015-03-15T14:36:09Z</time>
      </trkpt>
      <trkpt lat="40.310700" lon="-4.674750">
        <ele>2127.0</ele>
        <time>2015-03-15T14:36:11Z</time>
      </trkpt>
      <trkpt lat="40.310617" lon="-4.674517">
        <ele>2123.0</ele>
        <time>2015-03-15T14:36:13Z</time>
      </trkpt>
      <trkpt lat="40.310533" lon="-4.674300">
        <ele>2119.0</ele>
        <time>2015-03-15T14:36:15Z</time>
      </trkpt>
      <trkpt lat="40.310450" lon="-4.674067">
        <ele>2116.0</ele>
        <time>2015-03-15T14:36:17Z</time>
      </trkpt>
      <trkpt lat="40.310383" lon="-4.673850">
        <ele>2112.0</ele>
        <time>2015-03-15T14:36:19Z</time>
      </trkpt>
      <trkpt lat="40.310317" lon="-4.673600">
        <ele>2108.0</ele>
        <time>2015-03-15T14:36:21Z</time>
      </trkpt>
      <trkpt lat="40.310233" lon="-4.673367">
        <ele>2105.0</ele>
        <time>2015-03-15T14:36:23Z</time>
      </trkpt>
      <trkpt lat="40.310183" lon="-4.673150">
        <ele>2103.0</ele>
        <time>2015-03-15T14:36:25Z</time>
      </trkpt>
      <trkpt lat="40.310117" lon="-4.672917">
        <ele>2099.0</ele>
        <time>2015-03-15T14:36:27Z</time>
      </trkpt>
      <trkpt lat="40.310033" lon="-4.672683">
        <ele>2096.0</ele>
        <time>2015-03-15T14:36:29Z</time>
      </trkpt>
      <trkpt lat="40.309950" lon="-4.672467">
        <ele>2094.0</ele>
        <time>2015-03-15T14:36:31Z</time>
      </trkpt>
      <trkpt lat="40.309867" lon="-4.672233">
        <ele>2090.0</ele>
        <time>2015-03-15T14:36:33Z</time>
      </trkpt>
      <trkpt lat="40.309800" lon="-4.672000">
        <ele>2087.0</ele>
        <time>2015-03-15T14:36:35Z</time>
      </trkpt>
      <trkpt lat="40.309717" lon="-4.671783">
        <ele>2085.0</ele>
        <time>2015-03-15T14:36:37Z</time>
      </trkpt>
      <trkpt lat="40.309650" lon="-4.671567">
        <ele>2082.0</ele>
        <time>2015-03-15T14:36:39Z</time>
      </trkpt>
      <trkpt lat="40.309567" lon="-4.671367">
        <ele>2080.0</ele>
        <time>2015-03-15T14:36:41Z</time>
      </trkpt>
      <trkpt lat="40.309483" lon="-4.671167">
        <ele>2077.0</ele>
        <time>2015-03-15T14:36:43Z</time>
      </trkpt>
      <trkpt lat="40.309400" lon="-4.670950">
        <ele>2074.0</ele>
        <time>2015-03-15T14:36:45Z</time>
      </trkpt>
      <trkpt lat="40.309333" lon="-4.670733">
        <ele>2072.0</ele>
        <time>2015-03-15T14:36:47Z</time>
      </trkpt>
      <trkpt lat="40.309267" lon="-4.670517">
        <ele>2070.0</ele>
        <time>2015-03-15T14:36:49Z</time>
      </trkpt>
      <trkpt lat="40.309200" lon="-4.670267">
        <ele>2068.0</ele>
        <time>2015-03-15T14:36:51Z</time>
      </trkpt>
      <trkpt lat="40.309133" lon="-4.670033">
        <ele>2067.0</ele>
        <time>2015-03-15T14:36:53Z</time>
      </trkpt>
      <trkpt lat="40.309067" lon="-4.669817">
        <ele>2067.0</ele>
        <time>2015-03-15T14:36:55Z</time>
      </trkpt>
      <trkpt lat="40.309000" lon="-4.669583">
        <ele>2065.0</ele>
        <time>2015-03-15T14:36:57Z</time>
      </trkpt>
      <trkpt lat="40.308917" lon="-4.669350">
        <ele>2064.0</ele>
        <time>2015-03-15T14:36:59Z</time>
      </trkpt>
      <trkpt lat="40.308833" lon="-4.669133">
        <ele>2063.0</ele>
        <time>2015-03-15T14:37:01Z</time>
      </trkpt>
      <trkpt lat="40.308767" lon="-4.668900">
        <ele>2062.0</ele>
        <time>2015-03-15T14:37:03Z</time>
      </trkpt>
      <trkpt lat="40.308683" lon="-4.668700">
        <ele>2060.0</ele>
        <time>2015-03-15T14:37:05Z</time>
      </trkpt>
      <trkpt lat="40.308633" lon="-4.668483">
        <ele>2058.0</ele>
        <time>2015-03-15T14:37:07Z</time>
      </trkpt>
      <trkpt lat="40.308567" lon="-4.668267">
        <ele>2054.0</ele>
        <time>2015-03-15T14:37:09Z</time>
      </trkpt>
      <trkpt lat="40.308500" lon="-4.668033">
        <ele>2052.0</ele>
        <time>2015-03-15T14:37:11Z</time>
      </trkpt>
      <trkpt lat="40.308433" lon="-4.667817">
        <ele>2051.0</ele>
        <time>2015-03-15T14:37:13Z</time>
      </trkpt>
      <trkpt lat="40.308350" lon="-4.667583">
        <ele>2048.0</ele>
        <time>2015-03-15T14:37:15Z</time>
      </trkpt>
      <trkpt lat="40.308283" lon="-4.667367">
        <ele>2046.0</ele>
        <time>2015-03-15T14:37:17Z</time>
      </trkpt>
      <trkpt lat="40.308217" lon="-4.667150">
        <ele>2043.0</ele>
        <time>2015-03-15T14:37:19Z</time>
      </trkpt>
      <trkpt lat="40.308150" lon="-4.666933">
        <ele>2040.0</ele>
        <time>2015-03-15T14:37:21Z</time>
      </trkpt>
      <trkpt lat="40.308100" lon="-4.666717">
        <ele>2038.0</ele>
        <time>2015-03-15T14:37:23Z</time>
      </trkpt>
      <trkpt lat="40.308033" lon="-4.666533">
        <ele>2035.0</ele>
        <time>2015-03-15T14:37:25Z</time>
      </trkpt>
      <trkpt lat="40.307967" lon="-4.666317">
        <ele>2030.0</ele>
        <time>2015-03-15T14:37:27Z</time>
      </trkpt>
      <trkpt lat="40.307900" lon="-4.666100">
        <ele>2026.0</ele>
        <time>2015-03-15T14:37:29Z</time>
      </trkpt>
      <trkpt lat="40.307833" lon="-4.665883">
        <ele>2023.0</ele>
        <time>2015-03-15T14:37:31Z</time>
      </trkpt>
      <trkpt lat="40.307783" lon="-4.665700">
        <ele>2020.0</ele>
        <time>2015-03-15T14:37:33Z</time>
      </trkpt>
      <trkpt lat="40.307717" lon="-4.665517">
        <ele>2013.0</ele>
        <time>2015-03-15T14:37:35Z</time>
      </trkpt>
      <trkpt lat="40.307633" lon="-4.665283">
        <ele>2006.0</ele>
        <time>2015-03-15T14:37:37Z</time>
      </trkpt>
      <trkpt lat="40.307550" lon="-4.665067">
        <ele>2002.0</ele>
        <time>2015-03-15T14:37:39Z</time>
      </trkpt>
      <trkpt lat="40.307467" lon="-4.664850">
        <ele>1997.0</ele>
        <time>2015-03-15T14:37:41Z</time>
      </trkpt>
      <trkpt lat="40.307400" lon="-4.664633">
        <ele>1992.0</ele>
        <time>2015-03-15T14:37:43Z</time>
      </trkpt>
      <trkpt lat="40.307333" lon="-4.664417">
        <ele>1988.0</ele>
        <time>2015-03-15T14:37:45Z</time>
      </trkpt>
      <trkpt lat="40.307283" lon="-4.664183">
        <ele>1984.0</ele>
        <time>2015-03-15T14:37:47Z</time>
      </trkpt>
      <trkpt lat="40.307217" lon="-4.663950">
        <ele>1980.0</ele>
        <time>2015-03-15T14:37:49Z</time>
      </trkpt>
      <trkpt lat="40.307150" lon="-4.663700">
        <ele>1977.0</ele>
        <time>2015-03-15T14:37:51Z</time>
      </trkpt>
      <trkpt lat="40.307100" lon="-4.663450">
        <ele>1974.0</ele>
        <time>2015-03-15T14:37:53Z</time>
      </trkpt>
      <trkpt lat="40.307033" lon="-4.663217">
        <ele>1971.0</ele>
        <time>2015-03-15T14:37:55Z</time>
      </trkpt>
      <trkpt lat="40.306967" lon="-4.663017">
        <ele>1968.0</ele>
        <time>2015-03-15T14:37:57Z</time>
      </trkpt>
      <trkpt lat="40.306900" lon="-4.662817">
        <ele>1963.0</ele>
        <time>2015-03-15T14:37:59Z</time>
      </trkpt>
      <trkpt lat="40.306850" lon="-4.662583">
        <ele>1958.0</ele>
        <time>2015-03-15T14:38:01Z</time>
      </trkpt>
      <trkpt lat="40.306800" lon="-4.662383">
        <ele>1956.0</ele>
        <time>2015-03-15T14:38:03Z</time>
      </trkpt>
      <trkpt lat="40.306767" lon="-4.662200">
        <ele>1951.0</ele>
        <time>2015-03-15T14:38:05Z</time>
      </trkpt>
      <trkpt lat="40.306700" lon="-4.662000">
        <ele>1946.0</ele>
        <time>2015-03-15T14:38:07Z</time>
      </trkpt>
      <trkpt lat="40.306633" lon="-4.661800">
        <ele>1943.0</ele>
        <time>2015-03-15T14:38:09Z</time>
      </trkpt>
      <trkpt lat="40.306583" lon="-4.661633">
        <ele>1941.0</ele>
        <time>2015-03-15T14:38:11Z</time>
      </trkpt>
      <trkpt lat="40.306533" lon="-4.661433">
        <ele>1936.0</ele>
        <time>2015-03-15T14:38:13Z</time>
      </trkpt>
      <trkpt lat="40.306467" lon="-4.661217">
        <ele>1933.0</ele>
        <time>2015-03-15T14:38:15Z</time>
      </trkpt>
      <trkpt lat="40.306400" lon="-4.661017">
        <ele>1930.0</ele>
        <time>2015-03-15T14:38:17Z</time>
      </trkpt>
      <trkpt lat="40.306350" lon="-4.660817">
        <ele>1924.0</ele>
        <time>2015-03-15T14:38:19Z</time>
      </trkpt>
      <trkpt lat="40.306300" lon="-4.660600">
        <ele>1920.0</ele>
        <time>2015-03-15T14:38:21Z</time>
      </trkpt>
      <trkpt lat="40.306250" lon="-4.660383">
        <ele>1917.0</ele>
        <time>2015-03-15T14:38:23Z</time>
      </trkpt>
      <trkpt lat="40.306217" lon="-4.660167">
        <ele>1912.0</ele>
        <time>2015-03-15T14:38:25Z</time>
      </trkpt>
      <trkpt lat="40.306167" lon="-4.659933">
        <ele>1907.0</ele>
        <time>2015-03-15T14:38:27Z</time>
      </trkpt>
      <trkpt lat="40.306117" lon="-4.659700">
        <ele>1904.0</ele>
        <time>2015-03-15T14:38:29Z</time>
      </trkpt>
      <trkpt lat="40.306067" lon="-4.659483">
        <ele>1901.0</ele>
        <time>2015-03-15T14:38:31Z</time>
      </trkpt>
      <trkpt lat="40.306033" lon="-4.659267">
        <ele>1898.0</ele>
        <time>2015-03-15T14:38:33Z</time>
      </trkpt>
      <trkpt lat="40.305983" lon="-4.659050">
        <ele>1894.0</ele>
        <time>2015-03-15T14:38:35Z</time>
      </trkpt>
      <trkpt lat="40.305933" lon="-4.658833">
        <ele>1890.0</ele>
        <time>2015-03-15T14:38:37Z</time>
      </trkpt>
      <trkpt lat="40.305867" lon="-4.658650">
        <ele>1887.0</ele>
        <time>2015-03-15T14:38:39Z</time>
      </trkpt>
      <trkpt lat="40.305817" lon="-4.658450">
        <ele>1882.0</ele>
        <time>2015-03-15T14:38:41Z</time>
      </trkpt>
      <trkpt lat="40.305750" lon="-4.658233">
        <ele>1878.0</ele>
        <time>2015-03-15T14:38:43Z</time>
      </trkpt>
      <trkpt lat="40.305700" lon="-4.658017">
        <ele>1875.0</ele>
        <time>2015-03-15T14:38:45Z</time>
      </trkpt>
      <trkpt lat="40.305633" lon="-4.657800">
        <ele>1873.0</ele>
        <time>2015-03-15T14:38:47Z</time>
      </trkpt>
      <trkpt lat="40.305583" lon="-4.657567">
        <ele>1872.0</ele>
        <time>2015-03-15T14:38:49Z</time>
      </trkpt>
      <trkpt lat="40.305533" lon="-4.657350">
        <ele>1871.0</ele>
        <time>2015-03-15T14:38:51Z</time>
      </trkpt>
      <trkpt lat="40.305483" lon="-4.657150">
        <ele>1869.0</ele>
        <time>2015-03-15T14:38:53Z</time>
      </trkpt>
      <trkpt lat="40.305417" lon="-4.656917">
        <ele>1866.0</ele>
        <time>2015-03-15T14:38:55Z</time>
      </trkpt>
      <trkpt lat="40.305367" lon="-4.656683">
        <ele>1864.0</ele>
        <time>2015-03-15T14:38:57Z</time>
      </trkpt>
      <trkpt lat="40.305317" lon="-4.656467">
        <ele>1862.0</ele>
        <time>2015-03-15T14:38:59Z</time>
      </trkpt>
      <trkpt lat="40.305267" lon="-4.656233">
        <ele>1860.0</ele>
        <time>2015-03-15T14:39:01Z</time>
      </trkpt>
      <trkpt lat="40.305217" lon="-4.655983">
        <ele>1858.0</ele>
        <time>2015-03-15T14:39:03Z</time>
      </trkpt>
      <trkpt lat="40.305167" lon="-4.655767">
        <ele>1856.0</ele>
        <time>2015-03-15T14:39:05Z</time>
      </trkpt>
      <trkpt lat="40.305117" lon="-4.655517">
        <ele>1853.0</ele>
        <time>2015-03-15T14:39:07Z</time>
      </trkpt>
      <trkpt lat="40.305050" lon="-4.655283">
        <ele>1852.0</ele>
        <time>2015-03-15T14:39:09Z</time>
      </trkpt>
      <trkpt lat="40.305000" lon="-4.655050">
        <ele>1851.0</ele>
        <time>2015-03-15T14:39:11Z</time>
      </trkpt>
      <trkpt lat="40.304950" lon="-4.654833">
        <ele>1848.0</ele>
        <time>2015-03-15T14:39:13Z</time>
      </trkpt>
      <trkpt lat="40.304883" lon="-4.654583">
        <ele>1846.0</ele>
        <time>2015-03-15T14:39:15Z</time>
      </trkpt>
      <trkpt lat="40.304850" lon="-4.654350">
        <ele>1845.0</ele>
        <time>2015-03-15T14:39:17Z</time>
      </trkpt>
      <trkpt lat="40.304817" lon="-4.654100">
        <ele>1844.0</ele>
        <time>2015-03-15T14:39:19Z</time>
      </trkpt>
      <trkpt lat="40.304783" lon="-4.653867">
        <ele>1842.0</ele>
        <time>2015-03-15T14:39:21Z</time>
      </trkpt>
      <trkpt lat="40.304750" lon="-4.653617">
        <ele>1839.0</ele>
        <time>2015-03-15T14:39:23Z</time>
      </trkpt>
      <trkpt lat="40.304717" lon="-4.653383">
        <ele>1838.0</ele>
        <time>2015-03-15T14:39:25Z</time>
      </trkpt>
      <trkpt lat="40.304683" lon="-4.653150">
        <ele>1836.0</ele>
        <time>2015-03-15T14:39:27Z</time>
      </trkpt>
      <trkpt lat="40.304633" lon="-4.652917">
        <ele>1834.0</ele>
        <time>2015-03-15T14:39:29Z</time>
      </trkpt>
      <trkpt lat="40.304583" lon="-4.652683">
        <ele>1832.0</ele>
        <time>2015-03-15T14:39:31Z</time>
      </trkpt>
      <trkpt lat="40.304550" lon="-4.652450">
        <ele>1831.0</ele>
        <time>2015-03-15T14:39:33Z</time>
      </trkpt>
      <trkpt lat="40.304483" lon="-4.652200">
        <ele>1829.0</ele>
        <time>2015-03-15T14:39:35Z</time>
      </trkpt>
      <trkpt lat="40.304433" lon="-4.651967">
        <ele>1828.0</ele>
        <time>2015-03-15T14:39:37Z</time>
      </trkpt>
      <trkpt lat="40.304367" lon="-4.651733">
        <ele>1827.0</ele>
        <time>2015-03-15T14:39:39Z</time>
      </trkpt>
      <trkpt lat="40.304300" lon="-4.651500">
        <ele>1826.0</ele>
        <time>2015-03-15T14:39:41Z</time>
      </trkpt>
      <trkpt lat="40.304233" lon="-4.651267">
        <ele>1826.0</ele>
        <time>2015-03-15T14:39:43Z</time>
      </trkpt>
      <trkpt lat="40.304183" lon="-4.651050">
        <ele>1827.0</ele>
        <time>2015-03-15T14:39:45Z</time>
      </trkpt>
      <trkpt lat="40.304117" lon="-4.650850">
        <ele>1825.0</ele>
        <time>2015-03-15T14:39:47Z</time>
      </trkpt>
      <trkpt lat="40.304050" lon="-4.650617">
        <ele>1823.0</ele>
        <time>2015-03-15T14:39:49Z</time>
      </trkpt>
      <trkpt lat="40.304000" lon="-4.650383">
        <ele>1823.0</ele>
        <time>2015-03-15T14:39:51Z</time>
      </trkpt>
      <trkpt lat="40.303950" lon="-4.650167">
        <ele>1823.0</ele>
        <time>2015-03-15T14:39:53Z</time>
      </trkpt>
      <trkpt lat="40.303900" lon="-4.649967">
        <ele>1822.0</ele>
        <time>2015-03-15T14:39:55Z</time>
      </trkpt>
      <trkpt lat="40.303867" lon="-4.649733">
        <ele>1821.0</ele>
        <time>2015-03-15T14:39:57Z</time>
      </trkpt>
      <trkpt lat="40.303817" lon="-4.649517">
        <ele>1821.0</ele>
        <time>2015-03-15T14:39:59Z</time>
      </trkpt>
      <trkpt lat="40.303767" lon="-4.649317">
        <ele>1821.0</ele>
        <time>2015-03-15T14:40:01Z</time>
      </trkpt>
      <trkpt lat="40.303700" lon="-4.649100">
        <ele>1820.0</ele>
        <time>2015-03-15T14:40:03Z</time>
      </trkpt>
      <trkpt lat="40.303633" lon="-4.648900">
        <ele>1819.0</ele>
        <time>2015-03-15T14:40:05Z</time>
      </trkpt>
      <trkpt lat="40.303550" lon="-4.648683">
        <ele>1818.0</ele>
        <time>2015-03-15T14:40:07Z</time>
      </trkpt>
      <trkpt lat="40.303483" lon="-4.648483">
        <ele>1817.0</ele>
        <time>2015-03-15T14:40:09Z</time>
      </trkpt>
      <trkpt lat="40.303417" lon="-4.648283">
        <ele>1815.0</ele>
        <time>2015-03-15T14:40:11Z</time>
      </trkpt>
      <trkpt lat="40.303350" lon="-4.648067">
        <ele>1813.0</ele>
        <time>2015-03-15T14:40:13Z</time>
      </trkpt>
      <trkpt lat="40.303283" lon="-4.647850">
        <ele>1812.0</ele>
        <time>2015-03-15T14:40:15Z</time>
      </trkpt>
      <trkpt lat="40.303233" lon="-4.647633">
        <ele>1811.0</ele>
        <time>2015-03-15T14:40:17Z</time>
      </trkpt>
      <trkpt lat="40.303183" lon="-4.647400">
        <ele>1809.0</ele>
        <time>2015-03-15T14:40:19Z</time>
      </trkpt>
      <trkpt lat="40.303133" lon="-4.647183">
        <ele>1807.0</ele>
        <time>2015-03-15T14:40:21Z</time>
      </trkpt>
      <trkpt lat="40.303067" lon="-4.646950">
        <ele>1805.0</ele>
        <time>2015-03-15T14:40:23Z</time>
      </trkpt>
      <trkpt lat="40.303017" lon="-4.646717">
        <ele>1804.0</ele>
        <time>2015-03-15T14:40:25Z</time>
      </trkpt>
      <trkpt lat="40.302967" lon="-4.646483">
        <ele>1803.0</ele>
        <time>2015-03-15T14:40:27Z</time>
      </trkpt>
      <trkpt lat="40.302900" lon="-4.646267">
        <ele>1802.0</ele>
        <time>2015-03-15T14:40:29Z</time>
      </trkpt>
      <trkpt lat="40.302850" lon="-4.646050">
        <ele>1800.0</ele>
        <time>2015-03-15T14:40:31Z</time>
      </trkpt>
      <trkpt lat="40.302783" lon="-4.645817">
        <ele>1799.0</ele>
        <time>2015-03-15T14:40:33Z</time>
      </trkpt>
      <trkpt lat="40.302717" lon="-4.645583">
        <ele>1798.0</ele>
        <time>2015-03-15T14:40:35Z</time>
      </trkpt>
      <trkpt lat="40.302667" lon="-4.645367">
        <ele>1797.0</ele>
        <time>2015-03-15T14:40:37Z</time>
      </trkpt>
      <trkpt lat="40.302600" lon="-4.645150">
        <ele>1795.0</ele>
        <time>2015-03-15T14:40:39Z</time>
      </trkpt>
      <trkpt lat="40.302533" lon="-4.644900">
        <ele>1793.0</ele>
        <time>2015-03-15T14:40:41Z</time>
      </trkpt>
      <trkpt lat="40.302467" lon="-4.644667">
        <ele>1791.0</ele>
        <time>2015-03-15T14:40:43Z</time>
      </trkpt>
      <trkpt lat="40.302383" lon="-4.644417">
        <ele>1792.0</ele>
        <time>2015-03-15T14:40:45Z</time>
      </trkpt>
      <trkpt lat="40.302300" lon="-4.644200">
        <ele>1792.0</ele>
        <time>2015-03-15T14:40:47Z</time>
      </trkpt>
      <trkpt lat="40.302200" lon="-4.643967">
        <ele>1791.0</ele>
        <time>2015-03-15T14:40:49Z</time>
      </trkpt>
      <trkpt lat="40.302100" lon="-4.643717">
        <ele>1792.0</ele>
        <time>2015-03-15T14:40:51Z</time>
      </trkpt>
      <trkpt lat="40.302000" lon="-4.643467">
        <ele>1796.0</ele>
        <time>2015-03-15T14:40:53Z</time>
      </trkpt>
      <trkpt lat="40.301900" lon="-4.643217">
        <ele>1799.0</ele>
        <time>2015-03-15T14:40:55Z</time>
      </trkpt>
      <trkpt lat="40.301800" lon="-4.642967">
        <ele>1803.0</ele>
        <time>2015-03-15T14:40:57Z</time>
      </trkpt>
      <trkpt lat="40.301700" lon="-4.642767">
        <ele>1807.0</ele>
        <time>2015-03-15T14:40:59Z</time>
      </trkpt>
      <trkpt lat="40.301617" lon="-4.642567">
        <ele>1809.0</ele>
        <time>2015-03-15T14:41:01Z</time>
      </trkpt>
      <trkpt lat="40.301550" lon="-4.642350">
        <ele>1811.0</ele>
        <time>2015-03-15T14:41:03Z</time>
      </trkpt>
      <trkpt lat="40.301483" lon="-4.642167">
        <ele>1811.0</ele>
        <time>2015-03-15T14:41:05Z</time>
      </trkpt>
      <trkpt lat="40.301400" lon="-4.641967">
        <ele>1811.0</ele>
        <time>2015-03-15T14:41:07Z</time>
      </trkpt>
      <trkpt lat="40.301333" lon="-4.641733">
        <ele>1811.0</ele>
        <time>2015-03-15T14:41:09Z</time>
      </trkpt>
      <trkpt lat="40.301250" lon="-4.641517">
        <ele>1813.0</ele>
        <time>2015-03-15T14:41:11Z</time>
      </trkpt>
      <trkpt lat="40.301167" lon="-4.641300">
        <ele>1814.0</ele>
        <time>2015-03-15T14:41:13Z</time>
      </trkpt>
      <trkpt lat="40.301083" lon="-4.641083">
        <ele>1817.0</ele>
        <time>2015-03-15T14:41:15Z</time>
      </trkpt>
      <trkpt lat="40.301017" lon="-4.640867">
        <ele>1821.0</ele>
        <time>2015-03-15T14:41:17Z</time>
      </trkpt>
      <trkpt lat="40.300967" lon="-4.640667">
        <ele>1824.0</ele>
        <time>2015-03-15T14:41:19Z</time>
      </trkpt>
      <trkpt lat="40.300917" lon="-4.640450">
        <ele>1827.0</ele>
        <time>2015-03-15T14:41:21Z</time>
      </trkpt>
      <trkpt lat="40.300850" lon="-4.640233">
        <ele>1830.0</ele>
        <time>2015-03-15T14:41:23Z</time>
      </trkpt>
      <trkpt lat="40.300767" lon="-4.640017">
        <ele>1833.0</ele>
        <time>2015-03-15T14:41:25Z</time>
      </trkpt>
      <trkpt lat="40.300667" lon="-4.639817">
        <ele>1837.0</ele>
        <time>2015-03-15T14:41:27Z</time>
      </trkpt>
      <trkpt lat="40.300600" lon="-4.639600">
        <ele>1841.0</ele>
        <time>2015-03-15T14:41:29Z</time>
      </trkpt>
      <trkpt lat="40.300533" lon="-4.639350">
        <ele>1844.0</ele>
        <time>2015-03-15T14:41:31Z</time>
      </trkpt>
      <trkpt lat="40.300450" lon="-4.639117">
        <ele>1848.0</ele>
        <time>2015-03-15T14:41:33Z</time>
      </trkpt>
      <trkpt lat="40.300350" lon="-4.638917">
        <ele>1850.0</ele>
        <time>2015-03-15T14:41:35Z</time>
      </trkpt>
      <trkpt lat="40.300283" lon="-4.638717">
        <ele>1850.0</ele>
        <time>2015-03-15T14:41:37Z</time>
      </trkpt>
      <trkpt lat="40.300183" lon="-4.638483">
        <ele>1849.0</ele>
        <time>2015-03-15T14:41:39Z</time>
      </trkpt>
      <trkpt lat="40.300100" lon="-4.638233">
        <ele>1852.0</ele>
        <time>2015-03-15T14:41:41Z</time>
      </trkpt>
      <trkpt lat="40.300017" lon="-4.638033">
        <ele>1854.0</ele>
        <time>2015-03-15T14:41:43Z</time>
      </trkpt>
      <trkpt lat="40.299933" lon="-4.637800">
        <ele>1856.0</ele>
        <time>2015-03-15T14:41:45Z</time>
      </trkpt>
      <trkpt lat="40.299850" lon="-4.637550">
        <ele>1858.0</ele>
        <time>2015-03-15T14:41:47Z</time>
      </trkpt>
      <trkpt lat="40.299750" lon="-4.637317">
        <ele>1860.0</ele>
        <time>2015-03-15T14:41:49Z</time>
      </trkpt>
      <trkpt lat="40.299650" lon="-4.637067">
        <ele>1862.0</ele>
        <time>2015-03-15T14:41:51Z</time>
      </trkpt>
      <trkpt lat="40.299550" lon="-4.636783">
        <ele>1867.0</ele>
        <time>2015-03-15T14:41:53Z</time>
      </trkpt>
      <trkpt lat="40.299500" lon="-4.636550">
        <ele>1874.0</ele>
        <time>2015-03-15T14:41:55Z</time>
      </trkpt>
      <trkpt lat="40.299433" lon="-4.636350">
        <ele>1877.0</ele>
        <time>2015-03-15T14:41:57Z</time>
      </trkpt>
      <trkpt lat="40.299350" lon="-4.636117">
        <ele>1880.0</ele>
        <time>2015-03-15T14:41:59Z</time>
      </trkpt>
      <trkpt lat="40.299283" lon="-4.635883">
        <ele>1884.0</ele>
        <time>2015-03-15T14:42:01Z</time>
      </trkpt>
      <trkpt lat="40.299217" lon="-4.635650">
        <ele>1887.0</ele>
        <time>2015-03-15T14:42:03Z</time>
      </trkpt>
      <trkpt lat="40.299167" lon="-4.635383">
        <ele>1890.0</ele>
        <time>2015-03-15T14:42:05Z</time>
      </trkpt>
      <trkpt lat="40.299083" lon="-4.635133">
        <ele>1892.0</ele>
        <time>2015-03-15T14:42:07Z</time>
      </trkpt>
      <trkpt lat="40.299000" lon="-4.634900">
        <ele>1892.0</ele>
        <time>2015-03-15T14:42:09Z</time>
      </trkpt>
      <trkpt lat="40.298917" lon="-4.634650">
        <ele>1890.0</ele>
        <time>2015-03-15T14:42:11Z</time>
      </trkpt>
      <trkpt lat="40.298833" lon="-4.634383">
        <ele>1892.0</ele>
        <time>2015-03-15T14:42:13Z</time>
      </trkpt>
      <trkpt lat="40.298783" lon="-4.634150">
        <ele>1895.0</ele>
        <time>2015-03-15T14:42:15Z</time>
      </trkpt>
      <trkpt lat="40.298733" lon="-4.633933">
        <ele>1894.0</ele>
        <time>2015-03-15T14:42:17Z</time>
      </trkpt>
      <trkpt lat="40.298667" lon="-4.633700">
        <ele>1893.0</ele>
        <time>2015-03-15T14:42:19Z</time>
      </trkpt>
      <trkpt lat="40.298583" lon="-4.633467">
        <ele>1892.0</ele>
        <time>2015-03-15T14:42:21Z</time>
      </trkpt>
      <trkpt lat="40.298517" lon="-4.633267">
        <ele>1891.0</ele>
        <time>2015-03-15T14:42:23Z</time>
      </trkpt>
      <trkpt lat="40.298450" lon="-4.633017">
        <ele>1890.0</ele>
        <time>2015-03-15T14:42:25Z</time>
      </trkpt>
      <trkpt lat="40.298367" lon="-4.632783">
        <ele>1891.0</ele>
        <time>2015-03-15T14:42:27Z</time>
      </trkpt>
      <trkpt lat="40.298333" lon="-4.632583">
        <ele>1894.0</ele>
        <time>2015-03-15T14:42:29Z</time>
      </trkpt>
      <trkpt lat="40.298300" lon="-4.632367">
        <ele>1895.0</ele>
        <time>2015-03-15T14:42:31Z</time>
      </trkpt>
      <trkpt lat="40.298250" lon="-4.632117">
        <ele>1896.0</ele>
        <time>2015-03-15T14:42:33Z</time>
      </trkpt>
      <trkpt lat="40.298217" lon="-4.631867">
        <ele>1898.0</ele>
        <time>2015-03-15T14:42:35Z</time>
      </trkpt>
      <trkpt lat="40.298183" lon="-4.631650">
        <ele>1899.0</ele>
        <time>2015-03-15T14:42:37Z</time>
      </trkpt>
      <trkpt lat="40.298117" lon="-4.631433">
        <ele>1900.0</ele>
        <time>2015-03-15T14:42:39Z</time>
      </trkpt>
      <trkpt lat="40.298067" lon="-4.631217">
        <ele>1902.0</ele>
        <time>2015-03-15T14:42:41Z</time>
      </trkpt>
      <trkpt lat="40.298033" lon="-4.631017">
        <ele>1902.0</ele>
        <time>2015-03-15T14:42:43Z</time>
      </trkpt>
      <trkpt lat="40.297983" lon="-4.630783">
        <ele>1900.0</ele>
        <time>2015-03-15T14:42:45Z</time>
      </trkpt>
      <trkpt lat="40.297917" lon="-4.630550">
        <ele>1901.0</ele>
        <time>2015-03-15T14:42:47Z</time>
      </trkpt>
      <trkpt lat="40.297867" lon="-4.630350">
        <ele>1903.0</ele>
        <time>2015-03-15T14:42:49Z</time>
      </trkpt>
      <trkpt lat="40.297817" lon="-4.630150">
        <ele>1901.0</ele>
        <time>2015-03-15T14:42:51Z</time>
      </trkpt>
      <trkpt lat="40.297750" lon="-4.629917">
        <ele>1899.0</ele>
        <time>2015-03-15T14:42:53Z</time>
      </trkpt>
      <trkpt lat="40.297700" lon="-4.629683">
        <ele>1900.0</ele>
        <time>2015-03-15T14:42:55Z</time>
      </trkpt>
      <trkpt lat="40.297650" lon="-4.629500">
        <ele>1900.0</ele>
        <time>2015-03-15T14:42:57Z</time>
      </trkpt>
      <trkpt lat="40.297600" lon="-4.629283">
        <ele>1898.0</ele>
        <time>2015-03-15T14:42:59Z</time>
      </trkpt>
      <trkpt lat="40.297567" lon="-4.629033">
        <ele>1896.0</ele>
        <time>2015-03-15T14:43:01Z</time>
      </trkpt>
      <trkpt lat="40.297533" lon="-4.628783">
        <ele>1896.0</ele>
        <time>2015-03-15T14:43:03Z</time>
      </trkpt>
      <trkpt lat="40.297500" lon="-4.628550">
        <ele>1897.0</ele>
        <time>2015-03-15T14:43:05Z</time>
      </trkpt>
      <trkpt lat="40.297483" lon="-4.628317">
        <ele>1896.0</ele>
        <time>2015-03-15T14:43:07Z</time>
      </trkpt>
      <trkpt lat="40.297450" lon="-4.628050">
        <ele>1894.0</ele>
        <time>2015-03-15T14:43:09Z</time>
      </trkpt>
      <trkpt lat="40.297417" lon="-4.627800">
        <ele>1894.0</ele>
        <time>2015-03-15T14:43:11Z</time>
      </trkpt>
      <trkpt lat="40.297383" lon="-4.627567">
        <ele>1892.0</ele>
        <time>2015-03-15T14:43:13Z</time>
      </trkpt>
      <trkpt lat="40.297350" lon="-4.627333">
        <ele>1888.0</ele>
        <time>2015-03-15T14:43:15Z</time>
      </trkpt>
      <trkpt lat="40.297283" lon="-4.627083">
        <ele>1884.0</ele>
        <time>2015-03-15T14:43:17Z</time>
      </trkpt>
      <trkpt lat="40.297217" lon="-4.626833">
        <ele>1884.0</ele>
        <time>2015-03-15T14:43:19Z</time>
      </trkpt>
      <trkpt lat="40.297167" lon="-4.626617">
        <ele>1884.0</ele>
        <time>2015-03-15T14:43:21Z</time>
      </trkpt>
      <trkpt lat="40.297117" lon="-4.626400">
        <ele>1881.0</ele>
        <time>2015-03-15T14:43:23Z</time>
      </trkpt>
      <trkpt lat="40.297050" lon="-4.626167">
        <ele>1879.0</ele>
        <time>2015-03-15T14:43:25Z</time>
      </trkpt>
      <trkpt lat="40.296967" lon="-4.625950">
        <ele>1878.0</ele>
        <time>2015-03-15T14:43:27Z</time>
      </trkpt>
      <trkpt lat="40.296900" lon="-4.625750">
        <ele>1877.0</ele>
        <time>2015-03-15T14:43:29Z</time>
      </trkpt>
      <trkpt lat="40.296817" lon="-4.625533">
        <ele>1873.0</ele>
        <time>2015-03-15T14:43:31Z</time>
      </trkpt>
      <trkpt lat="40.296733" lon="-4.625317">
        <ele>1870.0</ele>
        <time>2015-03-15T14:43:33Z</time>
      </trkpt>
      <trkpt lat="40.296667" lon="-4.625117">
        <ele>1867.0</ele>
        <time>2015-03-15T14:43:35Z</time>
      </trkpt>
      <trkpt lat="40.296583" lon="-4.624883">
        <ele>1863.0</ele>
        <time>2015-03-15T14:43:37Z</time>
      </trkpt>
      <trkpt lat="40.296500" lon="-4.624667">
        <ele>1861.0</ele>
        <time>2015-03-15T14:43:39Z</time>
      </trkpt>
      <trkpt lat="40.296433" lon="-4.624467">
        <ele>1859.0</ele>
        <time>2015-03-15T14:43:41Z</time>
      </trkpt>
      <trkpt lat="40.296367" lon="-4.624283">
        <ele>1856.0</ele>
        <time>2015-03-15T14:43:43Z</time>
      </trkpt>
      <trkpt lat="40.296283" lon="-4.624117">
        <ele>1852.0</ele>
        <time>2015-03-15T14:43:45Z</time>
      </trkpt>
      <trkpt lat="40.296200" lon="-4.623933">
        <ele>1849.0</ele>
        <time>2015-03-15T14:43:47Z</time>
      </trkpt>
      <trkpt lat="40.296117" lon="-4.623717">
        <ele>1847.0</ele>
        <time>2015-03-15T14:43:49Z</time>
      </trkpt>
      <trkpt lat="40.296067" lon="-4.623550">
        <ele>1846.0</ele>
        <time>2015-03-15T14:43:51Z</time>
      </trkpt>
      <trkpt lat="40.295983" lon="-4.623367">
        <ele>1843.0</ele>
        <time>2015-03-15T14:43:53Z</time>
      </trkpt>
      <trkpt lat="40.295933" lon="-4.623150">
        <ele>1840.0</ele>
        <time>2015-03-15T14:43:55Z</time>
      </trkpt>
      <trkpt lat="40.295900" lon="-4.622950">
        <ele>1838.0</ele>
        <time>2015-03-15T14:43:57Z</time>
      </trkpt>
      <trkpt lat="40.295867" lon="-4.622750">
        <ele>1834.0</ele>
        <time>2015-03-15T14:43:59Z</time>
      </trkpt>
      <trkpt lat="40.295817" lon="-4.622517">
        <ele>1830.0</ele>
        <time>2015-03-15T14:44:01Z</time>
      </trkpt>
      <trkpt lat="40.295800" lon="-4.622317">
        <ele>1829.0</ele>
        <time>2015-03-15T14:44:03Z</time>
      </trkpt>
      <trkpt lat="40.295767" lon="-4.622117">
        <ele>1826.0</ele>
        <time>2015-03-15T14:44:05Z</time>
      </trkpt>
      <trkpt lat="40.295700" lon="-4.621917">
        <ele>1821.0</ele>
        <time>2015-03-15T14:44:07Z</time>
      </trkpt>
      <trkpt lat="40.295617" lon="-4.621717">
        <ele>1819.0</ele>
        <time>2015-03-15T14:44:09Z</time>
      </trkpt>
      <trkpt lat="40.295500" lon="-4.621550">
        <ele>1819.0</ele>
        <time>2015-03-15T14:44:11Z</time>
      </trkpt>
      <trkpt lat="40.295367" lon="-4.621383">
        <ele>1818.0</ele>
        <time>2015-03-15T14:44:13Z</time>
      </trkpt>
      <trkpt lat="40.295250" lon="-4.621233">
        <ele>1817.0</ele>
        <time>2015-03-15T14:44:15Z</time>
      </trkpt>
      <trkpt lat="40.295150" lon="-4.621067">
        <ele>1815.0</ele>
        <time>2015-03-15T14:44:17Z</time>
      </trkpt>
      <trkpt lat="40.295017" lon="-4.620883">
        <ele>1813.0</ele>
        <time>2015-03-15T14:44:19Z</time>
      </trkpt>
      <trkpt lat="40.294917" lon="-4.620700">
        <ele>1813.0</ele>
        <time>2015-03-15T14:44:21Z</time>
      </trkpt>
      <trkpt lat="40.294817" lon="-4.620533">
        <ele>1811.0</ele>
        <time>2015-03-15T14:44:23Z</time>
      </trkpt>
      <trkpt lat="40.294717" lon="-4.620317">
        <ele>1808.0</ele>
        <time>2015-03-15T14:44:25Z</time>
      </trkpt>
      <trkpt lat="40.294617" lon="-4.620117">
        <ele>1807.0</ele>
        <time>2015-03-15T14:44:27Z</time>
      </trkpt>
      <trkpt lat="40.294517" lon="-4.619933">
        <ele>1805.0</ele>
        <time>2015-03-15T14:44:29Z</time>
      </trkpt>
      <trkpt lat="40.294400" lon="-4.619717">
        <ele>1800.0</ele>
        <time>2015-03-15T14:44:31Z</time>
      </trkpt>
      <trkpt lat="40.294283" lon="-4.619500">
        <ele>1798.0</ele>
        <time>2015-03-15T14:44:33Z</time>
      </trkpt>
      <trkpt lat="40.294167" lon="-4.619333">
        <ele>1797.0</ele>
        <time>2015-03-15T14:44:35Z</time>
      </trkpt>
      <trkpt lat="40.294050" lon="-4.619167">
        <ele>1794.0</ele>
        <time>2015-03-15T14:44:37Z</time>
      </trkpt>
      <trkpt lat="40.293917" lon="-4.618983">
        <ele>1791.0</ele>
        <time>2015-03-15T14:44:39Z</time>
      </trkpt>
      <trkpt lat="40.293800" lon="-4.618800">
        <ele>1789.0</ele>
        <time>2015-03-15T14:44:41Z</time>
      </trkpt>
      <trkpt lat="40.293683" lon="-4.618650">
        <ele>1787.0</ele>
        <time>2015-03-15T14:44:43Z</time>
      </trkpt>
      <trkpt lat="40.293550" lon="-4.618483">
        <ele>1785.0</ele>
        <time>2015-03-15T14:44:45Z</time>
      </trkpt>
      <trkpt lat="40.293417" lon="-4.618317">
        <ele>1783.0</ele>
        <time>2015-03-15T14:44:47Z</time>
      </trkpt>
      <trkpt lat="40.293300" lon="-4.618167">
        <ele>1782.0</ele>
        <time>2015-03-15T14:44:49Z</time>
      </trkpt>
      <trkpt lat="40.293183" lon="-4.618017">
        <ele>1779.0</ele>
        <time>2015-03-15T14:44:51Z</time>
      </trkpt>
      <trkpt lat="40.293050" lon="-4.617833">
        <ele>1776.0</ele>
        <time>2015-03-15T14:44:53Z</time>
      </trkpt>
      <trkpt lat="40.292933" lon="-4.617667">
        <ele>1775.0</ele>
        <time>2015-03-15T14:44:55Z</time>
      </trkpt>
      <trkpt lat="40.292833" lon="-4.617517">
        <ele>1774.0</ele>
        <time>2015-03-15T14:44:57Z</time>
      </trkpt>
      <trkpt lat="40.292733" lon="-4.617367">
        <ele>1773.0</ele>
        <time>2015-03-15T14:44:59Z</time>
      </trkpt>
      <trkpt lat="40.292650" lon="-4.617217">
        <ele>1772.0</ele>
        <time>2015-03-15T14:45:01Z</time>
      </trkpt>
      <trkpt lat="40.292567" lon="-4.617050">
        <ele>1770.0</ele>
        <time>2015-03-15T14:45:03Z</time>
      </trkpt>
      <trkpt lat="40.292500" lon="-4.616883">
        <ele>1767.0</ele>
        <time>2015-03-15T14:45:05Z</time>
      </trkpt>
      <trkpt lat="40.292417" lon="-4.616700">
        <ele>1763.0</ele>
        <time>2015-03-15T14:45:07Z</time>
      </trkpt>
      <trkpt lat="40.292317" lon="-4.616533">
        <ele>1761.0</ele>
        <time>2015-03-15T14:45:09Z</time>
      </trkpt>
      <trkpt lat="40.292233" lon="-4.616417">
        <ele>1760.0</ele>
        <time>2015-03-15T14:45:11Z</time>
      </trkpt>
      <trkpt lat="40.292117" lon="-4.616283">
        <ele>1753.0</ele>
        <time>2015-03-15T14:45:13Z</time>
      </trkpt>
      <trkpt lat="40.292000" lon="-4.616117">
        <ele>1750.0</ele>
        <time>2015-03-15T14:45:15Z</time>
      </trkpt>
      <trkpt lat="40.291917" lon="-4.615950">
        <ele>1749.0</ele>
        <time>2015-03-15T14:45:17Z</time>
      </trkpt>
      <trkpt lat="40.291833" lon="-4.615833">
        <ele>1745.0</ele>
        <time>2015-03-15T14:45:19Z</time>
      </trkpt>
      <trkpt lat="40.291750" lon="-4.615667">
        <ele>1741.0</ele>
        <time>2015-03-15T14:45:21Z</time>
      </trkpt>
      <trkpt lat="40.291700" lon="-4.615500">
        <ele>1742.0</ele>
        <time>2015-03-15T14:45:23Z</time>
      </trkpt>
      <trkpt lat="40.291650" lon="-4.615350">
        <ele>1742.0</ele>
        <time>2015-03-15T14:45:25Z</time>
      </trkpt>
      <trkpt lat="40.291583" lon="-4.615200">
        <ele>1740.0</ele>
        <time>2015-03-15T14:45:27Z</time>
      </trkpt>
      <trkpt lat="40.291517" lon="-4.615033">
        <ele>1739.0</ele>
        <time>2015-03-15T14:45:29Z</time>
      </trkpt>
      <trkpt lat="40.291450" lon="-4.614850">
        <ele>1738.0</ele>
        <time>2015-03-15T14:45:31Z</time>
      </trkpt>
      <trkpt lat="40.291350" lon="-4.614683">
        <ele>1736.0</ele>
        <time>2015-03-15T14:45:33Z</time>
      </trkpt>
      <trkpt lat="40.291267" lon="-4.614500">
        <ele>1732.0</ele>
        <time>2015-03-15T14:45:35Z</time>
      </trkpt>
      <trkpt lat="40.291150" lon="-4.614300">
        <ele>1731.0</ele>
        <time>2015-03-15T14:45:37Z</time>
      </trkpt>
      <trkpt lat="40.291067" lon="-4.614133">
        <ele>1729.0</ele>
        <time>2015-03-15T14:45:39Z</time>
      </trkpt>
      <trkpt lat="40.290950" lon="-4.613933">
        <ele>1724.0</ele>
        <time>2015-03-15T14:45:41Z</time>
      </trkpt>
      <trkpt lat="40.290817" lon="-4.613750">
        <ele>1720.0</ele>
        <time>2015-03-15T14:45:43Z</time>
      </trkpt>
      <trkpt lat="40.290700" lon="-4.613600">
        <ele>1717.0</ele>
        <time>2015-03-15T14:45:45Z</time>
      </trkpt>
      <trkpt lat="40.290583" lon="-4.613400">
        <ele>1711.0</ele>
        <time>2015-03-15T14:45:47Z</time>
      </trkpt>
      <trkpt lat="40.290450" lon="-4.613200">
        <ele>1707.0</ele>
        <time>2015-03-15T14:45:49Z</time>
      </trkpt>
      <trkpt lat="40.290367" lon="-4.613000">
        <ele>1703.0</ele>
        <time>2015-03-15T14:45:51Z</time>
      </trkpt>
      <trkpt lat="40.290283" lon="-4.612800">
        <ele>1695.0</ele>
        <time>2015-03-15T14:45:53Z</time>
      </trkpt>
      <trkpt lat="40.290183" lon="-4.612583">
        <ele>1686.0</ele>
        <time>2015-03-15T14:45:55Z</time>
      </trkpt>
      <trkpt lat="40.290067" lon="-4.612400">
        <ele>1683.0</ele>
        <time>2015-03-15T14:45:57Z</time>
      </trkpt>
      <trkpt lat="40.289967" lon="-4.612233">
        <ele>1679.0</ele>
        <time>2015-03-15T14:45:59Z</time>
      </trkpt>
      <trkpt lat="40.289867" lon="-4.612050">
        <ele>1672.0</ele>
        <time>2015-03-15T14:46:01Z</time>
      </trkpt>
      <trkpt lat="40.289783" lon="-4.611850">
        <ele>1668.0</ele>
        <time>2015-03-15T14:46:03Z</time>
      </trkpt>
      <trkpt lat="40.289717" lon="-4.611667">
        <ele>1663.0</ele>
        <time>2015-03-15T14:46:05Z</time>
      </trkpt>
      <trkpt lat="40.289650" lon="-4.611467">
        <ele>1658.0</ele>
        <time>2015-03-15T14:46:07Z</time>
      </trkpt>
      <trkpt lat="40.289567" lon="-4.611283">
        <ele>1652.0</ele>
        <time>2015-03-15T14:46:09Z</time>
      </trkpt>
      <trkpt lat="40.289483" lon="-4.611100">
        <ele>1646.0</ele>
        <time>2015-03-15T14:46:11Z</time>
      </trkpt>
      <trkpt lat="40.289400" lon="-4.610900">
        <ele>1640.0</ele>
        <time>2015-03-15T14:46:13Z</time>
      </trkpt>
      <trkpt lat="40.289333" lon="-4.610717">
        <ele>1635.0</ele>
        <time>2015-03-15T14:46:15Z</time>
      </trkpt>
      <trkpt lat="40.289250" lon="-4.610533">
        <ele>1629.0</ele>
        <time>2015-03-15T14:46:17Z</time>
      </trkpt>
      <trkpt lat="40.289167" lon="-4.610317">
        <ele>1623.0</ele>
        <time>2015-03-15T14:46:19Z</time>
      </trkpt>
      <trkpt lat="40.289083" lon="-4.610117">
        <ele>1619.0</ele>
        <time>2015-03-15T14:46:21Z</time>
      </trkpt>
      <trkpt lat="40.289017" lon="-4.609917">
        <ele>1615.0</ele>
        <time>2015-03-15T14:46:23Z</time>
      </trkpt>
      <trkpt lat="40.288950" lon="-4.609717">
        <ele>1610.0</ele>
        <time>2015-03-15T14:46:25Z</time>
      </trkpt>
      <trkpt lat="40.288883" lon="-4.609500">
        <ele>1606.0</ele>
        <time>2015-03-15T14:46:27Z</time>
      </trkpt>
      <trkpt lat="40.288833" lon="-4.609283">
        <ele>1602.0</ele>
        <time>2015-03-15T14:46:29Z</time>
      </trkpt>
      <trkpt lat="40.288767" lon="-4.609083">
        <ele>1596.0</ele>
        <time>2015-03-15T14:46:31Z</time>
      </trkpt>
      <trkpt lat="40.288683" lon="-4.608850">
        <ele>1591.0</ele>
        <time>2015-03-15T14:46:33Z</time>
      </trkpt>
      <trkpt lat="40.288617" lon="-4.608667">
        <ele>1589.0</ele>
        <time>2015-03-15T14:46:35Z</time>
      </trkpt>
      <trkpt lat="40.288533" lon="-4.608500">
        <ele>1585.0</ele>
        <time>2015-03-15T14:46:37Z</time>
      </trkpt>
      <trkpt lat="40.288433" lon="-4.608317">
        <ele>1579.0</ele>
        <time>2015-03-15T14:46:39Z</time>
      </trkpt>
      <trkpt lat="40.288333" lon="-4.608150">
        <ele>1574.0</ele>
        <time>2015-03-15T14:46:41Z</time>
      </trkpt>
      <trkpt lat="40.288233" lon="-4.607967">
        <ele>1571.0</ele>
        <time>2015-03-15T14:46:43Z</time>
      </trkpt>
      <trkpt lat="40.288150" lon="-4.607783">
        <ele>1566.0</ele>
        <time>2015-03-15T14:46:45Z</time>
      </trkpt>
      <trkpt lat="40.288050" lon="-4.607600">
        <ele>1561.0</ele>
        <time>2015-03-15T14:46:47Z</time>
      </trkpt>
      <trkpt lat="40.287950" lon="-4.607417">
        <ele>1557.0</ele>
        <time>2015-03-15T14:46:49Z</time>
      </trkpt>
      <trkpt lat="40.287850" lon="-4.607267">
        <ele>1554.0</ele>
        <time>2015-03-15T14:46:51Z</time>
      </trkpt>
      <trkpt lat="40.287750" lon="-4.607117">
        <ele>1548.0</ele>
        <time>2015-03-15T14:46:53Z</time>
      </trkpt>
      <trkpt lat="40.287617" lon="-4.606950">
        <ele>1544.0</ele>
        <time>2015-03-15T14:46:55Z</time>
      </trkpt>
      <trkpt lat="40.287533" lon="-4.606800">
        <ele>1541.0</ele>
        <time>2015-03-15T14:46:57Z</time>
      </trkpt>
      <trkpt lat="40.287433" lon="-4.606633">
        <ele>1536.0</ele>
        <time>2015-03-15T14:46:59Z</time>
      </trkpt>
      <trkpt lat="40.287300" lon="-4.606483">
        <ele>1533.0</ele>
        <time>2015-03-15T14:47:01Z</time>
      </trkpt>
      <trkpt lat="40.287200" lon="-4.606367">
        <ele>1530.0</ele>
        <time>2015-03-15T14:47:03Z</time>
      </trkpt>
      <trkpt lat="40.287083" lon="-4.606217">
        <ele>1524.0</ele>
        <time>2015-03-15T14:47:05Z</time>
      </trkpt>
      <trkpt lat="40.286967" lon="-4.606083">
        <ele>1520.0</ele>
        <time>2015-03-15T14:47:07Z</time>
      </trkpt>
      <trkpt lat="40.286867" lon="-4.605933">
        <ele>1517.0</ele>
        <time>2015-03-15T14:47:09Z</time>
      </trkpt>
      <trkpt lat="40.286750" lon="-4.605783">
        <ele>1513.0</ele>
        <time>2015-03-15T14:47:11Z</time>
      </trkpt>
      <trkpt lat="40.286633" lon="-4.605617">
        <ele>1509.0</ele>
        <time>2015-03-15T14:47:13Z</time>
      </trkpt>
      <trkpt lat="40.286517" lon="-4.605450">
        <ele>1507.0</ele>
        <time>2015-03-15T14:47:15Z</time>
      </trkpt>
      <trkpt lat="40.286383" lon="-4.605300">
        <ele>1504.0</ele>
        <time>2015-03-15T14:47:17Z</time>
      </trkpt>
      <trkpt lat="40.286250" lon="-4.605150">
        <ele>1503.0</ele>
        <time>2015-03-15T14:47:19Z</time>
      </trkpt>
      <trkpt lat="40.286117" lon="-4.604983">
        <ele>1503.0</ele>
        <time>2015-03-15T14:47:21Z</time>
      </trkpt>
      <trkpt lat="40.286000" lon="-4.604833">
        <ele>1503.0</ele>
        <time>2015-03-15T14:47:23Z</time>
      </trkpt>
      <trkpt lat="40.285850" lon="-4.604667">
        <ele>1502.0</ele>
        <time>2015-03-15T14:47:25Z</time>
      </trkpt>
      <trkpt lat="40.285717" lon="-4.604517">
        <ele>1503.0</ele>
        <time>2015-03-15T14:47:27Z</time>
      </trkpt>
      <trkpt lat="40.285600" lon="-4.604350">
        <ele>1502.0</ele>
        <time>2015-03-15T14:47:29Z</time>
      </trkpt>
      <trkpt lat="40.285450" lon="-4.604200">
        <ele>1501.0</ele>
        <time>2015-03-15T14:47:31Z</time>
      </trkpt>
      <trkpt lat="40.285300" lon="-4.604033">
        <ele>1500.0</ele>
        <time>2015-03-15T14:47:33Z</time>
      </trkpt>
      <trkpt lat="40.285167" lon="-4.603850">
        <ele>1499.0</ele>
        <time>2015-03-15T14:47:35Z</time>
      </trkpt>
      <trkpt lat="40.285033" lon="-4.603683">
        <ele>1499.0</ele>
        <time>2015-03-15T14:47:37Z</time>
      </trkpt>
      <trkpt lat="40.284900" lon="-4.603500">
        <ele>1499.0</ele>
        <time>2015-03-15T14:47:39Z</time>
      </trkpt>
      <trkpt lat="40.284800" lon="-4.603333">
        <ele>1498.0</ele>
        <time>2015-03-15T14:47:41Z</time>
      </trkpt>
      <trkpt lat="40.284683" lon="-4.603150">
        <ele>1495.0</ele>
        <time>2015-03-15T14:47:43Z</time>
      </trkpt>
      <trkpt lat="40.284583" lon="-4.602967">
        <ele>1493.0</ele>
        <time>2015-03-15T14:47:45Z</time>
      </trkpt>
      <trkpt lat="40.284483" lon="-4.602783">
        <ele>1491.0</ele>
        <time>2015-03-15T14:47:47Z</time>
      </trkpt>
      <trkpt lat="40.284400" lon="-4.602617">
        <ele>1490.0</ele>
        <time>2015-03-15T14:47:49Z</time>
      </trkpt>
      <trkpt lat="40.284317" lon="-4.602450">
        <ele>1488.0</ele>
        <time>2015-03-15T14:47:51Z</time>
      </trkpt>
      <trkpt lat="40.284217" lon="-4.602283">
        <ele>1485.0</ele>
        <time>2015-03-15T14:47:53Z</time>
      </trkpt>
      <trkpt lat="40.284133" lon="-4.602083">
        <ele>1484.0</ele>
        <time>2015-03-15T14:47:55Z</time>
      </trkpt>
      <trkpt lat="40.284050" lon="-4.601883">
        <ele>1483.0</ele>
        <time>2015-03-15T14:47:57Z</time>
      </trkpt>
      <trkpt lat="40.283983" lon="-4.601667">
        <ele>1480.0</ele>
        <time>2015-03-15T14:47:59Z</time>
      </trkpt>
      <trkpt lat="40.283900" lon="-4.601450">
        <ele>1478.0</ele>
        <time>2015-03-15T14:48:01Z</time>
      </trkpt>
      <trkpt lat="40.283833" lon="-4.601267">
        <ele>1475.0</ele>
        <time>2015-03-15T14:48:03Z</time>
      </trkpt>
      <trkpt lat="40.283750" lon="-4.601067">
        <ele>1471.0</ele>
        <time>2015-03-15T14:48:05Z</time>
      </trkpt>
      <trkpt lat="40.283667" lon="-4.600850">
        <ele>1469.0</ele>
        <time>2015-03-15T14:48:07Z</time>
      </trkpt>
      <trkpt lat="40.283583" lon="-4.600667">
        <ele>1466.0</ele>
        <time>2015-03-15T14:48:09Z</time>
      </trkpt>
      <trkpt lat="40.283483" lon="-4.600467">
        <ele>1462.0</ele>
        <time>2015-03-15T14:48:11Z</time>
      </trkpt>
      <trkpt lat="40.283383" lon="-4.600267">
        <ele>1460.0</ele>
        <time>2015-03-15T14:48:13Z</time>
      </trkpt>
      <trkpt lat="40.283300" lon="-4.600067">
        <ele>1458.0</ele>
        <time>2015-03-15T14:48:15Z</time>
      </trkpt>
      <trkpt lat="40.283217" lon="-4.599900">
        <ele>1455.0</ele>
        <time>2015-03-15T14:48:17Z</time>
      </trkpt>
      <trkpt lat="40.283133" lon="-4.599733">
        <ele>1453.0</ele>
        <time>2015-03-15T14:48:19Z</time>
      </trkpt>
      <trkpt lat="40.283033" lon="-4.599567">
        <ele>1451.0</ele>
        <time>2015-03-15T14:48:21Z</time>
      </trkpt>
      <trkpt lat="40.282950" lon="-4.599417">
        <ele>1449.0</ele>
        <time>2015-03-15T14:48:23Z</time>
      </trkpt>
      <trkpt lat="40.282883" lon="-4.599250">
        <ele>1447.0</ele>
        <time>2015-03-15T14:48:25Z</time>
      </trkpt>
      <trkpt lat="40.282783" lon="-4.599100">
        <ele>1444.0</ele>
        <time>2015-03-15T14:48:27Z</time>
      </trkpt>
      <trkpt lat="40.282683" lon="-4.598950">
        <ele>1442.0</ele>
        <time>2015-03-15T14:48:29Z</time>
      </trkpt>
      <trkpt lat="40.282583" lon="-4.598800">
        <ele>1439.0</ele>
        <time>2015-03-15T14:48:31Z</time>
      </trkpt>
      <trkpt lat="40.282483" lon="-4.598650">
        <ele>1435.0</ele>
        <time>2015-03-15T14:48:33Z</time>
      </trkpt>
      <trkpt lat="40.282400" lon="-4.598500">
        <ele>1430.0</ele>
        <time>2015-03-15T14:48:35Z</time>
      </trkpt>
      <trkpt lat="40.282317" lon="-4.598333">
        <ele>1426.0</ele>
        <time>2015-03-15T14:48:37Z</time>
      </trkpt>
      <trkpt lat="40.282233" lon="-4.598183">
        <ele>1421.0</ele>
        <time>2015-03-15T14:48:39Z</time>
      </trkpt>
      <trkpt lat="40.282150" lon="-4.598033">
        <ele>1415.0</ele>
        <time>2015-03-15T14:48:41Z</time>
      </trkpt>
      <trkpt lat="40.282050" lon="-4.597900">
        <ele>1409.0</ele>
        <time>2015-03-15T14:48:43Z</time>
      </trkpt>
      <trkpt lat="40.281950" lon="-4.597750">
        <ele>1403.0</ele>
        <time>2015-03-15T14:48:45Z</time>
      </trkpt>
      <trkpt lat="40.281850" lon="-4.597600">
        <ele>1396.0</ele>
        <time>2015-03-15T14:48:47Z</time>
      </trkpt>
      <trkpt lat="40.281767" lon="-4.597433">
        <ele>1389.0</ele>
        <time>2015-03-15T14:48:49Z</time>
      </trkpt>
      <trkpt lat="40.281667" lon="-4.597267">
        <ele>1383.0</ele>
        <time>2015-03-15T14:48:51Z</time>
      </trkpt>
      <trkpt lat="40.281600" lon="-4.597133">
        <ele>1379.0</ele>
        <time>2015-03-15T14:48:53Z</time>
      </trkpt>
      <trkpt lat="40.281550" lon="-4.597017">
        <ele>1372.0</ele>
        <time>2015-03-15T14:48:55Z</time>
      </trkpt>
      <trkpt lat="40.281450" lon="-4.596850">
        <ele>1364.0</ele>
        <time>2015-03-15T14:48:57Z</time>
      </trkpt>
      <trkpt lat="40.281350" lon="-4.596717">
        <ele>1359.0</ele>
        <time>2015-03-15T14:48:59Z</time>
      </trkpt>
      <trkpt lat="40.281267" lon="-4.596567">
        <ele>1354.0</ele>
        <time>2015-03-15T14:49:01Z</time>
      </trkpt>
      <trkpt lat="40.281183" lon="-4.596400">
        <ele>1350.0</ele>
        <time>2015-03-15T14:49:03Z</time>
      </trkpt>
      <trkpt lat="40.281100" lon="-4.596250">
        <ele>1346.0</ele>
        <time>2015-03-15T14:49:05Z</time>
      </trkpt>
      <trkpt lat="40.281017" lon="-4.596083">
        <ele>1340.0</ele>
        <time>2015-03-15T14:49:07Z</time>
      </trkpt>
      <trkpt lat="40.280917" lon="-4.595900">
        <ele>1335.0</ele>
        <time>2015-03-15T14:49:09Z</time>
      </trkpt>
      <trkpt lat="40.280833" lon="-4.595733">
        <ele>1330.0</ele>
        <time>2015-03-15T14:49:11Z</time>
      </trkpt>
      <trkpt lat="40.280733" lon="-4.595533">
        <ele>1326.0</ele>
        <time>2015-03-15T14:49:13Z</time>
      </trkpt>
      <trkpt lat="40.280633" lon="-4.595367">
        <ele>1325.0</ele>
        <time>2015-03-15T14:49:15Z</time>
      </trkpt>
      <trkpt lat="40.280550" lon="-4.595167">
        <ele>1322.0</ele>
        <time>2015-03-15T14:49:17Z</time>
      </trkpt>
      <trkpt lat="40.280467" lon="-4.594950">
        <ele>1318.0</ele>
        <time>2015-03-15T14:49:19Z</time>
      </trkpt>
      <trkpt lat="40.280367" lon="-4.594733">
        <ele>1316.0</ele>
        <time>2015-03-15T14:49:21Z</time>
      </trkpt>
      <trkpt lat="40.280283" lon="-4.594517">
        <ele>1314.0</ele>
        <time>2015-03-15T14:49:23Z</time>
      </trkpt>
      <trkpt lat="40.280183" lon="-4.594317">
        <ele>1313.0</ele>
        <time>2015-03-15T14:49:25Z</time>
      </trkpt>
      <trkpt lat="40.280083" lon="-4.594117">
        <ele>1313.0</ele>
        <time>2015-03-15T14:49:27Z</time>
      </trkpt>
      <trkpt lat="40.279967" lon="-4.593917">
        <ele>1312.0</ele>
        <time>2015-03-15T14:49:29Z</time>
      </trkpt>
      <trkpt lat="40.279850" lon="-4.593733">
        <ele>1310.0</ele>
        <time>2015-03-15T14:49:31Z</time>
      </trkpt>
      <trkpt lat="40.279717" lon="-4.593533">
        <ele>1308.0</ele>
        <time>2015-03-15T14:49:33Z</time>
      </trkpt>
      <trkpt lat="40.279600" lon="-4.593317">
        <ele>1305.0</ele>
        <time>2015-03-15T14:49:35Z</time>
      </trkpt>
      <trkpt lat="40.279450" lon="-4.593117">
        <ele>1306.0</ele>
        <time>2015-03-15T14:49:37Z</time>
      </trkpt>
      <trkpt lat="40.279350" lon="-4.592933">
        <ele>1306.0</ele>
        <time>2015-03-15T14:49:39Z</time>
      </trkpt>
      <trkpt lat="40.279233" lon="-4.592733">
        <ele>1303.0</ele>
        <time>2015-03-15T14:49:41Z</time>
      </trkpt>
      <trkpt lat="40.279100" lon="-4.592533">
        <ele>1302.0</ele>
        <time>2015-03-15T14:49:43Z</time>
      </trkpt>
      <trkpt lat="40.278983" lon="-4.592333">
        <ele>1301.0</ele>
        <time>2015-03-15T14:49:45Z</time>
      </trkpt>
      <trkpt lat="40.278883" lon="-4.592150">
        <ele>1298.0</ele>
        <time>2015-03-15T14:49:47Z</time>
      </trkpt>
      <trkpt lat="40.278783" lon="-4.591917">
        <ele>1294.0</ele>
        <time>2015-03-15T14:49:49Z</time>
      </trkpt>
      <trkpt lat="40.278683" lon="-4.591667">
        <ele>1291.0</ele>
        <time>2015-03-15T14:49:51Z</time>
      </trkpt>
      <trkpt lat="40.278533" lon="-4.591483">
        <ele>1287.0</ele>
        <time>2015-03-15T14:49:53Z</time>
      </trkpt>
      <trkpt lat="40.278383" lon="-4.591283">
        <ele>1285.0</ele>
        <time>2015-03-15T14:49:55Z</time>
      </trkpt>
      <trkpt lat="40.278233" lon="-4.591083">
        <ele>1282.0</ele>
        <time>2015-03-15T14:49:57Z</time>
      </trkpt>
      <trkpt lat="40.278067" lon="-4.590883">
        <ele>1278.0</ele>
        <time>2015-03-15T14:49:59Z</time>
      </trkpt>
      <trkpt lat="40.277900" lon="-4.590683">
        <ele>1276.0</ele>
        <time>2015-03-15T14:50:01Z</time>
      </trkpt>
      <trkpt lat="40.277750" lon="-4.590517">
        <ele>1274.0</ele>
        <time>2015-03-15T14:50:03Z</time>
      </trkpt>
      <trkpt lat="40.277550" lon="-4.590350">
        <ele>1271.0</ele>
        <time>2015-03-15T14:50:05Z</time>
      </trkpt>
      <trkpt lat="40.277367" lon="-4.590200">
        <ele>1268.0</ele>
        <time>2015-03-15T14:50:07Z</time>
      </trkpt>
      <trkpt lat="40.277200" lon="-4.590017">
        <ele>1266.0</ele>
        <time>2015-03-15T14:50:09Z</time>
      </trkpt>
      <trkpt lat="40.277033" lon="-4.589867">
        <ele>1263.0</ele>
        <time>2015-03-15T14:50:11Z</time>
      </trkpt>
      <trkpt lat="40.276833" lon="-4.589750">
        <ele>1260.0</ele>
        <time>2015-03-15T14:50:13Z</time>
      </trkpt>
      <trkpt lat="40.276683" lon="-4.589600">
        <ele>1258.0</ele>
        <time>2015-03-15T14:50:15Z</time>
      </trkpt>
      <trkpt lat="40.276533" lon="-4.589417">
        <ele>1256.0</ele>
        <time>2015-03-15T14:50:17Z</time>
      </trkpt>
      <trkpt lat="40.276383" lon="-4.589233">
        <ele>1254.0</ele>
        <time>2015-03-15T14:50:19Z</time>
      </trkpt>
      <trkpt lat="40.276233" lon="-4.589033">
        <ele>1253.0</ele>
        <time>2015-03-15T14:50:21Z</time>
      </trkpt>
      <trkpt lat="40.276100" lon="-4.588850">
        <ele>1252.0</ele>
        <time>2015-03-15T14:50:23Z</time>
      </trkpt>
      <trkpt lat="40.275967" lon="-4.588650">
        <ele>1250.0</ele>
        <time>2015-03-15T14:50:25Z</time>
      </trkpt>
      <trkpt lat="40.275850" lon="-4.588433">
        <ele>1249.0</ele>
        <time>2015-03-15T14:50:27Z</time>
      </trkpt>
      <trkpt lat="40.275733" lon="-4.588217">
        <ele>1247.0</ele>
        <time>2015-03-15T14:50:29Z</time>
      </trkpt>
      <trkpt lat="40.275633" lon="-4.588000">
        <ele>1246.0</ele>
        <time>2015-03-15T14:50:31Z</time>
      </trkpt>
      <trkpt lat="40.275533" lon="-4.587783">
        <ele>1244.0</ele>
        <time>2015-03-15T14:50:33Z</time>
      </trkpt>
      <trkpt lat="40.275433" lon="-4.587567">
        <ele>1242.0</ele>
        <time>2015-03-15T14:50:35Z</time>
      </trkpt>
      <trkpt lat="40.275317" lon="-4.587367">
        <ele>1241.0</ele>
        <time>2015-03-15T14:50:37Z</time>
      </trkpt>
      <trkpt lat="40.275200" lon="-4.587167">
        <ele>1238.0</ele>
        <time>2015-03-15T14:50:39Z</time>
      </trkpt>
      <trkpt lat="40.275067" lon="-4.586967">
        <ele>1236.0</ele>
        <time>2015-03-15T14:50:41Z</time>
      </trkpt>
      <trkpt lat="40.274950" lon="-4.586767">
        <ele>1235.0</ele>
        <time>2015-03-15T14:50:43Z</time>
      </trkpt>
      <trkpt lat="40.274833" lon="-4.586583">
        <ele>1232.0</ele>
        <time>2015-03-15T14:50:45Z</time>
      </trkpt>
      <trkpt lat="40.274700" lon="-4.586367">
        <ele>1228.0</ele>
        <time>2015-03-15T14:50:47Z</time>
      </trkpt>
      <trkpt lat="40.274567" lon="-4.586183">
        <ele>1227.0</ele>
        <time>2015-03-15T14:50:49Z</time>
      </trkpt>
      <trkpt lat="40.274433" lon="-4.586017">
        <ele>1227.0</ele>
        <time>2015-03-15T14:50:51Z</time>
      </trkpt>
      <trkpt lat="40.274333" lon="-4.585833">
        <ele>1227.0</ele>
        <time>2015-03-15T14:50:53Z</time>
      </trkpt>
      <trkpt lat="40.274250" lon="-4.585633">
        <ele>1226.0</ele>
        <time>2015-03-15T14:50:55Z</time>
      </trkpt>
      <trkpt lat="40.274150" lon="-4.585433">
        <ele>1226.0</ele>
        <time>2015-03-15T14:50:57Z</time>
      </trkpt>
      <trkpt lat="40.274033" lon="-4.585250">
        <ele>1225.0</ele>
        <time>2015-03-15T14:50:59Z</time>
      </trkpt>
      <trkpt lat="40.273933" lon="-4.585050">
        <ele>1224.0</ele>
        <time>2015-03-15T14:51:01Z</time>
      </trkpt>
      <trkpt lat="40.273817" lon="-4.584850">
        <ele>1222.0</ele>
        <time>2015-03-15T14:51:03Z</time>
      </trkpt>
      <trkpt lat="40.273700" lon="-4.584650">
        <ele>1222.0</ele>
        <time>2015-03-15T14:51:05Z</time>
      </trkpt>
      <trkpt lat="40.273600" lon="-4.584433">
        <ele>1221.0</ele>
        <time>2015-03-15T14:51:07Z</time>
      </trkpt>
      <trkpt lat="40.273517" lon="-4.584233">
        <ele>1220.0</ele>
        <time>2015-03-15T14:51:09Z</time>
      </trkpt>
      <trkpt lat="40.273433" lon="-4.584000">
        <ele>1218.0</ele>
        <time>2015-03-15T14:51:11Z</time>
      </trkpt>
      <trkpt lat="40.273333" lon="-4.583783">
        <ele>1218.0</ele>
        <time>2015-03-15T14:51:13Z</time>
      </trkpt>
      <trkpt lat="40.273250" lon="-4.583583">
        <ele>1218.0</ele>
        <time>2015-03-15T14:51:15Z</time>
      </trkpt>
      <trkpt lat="40.273150" lon="-4.583383">
        <ele>1216.0</ele>
        <time>2015-03-15T14:51:17Z</time>
      </trkpt>
      <trkpt lat="40.273067" lon="-4.583150">
        <ele>1213.0</ele>
        <time>2015-03-15T14:51:19Z</time>
      </trkpt>
      <trkpt lat="40.273000" lon="-4.583050">
        <ele>1213.0</ele>
        <time>2015-03-15T14:51:20Z</time>
      </trkpt>
      <trkpt lat="40.272900" lon="-4.582850">
        <ele>1213.0</ele>
        <time>2015-03-15T14:51:22Z</time>
      </trkpt>
      <trkpt lat="40.272800" lon="-4.582667">
        <ele>1212.0</ele>
        <time>2015-03-15T14:51:24Z</time>
      </trkpt>
      <trkpt lat="40.272683" lon="-4.582450">
        <ele>1211.0</ele>
        <time>2015-03-15T14:51:26Z</time>
      </trkpt>
      <trkpt lat="40.272583" lon="-4.582267">
        <ele>1211.0</ele>
        <time>2015-03-15T14:51:28Z</time>
      </trkpt>
      <trkpt lat="40.272483" lon="-4.582083">
        <ele>1208.0</ele>
        <time>2015-03-15T14:51:30Z</time>
      </trkpt>
      <trkpt lat="40.272367" lon="-4.581867">
        <ele>1204.0</ele>
        <time>2015-03-15T14:51:32Z</time>
      </trkpt>
      <trkpt lat="40.272267" lon="-4.581650">
        <ele>1202.0</ele>
        <time>2015-03-15T14:51:34Z</time>
      </trkpt>
      <trkpt lat="40.272167" lon="-4.581433">
        <ele>1201.0</ele>
        <time>2015-03-15T14:51:36Z</time>
      </trkpt>
      <trkpt lat="40.272067" lon="-4.581250">
        <ele>1200.0</ele>
        <time>2015-03-15T14:51:38Z</time>
      </trkpt>
      <trkpt lat="40.271950" lon="-4.581067">
        <ele>1200.0</ele>
        <time>2015-03-15T14:51:40Z</time>
      </trkpt>
      <trkpt lat="40.271850" lon="-4.580900">
        <ele>1199.0</ele>
        <time>2015-03-15T14:51:42Z</time>
      </trkpt>
      <trkpt lat="40.271750" lon="-4.580733">
        <ele>1198.0</ele>
        <time>2015-03-15T14:51:44Z</time>
      </trkpt>
      <trkpt lat="40.271667" lon="-4.580567">
        <ele>1196.0</ele>
        <time>2015-03-15T14:51:46Z</time>
      </trkpt>
      <trkpt lat="40.271567" lon="-4.580400">
        <ele>1193.0</ele>
        <time>2015-03-15T14:51:48Z</time>
      </trkpt>
      <trkpt lat="40.271467" lon="-4.580217">
        <ele>1189.0</ele>
        <time>2015-03-15T14:51:50Z</time>
      </trkpt>
      <trkpt lat="40.271367" lon="-4.580083">
        <ele>1189.0</ele>
        <time>2015-03-15T14:51:52Z</time>
      </trkpt>
      <trkpt lat="40.271283" lon="-4.579950">
        <ele>1185.0</ele>
        <time>2015-03-15T14:51:54Z</time>
      </trkpt>
      <trkpt lat="40.271183" lon="-4.579783">
        <ele>1179.0</ele>
        <time>2015-03-15T14:51:56Z</time>
      </trkpt>
      <trkpt lat="40.271083" lon="-4.579617">
        <ele>1176.0</ele>
        <time>2015-03-15T14:51:58Z</time>
      </trkpt>
      <trkpt lat="40.271000" lon="-4.579467">
        <ele>1174.0</ele>
        <time>2015-03-15T14:52:00Z</time>
      </trkpt>
      <trkpt lat="40.270883" lon="-4.579317">
        <ele>1169.0</ele>
        <time>2015-03-15T14:52:02Z</time>
      </trkpt>
      <trkpt lat="40.270767" lon="-4.579133">
        <ele>1164.0</ele>
        <time>2015-03-15T14:52:04Z</time>
      </trkpt>
      <trkpt lat="40.270650" lon="-4.578950">
        <ele>1159.0</ele>
        <time>2015-03-15T14:52:06Z</time>
      </trkpt>
      <trkpt lat="40.270533" lon="-4.578783">
        <ele>1156.0</ele>
        <time>2015-03-15T14:52:08Z</time>
      </trkpt>
      <trkpt lat="40.270433" lon="-4.578633">
        <ele>1153.0</ele>
        <time>2015-03-15T14:52:10Z</time>
      </trkpt>
      <trkpt lat="40.270350" lon="-4.578450">
        <ele>1149.0</ele>
        <time>2015-03-15T14:52:12Z</time>
      </trkpt>
      <trkpt lat="40.270267" lon="-4.578267">
        <ele>1148.0</ele>
        <time>2015-03-15T14:52:14Z</time>
      </trkpt>
      <trkpt lat="40.270183" lon="-4.578117">
        <ele>1146.0</ele>
        <time>2015-03-15T14:52:16Z</time>
      </trkpt>
      <trkpt lat="40.270100" lon="-4.578000">
        <ele>1141.0</ele>
        <time>2015-03-15T14:52:18Z</time>
      </trkpt>
      <trkpt lat="40.270017" lon="-4.577817">
        <ele>1135.0</ele>
        <time>2015-03-15T14:52:20Z</time>
      </trkpt>
      <trkpt lat="40.269933" lon="-4.577650">
        <ele>1132.0</ele>
        <time>2015-03-15T14:52:22Z</time>
      </trkpt>
      <trkpt lat="40.269883" lon="-4.577550">
        <ele>1130.0</ele>
        <time>2015-03-15T14:52:24Z</time>
      </trkpt>
      <trkpt lat="40.269817" lon="-4.577433">
        <ele>1122.0</ele>
        <time>2015-03-15T14:52:26Z</time>
      </trkpt>
      <trkpt lat="40.269733" lon="-4.577267">
        <ele>1115.0</ele>
        <time>2015-03-15T14:52:28Z</time>
      </trkpt>
      <trkpt lat="40.269650" lon="-4.577067">
        <ele>1112.0</ele>
        <time>2015-03-15T14:52:30Z</time>
      </trkpt>
      <trkpt lat="40.269550" lon="-4.576917">
        <ele>1111.0</ele>
        <time>2015-03-15T14:52:32Z</time>
      </trkpt>
      <trkpt lat="40.269450" lon="-4.576817">
        <ele>1107.0</ele>
        <time>2015-03-15T14:52:34Z</time>
      </trkpt>
      <trkpt lat="40.269333" lon="-4.576667">
        <ele>1102.0</ele>
        <time>2015-03-15T14:52:36Z</time>
      </trkpt>
      <trkpt lat="40.269167" lon="-4.576500">
        <ele>1101.0</ele>
        <time>2015-03-15T14:52:38Z</time>
      </trkpt>
      <trkpt lat="40.269033" lon="-4.576383">
        <ele>1104.0</ele>
        <time>2015-03-15T14:52:40Z</time>
      </trkpt>
      <trkpt lat="40.268900" lon="-4.576300">
        <ele>1102.0</ele>
        <time>2015-03-15T14:52:42Z</time>
      </trkpt>
      <trkpt lat="40.268750" lon="-4.576183">
        <ele>1099.0</ele>
        <time>2015-03-15T14:52:44Z</time>
      </trkpt>
      <trkpt lat="40.268617" lon="-4.576067">
        <ele>1099.0</ele>
        <time>2015-03-15T14:52:46Z</time>
      </trkpt>
      <trkpt lat="40.268517" lon="-4.575950">
        <ele>1096.0</ele>
        <time>2015-03-15T14:52:48Z</time>
      </trkpt>
      <trkpt lat="40.268383" lon="-4.575800">
        <ele>1093.0</ele>
        <time>2015-03-15T14:52:50Z</time>
      </trkpt>
      <trkpt lat="40.268267" lon="-4.575617">
        <ele>1093.0</ele>
        <time>2015-03-15T14:52:52Z</time>
      </trkpt>
      <trkpt lat="40.268150" lon="-4.575483">
        <ele>1094.0</ele>
        <time>2015-03-15T14:52:54Z</time>
      </trkpt>
      <trkpt lat="40.268017" lon="-4.575333">
        <ele>1094.0</ele>
        <time>2015-03-15T14:52:56Z</time>
      </trkpt>
      <trkpt lat="40.267917" lon="-4.575167">
        <ele>1094.0</ele>
        <time>2015-03-15T14:52:58Z</time>
      </trkpt>
      <trkpt lat="40.267833" lon="-4.575017">
        <ele>1095.0</ele>
        <time>2015-03-15T14:53:00Z</time>
      </trkpt>
      <trkpt lat="40.267733" lon="-4.574867">
        <ele>1094.0</ele>
        <time>2015-03-15T14:53:02Z</time>
      </trkpt>
      <trkpt lat="40.267667" lon="-4.574683">
        <ele>1094.0</ele>
        <time>2015-03-15T14:53:04Z</time>
      </trkpt>
      <trkpt lat="40.267617" lon="-4.574533">
        <ele>1095.0</ele>
        <time>2015-03-15T14:53:06Z</time>
      </trkpt>
      <trkpt lat="40.267550" lon="-4.574383">
        <ele>1094.0</ele>
        <time>2015-03-15T14:53:08Z</time>
      </trkpt>
      <trkpt lat="40.267483" lon="-4.574233">
        <ele>1093.0</ele>
        <time>2015-03-15T14:53:10Z</time>
      </trkpt>
      <trkpt lat="40.267450" lon="-4.574150">
        <ele>1092.0</ele>
        <time>2015-03-15T14:53:11Z</time>
      </trkpt>
      <trkpt lat="40.267383" lon="-4.573983">
        <ele>1092.0</ele>
        <time>2015-03-15T14:53:13Z</time>
      </trkpt>
      <trkpt lat="40.267333" lon="-4.573800">
        <ele>1092.0</ele>
        <time>2015-03-15T14:53:15Z</time>
      </trkpt>
      <trkpt lat="40.267267" lon="-4.573633">
        <ele>1095.0</ele>
        <time>2015-03-15T14:53:17Z</time>
      </trkpt>
      <trkpt lat="40.267183" lon="-4.573467">
        <ele>1099.0</ele>
        <time>2015-03-15T14:53:19Z</time>
      </trkpt>
      <trkpt lat="40.267183" lon="-4.573350">
        <ele>1101.0</ele>
        <time>2015-03-15T14:53:21Z</time>
      </trkpt>
      <trkpt lat="40.267300" lon="-4.573350">
        <ele>1101.0</ele>
        <time>2015-03-15T14:53:23Z</time>
      </trkpt>
      <trkpt lat="40.267383" lon="-4.573517">
        <ele>1106.0</ele>
        <time>2015-03-15T14:53:25Z</time>
      </trkpt>
      <trkpt lat="40.267350" lon="-4.573750">
        <ele>1111.0</ele>
        <time>2015-03-15T14:53:27Z</time>
      </trkpt>
      <trkpt lat="40.267350" lon="-4.574000">
        <ele>1112.0</ele>
        <time>2015-03-15T14:53:29Z</time>
      </trkpt>
      <trkpt lat="40.267383" lon="-4.574283">
        <ele>1115.0</ele>
        <time>2015-03-15T14:53:31Z</time>
      </trkpt>
      <trkpt lat="40.267350" lon="-4.574550">
        <ele>1120.0</ele>
        <time>2015-03-15T14:53:33Z</time>
      </trkpt>
      <trkpt lat="40.267300" lon="-4.574800">
        <ele>1122.0</ele>
        <time>2015-03-15T14:53:35Z</time>
      </trkpt>
      <trkpt lat="40.267300" lon="-4.575083">
        <ele>1122.0</ele>
        <time>2015-03-15T14:53:37Z</time>
      </trkpt>
      <trkpt lat="40.267300" lon="-4.575333">
        <ele>1123.0</ele>
        <time>2015-03-15T14:53:39Z</time>
      </trkpt>
      <trkpt lat="40.267300" lon="-4.575600">
        <ele>1123.0</ele>
        <time>2015-03-15T14:53:41Z</time>
      </trkpt>
      <trkpt lat="40.267283" lon="-4.575883">
        <ele>1123.0</ele>
        <time>2015-03-15T14:53:43Z</time>
      </trkpt>
      <trkpt lat="40.267283" lon="-4.576167">
        <ele>1123.0</ele>
        <time>2015-03-15T14:53:45Z</time>
      </trkpt>
      <trkpt lat="40.267250" lon="-4.576467">
        <ele>1123.0</ele>
        <time>2015-03-15T14:53:47Z</time>
      </trkpt>
      <trkpt lat="40.267233" lon="-4.576750">
        <ele>1122.0</ele>
        <time>2015-03-15T14:53:49Z</time>
      </trkpt>
      <trkpt lat="40.267217" lon="-4.577050">
        <ele>1118.0</ele>
        <time>2015-03-15T14:53:51Z</time>
      </trkpt>
      <trkpt lat="40.267217" lon="-4.577350">
        <ele>1116.0</ele>
        <time>2015-03-15T14:53:53Z</time>
      </trkpt>
      <trkpt lat="40.267200" lon="-4.577600">
        <ele>1114.0</ele>
        <time>2015-03-15T14:53:55Z</time>
      </trkpt>
      <trkpt lat="40.267200" lon="-4.577867">
        <ele>1109.0</ele>
        <time>2015-03-15T14:53:57Z</time>
      </trkpt>
      <trkpt lat="40.267217" lon="-4.578167">
        <ele>1104.0</ele>
        <time>2015-03-15T14:53:59Z</time>
      </trkpt>
      <trkpt lat="40.267217" lon="-4.578467">
        <ele>1104.0</ele>
        <time>2015-03-15T14:54:01Z</time>
      </trkpt>
      <trkpt lat="40.267217" lon="-4.578683">
        <ele>1104.0</ele>
        <time>2015-03-15T14:54:03Z</time>
      </trkpt>
      <trkpt lat="40.267200" lon="-4.578917">
        <ele>1099.0</ele>
        <time>2015-03-15T14:54:05Z</time>
      </trkpt>
      <trkpt lat="40.267200" lon="-4.579233">
        <ele>1093.0</ele>
        <time>2015-03-15T14:54:07Z</time>
      </trkpt>
      <trkpt lat="40.267217" lon="-4.579500">
        <ele>1094.0</ele>
        <time>2015-03-15T14:54:09Z</time>
      </trkpt>
      <trkpt lat="40.267167" lon="-4.579717">
        <ele>1093.0</ele>
        <time>2015-03-15T14:54:11Z</time>
      </trkpt>
      <trkpt lat="40.267100" lon="-4.579983">
        <ele>1087.0</ele>
        <time>2015-03-15T14:54:13Z</time>
      </trkpt>
      <trkpt lat="40.267000" lon="-4.580250">
        <ele>1085.0</ele>
        <time>2015-03-15T14:54:15Z</time>
      </trkpt>
      <trkpt lat="40.266883" lon="-4.580450">
        <ele>1082.0</ele>
        <time>2015-03-15T14:54:17Z</time>
      </trkpt>
      <trkpt lat="40.266733" lon="-4.580667">
        <ele>1076.0</ele>
        <time>2015-03-15T14:54:19Z</time>
      </trkpt>
      <trkpt lat="40.266583" lon="-4.580900">
        <ele>1071.0</ele>
        <time>2015-03-15T14:54:21Z</time>
      </trkpt>
      <trkpt lat="40.266417" lon="-4.581067">
        <ele>1068.0</ele>
        <time>2015-03-15T14:54:23Z</time>
      </trkpt>
      <trkpt lat="40.266267" lon="-4.581233">
        <ele>1061.0</ele>
        <time>2015-03-15T14:54:25Z</time>
      </trkpt>
      <trkpt lat="40.266067" lon="-4.581400">
        <ele>1053.0</ele>
        <time>2015-03-15T14:54:27Z</time>
      </trkpt>
      <trkpt lat="40.265867" lon="-4.581450">
        <ele>1048.0</ele>
        <time>2015-03-15T14:54:29Z</time>
      </trkpt>
      <trkpt lat="40.265733" lon="-4.581350">
        <ele>1044.0</ele>
        <time>2015-03-15T14:54:31Z</time>
      </trkpt>
      <trkpt lat="40.265783" lon="-4.581250">
        <ele>1040.0</ele>
        <time>2015-03-15T14:54:33Z</time>
      </trkpt>
      <trkpt lat="40.265933" lon="-4.581433">
        <ele>1035.0</ele>
        <time>2015-03-15T14:54:35Z</time>
      </trkpt>
      <trkpt lat="40.265850" lon="-4.581783">
        <ele>1030.0</ele>
        <time>2015-03-15T14:54:37Z</time>
      </trkpt>
      <trkpt lat="40.265617" lon="-4.581917">
        <ele>1025.0</ele>
        <time>2015-03-15T14:54:39Z</time>
      </trkpt>
      <trkpt lat="40.265500" lon="-4.581767">
        <ele>1020.0</ele>
        <time>2015-03-15T14:54:41Z</time>
      </trkpt>
      <trkpt lat="40.265633" lon="-4.581750">
        <ele>1013.0</ele>
        <time>2015-03-15T14:54:43Z</time>
      </trkpt>
      <trkpt lat="40.265717" lon="-4.582067">
        <ele>1010.0</ele>
        <time>2015-03-15T14:54:45Z</time>
      </trkpt>
      <trkpt lat="40.265583" lon="-4.582367">
        <ele>1008.0</ele>
        <time>2015-03-15T14:54:47Z</time>
      </trkpt>
      <trkpt lat="40.265383" lon="-4.582500">
        <ele>1004.0</ele>
        <time>2015-03-15T14:54:49Z</time>
      </trkpt>
      <trkpt lat="40.265217" lon="-4.582550">
        <ele>997.0</ele>
        <time>2015-03-15T14:54:51Z</time>
      </trkpt>
      <trkpt lat="40.265017" lon="-4.582483">
        <ele>989.0</ele>
        <time>2015-03-15T14:54:53Z</time>
      </trkpt>
      <trkpt lat="40.265000" lon="-4.582300">
        <ele>985.0</ele>
        <time>2015-03-15T14:54:55Z</time>
      </trkpt>
      <trkpt lat="40.265117" lon="-4.582300">
        <ele>985.0</ele>
        <time>2015-03-15T14:54:57Z</time>
      </trkpt>
      <trkpt lat="40.265217" lon="-4.582417">
        <ele>986.0</ele>
        <time>2015-03-15T14:54:59Z</time>
      </trkpt>
      <trkpt lat="40.265317" lon="-4.582483">
        <ele>982.0</ele>
        <time>2015-03-15T14:55:01Z</time>
      </trkpt>
      <trkpt lat="40.265433" lon="-4.582533">
        <ele>979.0</ele>
        <time>2015-03-15T14:55:03Z</time>
      </trkpt>
      <trkpt lat="40.265500" lon="-4.582467">
        <ele>977.0</ele>
        <time>2015-03-15T14:55:05Z</time>
      </trkpt>
      <trkpt lat="40.265383" lon="-4.582317">
        <ele>972.0</ele>
        <time>2015-03-15T14:55:07Z</time>
      </trkpt>
      <trkpt lat="40.265150" lon="-4.582333">
        <ele>970.0</ele>
        <time>2015-03-15T14:55:09Z</time>
      </trkpt>
      <trkpt lat="40.264967" lon="-4.582583">
        <ele>966.0</ele>
        <time>2015-03-15T14:55:11Z</time>
      </trkpt>
      <trkpt lat="40.264950" lon="-4.582917">
        <ele>962.0</ele>
        <time>2015-03-15T14:55:13Z</time>
      </trkpt>
      <trkpt lat="40.265067" lon="-4.583033">
        <ele>958.0</ele>
        <time>2015-03-15T14:55:15Z</time>
      </trkpt>
      <trkpt lat="40.265100" lon="-4.582883">
        <ele>952.0</ele>
        <time>2015-03-15T14:55:17Z</time>
      </trkpt>
      <trkpt lat="40.264900" lon="-4.582783">
        <ele>948.0</ele>
        <time>2015-03-15T14:55:19Z</time>
      </trkpt>
      <trkpt lat="40.264667" lon="-4.582983">
        <ele>944.0</ele>
        <time>2015-03-15T14:55:21Z</time>
      </trkpt>
      <trkpt lat="40.264567" lon="-4.583317">
        <ele>941.0</ele>
        <time>2015-03-15T14:55:23Z</time>
      </trkpt>
      <trkpt lat="40.264617" lon="-4.583600">
        <ele>939.0</ele>
        <time>2015-03-15T14:55:25Z</time>
      </trkpt>
      <trkpt lat="40.264733" lon="-4.583700">
        <ele>936.0</ele>
        <time>2015-03-15T14:55:27Z</time>
      </trkpt>
      <trkpt lat="40.264817" lon="-4.583583">
        <ele>931.0</ele>
        <time>2015-03-15T14:55:29Z</time>
      </trkpt>
      <trkpt lat="40.264717" lon="-4.583400">
        <ele>928.0</ele>
        <time>2015-03-15T14:55:31Z</time>
      </trkpt>
      <trkpt lat="40.264483" lon="-4.583433">
        <ele>926.0</ele>
        <time>2015-03-15T14:55:33Z</time>
      </trkpt>
      <trkpt lat="40.264283" lon="-4.583650">
        <ele>922.0</ele>
        <time>2015-03-15T14:55:35Z</time>
      </trkpt>
      <trkpt lat="40.264167" lon="-4.583933">
        <ele>916.0</ele>
        <time>2015-03-15T14:55:37Z</time>
      </trkpt>
      <trkpt lat="40.264150" lon="-4.584267">
        <ele>914.0</ele>
        <time>2015-03-15T14:55:39Z</time>
      </trkpt>
      <trkpt lat="40.264267" lon="-4.584433">
        <ele>910.0</ele>
        <time>2015-03-15T14:55:41Z</time>
      </trkpt>
      <trkpt lat="40.264383" lon="-4.584417">
        <ele>905.0</ele>
        <time>2015-03-15T14:55:43Z</time>
      </trkpt>
      <trkpt lat="40.264433" lon="-4.584317">
        <ele>902.0</ele>
        <time>2015-03-15T14:55:45Z</time>
      </trkpt>
      <trkpt lat="40.264400" lon="-4.584167">
        <ele>898.0</ele>
        <time>2015-03-15T14:55:47Z</time>
      </trkpt>
      <trkpt lat="40.264317" lon="-4.584000">
        <ele>895.0</ele>
        <time>2015-03-15T14:55:49Z</time>
      </trkpt>
      <trkpt lat="40.264217" lon="-4.583850">
        <ele>893.0</ele>
        <time>2015-03-15T14:55:51Z</time>
      </trkpt>
      <trkpt lat="40.264133" lon="-4.583683">
        <ele>892.0</ele>
        <time>2015-03-15T14:55:53Z</time>
      </trkpt>
      <trkpt lat="40.264033" lon="-4.583550">
        <ele>891.0</ele>
        <time>2015-03-15T14:55:55Z</time>
      </trkpt>
      <trkpt lat="40.263917" lon="-4.583400">
        <ele>888.0</ele>
        <time>2015-03-15T14:55:57Z</time>
      </trkpt>
      <trkpt lat="40.263850" lon="-4.583267">
        <ele>886.0</ele>
        <time>2015-03-15T14:55:59Z</time>
      </trkpt>
      <trkpt lat="40.263817" lon="-4.583183">
        <ele>883.0</ele>
        <time>2015-03-15T14:56:01Z</time>
      </trkpt>
      <trkpt lat="40.263750" lon="-4.583050">
        <ele>878.0</ele>
        <time>2015-03-15T14:56:03Z</time>
      </trkpt>
      <trkpt lat="40.263700" lon="-4.582883">
        <ele>872.0</ele>
        <time>2015-03-15T14:56:05Z</time>
      </trkpt>
      <trkpt lat="40.263633" lon="-4.582750">
        <ele>868.0</ele>
        <time>2015-03-15T14:56:07Z</time>
      </trkpt>
      <trkpt lat="40.263583" lon="-4.582617">
        <ele>863.0</ele>
        <time>2015-03-15T14:56:09Z</time>
      </trkpt>
      <trkpt lat="40.263617" lon="-4.582483">
        <ele>856.0</ele>
        <time>2015-03-15T14:56:11Z</time>
      </trkpt>
      <trkpt lat="40.263633" lon="-4.582367">
        <ele>853.0</ele>
        <time>2015-03-15T14:56:13Z</time>
      </trkpt>
      <trkpt lat="40.263633" lon="-4.582233">
        <ele>848.0</ele>
        <time>2015-03-15T14:56:15Z</time>
      </trkpt>
      <trkpt lat="40.263683" lon="-4.582100">
        <ele>843.0</ele>
        <time>2015-03-15T14:56:17Z</time>
      </trkpt>
      <trkpt lat="40.263733" lon="-4.581950">
        <ele>842.0</ele>
        <time>2015-03-15T14:56:19Z</time>
      </trkpt>
      <trkpt lat="40.263767" lon="-4.581833">
        <ele>843.0</ele>
        <time>2015-03-15T14:56:21Z</time>
      </trkpt>
      <trkpt lat="40.263817" lon="-4.581717">
        <ele>843.0</ele>
        <time>2015-03-15T14:56:23Z</time>
      </trkpt>
      <trkpt lat="40.263833" lon="-4.581583">
        <ele>843.0</ele>
        <time>2015-03-15T14:56:25Z</time>
      </trkpt>
      <trkpt lat="40.263867" lon="-4.581450">
        <ele>843.0</ele>
        <time>2015-03-15T14:56:27Z</time>
      </trkpt>
      <trkpt lat="40.263900" lon="-4.581333">
        <ele>843.0</ele>
        <time>2015-03-15T14:56:29Z</time>
      </trkpt>
      <trkpt lat="40.263917" lon="-4.581200">
        <ele>844.0</ele>
        <time>2015-03-15T14:56:31Z</time>
      </trkpt>
      <trkpt lat="40.263933" lon="-4.581117">
        <ele>846.0</ele>
        <time>2015-03-15T14:56:33Z</time>
      </trkpt>
      <trkpt lat="40.263950" lon="-4.581017">
        <ele>844.0</ele>
        <time>2015-03-15T14:56:35Z</time>
      </trkpt>
      <trkpt lat="40.263967" lon="-4.580917">
        <ele>842.0</ele>
        <time>2015-03-15T14:56:37Z</time>
      </trkpt>
      <trkpt lat="40.263983" lon="-4.580817">
        <ele>840.0</ele>
        <time>2015-03-15T14:56:39Z</time>
      </trkpt>
      <trkpt lat="40.264017" lon="-4.580717">
        <ele>839.0</ele>
        <time>2015-03-15T14:56:41Z</time>
      </trkpt>
      <trkpt lat="40.264050" lon="-4.580633">
        <ele>836.0</ele>
        <time>2015-03-15T14:56:43Z</time>
      </trkpt>
      <trkpt lat="40.264083" lon="-4.580567">
        <ele>835.0</ele>
        <time>2015-03-15T14:56:45Z</time>
      </trkpt>
      <trkpt lat="40.264100" lon="-4.580483">
        <ele>833.0</ele>
        <time>2015-03-15T14:56:47Z</time>
      </trkpt>
      <trkpt lat="40.264150" lon="-4.580400">
        <ele>831.0</ele>
        <time>2015-03-15T14:56:49Z</time>
      </trkpt>
      <trkpt lat="40.264200" lon="-4.580333">
        <ele>827.0</ele>
        <time>2015-03-15T14:56:51Z</time>
      </trkpt>
      <trkpt lat="40.264233" lon="-4.580233">
        <ele>826.0</ele>
        <time>2015-03-15T14:56:53Z</time>
      </trkpt>
      <trkpt lat="40.264250" lon="-4.580167">
        <ele>825.0</ele>
        <time>2015-03-15T14:56:55Z</time>
      </trkpt>
      <trkpt lat="40.264283" lon="-4.580067">
        <ele>819.0</ele>
        <time>2015-03-15T14:56:57Z</time>
      </trkpt>
      <trkpt lat="40.264333" lon="-4.579917">
        <ele>817.0</ele>
        <time>2015-03-15T14:56:59Z</time>
      </trkpt>
      <trkpt lat="40.264350" lon="-4.579817">
        <ele>818.0</ele>
        <time>2015-03-15T14:57:01Z</time>
      </trkpt>
      <trkpt lat="40.264350" lon="-4.579733">
        <ele>814.0</ele>
        <time>2015-03-15T14:57:03Z</time>
      </trkpt>
      <trkpt lat="40.264367" lon="-4.579650">
        <ele>806.0</ele>
        <time>2015-03-15T14:57:05Z</time>
      </trkpt>
      <trkpt lat="40.264417" lon="-4.579533">
        <ele>799.0</ele>
        <time>2015-03-15T14:57:07Z</time>
      </trkpt>
      <trkpt lat="40.264433" lon="-4.579417">
        <ele>796.0</ele>
        <time>2015-03-15T14:57:09Z</time>
      </trkpt>
      <trkpt lat="40.264467" lon="-4.579333">
        <ele>792.0</ele>
        <time>2015-03-15T14:57:11Z</time>
      </trkpt>
      <trkpt lat="40.264483" lon="-4.579217">
        <ele>787.0</ele>
        <time>2015-03-15T14:57:13Z</time>
      </trkpt>
      <trkpt lat="40.264533" lon="-4.579117">
        <ele>782.0</ele>
        <time>2015-03-15T14:57:15Z</time>
      </trkpt>
      <trkpt lat="40.264567" lon="-4.579017">
        <ele>779.0</ele>
        <time>2015-03-15T14:57:17Z</time>
      </trkpt>
      <trkpt lat="40.264600" lon="-4.578900">
        <ele>774.0</ele>
        <time>2015-03-15T14:57:19Z</time>
      </trkpt>
      <trkpt lat="40.264633" lon="-4.578783">
        <ele>771.0</ele>
        <time>2015-03-15T14:57:21Z</time>
      </trkpt>
      <trkpt lat="40.264667" lon="-4.578683">
        <ele>767.0</ele>
        <time>2015-03-15T14:57:23Z</time>
      </trkpt>
      <trkpt lat="40.264717" lon="-4.578583">
        <ele>764.0</ele>
        <time>2015-03-15T14:57:25Z</time>
      </trkpt>
      <trkpt lat="40.264783" lon="-4.578517">
        <ele>763.0</ele>
        <time>2015-03-15T14:57:27Z</time>
      </trkpt>
      <trkpt lat="40.264800" lon="-4.578450">
        <ele>760.0</ele>
        <time>2015-03-15T14:57:29Z</time>
      </trkpt>
      <trkpt lat="40.264850" lon="-4.578367">
        <ele>756.0</ele>
        <time>2015-03-15T14:57:31Z</time>
      </trkpt>
      <trkpt lat="40.264883" lon="-4.578267">
        <ele>753.0</ele>
        <time>2015-03-15T14:57:33Z</time>
      </trkpt>
      <trkpt lat="40.264883" lon="-4.578167">
        <ele>749.0</ele>
        <time>2015-03-15T14:57:35Z</time>
      </trkpt>
      <trkpt lat="40.264900" lon="-4.578067">
        <ele>745.0</ele>
        <time>2015-03-15T14:57:37Z</time>
      </trkpt>
      <trkpt lat="40.264917" lon="-4.577950">
        <ele>743.0</ele>
        <time>2015-03-15T14:57:39Z</time>
      </trkpt>
      <trkpt lat="40.264933" lon="-4.577883">
        <ele>740.0</ele>
        <time>2015-03-15T14:57:41Z</time>
      </trkpt>
      <trkpt lat="40.264967" lon="-4.577800">
        <ele>736.0</ele>
        <time>2015-03-15T14:57:43Z</time>
      </trkpt>
      <trkpt lat="40.265000" lon="-4.577717">
        <ele>733.0</ele>
        <time>2015-03-15T14:57:45Z</time>
      </trkpt>
      <trkpt lat="40.265017" lon="-4.577650">
        <ele>731.0</ele>
        <time>2015-03-15T14:57:47Z</time>
      </trkpt>
      <trkpt lat="40.265050" lon="-4.577600">
        <ele>729.0</ele>
        <time>2015-03-15T14:57:49Z</time>
      </trkpt>
      <trkpt lat="40.265083" lon="-4.577533">
        <ele>726.0</ele>
        <time>2015-03-15T14:57:51Z</time>
      </trkpt>
      <trkpt lat="40.265117" lon="-4.577500">
        <ele>725.0</ele>
        <time>2015-03-15T14:57:53Z</time>
      </trkpt>
      <trkpt lat="40.265117" lon="-4.577483">
        <ele>725.0</ele>
        <time>2015-03-15T14:57:55Z</time>
      </trkpt>
      <trkpt lat="40.265117" lon="-4.577450">
        <ele>724.0</ele>
        <time>2015-03-15T14:57:57Z</time>
      </trkpt>
      <trkpt lat="40.265150" lon="-4.577433">
        <ele>720.0</ele>
        <time>2015-03-15T14:57:59Z</time>
      </trkpt>
      <trkpt lat="40.265217" lon="-4.577500">
        <ele>717.0</ele>
        <time>2015-03-15T14:58:01Z</time>
      </trkpt>
      <trkpt lat="40.265283" lon="-4.577567">
        <ele>714.0</ele>
        <time>2015-03-15T14:58:03Z</time>
      </trkpt>
      <trkpt lat="40.265333" lon="-4.577600">
        <ele>710.0</ele>
        <time>2015-03-15T14:58:05Z</time>
      </trkpt>
      <trkpt lat="40.265383" lon="-4.577600">
        <ele>707.0</ele>
        <time>2015-03-15T14:58:07Z</time>
      </trkpt>
      <trkpt lat="40.265433" lon="-4.577600">
        <ele>703.0</ele>
        <time>2015-03-15T14:58:09Z</time>
      </trkpt>
      <trkpt lat="40.265483" lon="-4.577617">
        <ele>701.0</ele>
        <time>2015-03-15T14:58:11Z</time>
      </trkpt>
      <trkpt lat="40.265517" lon="-4.577633">
        <ele>699.0</ele>
        <time>2015-03-15T14:58:13Z</time>
      </trkpt>
      <trkpt lat="40.265583" lon="-4.577633">
        <ele>696.0</ele>
        <time>2015-03-15T14:58:15Z</time>
      </trkpt>
      <trkpt lat="40.265650" lon="-4.577633">
        <ele>695.0</ele>
        <time>2015-03-15T14:58:17Z</time>
      </trkpt>
      <trkpt lat="40.265650" lon="-4.577617">
        <ele>695.0</ele>
        <time>2015-03-15T14:58:19Z</time>
      </trkpt>
      <trkpt lat="40.265733" lon="-4.577617">
        <ele>691.0</ele>
        <time>2015-03-15T14:58:22Z</time>
      </trkpt>
      <trkpt lat="40.265883" lon="-4.577650">
        <ele>689.0</ele>
        <time>2015-03-15T14:58:24Z</time>
      </trkpt>
      <trkpt lat="40.265917" lon="-4.577733">
        <ele>694.0</ele>
        <time>2015-03-15T14:58:26Z</time>
      </trkpt>
      <trkpt lat="40.265967" lon="-4.577800">
        <ele>690.0</ele>
        <time>2015-03-15T14:58:28Z</time>
      </trkpt>
      <trkpt lat="40.266050" lon="-4.577800">
        <ele>684.0</ele>
        <time>2015-03-15T14:58:30Z</time>
      </trkpt>
      <trkpt lat="40.266100" lon="-4.577750">
        <ele>683.0</ele>
        <time>2015-03-15T14:58:32Z</time>
      </trkpt>
      <trkpt lat="40.266117" lon="-4.577750">
        <ele>681.0</ele>
        <time>2015-03-15T14:58:34Z</time>
      </trkpt>
      <trkpt lat="40.266167" lon="-4.577717">
        <ele>678.0</ele>
        <time>2015-03-15T14:58:36Z</time>
      </trkpt>
      <trkpt lat="40.266167" lon="-4.577667">
        <ele>674.0</ele>
        <time>2015-03-15T14:58:38Z</time>
      </trkpt>
      <trkpt lat="40.266183" lon="-4.577617">
        <ele>672.0</ele>
        <time>2015-03-15T14:58:40Z</time>
      </trkpt>
      <trkpt lat="40.266217" lon="-4.577600">
        <ele>668.0</ele>
        <time>2015-03-15T14:58:42Z</time>
      </trkpt>
      <trkpt lat="40.266267" lon="-4.577550">
        <ele>663.0</ele>
        <time>2015-03-15T14:58:44Z</time>
      </trkpt>
      <trkpt lat="40.266300" lon="-4.577483">
        <ele>659.0</ele>
        <time>2015-03-15T14:58:46Z</time>
      </trkpt>
      <trkpt lat="40.266367" lon="-4.577417">
        <ele>653.0</ele>
        <time>2015-03-15T14:58:48Z</time>
      </trkpt>
      <trkpt lat="40.266417" lon="-4.577367">
        <ele>650.0</ele>
        <time>2015-03-15T14:58:50Z</time>
      </trkpt>
      <trkpt lat="40.266467" lon="-4.577333">
        <ele>647.0</ele>
        <time>2015-03-15T14:58:52Z</time>
      </trkpt>
      <trkpt lat="40.266483" lon="-4.577267">
        <ele>644.0</ele>
        <time>2015-03-15T14:58:54Z</time>
      </trkpt>
      <trkpt lat="40.266483" lon="-4.577250">
        <ele>642.0</ele>
        <time>2015-03-15T14:58:56Z</time>
      </trkpt>
      <trkpt lat="40.266467" lon="-4.577250">
        <ele>642.0</ele>
        <time>2015-03-15T14:58:58Z</time>
      </trkpt>
      <trkpt lat="40.266467" lon="-4.577267">
        <ele>641.0</ele>
        <time>2015-03-15T14:59:00Z</time>
      </trkpt>
      <trkpt lat="40.266467" lon="-4.577267">
        <ele>641.0</ele>
        <time>2015-03-15T14:59:02Z</time>
      </trkpt>
      <trkpt lat="40.266467" lon="-4.577267">
        <ele>641.0</ele>
        <time>2015-03-15T14:59:04Z</time>
      </trkpt>
      <trkpt lat="40.266467" lon="-4.577267">
        <ele>641.0</ele>
        <time>2015-03-15T14:59:06Z</time>
      </trkpt>
      <trkpt lat="40.266467" lon="-4.577267">
        <ele>641.0</ele>
        <time>2015-03-15T14:59:08Z</time>
      </trkpt>
      <trkpt lat="40.266467" lon="-4.577267">
        <ele>640.0</ele>
        <time>2015-03-15T14:59:10Z</time>
      </trkpt>
      <trkpt lat="40.266467" lon="-4.577267">
        <ele>640.0</ele>
        <time>2015-03-15T14:59:12Z</time>
      </trkpt>
      <trkpt lat="40.266467" lon="-4.577267">
        <ele>640.0</ele>
        <time>2015-03-15T14:59:14Z</time>
      </trkpt>
      <trkpt lat="40.266467" lon="-4.577267">
        <ele>640.0</ele>
        <time>2015-03-15T14:59:16Z</time>
      </trkpt>
      <trkpt lat="40.266467" lon="-4.577267">
        <ele>640.0</ele>
        <time>2015-03-15T14:59:18Z</time>
      </trkpt>
      <trkpt lat="40.266467" lon="-4.577250">
        <ele>640.0</ele>
        <time>2015-03-15T14:59:20Z</time>
      </trkpt>
      <trkpt lat="40.266467" lon="-4.577267">
        <ele>640.0</ele>
        <time>2015-03-15T14:59:22Z</time>
      </trkpt>
      <trkpt lat="40.266467" lon="-4.577267">
        <ele>640.0</ele>
        <time>2015-03-15T14:59:24Z</time>
      </trkpt>
      <trkpt lat="40.266450" lon="-4.577267">
        <ele>640.0</ele>
        <time>2015-03-15T14:59:26Z</time>
      </trkpt>
      <trkpt lat="40.266450" lon="-4.577267">
        <ele>640.0</ele>
        <time>2015-03-15T14:59:28Z</time>
      </trkpt>
      <trkpt lat="40.266450" lon="-4.577267">
        <ele>640.0</ele>
        <time>2015-03-15T14:59:30Z</time>
      </trkpt>
      <trkpt lat="40.266450" lon="-4.577267">
        <ele>640.0</ele>
        <time>2015-03-15T14:59:32Z</time>
      </trkpt>
      <trkpt lat="40.266450" lon="-4.577267">
        <ele>640.0</ele>
        <time>2015-03-15T14:59:34Z</time>
      </trkpt>
      <trkpt lat="40.266450" lon="-4.577267">
        <ele>641.0</ele>
        <time>2015-03-15T14:59:36Z</time>
      </trkpt>
    </trkseg>
  </trk>
</gpx>
